<?xml version="1.0" encoding="UTF-8" standalone="no" ?>
<gpx xmlns="http://www.topografix.com/GPX/1/1" xmlns:xsi="http://www.w3.org/2001/XMLSchema-instance" xsi:schemaLocation="http://www.topografix.com/GPX/1/1 http://www.topografix.com/GPX/1/1/gpx.xsd" version="1.1" creator="VisuGPX - https://www.visugpx.com">
  <metadata>
    <name>131019ROBOleoClapierJugeGueiletCarnier</name>
    <desc><![CDATA[25km et 500m de dénivelé]]></desc>
  </metadata>
  <trk>
    <name><![CDATA[131019ROBOleoClapierJugeGueiletCarnier]]></name>
    <cmt><![CDATA[Montée de la Mort cause erreur de parcours]]></cmt>
    <trkseg>
      <trkpt lat="43.40409" lon="6.06539">
        <ele>149.80000305176</ele>
        <time>2013-10-19T12:03:07Z</time>
      </trkpt>
      <trkpt lat="43.40409" lon="6.06539">
        <ele>149.80000305176</ele>
        <time>2013-10-19T12:03:08Z</time>
      </trkpt>
      <trkpt lat="43.40408" lon="6.06537">
        <ele>149.80000305176</ele>
        <time>2013-10-19T12:03:11Z</time>
      </trkpt>
      <trkpt lat="43.40406" lon="6.06536">
        <ele>152.39999389648</ele>
        <time>2013-10-19T12:03:12Z</time>
      </trkpt>
      <trkpt lat="43.40405" lon="6.06536">
        <ele>156.60000610352</ele>
        <time>2013-10-19T12:03:13Z</time>
      </trkpt>
      <trkpt lat="43.40403" lon="6.06534">
        <ele>158.60000610352</ele>
        <time>2013-10-19T12:03:14Z</time>
      </trkpt>
      <trkpt lat="43.40403" lon="6.06522">
        <ele>158.60000610352</ele>
        <time>2013-10-19T12:03:18Z</time>
      </trkpt>
      <trkpt lat="43.40404" lon="6.06519">
        <ele>158.60000610352</ele>
        <time>2013-10-19T12:03:19Z</time>
      </trkpt>
      <trkpt lat="43.40406" lon="6.06502">
        <ele>158.60000610352</ele>
        <time>2013-10-19T12:03:24Z</time>
      </trkpt>
      <trkpt lat="43.40409" lon="6.06483">
        <ele>158.60000610352</ele>
        <time>2013-10-19T12:03:30Z</time>
      </trkpt>
      <trkpt lat="43.40419" lon="6.06478">
        <ele>158.60000610352</ele>
        <time>2013-10-19T12:03:34Z</time>
      </trkpt>
      <trkpt lat="43.40432" lon="6.06481">
        <ele>158.60000610352</ele>
        <time>2013-10-19T12:03:38Z</time>
      </trkpt>
      <trkpt lat="43.40456" lon="6.06488">
        <ele>158.60000610352</ele>
        <time>2013-10-19T12:03:44Z</time>
      </trkpt>
      <trkpt lat="43.40484" lon="6.06497">
        <ele>156.60000610352</ele>
        <time>2013-10-19T12:03:50Z</time>
      </trkpt>
      <trkpt lat="43.4049" lon="6.065">
        <ele>150.39999389648</ele>
        <time>2013-10-19T12:03:53Z</time>
      </trkpt>
      <trkpt lat="43.40496" lon="6.06503">
        <ele>148.19999694824</ele>
        <time>2013-10-19T12:03:55Z</time>
      </trkpt>
      <trkpt lat="43.40502" lon="6.06506">
        <ele>148.19999694824</ele>
        <time>2013-10-19T12:03:58Z</time>
      </trkpt>
      <trkpt lat="43.40518" lon="6.06512">
        <ele>147.80000305176</ele>
        <time>2013-10-19T12:04:02Z</time>
      </trkpt>
      <trkpt lat="43.40523" lon="6.06513">
        <ele>147.39999389648</ele>
        <time>2013-10-19T12:04:03Z</time>
      </trkpt>
      <trkpt lat="43.40528" lon="6.06514">
        <ele>147</ele>
        <time>2013-10-19T12:04:04Z</time>
      </trkpt>
      <trkpt lat="43.40532" lon="6.06515">
        <ele>146.60000610352</ele>
        <time>2013-10-19T12:04:05Z</time>
      </trkpt>
      <trkpt lat="43.40535" lon="6.06515">
        <ele>146.19999694824</ele>
        <time>2013-10-19T12:04:06Z</time>
      </trkpt>
      <trkpt lat="43.40539" lon="6.06515">
        <ele>146.19999694824</ele>
        <time>2013-10-19T12:04:07Z</time>
      </trkpt>
      <trkpt lat="43.40548" lon="6.06519">
        <ele>146.19999694824</ele>
        <time>2013-10-19T12:04:09Z</time>
      </trkpt>
      <trkpt lat="43.40559" lon="6.06523">
        <ele>146.19999694824</ele>
        <time>2013-10-19T12:04:11Z</time>
      </trkpt>
      <trkpt lat="43.40576" lon="6.06528">
        <ele>146.19999694824</ele>
        <time>2013-10-19T12:04:14Z</time>
      </trkpt>
      <trkpt lat="43.40588" lon="6.06531">
        <ele>146.19999694824</ele>
        <time>2013-10-19T12:04:16Z</time>
      </trkpt>
      <trkpt lat="43.406" lon="6.06534">
        <ele>145.80000305176</ele>
        <time>2013-10-19T12:04:18Z</time>
      </trkpt>
      <trkpt lat="43.40604" lon="6.06535">
        <ele>145.39999389648</ele>
        <time>2013-10-19T12:04:19Z</time>
      </trkpt>
      <trkpt lat="43.40605" lon="6.06536">
        <ele>145</ele>
        <time>2013-10-19T12:04:20Z</time>
      </trkpt>
      <trkpt lat="43.40606" lon="6.06537">
        <ele>144.60000610352</ele>
        <time>2013-10-19T12:04:21Z</time>
      </trkpt>
      <trkpt lat="43.40609" lon="6.06538">
        <ele>144</ele>
        <time>2013-10-19T12:04:24Z</time>
      </trkpt>
      <trkpt lat="43.40611" lon="6.06538">
        <ele>143.60000610352</ele>
        <time>2013-10-19T12:04:25Z</time>
      </trkpt>
      <trkpt lat="43.40612" lon="6.06538">
        <ele>143.19999694824</ele>
        <time>2013-10-19T12:04:26Z</time>
      </trkpt>
      <trkpt lat="43.40615" lon="6.06536">
        <ele>142.39999389648</ele>
        <time>2013-10-19T12:04:27Z</time>
      </trkpt>
      <trkpt lat="43.40618" lon="6.06533">
        <ele>142</ele>
        <time>2013-10-19T12:04:28Z</time>
      </trkpt>
      <trkpt lat="43.40623" lon="6.06523">
        <ele>142</ele>
        <time>2013-10-19T12:04:30Z</time>
      </trkpt>
      <trkpt lat="43.40632" lon="6.06505">
        <ele>142</ele>
        <time>2013-10-19T12:04:33Z</time>
      </trkpt>
      <trkpt lat="43.40639" lon="6.06493">
        <ele>142</ele>
        <time>2013-10-19T12:04:35Z</time>
      </trkpt>
      <trkpt lat="43.40644" lon="6.06487">
        <ele>142</ele>
        <time>2013-10-19T12:04:36Z</time>
      </trkpt>
      <trkpt lat="43.40649" lon="6.06481">
        <ele>141.39999389648</ele>
        <time>2013-10-19T12:04:37Z</time>
      </trkpt>
      <trkpt lat="43.40656" lon="6.06475">
        <ele>141</ele>
        <time>2013-10-19T12:04:38Z</time>
      </trkpt>
      <trkpt lat="43.40662" lon="6.06468">
        <ele>140.60000610352</ele>
        <time>2013-10-19T12:04:39Z</time>
      </trkpt>
      <trkpt lat="43.40667" lon="6.06461">
        <ele>140.19999694824</ele>
        <time>2013-10-19T12:04:40Z</time>
      </trkpt>
      <trkpt lat="43.40674" lon="6.06455">
        <ele>139.60000610352</ele>
        <time>2013-10-19T12:04:41Z</time>
      </trkpt>
      <trkpt lat="43.40681" lon="6.06448">
        <ele>139.19999694824</ele>
        <time>2013-10-19T12:04:42Z</time>
      </trkpt>
      <trkpt lat="43.40688" lon="6.06442">
        <ele>138.80000305176</ele>
        <time>2013-10-19T12:04:43Z</time>
      </trkpt>
      <trkpt lat="43.40696" lon="6.06437">
        <ele>138.19999694824</ele>
        <time>2013-10-19T12:04:44Z</time>
      </trkpt>
      <trkpt lat="43.40705" lon="6.06433">
        <ele>137.80000305176</ele>
        <time>2013-10-19T12:04:45Z</time>
      </trkpt>
      <trkpt lat="43.40714" lon="6.0643">
        <ele>137.39999389648</ele>
        <time>2013-10-19T12:04:46Z</time>
      </trkpt>
      <trkpt lat="43.40741" lon="6.06427">
        <ele>136</ele>
        <time>2013-10-19T12:04:49Z</time>
      </trkpt>
      <trkpt lat="43.40751" lon="6.06425">
        <ele>135.60000610352</ele>
        <time>2013-10-19T12:04:50Z</time>
      </trkpt>
      <trkpt lat="43.4076" lon="6.06424">
        <ele>135.19999694824</ele>
        <time>2013-10-19T12:04:51Z</time>
      </trkpt>
      <trkpt lat="43.40783" lon="6.06416">
        <ele>135.19999694824</ele>
        <time>2013-10-19T12:04:54Z</time>
      </trkpt>
      <trkpt lat="43.40797" lon="6.06412">
        <ele>134.39999389648</ele>
        <time>2013-10-19T12:04:56Z</time>
      </trkpt>
      <trkpt lat="43.40817" lon="6.0642">
        <ele>133</ele>
        <time>2013-10-19T12:04:59Z</time>
      </trkpt>
      <trkpt lat="43.40824" lon="6.06421">
        <ele>133</ele>
        <time>2013-10-19T12:05:00Z</time>
      </trkpt>
      <trkpt lat="43.40838" lon="6.06418">
        <ele>133</ele>
        <time>2013-10-19T12:05:02Z</time>
      </trkpt>
      <trkpt lat="43.40851" lon="6.06411">
        <ele>133</ele>
        <time>2013-10-19T12:05:04Z</time>
      </trkpt>
      <trkpt lat="43.4087" lon="6.06395">
        <ele>133</ele>
        <time>2013-10-19T12:05:07Z</time>
      </trkpt>
      <trkpt lat="43.40875" lon="6.06388">
        <ele>133</ele>
        <time>2013-10-19T12:05:08Z</time>
      </trkpt>
      <trkpt lat="43.40886" lon="6.06374">
        <ele>133</ele>
        <time>2013-10-19T12:05:10Z</time>
      </trkpt>
      <trkpt lat="43.40891" lon="6.06367">
        <ele>133</ele>
        <time>2013-10-19T12:05:11Z</time>
      </trkpt>
      <trkpt lat="43.40902" lon="6.06355">
        <ele>133</ele>
        <time>2013-10-19T12:05:13Z</time>
      </trkpt>
      <trkpt lat="43.40912" lon="6.06342">
        <ele>133</ele>
        <time>2013-10-19T12:05:15Z</time>
      </trkpt>
      <trkpt lat="43.40917" lon="6.06335">
        <ele>133</ele>
        <time>2013-10-19T12:05:16Z</time>
      </trkpt>
      <trkpt lat="43.40936" lon="6.06311">
        <ele>133</ele>
        <time>2013-10-19T12:05:21Z</time>
      </trkpt>
      <trkpt lat="43.40952" lon="6.06296">
        <ele>133</ele>
        <time>2013-10-19T12:05:25Z</time>
      </trkpt>
      <trkpt lat="43.40961" lon="6.0629">
        <ele>133</ele>
        <time>2013-10-19T12:05:27Z</time>
      </trkpt>
      <trkpt lat="43.40993" lon="6.06277">
        <ele>133</ele>
        <time>2013-10-19T12:05:33Z</time>
      </trkpt>
      <trkpt lat="43.41032" lon="6.06265">
        <ele>133</ele>
        <time>2013-10-19T12:05:40Z</time>
      </trkpt>
      <trkpt lat="43.41072" lon="6.06253">
        <ele>133</ele>
        <time>2013-10-19T12:05:48Z</time>
      </trkpt>
      <trkpt lat="43.41101" lon="6.06245">
        <ele>134</ele>
        <time>2013-10-19T12:05:53Z</time>
      </trkpt>
      <trkpt lat="43.41111" lon="6.06243">
        <ele>134.80000305176</ele>
        <time>2013-10-19T12:05:55Z</time>
      </trkpt>
      <trkpt lat="43.41116" lon="6.06241">
        <ele>135.19999694824</ele>
        <time>2013-10-19T12:05:56Z</time>
      </trkpt>
      <trkpt lat="43.4113" lon="6.06235">
        <ele>135.19999694824</ele>
        <time>2013-10-19T12:05:59Z</time>
      </trkpt>
      <trkpt lat="43.4117" lon="6.06219">
        <ele>135.19999694824</ele>
        <time>2013-10-19T12:06:07Z</time>
      </trkpt>
      <trkpt lat="43.41178" lon="6.06216">
        <ele>135.19999694824</ele>
        <time>2013-10-19T12:06:10Z</time>
      </trkpt>
      <trkpt lat="43.41179" lon="6.06216">
        <ele>135.19999694824</ele>
        <time>2013-10-19T12:06:11Z</time>
      </trkpt>
      <trkpt lat="43.41179" lon="6.06216">
        <ele>135.19999694824</ele>
        <time>2013-10-19T12:06:14Z</time>
      </trkpt>
      <trkpt lat="43.41179" lon="6.06216">
        <ele>135.19999694824</ele>
        <time>2013-10-19T12:06:16Z</time>
      </trkpt>
      <trkpt lat="43.41186" lon="6.06213">
        <ele>135.19999694824</ele>
        <time>2013-10-19T12:06:20Z</time>
      </trkpt>
      <trkpt lat="43.41202" lon="6.06209">
        <ele>135.19999694824</ele>
        <time>2013-10-19T12:06:25Z</time>
      </trkpt>
      <trkpt lat="43.41203" lon="6.06206">
        <ele>135.19999694824</ele>
        <time>2013-10-19T12:06:26Z</time>
      </trkpt>
      <trkpt lat="43.41204" lon="6.06197">
        <ele>135.19999694824</ele>
        <time>2013-10-19T12:06:28Z</time>
      </trkpt>
      <trkpt lat="43.41204" lon="6.06187">
        <ele>135.19999694824</ele>
        <time>2013-10-19T12:06:30Z</time>
      </trkpt>
      <trkpt lat="43.41202" lon="6.06169">
        <ele>135.19999694824</ele>
        <time>2013-10-19T12:06:33Z</time>
      </trkpt>
      <trkpt lat="43.41198" lon="6.0613">
        <ele>135.19999694824</ele>
        <time>2013-10-19T12:06:39Z</time>
      </trkpt>
      <trkpt lat="43.41202" lon="6.06118">
        <ele>135.19999694824</ele>
        <time>2013-10-19T12:06:41Z</time>
      </trkpt>
      <trkpt lat="43.41214" lon="6.06108">
        <ele>135.19999694824</ele>
        <time>2013-10-19T12:06:44Z</time>
      </trkpt>
      <trkpt lat="43.41222" lon="6.06104">
        <ele>135.60000610352</ele>
        <time>2013-10-19T12:06:46Z</time>
      </trkpt>
      <trkpt lat="43.4124" lon="6.06095">
        <ele>137.39999389648</ele>
        <time>2013-10-19T12:06:50Z</time>
      </trkpt>
      <trkpt lat="43.41257" lon="6.06087">
        <ele>137.39999389648</ele>
        <time>2013-10-19T12:06:54Z</time>
      </trkpt>
      <trkpt lat="43.41277" lon="6.06075">
        <ele>137.39999389648</ele>
        <time>2013-10-19T12:06:59Z</time>
      </trkpt>
      <trkpt lat="43.41281" lon="6.06072">
        <ele>137.80000305176</ele>
        <time>2013-10-19T12:07:00Z</time>
      </trkpt>
      <trkpt lat="43.41285" lon="6.0607">
        <ele>138.19999694824</ele>
        <time>2013-10-19T12:07:01Z</time>
      </trkpt>
      <trkpt lat="43.41288" lon="6.06068">
        <ele>138.60000610352</ele>
        <time>2013-10-19T12:07:02Z</time>
      </trkpt>
      <trkpt lat="43.41292" lon="6.06066">
        <ele>139</ele>
        <time>2013-10-19T12:07:03Z</time>
      </trkpt>
      <trkpt lat="43.41296" lon="6.06064">
        <ele>139.39999389648</ele>
        <time>2013-10-19T12:07:04Z</time>
      </trkpt>
      <trkpt lat="43.41299" lon="6.06063">
        <ele>139.39999389648</ele>
        <time>2013-10-19T12:07:05Z</time>
      </trkpt>
      <trkpt lat="43.41309" lon="6.06065">
        <ele>139.39999389648</ele>
        <time>2013-10-19T12:07:08Z</time>
      </trkpt>
      <trkpt lat="43.4131" lon="6.06066">
        <ele>139.39999389648</ele>
        <time>2013-10-19T12:07:09Z</time>
      </trkpt>
      <trkpt lat="43.41312" lon="6.06068">
        <ele>139.39999389648</ele>
        <time>2013-10-19T12:07:14Z</time>
      </trkpt>
      <trkpt lat="43.41313" lon="6.06069">
        <ele>139.39999389648</ele>
        <time>2013-10-19T12:07:19Z</time>
      </trkpt>
      <trkpt lat="43.41314" lon="6.06069">
        <ele>139.39999389648</ele>
        <time>2013-10-19T12:07:24Z</time>
      </trkpt>
      <trkpt lat="43.41314" lon="6.06069">
        <ele>139.39999389648</ele>
        <time>2013-10-19T12:07:58Z</time>
      </trkpt>
      <trkpt lat="43.41313" lon="6.06069">
        <ele>139.39999389648</ele>
        <time>2013-10-19T12:10:07Z</time>
      </trkpt>
      <trkpt lat="43.41313" lon="6.06069">
        <ele>139.39999389648</ele>
        <time>2013-10-19T12:10:33Z</time>
      </trkpt>
      <trkpt lat="43.41313" lon="6.06069">
        <ele>139.39999389648</ele>
        <time>2013-10-19T12:11:08Z</time>
      </trkpt>
      <trkpt lat="43.41313" lon="6.06068">
        <ele>139.39999389648</ele>
        <time>2013-10-19T12:13:05Z</time>
      </trkpt>
      <trkpt lat="43.41313" lon="6.06068">
        <ele>139.39999389648</ele>
        <time>2013-10-19T12:13:22Z</time>
      </trkpt>
      <trkpt lat="43.41313" lon="6.06068">
        <ele>139.39999389648</ele>
        <time>2013-10-19T12:13:27Z</time>
      </trkpt>
      <trkpt lat="43.41313" lon="6.06068">
        <ele>139.39999389648</ele>
        <time>2013-10-19T12:13:53Z</time>
      </trkpt>
      <trkpt lat="43.41313" lon="6.06068">
        <ele>139.39999389648</ele>
        <time>2013-10-19T12:16:09Z</time>
      </trkpt>
      <trkpt lat="43.41313" lon="6.06068">
        <ele>139.39999389648</ele>
        <time>2013-10-19T12:16:27Z</time>
      </trkpt>
      <trkpt lat="43.41313" lon="6.06068">
        <ele>139.39999389648</ele>
        <time>2013-10-19T12:16:36Z</time>
      </trkpt>
      <trkpt lat="43.41313" lon="6.06069">
        <ele>139.39999389648</ele>
        <time>2013-10-19T12:16:40Z</time>
      </trkpt>
      <trkpt lat="43.41314" lon="6.06069">
        <ele>139.39999389648</ele>
        <time>2013-10-19T12:16:48Z</time>
      </trkpt>
      <trkpt lat="43.41317" lon="6.06071">
        <ele>139.39999389648</ele>
        <time>2013-10-19T12:16:56Z</time>
      </trkpt>
      <trkpt lat="43.41321" lon="6.06073">
        <ele>139.39999389648</ele>
        <time>2013-10-19T12:16:59Z</time>
      </trkpt>
      <trkpt lat="43.41322" lon="6.06076">
        <ele>139.39999389648</ele>
        <time>2013-10-19T12:17:00Z</time>
      </trkpt>
      <trkpt lat="43.41323" lon="6.06078">
        <ele>139.39999389648</ele>
        <time>2013-10-19T12:17:01Z</time>
      </trkpt>
      <trkpt lat="43.4133" lon="6.06085">
        <ele>139.39999389648</ele>
        <time>2013-10-19T12:17:04Z</time>
      </trkpt>
      <trkpt lat="43.41338" lon="6.06093">
        <ele>139.39999389648</ele>
        <time>2013-10-19T12:17:07Z</time>
      </trkpt>
      <trkpt lat="43.41347" lon="6.06101">
        <ele>139.39999389648</ele>
        <time>2013-10-19T12:17:10Z</time>
      </trkpt>
      <trkpt lat="43.41355" lon="6.0611">
        <ele>139.80000305176</ele>
        <time>2013-10-19T12:17:13Z</time>
      </trkpt>
      <trkpt lat="43.41357" lon="6.06113">
        <ele>140.39999389648</ele>
        <time>2013-10-19T12:17:14Z</time>
      </trkpt>
      <trkpt lat="43.4136" lon="6.06116">
        <ele>140.80000305176</ele>
        <time>2013-10-19T12:17:15Z</time>
      </trkpt>
      <trkpt lat="43.41363" lon="6.06118">
        <ele>141.19999694824</ele>
        <time>2013-10-19T12:17:16Z</time>
      </trkpt>
      <trkpt lat="43.41365" lon="6.06121">
        <ele>141.60000610352</ele>
        <time>2013-10-19T12:17:17Z</time>
      </trkpt>
      <trkpt lat="43.41372" lon="6.06128">
        <ele>141.60000610352</ele>
        <time>2013-10-19T12:17:19Z</time>
      </trkpt>
      <trkpt lat="43.41382" lon="6.06141">
        <ele>142</ele>
        <time>2013-10-19T12:17:23Z</time>
      </trkpt>
      <trkpt lat="43.41391" lon="6.0615">
        <ele>143.80000305176</ele>
        <time>2013-10-19T12:17:27Z</time>
      </trkpt>
      <trkpt lat="43.41402" lon="6.06161">
        <ele>143.80000305176</ele>
        <time>2013-10-19T12:17:32Z</time>
      </trkpt>
      <trkpt lat="43.41422" lon="6.06171">
        <ele>144.19999694824</ele>
        <time>2013-10-19T12:17:38Z</time>
      </trkpt>
      <trkpt lat="43.4143" lon="6.06173">
        <ele>145</ele>
        <time>2013-10-19T12:17:40Z</time>
      </trkpt>
      <trkpt lat="43.41437" lon="6.06175">
        <ele>146</ele>
        <time>2013-10-19T12:17:42Z</time>
      </trkpt>
      <trkpt lat="43.41452" lon="6.0618">
        <ele>146</ele>
        <time>2013-10-19T12:17:46Z</time>
      </trkpt>
      <trkpt lat="43.4148" lon="6.06187">
        <ele>146</ele>
        <time>2013-10-19T12:17:54Z</time>
      </trkpt>
      <trkpt lat="43.41507" lon="6.06191">
        <ele>146</ele>
        <time>2013-10-19T12:18:01Z</time>
      </trkpt>
      <trkpt lat="43.41521" lon="6.06188">
        <ele>146.39999389648</ele>
        <time>2013-10-19T12:18:05Z</time>
      </trkpt>
      <trkpt lat="43.41528" lon="6.06186">
        <ele>147.39999389648</ele>
        <time>2013-10-19T12:18:07Z</time>
      </trkpt>
      <trkpt lat="43.41531" lon="6.06184">
        <ele>147.80000305176</ele>
        <time>2013-10-19T12:18:08Z</time>
      </trkpt>
      <trkpt lat="43.41534" lon="6.06183">
        <ele>148.19999694824</ele>
        <time>2013-10-19T12:18:09Z</time>
      </trkpt>
      <trkpt lat="43.41545" lon="6.06179">
        <ele>148.19999694824</ele>
        <time>2013-10-19T12:18:14Z</time>
      </trkpt>
      <trkpt lat="43.41558" lon="6.06171">
        <ele>148.19999694824</ele>
        <time>2013-10-19T12:18:19Z</time>
      </trkpt>
      <trkpt lat="43.41559" lon="6.06171">
        <ele>148.19999694824</ele>
        <time>2013-10-19T12:18:20Z</time>
      </trkpt>
      <trkpt lat="43.4156" lon="6.06172">
        <ele>148.60000610352</ele>
        <time>2013-10-19T12:18:21Z</time>
      </trkpt>
      <trkpt lat="43.41561" lon="6.06172">
        <ele>149</ele>
        <time>2013-10-19T12:18:22Z</time>
      </trkpt>
      <trkpt lat="43.41561" lon="6.06172">
        <ele>149.39999389648</ele>
        <time>2013-10-19T12:18:23Z</time>
      </trkpt>
      <trkpt lat="43.41561" lon="6.06172">
        <ele>149.80000305176</ele>
        <time>2013-10-19T12:18:24Z</time>
      </trkpt>
      <trkpt lat="43.41562" lon="6.06172">
        <ele>150.19999694824</ele>
        <time>2013-10-19T12:18:25Z</time>
      </trkpt>
      <trkpt lat="43.41567" lon="6.06175">
        <ele>150.19999694824</ele>
        <time>2013-10-19T12:18:28Z</time>
      </trkpt>
      <trkpt lat="43.41576" lon="6.06178">
        <ele>150.19999694824</ele>
        <time>2013-10-19T12:18:33Z</time>
      </trkpt>
      <trkpt lat="43.41584" lon="6.06176">
        <ele>150.19999694824</ele>
        <time>2013-10-19T12:18:38Z</time>
      </trkpt>
      <trkpt lat="43.41587" lon="6.06176">
        <ele>150.19999694824</ele>
        <time>2013-10-19T12:18:39Z</time>
      </trkpt>
      <trkpt lat="43.4159" lon="6.0618">
        <ele>150.19999694824</ele>
        <time>2013-10-19T12:18:41Z</time>
      </trkpt>
      <trkpt lat="43.41596" lon="6.06196">
        <ele>150.19999694824</ele>
        <time>2013-10-19T12:18:47Z</time>
      </trkpt>
      <trkpt lat="43.41598" lon="6.06196">
        <ele>150.19999694824</ele>
        <time>2013-10-19T12:18:48Z</time>
      </trkpt>
      <trkpt lat="43.41599" lon="6.06189">
        <ele>150.19999694824</ele>
        <time>2013-10-19T12:18:51Z</time>
      </trkpt>
      <trkpt lat="43.41601" lon="6.06171">
        <ele>150.19999694824</ele>
        <time>2013-10-19T12:18:55Z</time>
      </trkpt>
      <trkpt lat="43.41608" lon="6.06158">
        <ele>150.19999694824</ele>
        <time>2013-10-19T12:18:58Z</time>
      </trkpt>
      <trkpt lat="43.41628" lon="6.06128">
        <ele>150.19999694824</ele>
        <time>2013-10-19T12:19:07Z</time>
      </trkpt>
      <trkpt lat="43.4162" lon="6.06102">
        <ele>150.19999694824</ele>
        <time>2013-10-19T12:19:12Z</time>
      </trkpt>
      <trkpt lat="43.41618" lon="6.0609">
        <ele>150.19999694824</ele>
        <time>2013-10-19T12:19:14Z</time>
      </trkpt>
      <trkpt lat="43.41616" lon="6.06078">
        <ele>150.19999694824</ele>
        <time>2013-10-19T12:19:16Z</time>
      </trkpt>
      <trkpt lat="43.41617" lon="6.0606">
        <ele>150.19999694824</ele>
        <time>2013-10-19T12:19:19Z</time>
      </trkpt>
      <trkpt lat="43.41622" lon="6.06021">
        <ele>150.19999694824</ele>
        <time>2013-10-19T12:19:26Z</time>
      </trkpt>
      <trkpt lat="43.41625" lon="6.06004">
        <ele>150.19999694824</ele>
        <time>2013-10-19T12:19:29Z</time>
      </trkpt>
      <trkpt lat="43.4163" lon="6.05975">
        <ele>150.60000610352</ele>
        <time>2013-10-19T12:19:34Z</time>
      </trkpt>
      <trkpt lat="43.41632" lon="6.05963">
        <ele>151.39999389648</ele>
        <time>2013-10-19T12:19:36Z</time>
      </trkpt>
      <trkpt lat="43.4164" lon="6.05894">
        <ele>152.60000610352</ele>
        <time>2013-10-19T12:19:48Z</time>
      </trkpt>
      <trkpt lat="43.41642" lon="6.05882">
        <ele>153.39999389648</ele>
        <time>2013-10-19T12:19:50Z</time>
      </trkpt>
      <trkpt lat="43.41643" lon="6.05864">
        <ele>154.39999389648</ele>
        <time>2013-10-19T12:19:53Z</time>
      </trkpt>
      <trkpt lat="43.41646" lon="6.05797">
        <ele>154.39999389648</ele>
        <time>2013-10-19T12:20:05Z</time>
      </trkpt>
      <trkpt lat="43.41647" lon="6.05757">
        <ele>154.39999389648</ele>
        <time>2013-10-19T12:20:12Z</time>
      </trkpt>
      <trkpt lat="43.41647" lon="6.0573">
        <ele>154.39999389648</ele>
        <time>2013-10-19T12:20:17Z</time>
      </trkpt>
      <trkpt lat="43.41645" lon="6.05702">
        <ele>154.39999389648</ele>
        <time>2013-10-19T12:20:22Z</time>
      </trkpt>
      <trkpt lat="43.41644" lon="6.05679">
        <ele>154.39999389648</ele>
        <time>2013-10-19T12:20:26Z</time>
      </trkpt>
      <trkpt lat="43.41641" lon="6.05654">
        <ele>154.39999389648</ele>
        <time>2013-10-19T12:20:30Z</time>
      </trkpt>
      <trkpt lat="43.41637" lon="6.05621">
        <ele>154.39999389648</ele>
        <time>2013-10-19T12:20:35Z</time>
      </trkpt>
      <trkpt lat="43.41634" lon="6.05602">
        <ele>154.39999389648</ele>
        <time>2013-10-19T12:20:38Z</time>
      </trkpt>
      <trkpt lat="43.41624" lon="6.05548">
        <ele>154.39999389648</ele>
        <time>2013-10-19T12:20:46Z</time>
      </trkpt>
      <trkpt lat="43.41612" lon="6.055">
        <ele>154.39999389648</ele>
        <time>2013-10-19T12:20:53Z</time>
      </trkpt>
      <trkpt lat="43.41598" lon="6.05452">
        <ele>154.39999389648</ele>
        <time>2013-10-19T12:21:00Z</time>
      </trkpt>
      <trkpt lat="43.41583" lon="6.05406">
        <ele>154.39999389648</ele>
        <time>2013-10-19T12:21:07Z</time>
      </trkpt>
      <trkpt lat="43.41581" lon="6.05399">
        <ele>154.39999389648</ele>
        <time>2013-10-19T12:21:08Z</time>
      </trkpt>
      <trkpt lat="43.41563" lon="6.05352">
        <ele>154.39999389648</ele>
        <time>2013-10-19T12:21:15Z</time>
      </trkpt>
      <trkpt lat="43.41557" lon="6.05338">
        <ele>154.39999389648</ele>
        <time>2013-10-19T12:21:17Z</time>
      </trkpt>
      <trkpt lat="43.4154" lon="6.05279">
        <ele>152.19999694824</ele>
        <time>2013-10-19T12:21:25Z</time>
      </trkpt>
      <trkpt lat="43.41534" lon="6.05264">
        <ele>152.19999694824</ele>
        <time>2013-10-19T12:21:27Z</time>
      </trkpt>
      <trkpt lat="43.41514" lon="6.05219">
        <ele>152.19999694824</ele>
        <time>2013-10-19T12:21:33Z</time>
      </trkpt>
      <trkpt lat="43.415" lon="6.05189">
        <ele>151.80000305176</ele>
        <time>2013-10-19T12:21:37Z</time>
      </trkpt>
      <trkpt lat="43.41497" lon="6.05181">
        <ele>151.39999389648</ele>
        <time>2013-10-19T12:21:38Z</time>
      </trkpt>
      <trkpt lat="43.41496" lon="6.05173">
        <ele>151</ele>
        <time>2013-10-19T12:21:39Z</time>
      </trkpt>
      <trkpt lat="43.41496" lon="6.05167">
        <ele>150.60000610352</ele>
        <time>2013-10-19T12:21:40Z</time>
      </trkpt>
      <trkpt lat="43.41499" lon="6.05163">
        <ele>150.19999694824</ele>
        <time>2013-10-19T12:21:41Z</time>
      </trkpt>
      <trkpt lat="43.41512" lon="6.05158">
        <ele>150.19999694824</ele>
        <time>2013-10-19T12:21:45Z</time>
      </trkpt>
      <trkpt lat="43.41516" lon="6.05157">
        <ele>150.19999694824</ele>
        <time>2013-10-19T12:21:46Z</time>
      </trkpt>
      <trkpt lat="43.41529" lon="6.05155">
        <ele>150.19999694824</ele>
        <time>2013-10-19T12:21:49Z</time>
      </trkpt>
      <trkpt lat="43.41547" lon="6.05154">
        <ele>150.19999694824</ele>
        <time>2013-10-19T12:21:53Z</time>
      </trkpt>
      <trkpt lat="43.41562" lon="6.05156">
        <ele>150.19999694824</ele>
        <time>2013-10-19T12:21:57Z</time>
      </trkpt>
      <trkpt lat="43.41581" lon="6.0516">
        <ele>152.19999694824</ele>
        <time>2013-10-19T12:22:03Z</time>
      </trkpt>
      <trkpt lat="43.41591" lon="6.05162">
        <ele>152.19999694824</ele>
        <time>2013-10-19T12:22:06Z</time>
      </trkpt>
      <trkpt lat="43.416" lon="6.05163">
        <ele>152.60000610352</ele>
        <time>2013-10-19T12:22:09Z</time>
      </trkpt>
      <trkpt lat="43.41615" lon="6.05164">
        <ele>154.39999389648</ele>
        <time>2013-10-19T12:22:14Z</time>
      </trkpt>
      <trkpt lat="43.41638" lon="6.05166">
        <ele>154.80000305176</ele>
        <time>2013-10-19T12:22:22Z</time>
      </trkpt>
      <trkpt lat="43.41649" lon="6.05167">
        <ele>156.39999389648</ele>
        <time>2013-10-19T12:22:26Z</time>
      </trkpt>
      <trkpt lat="43.41657" lon="6.05167">
        <ele>156.39999389648</ele>
        <time>2013-10-19T12:22:29Z</time>
      </trkpt>
      <trkpt lat="43.41666" lon="6.05164">
        <ele>157</ele>
        <time>2013-10-19T12:22:32Z</time>
      </trkpt>
      <trkpt lat="43.41668" lon="6.05162">
        <ele>157.80000305176</ele>
        <time>2013-10-19T12:22:33Z</time>
      </trkpt>
      <trkpt lat="43.41673" lon="6.05158">
        <ele>158.60000610352</ele>
        <time>2013-10-19T12:22:35Z</time>
      </trkpt>
      <trkpt lat="43.41685" lon="6.05142">
        <ele>159.39999389648</ele>
        <time>2013-10-19T12:22:41Z</time>
      </trkpt>
      <trkpt lat="43.41689" lon="6.05137">
        <ele>160.19999694824</ele>
        <time>2013-10-19T12:22:43Z</time>
      </trkpt>
      <trkpt lat="43.41692" lon="6.05135">
        <ele>160.60000610352</ele>
        <time>2013-10-19T12:22:44Z</time>
      </trkpt>
      <trkpt lat="43.41702" lon="6.05125">
        <ele>160.60000610352</ele>
        <time>2013-10-19T12:22:48Z</time>
      </trkpt>
      <trkpt lat="43.41722" lon="6.05112">
        <ele>160.60000610352</ele>
        <time>2013-10-19T12:22:56Z</time>
      </trkpt>
      <trkpt lat="43.4173" lon="6.05108">
        <ele>162.19999694824</ele>
        <time>2013-10-19T12:22:59Z</time>
      </trkpt>
      <trkpt lat="43.41735" lon="6.05111">
        <ele>162.60000610352</ele>
        <time>2013-10-19T12:23:01Z</time>
      </trkpt>
      <trkpt lat="43.41736" lon="6.05138">
        <ele>164.60000610352</ele>
        <time>2013-10-19T12:23:08Z</time>
      </trkpt>
      <trkpt lat="43.41735" lon="6.05156">
        <ele>164.60000610352</ele>
        <time>2013-10-19T12:23:12Z</time>
      </trkpt>
      <trkpt lat="43.41742" lon="6.05174">
        <ele>164.60000610352</ele>
        <time>2013-10-19T12:23:17Z</time>
      </trkpt>
      <trkpt lat="43.41756" lon="6.0518">
        <ele>164.60000610352</ele>
        <time>2013-10-19T12:23:22Z</time>
      </trkpt>
      <trkpt lat="43.41777" lon="6.05181">
        <ele>165</ele>
        <time>2013-10-19T12:23:29Z</time>
      </trkpt>
      <trkpt lat="43.41801" lon="6.05183">
        <ele>166.80000305176</ele>
        <time>2013-10-19T12:23:38Z</time>
      </trkpt>
      <trkpt lat="43.41822" lon="6.05185">
        <ele>167.60000610352</ele>
        <time>2013-10-19T12:23:46Z</time>
      </trkpt>
      <trkpt lat="43.4184" lon="6.05184">
        <ele>168.80000305176</ele>
        <time>2013-10-19T12:23:53Z</time>
      </trkpt>
      <trkpt lat="43.41861" lon="6.05182">
        <ele>169.39999389648</ele>
        <time>2013-10-19T12:24:01Z</time>
      </trkpt>
      <trkpt lat="43.41864" lon="6.05181">
        <ele>169.80000305176</ele>
        <time>2013-10-19T12:24:02Z</time>
      </trkpt>
      <trkpt lat="43.41866" lon="6.0518">
        <ele>170.19999694824</ele>
        <time>2013-10-19T12:24:03Z</time>
      </trkpt>
      <trkpt lat="43.41871" lon="6.05178">
        <ele>171</ele>
        <time>2013-10-19T12:24:05Z</time>
      </trkpt>
      <trkpt lat="43.41879" lon="6.05175">
        <ele>171</ele>
        <time>2013-10-19T12:24:08Z</time>
      </trkpt>
      <trkpt lat="43.41887" lon="6.05171">
        <ele>171.39999389648</ele>
        <time>2013-10-19T12:24:13Z</time>
      </trkpt>
      <trkpt lat="43.41888" lon="6.0517">
        <ele>171.80000305176</ele>
        <time>2013-10-19T12:24:14Z</time>
      </trkpt>
      <trkpt lat="43.4189" lon="6.05168">
        <ele>172.19999694824</ele>
        <time>2013-10-19T12:24:15Z</time>
      </trkpt>
      <trkpt lat="43.41891" lon="6.05166">
        <ele>172.60000610352</ele>
        <time>2013-10-19T12:24:16Z</time>
      </trkpt>
      <trkpt lat="43.41893" lon="6.05164">
        <ele>173</ele>
        <time>2013-10-19T12:24:17Z</time>
      </trkpt>
      <trkpt lat="43.41899" lon="6.05154">
        <ele>173</ele>
        <time>2013-10-19T12:24:22Z</time>
      </trkpt>
      <trkpt lat="43.41909" lon="6.05157">
        <ele>173</ele>
        <time>2013-10-19T12:24:26Z</time>
      </trkpt>
      <trkpt lat="43.41922" lon="6.05147">
        <ele>174</ele>
        <time>2013-10-19T12:24:29Z</time>
      </trkpt>
      <trkpt lat="43.4193" lon="6.05145">
        <ele>174.80000305176</ele>
        <time>2013-10-19T12:24:31Z</time>
      </trkpt>
      <trkpt lat="43.41933" lon="6.05145">
        <ele>175.19999694824</ele>
        <time>2013-10-19T12:24:32Z</time>
      </trkpt>
      <trkpt lat="43.41941" lon="6.05145">
        <ele>175.19999694824</ele>
        <time>2013-10-19T12:24:34Z</time>
      </trkpt>
      <trkpt lat="43.41964" lon="6.05136">
        <ele>175.19999694824</ele>
        <time>2013-10-19T12:24:42Z</time>
      </trkpt>
      <trkpt lat="43.41972" lon="6.05133">
        <ele>176</ele>
        <time>2013-10-19T12:24:46Z</time>
      </trkpt>
      <trkpt lat="43.41981" lon="6.05132">
        <ele>177.19999694824</ele>
        <time>2013-10-19T12:24:49Z</time>
      </trkpt>
      <trkpt lat="43.41992" lon="6.0513">
        <ele>177.19999694824</ele>
        <time>2013-10-19T12:24:53Z</time>
      </trkpt>
      <trkpt lat="43.42009" lon="6.05125">
        <ele>177.19999694824</ele>
        <time>2013-10-19T12:25:00Z</time>
      </trkpt>
      <trkpt lat="43.42026" lon="6.0512">
        <ele>177.60000610352</ele>
        <time>2013-10-19T12:25:06Z</time>
      </trkpt>
      <trkpt lat="43.42028" lon="6.05119">
        <ele>178</ele>
        <time>2013-10-19T12:25:07Z</time>
      </trkpt>
      <trkpt lat="43.42036" lon="6.05117">
        <ele>179.19999694824</ele>
        <time>2013-10-19T12:25:10Z</time>
      </trkpt>
      <trkpt lat="43.42056" lon="6.05114">
        <ele>179.19999694824</ele>
        <time>2013-10-19T12:25:18Z</time>
      </trkpt>
      <trkpt lat="43.42076" lon="6.05113">
        <ele>179.19999694824</ele>
        <time>2013-10-19T12:25:26Z</time>
      </trkpt>
      <trkpt lat="43.42105" lon="6.05115">
        <ele>181.39999389648</ele>
        <time>2013-10-19T12:25:38Z</time>
      </trkpt>
      <trkpt lat="43.42117" lon="6.05115">
        <ele>181.39999389648</ele>
        <time>2013-10-19T12:25:43Z</time>
      </trkpt>
      <trkpt lat="43.42125" lon="6.05119">
        <ele>182.19999694824</ele>
        <time>2013-10-19T12:25:47Z</time>
      </trkpt>
      <trkpt lat="43.42126" lon="6.0512">
        <ele>182.60000610352</ele>
        <time>2013-10-19T12:25:48Z</time>
      </trkpt>
      <trkpt lat="43.42128" lon="6.05122">
        <ele>183</ele>
        <time>2013-10-19T12:25:49Z</time>
      </trkpt>
      <trkpt lat="43.42137" lon="6.05132">
        <ele>183.60000610352</ele>
        <time>2013-10-19T12:25:54Z</time>
      </trkpt>
      <trkpt lat="43.4215" lon="6.0515">
        <ele>183.60000610352</ele>
        <time>2013-10-19T12:26:01Z</time>
      </trkpt>
      <trkpt lat="43.42161" lon="6.05159">
        <ele>183.60000610352</ele>
        <time>2013-10-19T12:26:06Z</time>
      </trkpt>
      <trkpt lat="43.42168" lon="6.05163">
        <ele>184.39999389648</ele>
        <time>2013-10-19T12:26:09Z</time>
      </trkpt>
      <trkpt lat="43.4217" lon="6.05164">
        <ele>184.80000305176</ele>
        <time>2013-10-19T12:26:10Z</time>
      </trkpt>
      <trkpt lat="43.42173" lon="6.05166">
        <ele>185.19999694824</ele>
        <time>2013-10-19T12:26:11Z</time>
      </trkpt>
      <trkpt lat="43.42175" lon="6.05167">
        <ele>185.60000610352</ele>
        <time>2013-10-19T12:26:12Z</time>
      </trkpt>
      <trkpt lat="43.42188" lon="6.05167">
        <ele>185.60000610352</ele>
        <time>2013-10-19T12:26:17Z</time>
      </trkpt>
      <trkpt lat="43.42193" lon="6.05166">
        <ele>185.60000610352</ele>
        <time>2013-10-19T12:26:19Z</time>
      </trkpt>
      <trkpt lat="43.42195" lon="6.05166">
        <ele>185.60000610352</ele>
        <time>2013-10-19T12:26:21Z</time>
      </trkpt>
      <trkpt lat="43.42195" lon="6.05166">
        <ele>185.60000610352</ele>
        <time>2013-10-19T12:26:23Z</time>
      </trkpt>
      <trkpt lat="43.42195" lon="6.05166">
        <ele>185.60000610352</ele>
        <time>2013-10-19T12:26:27Z</time>
      </trkpt>
      <trkpt lat="43.42194" lon="6.05166">
        <ele>186</ele>
        <time>2013-10-19T12:26:31Z</time>
      </trkpt>
      <trkpt lat="43.42195" lon="6.05166">
        <ele>186.39999389648</ele>
        <time>2013-10-19T12:26:32Z</time>
      </trkpt>
      <trkpt lat="43.42196" lon="6.05166">
        <ele>187.19999694824</ele>
        <time>2013-10-19T12:26:34Z</time>
      </trkpt>
      <trkpt lat="43.42197" lon="6.05166">
        <ele>187.60000610352</ele>
        <time>2013-10-19T12:26:35Z</time>
      </trkpt>
      <trkpt lat="43.42197" lon="6.05166">
        <ele>187.60000610352</ele>
        <time>2013-10-19T12:26:44Z</time>
      </trkpt>
      <trkpt lat="43.42197" lon="6.05166">
        <ele>187.60000610352</ele>
        <time>2013-10-19T12:26:45Z</time>
      </trkpt>
      <trkpt lat="43.42199" lon="6.05169">
        <ele>187.60000610352</ele>
        <time>2013-10-19T12:26:48Z</time>
      </trkpt>
      <trkpt lat="43.42199" lon="6.05171">
        <ele>187.60000610352</ele>
        <time>2013-10-19T12:26:53Z</time>
      </trkpt>
      <trkpt lat="43.42199" lon="6.05171">
        <ele>187.60000610352</ele>
        <time>2013-10-19T12:27:08Z</time>
      </trkpt>
      <trkpt lat="43.42199" lon="6.05171">
        <ele>187.60000610352</ele>
        <time>2013-10-19T12:27:38Z</time>
      </trkpt>
      <trkpt lat="43.42199" lon="6.05171">
        <ele>187.60000610352</ele>
        <time>2013-10-19T12:27:54Z</time>
      </trkpt>
      <trkpt lat="43.42199" lon="6.05171">
        <ele>187.60000610352</ele>
        <time>2013-10-19T12:27:56Z</time>
      </trkpt>
      <trkpt lat="43.42202" lon="6.05174">
        <ele>187.60000610352</ele>
        <time>2013-10-19T12:27:58Z</time>
      </trkpt>
      <trkpt lat="43.42204" lon="6.05177">
        <ele>187.60000610352</ele>
        <time>2013-10-19T12:28:00Z</time>
      </trkpt>
      <trkpt lat="43.42206" lon="6.0518">
        <ele>187.60000610352</ele>
        <time>2013-10-19T12:28:02Z</time>
      </trkpt>
      <trkpt lat="43.42207" lon="6.05181">
        <ele>187.60000610352</ele>
        <time>2013-10-19T12:28:03Z</time>
      </trkpt>
      <trkpt lat="43.42208" lon="6.05181">
        <ele>187.60000610352</ele>
        <time>2013-10-19T12:28:05Z</time>
      </trkpt>
      <trkpt lat="43.42209" lon="6.05181">
        <ele>187.60000610352</ele>
        <time>2013-10-19T12:28:06Z</time>
      </trkpt>
      <trkpt lat="43.42212" lon="6.05184">
        <ele>187.60000610352</ele>
        <time>2013-10-19T12:28:08Z</time>
      </trkpt>
      <trkpt lat="43.42218" lon="6.05188">
        <ele>187.60000610352</ele>
        <time>2013-10-19T12:28:11Z</time>
      </trkpt>
      <trkpt lat="43.42223" lon="6.0519">
        <ele>187.60000610352</ele>
        <time>2013-10-19T12:28:14Z</time>
      </trkpt>
      <trkpt lat="43.42226" lon="6.05193">
        <ele>188</ele>
        <time>2013-10-19T12:28:17Z</time>
      </trkpt>
      <trkpt lat="43.4223" lon="6.05199">
        <ele>189.80000305176</ele>
        <time>2013-10-19T12:28:20Z</time>
      </trkpt>
      <trkpt lat="43.42236" lon="6.05203">
        <ele>189.80000305176</ele>
        <time>2013-10-19T12:28:24Z</time>
      </trkpt>
      <trkpt lat="43.42243" lon="6.05207">
        <ele>189.80000305176</ele>
        <time>2013-10-19T12:28:27Z</time>
      </trkpt>
      <trkpt lat="43.42248" lon="6.05207">
        <ele>189.80000305176</ele>
        <time>2013-10-19T12:28:29Z</time>
      </trkpt>
      <trkpt lat="43.42259" lon="6.05208">
        <ele>189.80000305176</ele>
        <time>2013-10-19T12:28:33Z</time>
      </trkpt>
      <trkpt lat="43.42264" lon="6.05208">
        <ele>189.80000305176</ele>
        <time>2013-10-19T12:28:35Z</time>
      </trkpt>
      <trkpt lat="43.42278" lon="6.05198">
        <ele>192</ele>
        <time>2013-10-19T12:28:42Z</time>
      </trkpt>
      <trkpt lat="43.42284" lon="6.05193">
        <ele>192</ele>
        <time>2013-10-19T12:28:46Z</time>
      </trkpt>
      <trkpt lat="43.42286" lon="6.05192">
        <ele>192</ele>
        <time>2013-10-19T12:28:47Z</time>
      </trkpt>
      <trkpt lat="43.42308" lon="6.05206">
        <ele>192</ele>
        <time>2013-10-19T12:28:58Z</time>
      </trkpt>
      <trkpt lat="43.4232" lon="6.05203">
        <ele>193.19999694824</ele>
        <time>2013-10-19T12:29:04Z</time>
      </trkpt>
      <trkpt lat="43.42324" lon="6.05201">
        <ele>194</ele>
        <time>2013-10-19T12:29:06Z</time>
      </trkpt>
      <trkpt lat="43.42332" lon="6.05202">
        <ele>194</ele>
        <time>2013-10-19T12:29:10Z</time>
      </trkpt>
      <trkpt lat="43.42339" lon="6.05199">
        <ele>195.19999694824</ele>
        <time>2013-10-19T12:29:14Z</time>
      </trkpt>
      <trkpt lat="43.4234" lon="6.05198">
        <ele>195.80000305176</ele>
        <time>2013-10-19T12:29:15Z</time>
      </trkpt>
      <trkpt lat="43.42348" lon="6.05201">
        <ele>196.19999694824</ele>
        <time>2013-10-19T12:29:19Z</time>
      </trkpt>
      <trkpt lat="43.42356" lon="6.052">
        <ele>197</ele>
        <time>2013-10-19T12:29:24Z</time>
      </trkpt>
      <trkpt lat="43.42357" lon="6.05199">
        <ele>197.39999389648</ele>
        <time>2013-10-19T12:29:25Z</time>
      </trkpt>
      <trkpt lat="43.4236" lon="6.05194">
        <ele>198.19999694824</ele>
        <time>2013-10-19T12:29:29Z</time>
      </trkpt>
      <trkpt lat="43.42368" lon="6.05189">
        <ele>198.60000610352</ele>
        <time>2013-10-19T12:29:35Z</time>
      </trkpt>
      <trkpt lat="43.42369" lon="6.05188">
        <ele>199</ele>
        <time>2013-10-19T12:29:36Z</time>
      </trkpt>
      <trkpt lat="43.42373" lon="6.05189">
        <ele>200.39999389648</ele>
        <time>2013-10-19T12:29:39Z</time>
      </trkpt>
      <trkpt lat="43.42373" lon="6.0519">
        <ele>200.39999389648</ele>
        <time>2013-10-19T12:29:43Z</time>
      </trkpt>
      <trkpt lat="43.42375" lon="6.05189">
        <ele>200.39999389648</ele>
        <time>2013-10-19T12:29:48Z</time>
      </trkpt>
      <trkpt lat="43.42378" lon="6.05189">
        <ele>201.19999694824</ele>
        <time>2013-10-19T12:29:52Z</time>
      </trkpt>
      <trkpt lat="43.42379" lon="6.05188">
        <ele>201.60000610352</ele>
        <time>2013-10-19T12:29:53Z</time>
      </trkpt>
      <trkpt lat="43.42379" lon="6.05188">
        <ele>202.39999389648</ele>
        <time>2013-10-19T12:29:57Z</time>
      </trkpt>
      <trkpt lat="43.42379" lon="6.05188">
        <ele>202.39999389648</ele>
        <time>2013-10-19T12:30:01Z</time>
      </trkpt>
      <trkpt lat="43.42379" lon="6.05188">
        <ele>202.39999389648</ele>
        <time>2013-10-19T12:30:07Z</time>
      </trkpt>
      <trkpt lat="43.42383" lon="6.05186">
        <ele>202.39999389648</ele>
        <time>2013-10-19T12:30:11Z</time>
      </trkpt>
      <trkpt lat="43.42389" lon="6.05179">
        <ele>202.39999389648</ele>
        <time>2013-10-19T12:30:17Z</time>
      </trkpt>
      <trkpt lat="43.42392" lon="6.05176">
        <ele>202.80000305176</ele>
        <time>2013-10-19T12:30:20Z</time>
      </trkpt>
      <trkpt lat="43.42393" lon="6.05177">
        <ele>203.19999694824</ele>
        <time>2013-10-19T12:30:21Z</time>
      </trkpt>
      <trkpt lat="43.42393" lon="6.05178">
        <ele>204.19999694824</ele>
        <time>2013-10-19T12:30:22Z</time>
      </trkpt>
      <trkpt lat="43.42393" lon="6.05178">
        <ele>204.60000610352</ele>
        <time>2013-10-19T12:30:23Z</time>
      </trkpt>
      <trkpt lat="43.42393" lon="6.05178">
        <ele>204.60000610352</ele>
        <time>2013-10-19T12:30:28Z</time>
      </trkpt>
      <trkpt lat="43.42393" lon="6.05178">
        <ele>204.60000610352</ele>
        <time>2013-10-19T12:30:36Z</time>
      </trkpt>
      <trkpt lat="43.42393" lon="6.05178">
        <ele>204.60000610352</ele>
        <time>2013-10-19T12:30:48Z</time>
      </trkpt>
      <trkpt lat="43.42394" lon="6.0518">
        <ele>204.60000610352</ele>
        <time>2013-10-19T12:30:50Z</time>
      </trkpt>
      <trkpt lat="43.42394" lon="6.05181">
        <ele>204.60000610352</ele>
        <time>2013-10-19T12:30:51Z</time>
      </trkpt>
      <trkpt lat="43.42397" lon="6.05189">
        <ele>204.60000610352</ele>
        <time>2013-10-19T12:30:56Z</time>
      </trkpt>
      <trkpt lat="43.42403" lon="6.05207">
        <ele>204.19999694824</ele>
        <time>2013-10-19T12:31:01Z</time>
      </trkpt>
      <trkpt lat="43.42405" lon="6.05213">
        <ele>203.80000305176</ele>
        <time>2013-10-19T12:31:02Z</time>
      </trkpt>
      <trkpt lat="43.42408" lon="6.05217">
        <ele>203.19999694824</ele>
        <time>2013-10-19T12:31:03Z</time>
      </trkpt>
      <trkpt lat="43.42412" lon="6.05221">
        <ele>202.80000305176</ele>
        <time>2013-10-19T12:31:04Z</time>
      </trkpt>
      <trkpt lat="43.42417" lon="6.05225">
        <ele>202.39999389648</ele>
        <time>2013-10-19T12:31:05Z</time>
      </trkpt>
      <trkpt lat="43.42421" lon="6.05225">
        <ele>202</ele>
        <time>2013-10-19T12:31:06Z</time>
      </trkpt>
      <trkpt lat="43.42425" lon="6.05225">
        <ele>201.39999389648</ele>
        <time>2013-10-19T12:31:07Z</time>
      </trkpt>
      <trkpt lat="43.42429" lon="6.05225">
        <ele>201</ele>
        <time>2013-10-19T12:31:08Z</time>
      </trkpt>
      <trkpt lat="43.42432" lon="6.05225">
        <ele>200.60000610352</ele>
        <time>2013-10-19T12:31:09Z</time>
      </trkpt>
      <trkpt lat="43.42435" lon="6.05224">
        <ele>200.19999694824</ele>
        <time>2013-10-19T12:31:10Z</time>
      </trkpt>
      <trkpt lat="43.42441" lon="6.05222">
        <ele>200.19999694824</ele>
        <time>2013-10-19T12:31:12Z</time>
      </trkpt>
      <trkpt lat="43.42444" lon="6.0522">
        <ele>200.19999694824</ele>
        <time>2013-10-19T12:31:13Z</time>
      </trkpt>
      <trkpt lat="43.4245" lon="6.05217">
        <ele>200.19999694824</ele>
        <time>2013-10-19T12:31:15Z</time>
      </trkpt>
      <trkpt lat="43.42458" lon="6.05213">
        <ele>200.60000610352</ele>
        <time>2013-10-19T12:31:19Z</time>
      </trkpt>
      <trkpt lat="43.42459" lon="6.05213">
        <ele>201.19999694824</ele>
        <time>2013-10-19T12:31:20Z</time>
      </trkpt>
      <trkpt lat="43.42466" lon="6.05213">
        <ele>202.60000610352</ele>
        <time>2013-10-19T12:31:24Z</time>
      </trkpt>
      <trkpt lat="43.42471" lon="6.05214">
        <ele>202.60000610352</ele>
        <time>2013-10-19T12:31:29Z</time>
      </trkpt>
      <trkpt lat="43.42471" lon="6.05214">
        <ele>202.60000610352</ele>
        <time>2013-10-19T12:31:49Z</time>
      </trkpt>
      <trkpt lat="43.42471" lon="6.05214">
        <ele>202.60000610352</ele>
        <time>2013-10-19T12:32:07Z</time>
      </trkpt>
      <trkpt lat="43.42471" lon="6.05214">
        <ele>202.60000610352</ele>
        <time>2013-10-19T12:32:10Z</time>
      </trkpt>
      <trkpt lat="43.42471" lon="6.05214">
        <ele>202.60000610352</ele>
        <time>2013-10-19T12:32:13Z</time>
      </trkpt>
      <trkpt lat="43.42472" lon="6.05214">
        <ele>202.60000610352</ele>
        <time>2013-10-19T12:32:17Z</time>
      </trkpt>
      <trkpt lat="43.42482" lon="6.05216">
        <ele>202.60000610352</ele>
        <time>2013-10-19T12:32:22Z</time>
      </trkpt>
      <trkpt lat="43.4249" lon="6.05221">
        <ele>202.60000610352</ele>
        <time>2013-10-19T12:32:26Z</time>
      </trkpt>
      <trkpt lat="43.42493" lon="6.05222">
        <ele>202.60000610352</ele>
        <time>2013-10-19T12:32:27Z</time>
      </trkpt>
      <trkpt lat="43.42505" lon="6.05224">
        <ele>202.60000610352</ele>
        <time>2013-10-19T12:32:32Z</time>
      </trkpt>
      <trkpt lat="43.42508" lon="6.05224">
        <ele>202.60000610352</ele>
        <time>2013-10-19T12:32:33Z</time>
      </trkpt>
      <trkpt lat="43.42525" lon="6.05224">
        <ele>202.60000610352</ele>
        <time>2013-10-19T12:32:39Z</time>
      </trkpt>
      <trkpt lat="43.42532" lon="6.05223">
        <ele>202.60000610352</ele>
        <time>2013-10-19T12:32:42Z</time>
      </trkpt>
      <trkpt lat="43.42541" lon="6.05222">
        <ele>202.60000610352</ele>
        <time>2013-10-19T12:32:45Z</time>
      </trkpt>
      <trkpt lat="43.42545" lon="6.05221">
        <ele>203</ele>
        <time>2013-10-19T12:32:46Z</time>
      </trkpt>
      <trkpt lat="43.42554" lon="6.05215">
        <ele>204.60000610352</ele>
        <time>2013-10-19T12:32:50Z</time>
      </trkpt>
      <trkpt lat="43.42568" lon="6.05217">
        <ele>205.80000305176</ele>
        <time>2013-10-19T12:32:55Z</time>
      </trkpt>
      <trkpt lat="43.42578" lon="6.0522">
        <ele>206.80000305176</ele>
        <time>2013-10-19T12:32:59Z</time>
      </trkpt>
      <trkpt lat="43.42588" lon="6.0523">
        <ele>206.80000305176</ele>
        <time>2013-10-19T12:33:03Z</time>
      </trkpt>
      <trkpt lat="43.42602" lon="6.05242">
        <ele>206.80000305176</ele>
        <time>2013-10-19T12:33:09Z</time>
      </trkpt>
      <trkpt lat="43.42616" lon="6.05256">
        <ele>206.80000305176</ele>
        <time>2013-10-19T12:33:15Z</time>
      </trkpt>
      <trkpt lat="43.42624" lon="6.05262">
        <ele>206.80000305176</ele>
        <time>2013-10-19T12:33:19Z</time>
      </trkpt>
      <trkpt lat="43.42633" lon="6.05264">
        <ele>206.80000305176</ele>
        <time>2013-10-19T12:33:23Z</time>
      </trkpt>
      <trkpt lat="43.42636" lon="6.05263">
        <ele>207.19999694824</ele>
        <time>2013-10-19T12:33:25Z</time>
      </trkpt>
      <trkpt lat="43.42638" lon="6.05262">
        <ele>207.60000610352</ele>
        <time>2013-10-19T12:33:26Z</time>
      </trkpt>
      <trkpt lat="43.4264" lon="6.05261">
        <ele>208</ele>
        <time>2013-10-19T12:33:27Z</time>
      </trkpt>
      <trkpt lat="43.42641" lon="6.05259">
        <ele>208.39999389648</ele>
        <time>2013-10-19T12:33:28Z</time>
      </trkpt>
      <trkpt lat="43.42646" lon="6.05254">
        <ele>208.80000305176</ele>
        <time>2013-10-19T12:33:31Z</time>
      </trkpt>
      <trkpt lat="43.42655" lon="6.05247">
        <ele>208.80000305176</ele>
        <time>2013-10-19T12:33:37Z</time>
      </trkpt>
      <trkpt lat="43.42665" lon="6.05238">
        <ele>208.80000305176</ele>
        <time>2013-10-19T12:33:43Z</time>
      </trkpt>
      <trkpt lat="43.42669" lon="6.05235">
        <ele>209.19999694824</ele>
        <time>2013-10-19T12:33:46Z</time>
      </trkpt>
      <trkpt lat="43.42672" lon="6.05233">
        <ele>210</ele>
        <time>2013-10-19T12:33:48Z</time>
      </trkpt>
      <trkpt lat="43.42676" lon="6.0523">
        <ele>210.80000305176</ele>
        <time>2013-10-19T12:33:50Z</time>
      </trkpt>
      <trkpt lat="43.42684" lon="6.05223">
        <ele>210.80000305176</ele>
        <time>2013-10-19T12:33:55Z</time>
      </trkpt>
      <trkpt lat="43.42687" lon="6.05221">
        <ele>211.19999694824</ele>
        <time>2013-10-19T12:33:57Z</time>
      </trkpt>
      <trkpt lat="43.4269" lon="6.05219">
        <ele>212</ele>
        <time>2013-10-19T12:33:59Z</time>
      </trkpt>
      <trkpt lat="43.42691" lon="6.05219">
        <ele>212.39999389648</ele>
        <time>2013-10-19T12:34:00Z</time>
      </trkpt>
      <trkpt lat="43.42699" lon="6.05217">
        <ele>212.80000305176</ele>
        <time>2013-10-19T12:34:06Z</time>
      </trkpt>
      <trkpt lat="43.42702" lon="6.05215">
        <ele>213.19999694824</ele>
        <time>2013-10-19T12:34:09Z</time>
      </trkpt>
      <trkpt lat="43.42704" lon="6.05214">
        <ele>214.19999694824</ele>
        <time>2013-10-19T12:34:11Z</time>
      </trkpt>
      <trkpt lat="43.42705" lon="6.05213">
        <ele>214.60000610352</ele>
        <time>2013-10-19T12:34:12Z</time>
      </trkpt>
      <trkpt lat="43.42706" lon="6.05212">
        <ele>215</ele>
        <time>2013-10-19T12:34:13Z</time>
      </trkpt>
      <trkpt lat="43.42707" lon="6.05211">
        <ele>215</ele>
        <time>2013-10-19T12:34:14Z</time>
      </trkpt>
      <trkpt lat="43.42707" lon="6.0521">
        <ele>215</ele>
        <time>2013-10-19T12:34:18Z</time>
      </trkpt>
      <trkpt lat="43.42707" lon="6.0521">
        <ele>215</ele>
        <time>2013-10-19T12:34:31Z</time>
      </trkpt>
      <trkpt lat="43.42707" lon="6.0521">
        <ele>215</ele>
        <time>2013-10-19T12:34:44Z</time>
      </trkpt>
      <trkpt lat="43.4271" lon="6.05207">
        <ele>215</ele>
        <time>2013-10-19T12:34:47Z</time>
      </trkpt>
      <trkpt lat="43.42711" lon="6.05205">
        <ele>215</ele>
        <time>2013-10-19T12:34:49Z</time>
      </trkpt>
      <trkpt lat="43.42718" lon="6.05195">
        <ele>215</ele>
        <time>2013-10-19T12:34:53Z</time>
      </trkpt>
      <trkpt lat="43.42723" lon="6.05188">
        <ele>215</ele>
        <time>2013-10-19T12:34:57Z</time>
      </trkpt>
      <trkpt lat="43.42724" lon="6.05183">
        <ele>215.39999389648</ele>
        <time>2013-10-19T12:34:59Z</time>
      </trkpt>
      <trkpt lat="43.42727" lon="6.05178">
        <ele>216.80000305176</ele>
        <time>2013-10-19T12:35:02Z</time>
      </trkpt>
      <trkpt lat="43.4273" lon="6.05169">
        <ele>217.19999694824</ele>
        <time>2013-10-19T12:35:06Z</time>
      </trkpt>
      <trkpt lat="43.42735" lon="6.05157">
        <ele>218.80000305176</ele>
        <time>2013-10-19T12:35:13Z</time>
      </trkpt>
      <trkpt lat="43.42737" lon="6.05152">
        <ele>219.19999694824</ele>
        <time>2013-10-19T12:35:17Z</time>
      </trkpt>
      <trkpt lat="43.42743" lon="6.05143">
        <ele>219.19999694824</ele>
        <time>2013-10-19T12:35:23Z</time>
      </trkpt>
      <trkpt lat="43.42749" lon="6.05133">
        <ele>220.60000610352</ele>
        <time>2013-10-19T12:35:29Z</time>
      </trkpt>
      <trkpt lat="43.42751" lon="6.05129">
        <ele>221.39999389648</ele>
        <time>2013-10-19T12:35:31Z</time>
      </trkpt>
      <trkpt lat="43.42752" lon="6.05119">
        <ele>221.39999389648</ele>
        <time>2013-10-19T12:35:36Z</time>
      </trkpt>
      <trkpt lat="43.4275" lon="6.05103">
        <ele>221.39999389648</ele>
        <time>2013-10-19T12:35:43Z</time>
      </trkpt>
      <trkpt lat="43.42749" lon="6.05097">
        <ele>221.39999389648</ele>
        <time>2013-10-19T12:35:45Z</time>
      </trkpt>
      <trkpt lat="43.42749" lon="6.05086">
        <ele>221.39999389648</ele>
        <time>2013-10-19T12:35:49Z</time>
      </trkpt>
      <trkpt lat="43.42748" lon="6.05083">
        <ele>221.80000305176</ele>
        <time>2013-10-19T12:35:50Z</time>
      </trkpt>
      <trkpt lat="43.42749" lon="6.05078">
        <ele>222.60000610352</ele>
        <time>2013-10-19T12:35:52Z</time>
      </trkpt>
      <trkpt lat="43.4275" lon="6.05066">
        <ele>223.39999389648</ele>
        <time>2013-10-19T12:35:57Z</time>
      </trkpt>
      <trkpt lat="43.42751" lon="6.05062">
        <ele>223.39999389648</ele>
        <time>2013-10-19T12:35:59Z</time>
      </trkpt>
      <trkpt lat="43.42754" lon="6.05054">
        <ele>223.39999389648</ele>
        <time>2013-10-19T12:36:03Z</time>
      </trkpt>
      <trkpt lat="43.42756" lon="6.0505">
        <ele>223.80000305176</ele>
        <time>2013-10-19T12:36:05Z</time>
      </trkpt>
      <trkpt lat="43.42759" lon="6.05043">
        <ele>225</ele>
        <time>2013-10-19T12:36:08Z</time>
      </trkpt>
      <trkpt lat="43.4276" lon="6.05041">
        <ele>225.39999389648</ele>
        <time>2013-10-19T12:36:09Z</time>
      </trkpt>
      <trkpt lat="43.42762" lon="6.05033">
        <ele>225.39999389648</ele>
        <time>2013-10-19T12:36:12Z</time>
      </trkpt>
      <trkpt lat="43.42767" lon="6.05014">
        <ele>225.39999389648</ele>
        <time>2013-10-19T12:36:19Z</time>
      </trkpt>
      <trkpt lat="43.42765" lon="6.05">
        <ele>225.39999389648</ele>
        <time>2013-10-19T12:36:24Z</time>
      </trkpt>
      <trkpt lat="43.42764" lon="6.04998">
        <ele>225.39999389648</ele>
        <time>2013-10-19T12:36:25Z</time>
      </trkpt>
      <trkpt lat="43.42762" lon="6.04991">
        <ele>225.39999389648</ele>
        <time>2013-10-19T12:36:30Z</time>
      </trkpt>
      <trkpt lat="43.42762" lon="6.04991">
        <ele>225.39999389648</ele>
        <time>2013-10-19T12:36:32Z</time>
      </trkpt>
      <trkpt lat="43.42762" lon="6.04991">
        <ele>225.39999389648</ele>
        <time>2013-10-19T12:36:36Z</time>
      </trkpt>
      <trkpt lat="43.42762" lon="6.04991">
        <ele>225.39999389648</ele>
        <time>2013-10-19T12:36:42Z</time>
      </trkpt>
      <trkpt lat="43.42762" lon="6.04988">
        <ele>225.39999389648</ele>
        <time>2013-10-19T12:36:45Z</time>
      </trkpt>
      <trkpt lat="43.42762" lon="6.04986">
        <ele>225.39999389648</ele>
        <time>2013-10-19T12:36:46Z</time>
      </trkpt>
      <trkpt lat="43.42761" lon="6.04973">
        <ele>225.80000305176</ele>
        <time>2013-10-19T12:36:51Z</time>
      </trkpt>
      <trkpt lat="43.42761" lon="6.0497">
        <ele>226.19999694824</ele>
        <time>2013-10-19T12:36:52Z</time>
      </trkpt>
      <trkpt lat="43.42761" lon="6.04967">
        <ele>226.60000610352</ele>
        <time>2013-10-19T12:36:53Z</time>
      </trkpt>
      <trkpt lat="43.42761" lon="6.04964">
        <ele>227</ele>
        <time>2013-10-19T12:36:54Z</time>
      </trkpt>
      <trkpt lat="43.4276" lon="6.04961">
        <ele>227.39999389648</ele>
        <time>2013-10-19T12:36:55Z</time>
      </trkpt>
      <trkpt lat="43.42761" lon="6.04945">
        <ele>227.39999389648</ele>
        <time>2013-10-19T12:37:01Z</time>
      </trkpt>
      <trkpt lat="43.4276" lon="6.0493">
        <ele>227.39999389648</ele>
        <time>2013-10-19T12:37:07Z</time>
      </trkpt>
      <trkpt lat="43.42756" lon="6.04911">
        <ele>229.39999389648</ele>
        <time>2013-10-19T12:37:15Z</time>
      </trkpt>
      <trkpt lat="43.42757" lon="6.04901">
        <ele>229.39999389648</ele>
        <time>2013-10-19T12:37:19Z</time>
      </trkpt>
      <trkpt lat="43.42764" lon="6.04892">
        <ele>229.80000305176</ele>
        <time>2013-10-19T12:37:25Z</time>
      </trkpt>
      <trkpt lat="43.42767" lon="6.04886">
        <ele>231.19999694824</ele>
        <time>2013-10-19T12:37:28Z</time>
      </trkpt>
      <trkpt lat="43.42768" lon="6.04881">
        <ele>231.60000610352</ele>
        <time>2013-10-19T12:37:31Z</time>
      </trkpt>
      <trkpt lat="43.42771" lon="6.04867">
        <ele>231.60000610352</ele>
        <time>2013-10-19T12:37:39Z</time>
      </trkpt>
      <trkpt lat="43.42775" lon="6.04856">
        <ele>232.39999389648</ele>
        <time>2013-10-19T12:37:45Z</time>
      </trkpt>
      <trkpt lat="43.42777" lon="6.0485">
        <ele>233.60000610352</ele>
        <time>2013-10-19T12:37:48Z</time>
      </trkpt>
      <trkpt lat="43.42777" lon="6.04846">
        <ele>233.60000610352</ele>
        <time>2013-10-19T12:37:50Z</time>
      </trkpt>
      <trkpt lat="43.42777" lon="6.0484">
        <ele>233.60000610352</ele>
        <time>2013-10-19T12:37:53Z</time>
      </trkpt>
      <trkpt lat="43.42778" lon="6.04836">
        <ele>233.60000610352</ele>
        <time>2013-10-19T12:37:56Z</time>
      </trkpt>
      <trkpt lat="43.42778" lon="6.04836">
        <ele>233.60000610352</ele>
        <time>2013-10-19T12:38:01Z</time>
      </trkpt>
      <trkpt lat="43.42778" lon="6.04836">
        <ele>233.60000610352</ele>
        <time>2013-10-19T12:38:19Z</time>
      </trkpt>
      <trkpt lat="43.42778" lon="6.04836">
        <ele>233.60000610352</ele>
        <time>2013-10-19T12:38:34Z</time>
      </trkpt>
      <trkpt lat="43.42778" lon="6.04836">
        <ele>233.60000610352</ele>
        <time>2013-10-19T12:38:37Z</time>
      </trkpt>
      <trkpt lat="43.42778" lon="6.04836">
        <ele>233.60000610352</ele>
        <time>2013-10-19T12:38:45Z</time>
      </trkpt>
      <trkpt lat="43.42779" lon="6.04836">
        <ele>233.60000610352</ele>
        <time>2013-10-19T12:38:51Z</time>
      </trkpt>
      <trkpt lat="43.42781" lon="6.04834">
        <ele>233.60000610352</ele>
        <time>2013-10-19T12:38:53Z</time>
      </trkpt>
      <trkpt lat="43.42783" lon="6.04833">
        <ele>233.60000610352</ele>
        <time>2013-10-19T12:38:55Z</time>
      </trkpt>
      <trkpt lat="43.42787" lon="6.04833">
        <ele>234</ele>
        <time>2013-10-19T12:38:57Z</time>
      </trkpt>
      <trkpt lat="43.42789" lon="6.04833">
        <ele>234.39999389648</ele>
        <time>2013-10-19T12:38:58Z</time>
      </trkpt>
      <trkpt lat="43.42791" lon="6.04835">
        <ele>235.19999694824</ele>
        <time>2013-10-19T12:39:00Z</time>
      </trkpt>
      <trkpt lat="43.42793" lon="6.04836">
        <ele>235.60000610352</ele>
        <time>2013-10-19T12:39:01Z</time>
      </trkpt>
      <trkpt lat="43.42801" lon="6.04845">
        <ele>235.60000610352</ele>
        <time>2013-10-19T12:39:07Z</time>
      </trkpt>
      <trkpt lat="43.42805" lon="6.04848">
        <ele>235.60000610352</ele>
        <time>2013-10-19T12:39:10Z</time>
      </trkpt>
      <trkpt lat="43.42816" lon="6.04855">
        <ele>235.60000610352</ele>
        <time>2013-10-19T12:39:16Z</time>
      </trkpt>
      <trkpt lat="43.4282" lon="6.04855">
        <ele>236</ele>
        <time>2013-10-19T12:39:18Z</time>
      </trkpt>
      <trkpt lat="43.42828" lon="6.04853">
        <ele>237.39999389648</ele>
        <time>2013-10-19T12:39:21Z</time>
      </trkpt>
      <trkpt lat="43.4283" lon="6.04853">
        <ele>238</ele>
        <time>2013-10-19T12:39:22Z</time>
      </trkpt>
      <trkpt lat="43.42835" lon="6.04853">
        <ele>238</ele>
        <time>2013-10-19T12:39:24Z</time>
      </trkpt>
      <trkpt lat="43.42839" lon="6.04854">
        <ele>238.39999389648</ele>
        <time>2013-10-19T12:39:26Z</time>
      </trkpt>
      <trkpt lat="43.42841" lon="6.04854">
        <ele>238.80000305176</ele>
        <time>2013-10-19T12:39:27Z</time>
      </trkpt>
      <trkpt lat="43.42844" lon="6.04857">
        <ele>239.60000610352</ele>
        <time>2013-10-19T12:39:29Z</time>
      </trkpt>
      <trkpt lat="43.42845" lon="6.0486">
        <ele>240.19999694824</ele>
        <time>2013-10-19T12:39:30Z</time>
      </trkpt>
      <trkpt lat="43.42852" lon="6.0487">
        <ele>240.19999694824</ele>
        <time>2013-10-19T12:39:36Z</time>
      </trkpt>
      <trkpt lat="43.42854" lon="6.04872">
        <ele>240.19999694824</ele>
        <time>2013-10-19T12:39:38Z</time>
      </trkpt>
      <trkpt lat="43.42861" lon="6.04882">
        <ele>240.19999694824</ele>
        <time>2013-10-19T12:39:44Z</time>
      </trkpt>
      <trkpt lat="43.42867" lon="6.04893">
        <ele>240.19999694824</ele>
        <time>2013-10-19T12:39:49Z</time>
      </trkpt>
      <trkpt lat="43.42873" lon="6.04909">
        <ele>240.19999694824</ele>
        <time>2013-10-19T12:39:55Z</time>
      </trkpt>
      <trkpt lat="43.42883" lon="6.04922">
        <ele>240.19999694824</ele>
        <time>2013-10-19T12:40:01Z</time>
      </trkpt>
      <trkpt lat="43.42886" lon="6.04922">
        <ele>240.19999694824</ele>
        <time>2013-10-19T12:40:03Z</time>
      </trkpt>
      <trkpt lat="43.42895" lon="6.04923">
        <ele>240.19999694824</ele>
        <time>2013-10-19T12:40:06Z</time>
      </trkpt>
      <trkpt lat="43.42906" lon="6.04921">
        <ele>240.19999694824</ele>
        <time>2013-10-19T12:40:11Z</time>
      </trkpt>
      <trkpt lat="43.42919" lon="6.04915">
        <ele>241</ele>
        <time>2013-10-19T12:40:17Z</time>
      </trkpt>
      <trkpt lat="43.42925" lon="6.0492">
        <ele>242.19999694824</ele>
        <time>2013-10-19T12:40:20Z</time>
      </trkpt>
      <trkpt lat="43.42927" lon="6.04922">
        <ele>242.19999694824</ele>
        <time>2013-10-19T12:40:21Z</time>
      </trkpt>
      <trkpt lat="43.4293" lon="6.04934">
        <ele>242.19999694824</ele>
        <time>2013-10-19T12:40:25Z</time>
      </trkpt>
      <trkpt lat="43.4293" lon="6.04952">
        <ele>242.19999694824</ele>
        <time>2013-10-19T12:40:31Z</time>
      </trkpt>
      <trkpt lat="43.42927" lon="6.04979">
        <ele>242.19999694824</ele>
        <time>2013-10-19T12:40:39Z</time>
      </trkpt>
      <trkpt lat="43.42925" lon="6.05">
        <ele>242.19999694824</ele>
        <time>2013-10-19T12:40:45Z</time>
      </trkpt>
      <trkpt lat="43.42921" lon="6.05041">
        <ele>244.19999694824</ele>
        <time>2013-10-19T12:40:57Z</time>
      </trkpt>
      <trkpt lat="43.42917" lon="6.05069">
        <ele>244.19999694824</ele>
        <time>2013-10-19T12:41:05Z</time>
      </trkpt>
      <trkpt lat="43.42915" lon="6.0509">
        <ele>244.19999694824</ele>
        <time>2013-10-19T12:41:11Z</time>
      </trkpt>
      <trkpt lat="43.42914" lon="6.05096">
        <ele>245</ele>
        <time>2013-10-19T12:41:13Z</time>
      </trkpt>
      <trkpt lat="43.42913" lon="6.05109">
        <ele>246.39999389648</ele>
        <time>2013-10-19T12:41:17Z</time>
      </trkpt>
      <trkpt lat="43.42907" lon="6.05147">
        <ele>246.39999389648</ele>
        <time>2013-10-19T12:41:31Z</time>
      </trkpt>
      <trkpt lat="43.42905" lon="6.05165">
        <ele>246.80000305176</ele>
        <time>2013-10-19T12:41:38Z</time>
      </trkpt>
      <trkpt lat="43.42898" lon="6.05223">
        <ele>248.39999389648</ele>
        <time>2013-10-19T12:41:58Z</time>
      </trkpt>
      <trkpt lat="43.42893" lon="6.05263">
        <ele>248.39999389648</ele>
        <time>2013-10-19T12:42:11Z</time>
      </trkpt>
      <trkpt lat="43.42892" lon="6.05272">
        <ele>248.39999389648</ele>
        <time>2013-10-19T12:42:14Z</time>
      </trkpt>
      <trkpt lat="43.4289" lon="6.05291">
        <ele>248.39999389648</ele>
        <time>2013-10-19T12:42:20Z</time>
      </trkpt>
      <trkpt lat="43.42887" lon="6.05321">
        <ele>248.39999389648</ele>
        <time>2013-10-19T12:42:28Z</time>
      </trkpt>
      <trkpt lat="43.42884" lon="6.05343">
        <ele>248.39999389648</ele>
        <time>2013-10-19T12:42:33Z</time>
      </trkpt>
      <trkpt lat="43.42882" lon="6.05356">
        <ele>248.39999389648</ele>
        <time>2013-10-19T12:42:36Z</time>
      </trkpt>
      <trkpt lat="43.42881" lon="6.05371">
        <ele>248.39999389648</ele>
        <time>2013-10-19T12:42:39Z</time>
      </trkpt>
      <trkpt lat="43.4288" lon="6.0539">
        <ele>248.39999389648</ele>
        <time>2013-10-19T12:42:43Z</time>
      </trkpt>
      <trkpt lat="43.42878" lon="6.0541">
        <ele>247.19999694824</ele>
        <time>2013-10-19T12:42:47Z</time>
      </trkpt>
      <trkpt lat="43.42878" lon="6.05415">
        <ele>246.80000305176</ele>
        <time>2013-10-19T12:42:48Z</time>
      </trkpt>
      <trkpt lat="43.42876" lon="6.05419">
        <ele>246.19999694824</ele>
        <time>2013-10-19T12:42:49Z</time>
      </trkpt>
      <trkpt lat="43.42871" lon="6.05453">
        <ele>246.19999694824</ele>
        <time>2013-10-19T12:42:56Z</time>
      </trkpt>
      <trkpt lat="43.4287" lon="6.05462">
        <ele>246.19999694824</ele>
        <time>2013-10-19T12:42:58Z</time>
      </trkpt>
      <trkpt lat="43.42868" lon="6.05478">
        <ele>246.19999694824</ele>
        <time>2013-10-19T12:43:02Z</time>
      </trkpt>
      <trkpt lat="43.42867" lon="6.05492">
        <ele>246.19999694824</ele>
        <time>2013-10-19T12:43:06Z</time>
      </trkpt>
      <trkpt lat="43.42867" lon="6.05496">
        <ele>246.19999694824</ele>
        <time>2013-10-19T12:43:07Z</time>
      </trkpt>
      <trkpt lat="43.42862" lon="6.05535">
        <ele>244.19999694824</ele>
        <time>2013-10-19T12:43:20Z</time>
      </trkpt>
      <trkpt lat="43.42862" lon="6.05542">
        <ele>244.19999694824</ele>
        <time>2013-10-19T12:43:24Z</time>
      </trkpt>
      <trkpt lat="43.42868" lon="6.05542">
        <ele>244.19999694824</ele>
        <time>2013-10-19T12:43:28Z</time>
      </trkpt>
      <trkpt lat="43.42871" lon="6.05542">
        <ele>244.19999694824</ele>
        <time>2013-10-19T12:43:29Z</time>
      </trkpt>
      <trkpt lat="43.42881" lon="6.05547">
        <ele>244.19999694824</ele>
        <time>2013-10-19T12:43:33Z</time>
      </trkpt>
      <trkpt lat="43.42886" lon="6.05551">
        <ele>244.19999694824</ele>
        <time>2013-10-19T12:43:35Z</time>
      </trkpt>
      <trkpt lat="43.42893" lon="6.05555">
        <ele>244.19999694824</ele>
        <time>2013-10-19T12:43:38Z</time>
      </trkpt>
      <trkpt lat="43.429" lon="6.05556">
        <ele>244.19999694824</ele>
        <time>2013-10-19T12:43:41Z</time>
      </trkpt>
      <trkpt lat="43.42908" lon="6.05553">
        <ele>244.19999694824</ele>
        <time>2013-10-19T12:43:44Z</time>
      </trkpt>
      <trkpt lat="43.4291" lon="6.0555">
        <ele>243.80000305176</ele>
        <time>2013-10-19T12:43:45Z</time>
      </trkpt>
      <trkpt lat="43.42912" lon="6.05547">
        <ele>243.39999389648</ele>
        <time>2013-10-19T12:43:46Z</time>
      </trkpt>
      <trkpt lat="43.4292" lon="6.05544">
        <ele>242.19999694824</ele>
        <time>2013-10-19T12:43:49Z</time>
      </trkpt>
      <trkpt lat="43.42929" lon="6.05537">
        <ele>242.19999694824</ele>
        <time>2013-10-19T12:43:53Z</time>
      </trkpt>
      <trkpt lat="43.42933" lon="6.05533">
        <ele>242.19999694824</ele>
        <time>2013-10-19T12:43:56Z</time>
      </trkpt>
      <trkpt lat="43.42935" lon="6.05532">
        <ele>242.19999694824</ele>
        <time>2013-10-19T12:43:57Z</time>
      </trkpt>
      <trkpt lat="43.42948" lon="6.05524">
        <ele>242.19999694824</ele>
        <time>2013-10-19T12:44:04Z</time>
      </trkpt>
      <trkpt lat="43.42955" lon="6.05522">
        <ele>242.19999694824</ele>
        <time>2013-10-19T12:44:07Z</time>
      </trkpt>
      <trkpt lat="43.42967" lon="6.05517">
        <ele>242.19999694824</ele>
        <time>2013-10-19T12:44:13Z</time>
      </trkpt>
      <trkpt lat="43.42969" lon="6.05516">
        <ele>242.60000610352</ele>
        <time>2013-10-19T12:44:14Z</time>
      </trkpt>
      <trkpt lat="43.42983" lon="6.05506">
        <ele>244.39999389648</ele>
        <time>2013-10-19T12:44:22Z</time>
      </trkpt>
      <trkpt lat="43.42989" lon="6.05504">
        <ele>245.60000610352</ele>
        <time>2013-10-19T12:44:25Z</time>
      </trkpt>
      <trkpt lat="43.4299" lon="6.05504">
        <ele>246</ele>
        <time>2013-10-19T12:44:26Z</time>
      </trkpt>
      <trkpt lat="43.42992" lon="6.05504">
        <ele>246.60000610352</ele>
        <time>2013-10-19T12:44:27Z</time>
      </trkpt>
      <trkpt lat="43.42994" lon="6.05505">
        <ele>246.60000610352</ele>
        <time>2013-10-19T12:44:29Z</time>
      </trkpt>
      <trkpt lat="43.42996" lon="6.05505">
        <ele>247</ele>
        <time>2013-10-19T12:44:30Z</time>
      </trkpt>
      <trkpt lat="43.42998" lon="6.05505">
        <ele>247.39999389648</ele>
        <time>2013-10-19T12:44:31Z</time>
      </trkpt>
      <trkpt lat="43.42999" lon="6.05505">
        <ele>247.80000305176</ele>
        <time>2013-10-19T12:44:32Z</time>
      </trkpt>
      <trkpt lat="43.43" lon="6.05505">
        <ele>248.19999694824</ele>
        <time>2013-10-19T12:44:33Z</time>
      </trkpt>
      <trkpt lat="43.43002" lon="6.05505">
        <ele>248.60000610352</ele>
        <time>2013-10-19T12:44:34Z</time>
      </trkpt>
      <trkpt lat="43.43002" lon="6.05505">
        <ele>248.60000610352</ele>
        <time>2013-10-19T12:44:35Z</time>
      </trkpt>
      <trkpt lat="43.43002" lon="6.05505">
        <ele>248.60000610352</ele>
        <time>2013-10-19T12:44:42Z</time>
      </trkpt>
      <trkpt lat="43.43002" lon="6.05505">
        <ele>248.60000610352</ele>
        <time>2013-10-19T12:44:53Z</time>
      </trkpt>
      <trkpt lat="43.43002" lon="6.05505">
        <ele>248.60000610352</ele>
        <time>2013-10-19T12:45:02Z</time>
      </trkpt>
      <trkpt lat="43.43003" lon="6.05505">
        <ele>248.60000610352</ele>
        <time>2013-10-19T12:45:08Z</time>
      </trkpt>
      <trkpt lat="43.43003" lon="6.05505">
        <ele>248.60000610352</ele>
        <time>2013-10-19T12:45:24Z</time>
      </trkpt>
      <trkpt lat="43.43003" lon="6.05504">
        <ele>248.60000610352</ele>
        <time>2013-10-19T12:46:24Z</time>
      </trkpt>
      <trkpt lat="43.43003" lon="6.05504">
        <ele>248.60000610352</ele>
        <time>2013-10-19T12:46:47Z</time>
      </trkpt>
      <trkpt lat="43.43003" lon="6.05505">
        <ele>248.60000610352</ele>
        <time>2013-10-19T12:46:51Z</time>
      </trkpt>
      <trkpt lat="43.43005" lon="6.05507">
        <ele>248.60000610352</ele>
        <time>2013-10-19T12:46:52Z</time>
      </trkpt>
      <trkpt lat="43.43011" lon="6.05522">
        <ele>248.60000610352</ele>
        <time>2013-10-19T12:46:57Z</time>
      </trkpt>
      <trkpt lat="43.43013" lon="6.0553">
        <ele>248.60000610352</ele>
        <time>2013-10-19T12:46:59Z</time>
      </trkpt>
      <trkpt lat="43.43016" lon="6.05545">
        <ele>248.60000610352</ele>
        <time>2013-10-19T12:47:02Z</time>
      </trkpt>
      <trkpt lat="43.4302" lon="6.05557">
        <ele>248.19999694824</ele>
        <time>2013-10-19T12:47:05Z</time>
      </trkpt>
      <trkpt lat="43.43021" lon="6.05561">
        <ele>247.80000305176</ele>
        <time>2013-10-19T12:47:06Z</time>
      </trkpt>
      <trkpt lat="43.43021" lon="6.05565">
        <ele>247.39999389648</ele>
        <time>2013-10-19T12:47:07Z</time>
      </trkpt>
      <trkpt lat="43.43022" lon="6.05569">
        <ele>246.80000305176</ele>
        <time>2013-10-19T12:47:08Z</time>
      </trkpt>
      <trkpt lat="43.43022" lon="6.05572">
        <ele>246.39999389648</ele>
        <time>2013-10-19T12:47:09Z</time>
      </trkpt>
      <trkpt lat="43.43025" lon="6.05578">
        <ele>246.39999389648</ele>
        <time>2013-10-19T12:47:11Z</time>
      </trkpt>
      <trkpt lat="43.43028" lon="6.05594">
        <ele>246.39999389648</ele>
        <time>2013-10-19T12:47:15Z</time>
      </trkpt>
      <trkpt lat="43.4303" lon="6.05611">
        <ele>246</ele>
        <time>2013-10-19T12:47:20Z</time>
      </trkpt>
      <trkpt lat="43.43029" lon="6.05614">
        <ele>245.19999694824</ele>
        <time>2013-10-19T12:47:22Z</time>
      </trkpt>
      <trkpt lat="43.43028" lon="6.05617">
        <ele>244.60000610352</ele>
        <time>2013-10-19T12:47:23Z</time>
      </trkpt>
      <trkpt lat="43.43028" lon="6.05621">
        <ele>244.19999694824</ele>
        <time>2013-10-19T12:47:25Z</time>
      </trkpt>
      <trkpt lat="43.43026" lon="6.05637">
        <ele>244.19999694824</ele>
        <time>2013-10-19T12:47:29Z</time>
      </trkpt>
      <trkpt lat="43.43023" lon="6.05669">
        <ele>244.19999694824</ele>
        <time>2013-10-19T12:47:35Z</time>
      </trkpt>
      <trkpt lat="43.43024" lon="6.05674">
        <ele>243.80000305176</ele>
        <time>2013-10-19T12:47:36Z</time>
      </trkpt>
      <trkpt lat="43.43025" lon="6.05679">
        <ele>243.39999389648</ele>
        <time>2013-10-19T12:47:37Z</time>
      </trkpt>
      <trkpt lat="43.43027" lon="6.05691">
        <ele>242.60000610352</ele>
        <time>2013-10-19T12:47:39Z</time>
      </trkpt>
      <trkpt lat="43.43024" lon="6.057">
        <ele>241.39999389648</ele>
        <time>2013-10-19T12:47:41Z</time>
      </trkpt>
      <trkpt lat="43.43023" lon="6.05703">
        <ele>241</ele>
        <time>2013-10-19T12:47:42Z</time>
      </trkpt>
      <trkpt lat="43.43022" lon="6.05707">
        <ele>240.60000610352</ele>
        <time>2013-10-19T12:47:43Z</time>
      </trkpt>
      <trkpt lat="43.43021" lon="6.05712">
        <ele>240.19999694824</ele>
        <time>2013-10-19T12:47:44Z</time>
      </trkpt>
      <trkpt lat="43.4302" lon="6.05723">
        <ele>240.19999694824</ele>
        <time>2013-10-19T12:47:46Z</time>
      </trkpt>
      <trkpt lat="43.43019" lon="6.0573">
        <ele>239.80000305176</ele>
        <time>2013-10-19T12:47:47Z</time>
      </trkpt>
      <trkpt lat="43.43015" lon="6.05734">
        <ele>239.39999389648</ele>
        <time>2013-10-19T12:47:48Z</time>
      </trkpt>
      <trkpt lat="43.43012" lon="6.05738">
        <ele>239</ele>
        <time>2013-10-19T12:47:49Z</time>
      </trkpt>
      <trkpt lat="43.43009" lon="6.05741">
        <ele>238.60000610352</ele>
        <time>2013-10-19T12:47:50Z</time>
      </trkpt>
      <trkpt lat="43.43007" lon="6.05744">
        <ele>238.19999694824</ele>
        <time>2013-10-19T12:47:51Z</time>
      </trkpt>
      <trkpt lat="43.43003" lon="6.05753">
        <ele>238.19999694824</ele>
        <time>2013-10-19T12:47:54Z</time>
      </trkpt>
      <trkpt lat="43.43003" lon="6.05753">
        <ele>238.19999694824</ele>
        <time>2013-10-19T12:47:57Z</time>
      </trkpt>
      <trkpt lat="43.43003" lon="6.05753">
        <ele>238.19999694824</ele>
        <time>2013-10-19T12:48:05Z</time>
      </trkpt>
      <trkpt lat="43.43003" lon="6.05753">
        <ele>238.19999694824</ele>
        <time>2013-10-19T12:48:17Z</time>
      </trkpt>
      <trkpt lat="43.43002" lon="6.05755">
        <ele>238.19999694824</ele>
        <time>2013-10-19T12:48:25Z</time>
      </trkpt>
      <trkpt lat="43.42999" lon="6.05781">
        <ele>237.60000610352</ele>
        <time>2013-10-19T12:48:33Z</time>
      </trkpt>
      <trkpt lat="43.42998" lon="6.05785">
        <ele>237.19999694824</ele>
        <time>2013-10-19T12:48:34Z</time>
      </trkpt>
      <trkpt lat="43.42999" lon="6.05788">
        <ele>236.80000305176</ele>
        <time>2013-10-19T12:48:35Z</time>
      </trkpt>
      <trkpt lat="43.43" lon="6.05796">
        <ele>236</ele>
        <time>2013-10-19T12:48:37Z</time>
      </trkpt>
      <trkpt lat="43.43001" lon="6.058">
        <ele>236</ele>
        <time>2013-10-19T12:48:38Z</time>
      </trkpt>
      <trkpt lat="43.43003" lon="6.05812">
        <ele>235</ele>
        <time>2013-10-19T12:48:41Z</time>
      </trkpt>
      <trkpt lat="43.43003" lon="6.05815">
        <ele>234.60000610352</ele>
        <time>2013-10-19T12:48:42Z</time>
      </trkpt>
      <trkpt lat="43.43002" lon="6.05819">
        <ele>234.19999694824</ele>
        <time>2013-10-19T12:48:43Z</time>
      </trkpt>
      <trkpt lat="43.43002" lon="6.0583">
        <ele>233.19999694824</ele>
        <time>2013-10-19T12:48:45Z</time>
      </trkpt>
      <trkpt lat="43.43002" lon="6.05837">
        <ele>232.60000610352</ele>
        <time>2013-10-19T12:48:46Z</time>
      </trkpt>
      <trkpt lat="43.43003" lon="6.05842">
        <ele>232</ele>
        <time>2013-10-19T12:48:47Z</time>
      </trkpt>
      <trkpt lat="43.43003" lon="6.05846">
        <ele>231.39999389648</ele>
        <time>2013-10-19T12:48:48Z</time>
      </trkpt>
      <trkpt lat="43.43004" lon="6.0585">
        <ele>230.80000305176</ele>
        <time>2013-10-19T12:48:49Z</time>
      </trkpt>
      <trkpt lat="43.43006" lon="6.05853">
        <ele>230.19999694824</ele>
        <time>2013-10-19T12:48:50Z</time>
      </trkpt>
      <trkpt lat="43.43009" lon="6.05855">
        <ele>229.60000610352</ele>
        <time>2013-10-19T12:48:51Z</time>
      </trkpt>
      <trkpt lat="43.4301" lon="6.05857">
        <ele>229</ele>
        <time>2013-10-19T12:48:52Z</time>
      </trkpt>
      <trkpt lat="43.43012" lon="6.05858">
        <ele>228.60000610352</ele>
        <time>2013-10-19T12:48:53Z</time>
      </trkpt>
      <trkpt lat="43.43015" lon="6.05859">
        <ele>227.39999389648</ele>
        <time>2013-10-19T12:48:54Z</time>
      </trkpt>
      <trkpt lat="43.43017" lon="6.0586">
        <ele>226.60000610352</ele>
        <time>2013-10-19T12:48:55Z</time>
      </trkpt>
      <trkpt lat="43.43018" lon="6.0586">
        <ele>226</ele>
        <time>2013-10-19T12:48:56Z</time>
      </trkpt>
      <trkpt lat="43.43018" lon="6.0586">
        <ele>225.39999389648</ele>
        <time>2013-10-19T12:48:57Z</time>
      </trkpt>
      <trkpt lat="43.43018" lon="6.0586">
        <ele>224.80000305176</ele>
        <time>2013-10-19T12:48:58Z</time>
      </trkpt>
      <trkpt lat="43.43018" lon="6.05859">
        <ele>224.19999694824</ele>
        <time>2013-10-19T12:48:59Z</time>
      </trkpt>
      <trkpt lat="43.43018" lon="6.05859">
        <ele>224.19999694824</ele>
        <time>2013-10-19T12:49:06Z</time>
      </trkpt>
      <trkpt lat="43.43018" lon="6.05859">
        <ele>224.19999694824</ele>
        <time>2013-10-19T12:49:18Z</time>
      </trkpt>
      <trkpt lat="43.43021" lon="6.05861">
        <ele>224.19999694824</ele>
        <time>2013-10-19T12:49:28Z</time>
      </trkpt>
      <trkpt lat="43.43028" lon="6.05862">
        <ele>224.19999694824</ele>
        <time>2013-10-19T12:49:32Z</time>
      </trkpt>
      <trkpt lat="43.43032" lon="6.05862">
        <ele>223.80000305176</ele>
        <time>2013-10-19T12:49:33Z</time>
      </trkpt>
      <trkpt lat="43.43035" lon="6.05861">
        <ele>223.39999389648</ele>
        <time>2013-10-19T12:49:34Z</time>
      </trkpt>
      <trkpt lat="43.43041" lon="6.05858">
        <ele>222.39999389648</ele>
        <time>2013-10-19T12:49:36Z</time>
      </trkpt>
      <trkpt lat="43.43044" lon="6.05857">
        <ele>222</ele>
        <time>2013-10-19T12:49:37Z</time>
      </trkpt>
      <trkpt lat="43.43046" lon="6.05856">
        <ele>221.60000610352</ele>
        <time>2013-10-19T12:49:38Z</time>
      </trkpt>
      <trkpt lat="43.43049" lon="6.05855">
        <ele>221</ele>
        <time>2013-10-19T12:49:39Z</time>
      </trkpt>
      <trkpt lat="43.43052" lon="6.05854">
        <ele>220.60000610352</ele>
        <time>2013-10-19T12:49:40Z</time>
      </trkpt>
      <trkpt lat="43.43055" lon="6.05853">
        <ele>220.19999694824</ele>
        <time>2013-10-19T12:49:41Z</time>
      </trkpt>
      <trkpt lat="43.43059" lon="6.05852">
        <ele>219.39999389648</ele>
        <time>2013-10-19T12:49:42Z</time>
      </trkpt>
      <trkpt lat="43.43063" lon="6.05851">
        <ele>218.19999694824</ele>
        <time>2013-10-19T12:49:43Z</time>
      </trkpt>
      <trkpt lat="43.43067" lon="6.05851">
        <ele>217.60000610352</ele>
        <time>2013-10-19T12:49:44Z</time>
      </trkpt>
      <trkpt lat="43.4307" lon="6.05851">
        <ele>216.80000305176</ele>
        <time>2013-10-19T12:49:45Z</time>
      </trkpt>
      <trkpt lat="43.43076" lon="6.0585">
        <ele>215.19999694824</ele>
        <time>2013-10-19T12:49:47Z</time>
      </trkpt>
      <trkpt lat="43.4308" lon="6.05849">
        <ele>214.60000610352</ele>
        <time>2013-10-19T12:49:48Z</time>
      </trkpt>
      <trkpt lat="43.43088" lon="6.05847">
        <ele>213.60000610352</ele>
        <time>2013-10-19T12:49:50Z</time>
      </trkpt>
      <trkpt lat="43.4309" lon="6.05845">
        <ele>213</ele>
        <time>2013-10-19T12:49:51Z</time>
      </trkpt>
      <trkpt lat="43.43092" lon="6.05845">
        <ele>212.39999389648</ele>
        <time>2013-10-19T12:49:52Z</time>
      </trkpt>
      <trkpt lat="43.43093" lon="6.05844">
        <ele>211.80000305176</ele>
        <time>2013-10-19T12:49:53Z</time>
      </trkpt>
      <trkpt lat="43.43094" lon="6.05844">
        <ele>211.19999694824</ele>
        <time>2013-10-19T12:49:54Z</time>
      </trkpt>
      <trkpt lat="43.43097" lon="6.05845">
        <ele>210.19999694824</ele>
        <time>2013-10-19T12:49:56Z</time>
      </trkpt>
      <trkpt lat="43.431" lon="6.05844">
        <ele>210.19999694824</ele>
        <time>2013-10-19T12:49:57Z</time>
      </trkpt>
      <trkpt lat="43.43102" lon="6.05843">
        <ele>209.60000610352</ele>
        <time>2013-10-19T12:49:58Z</time>
      </trkpt>
      <trkpt lat="43.43105" lon="6.05843">
        <ele>209.19999694824</ele>
        <time>2013-10-19T12:49:59Z</time>
      </trkpt>
      <trkpt lat="43.43106" lon="6.05843">
        <ele>208.80000305176</ele>
        <time>2013-10-19T12:50:00Z</time>
      </trkpt>
      <trkpt lat="43.43109" lon="6.05843">
        <ele>208.19999694824</ele>
        <time>2013-10-19T12:50:01Z</time>
      </trkpt>
      <trkpt lat="43.43115" lon="6.05845">
        <ele>207.19999694824</ele>
        <time>2013-10-19T12:50:03Z</time>
      </trkpt>
      <trkpt lat="43.43118" lon="6.05844">
        <ele>206.60000610352</ele>
        <time>2013-10-19T12:50:04Z</time>
      </trkpt>
      <trkpt lat="43.43128" lon="6.05843">
        <ele>205</ele>
        <time>2013-10-19T12:50:07Z</time>
      </trkpt>
      <trkpt lat="43.43132" lon="6.05843">
        <ele>203.80000305176</ele>
        <time>2013-10-19T12:50:08Z</time>
      </trkpt>
      <trkpt lat="43.43138" lon="6.05842">
        <ele>202.80000305176</ele>
        <time>2013-10-19T12:50:10Z</time>
      </trkpt>
      <trkpt lat="43.43153" lon="6.05836">
        <ele>200.19999694824</ele>
        <time>2013-10-19T12:50:16Z</time>
      </trkpt>
      <trkpt lat="43.43159" lon="6.05835">
        <ele>199.39999389648</ele>
        <time>2013-10-19T12:50:18Z</time>
      </trkpt>
      <trkpt lat="43.43161" lon="6.05835">
        <ele>198.80000305176</ele>
        <time>2013-10-19T12:50:19Z</time>
      </trkpt>
      <trkpt lat="43.43167" lon="6.05833">
        <ele>198.39999389648</ele>
        <time>2013-10-19T12:50:21Z</time>
      </trkpt>
      <trkpt lat="43.43171" lon="6.05832">
        <ele>197.80000305176</ele>
        <time>2013-10-19T12:50:22Z</time>
      </trkpt>
      <trkpt lat="43.43174" lon="6.05831">
        <ele>197.19999694824</ele>
        <time>2013-10-19T12:50:23Z</time>
      </trkpt>
      <trkpt lat="43.4318" lon="6.05825">
        <ele>196.19999694824</ele>
        <time>2013-10-19T12:50:25Z</time>
      </trkpt>
      <trkpt lat="43.4318" lon="6.05822">
        <ele>195.80000305176</ele>
        <time>2013-10-19T12:50:26Z</time>
      </trkpt>
      <trkpt lat="43.4318" lon="6.0582">
        <ele>195.19999694824</ele>
        <time>2013-10-19T12:50:27Z</time>
      </trkpt>
      <trkpt lat="43.43179" lon="6.05821">
        <ele>194.60000610352</ele>
        <time>2013-10-19T12:50:28Z</time>
      </trkpt>
      <trkpt lat="43.43179" lon="6.05821">
        <ele>194.19999694824</ele>
        <time>2013-10-19T12:50:29Z</time>
      </trkpt>
      <trkpt lat="43.43179" lon="6.05821">
        <ele>194.19999694824</ele>
        <time>2013-10-19T12:51:01Z</time>
      </trkpt>
      <trkpt lat="43.43179" lon="6.05821">
        <ele>194.19999694824</ele>
        <time>2013-10-19T12:51:53Z</time>
      </trkpt>
      <trkpt lat="43.43182" lon="6.05813">
        <ele>194.19999694824</ele>
        <time>2013-10-19T12:52:03Z</time>
      </trkpt>
      <trkpt lat="43.43185" lon="6.05806">
        <ele>194.19999694824</ele>
        <time>2013-10-19T12:52:05Z</time>
      </trkpt>
      <trkpt lat="43.43193" lon="6.05792">
        <ele>194.19999694824</ele>
        <time>2013-10-19T12:52:09Z</time>
      </trkpt>
      <trkpt lat="43.43204" lon="6.05776">
        <ele>193.80000305176</ele>
        <time>2013-10-19T12:52:13Z</time>
      </trkpt>
      <trkpt lat="43.43206" lon="6.05774">
        <ele>193.19999694824</ele>
        <time>2013-10-19T12:52:14Z</time>
      </trkpt>
      <trkpt lat="43.43208" lon="6.05772">
        <ele>192.80000305176</ele>
        <time>2013-10-19T12:52:15Z</time>
      </trkpt>
      <trkpt lat="43.4321" lon="6.0577">
        <ele>192.39999389648</ele>
        <time>2013-10-19T12:52:16Z</time>
      </trkpt>
      <trkpt lat="43.43213" lon="6.05759">
        <ele>192</ele>
        <time>2013-10-19T12:52:19Z</time>
      </trkpt>
      <trkpt lat="43.43214" lon="6.05737">
        <ele>192</ele>
        <time>2013-10-19T12:52:24Z</time>
      </trkpt>
      <trkpt lat="43.43216" lon="6.05724">
        <ele>192</ele>
        <time>2013-10-19T12:52:27Z</time>
      </trkpt>
      <trkpt lat="43.4322" lon="6.05689">
        <ele>192</ele>
        <time>2013-10-19T12:52:34Z</time>
      </trkpt>
      <trkpt lat="43.43221" lon="6.05662">
        <ele>192</ele>
        <time>2013-10-19T12:52:39Z</time>
      </trkpt>
      <trkpt lat="43.43222" lon="6.05644">
        <ele>192</ele>
        <time>2013-10-19T12:52:42Z</time>
      </trkpt>
      <trkpt lat="43.43225" lon="6.05625">
        <ele>192</ele>
        <time>2013-10-19T12:52:45Z</time>
      </trkpt>
      <trkpt lat="43.43228" lon="6.05591">
        <ele>192</ele>
        <time>2013-10-19T12:52:50Z</time>
      </trkpt>
      <trkpt lat="43.43229" lon="6.05577">
        <ele>192</ele>
        <time>2013-10-19T12:52:52Z</time>
      </trkpt>
      <trkpt lat="43.4323" lon="6.05571">
        <ele>192</ele>
        <time>2013-10-19T12:52:53Z</time>
      </trkpt>
      <trkpt lat="43.43233" lon="6.05554">
        <ele>192</ele>
        <time>2013-10-19T12:52:56Z</time>
      </trkpt>
      <trkpt lat="43.43235" lon="6.05548">
        <ele>191.60000610352</ele>
        <time>2013-10-19T12:52:57Z</time>
      </trkpt>
      <trkpt lat="43.43237" lon="6.05543">
        <ele>191.19999694824</ele>
        <time>2013-10-19T12:52:58Z</time>
      </trkpt>
      <trkpt lat="43.43239" lon="6.05537">
        <ele>190.80000305176</ele>
        <time>2013-10-19T12:52:59Z</time>
      </trkpt>
      <trkpt lat="43.4324" lon="6.05531">
        <ele>190.39999389648</ele>
        <time>2013-10-19T12:53:00Z</time>
      </trkpt>
      <trkpt lat="43.43242" lon="6.05525">
        <ele>190</ele>
        <time>2013-10-19T12:53:01Z</time>
      </trkpt>
      <trkpt lat="43.43246" lon="6.05511">
        <ele>190</ele>
        <time>2013-10-19T12:53:04Z</time>
      </trkpt>
      <trkpt lat="43.43255" lon="6.05481">
        <ele>189.39999389648</ele>
        <time>2013-10-19T12:53:09Z</time>
      </trkpt>
      <trkpt lat="43.4326" lon="6.05466">
        <ele>188.39999389648</ele>
        <time>2013-10-19T12:53:11Z</time>
      </trkpt>
      <trkpt lat="43.43266" lon="6.05451">
        <ele>187.39999389648</ele>
        <time>2013-10-19T12:53:13Z</time>
      </trkpt>
      <trkpt lat="43.43272" lon="6.05434">
        <ele>187</ele>
        <time>2013-10-19T12:53:15Z</time>
      </trkpt>
      <trkpt lat="43.43275" lon="6.05426">
        <ele>186.60000610352</ele>
        <time>2013-10-19T12:53:16Z</time>
      </trkpt>
      <trkpt lat="43.43278" lon="6.05418">
        <ele>186</ele>
        <time>2013-10-19T12:53:17Z</time>
      </trkpt>
      <trkpt lat="43.43281" lon="6.05411">
        <ele>185.60000610352</ele>
        <time>2013-10-19T12:53:18Z</time>
      </trkpt>
      <trkpt lat="43.43284" lon="6.05404">
        <ele>185.19999694824</ele>
        <time>2013-10-19T12:53:19Z</time>
      </trkpt>
      <trkpt lat="43.43287" lon="6.05398">
        <ele>185.19999694824</ele>
        <time>2013-10-19T12:53:20Z</time>
      </trkpt>
      <trkpt lat="43.43298" lon="6.05376">
        <ele>185.19999694824</ele>
        <time>2013-10-19T12:53:24Z</time>
      </trkpt>
      <trkpt lat="43.43306" lon="6.05361">
        <ele>185.19999694824</ele>
        <time>2013-10-19T12:53:27Z</time>
      </trkpt>
      <trkpt lat="43.43307" lon="6.05357">
        <ele>185.19999694824</ele>
        <time>2013-10-19T12:53:28Z</time>
      </trkpt>
      <trkpt lat="43.43314" lon="6.05342">
        <ele>185.19999694824</ele>
        <time>2013-10-19T12:53:31Z</time>
      </trkpt>
      <trkpt lat="43.43332" lon="6.053">
        <ele>185.19999694824</ele>
        <time>2013-10-19T12:53:37Z</time>
      </trkpt>
      <trkpt lat="43.43341" lon="6.05276">
        <ele>185.19999694824</ele>
        <time>2013-10-19T12:53:40Z</time>
      </trkpt>
      <trkpt lat="43.43346" lon="6.05261">
        <ele>185.19999694824</ele>
        <time>2013-10-19T12:53:42Z</time>
      </trkpt>
      <trkpt lat="43.43352" lon="6.05248">
        <ele>185.19999694824</ele>
        <time>2013-10-19T12:53:44Z</time>
      </trkpt>
      <trkpt lat="43.43357" lon="6.05234">
        <ele>185.19999694824</ele>
        <time>2013-10-19T12:53:46Z</time>
      </trkpt>
      <trkpt lat="43.43363" lon="6.05213">
        <ele>185.19999694824</ele>
        <time>2013-10-19T12:53:49Z</time>
      </trkpt>
      <trkpt lat="43.43367" lon="6.052">
        <ele>184.39999389648</ele>
        <time>2013-10-19T12:53:51Z</time>
      </trkpt>
      <trkpt lat="43.43371" lon="6.05187">
        <ele>183.60000610352</ele>
        <time>2013-10-19T12:53:53Z</time>
      </trkpt>
      <trkpt lat="43.43373" lon="6.05181">
        <ele>183.19999694824</ele>
        <time>2013-10-19T12:53:54Z</time>
      </trkpt>
      <trkpt lat="43.43378" lon="6.0517">
        <ele>183.19999694824</ele>
        <time>2013-10-19T12:53:56Z</time>
      </trkpt>
      <trkpt lat="43.43384" lon="6.05148">
        <ele>183.19999694824</ele>
        <time>2013-10-19T12:54:00Z</time>
      </trkpt>
      <trkpt lat="43.43386" lon="6.05138">
        <ele>184</ele>
        <time>2013-10-19T12:54:02Z</time>
      </trkpt>
      <trkpt lat="43.43388" lon="6.05134">
        <ele>184.60000610352</ele>
        <time>2013-10-19T12:54:03Z</time>
      </trkpt>
      <trkpt lat="43.4339" lon="6.0513">
        <ele>185</ele>
        <time>2013-10-19T12:54:04Z</time>
      </trkpt>
      <trkpt lat="43.43393" lon="6.05119">
        <ele>185.39999389648</ele>
        <time>2013-10-19T12:54:07Z</time>
      </trkpt>
      <trkpt lat="43.43396" lon="6.05106">
        <ele>185.39999389648</ele>
        <time>2013-10-19T12:54:12Z</time>
      </trkpt>
      <trkpt lat="43.43397" lon="6.05105">
        <ele>185.39999389648</ele>
        <time>2013-10-19T12:54:13Z</time>
      </trkpt>
      <trkpt lat="43.43399" lon="6.05096">
        <ele>185.39999389648</ele>
        <time>2013-10-19T12:54:18Z</time>
      </trkpt>
      <trkpt lat="43.43401" lon="6.05091">
        <ele>185.39999389648</ele>
        <time>2013-10-19T12:54:20Z</time>
      </trkpt>
      <trkpt lat="43.43406" lon="6.05077">
        <ele>185.39999389648</ele>
        <time>2013-10-19T12:54:25Z</time>
      </trkpt>
      <trkpt lat="43.43409" lon="6.05061">
        <ele>185.39999389648</ele>
        <time>2013-10-19T12:54:29Z</time>
      </trkpt>
      <trkpt lat="43.4341" lon="6.05057">
        <ele>185.39999389648</ele>
        <time>2013-10-19T12:54:30Z</time>
      </trkpt>
      <trkpt lat="43.43414" lon="6.05037">
        <ele>185.39999389648</ele>
        <time>2013-10-19T12:54:34Z</time>
      </trkpt>
      <trkpt lat="43.43415" lon="6.05025">
        <ele>185.39999389648</ele>
        <time>2013-10-19T12:54:36Z</time>
      </trkpt>
      <trkpt lat="43.43417" lon="6.05019">
        <ele>185</ele>
        <time>2013-10-19T12:54:37Z</time>
      </trkpt>
      <trkpt lat="43.43419" lon="6.05007">
        <ele>184.19999694824</ele>
        <time>2013-10-19T12:54:39Z</time>
      </trkpt>
      <trkpt lat="43.4342" lon="6.05">
        <ele>183.39999389648</ele>
        <time>2013-10-19T12:54:40Z</time>
      </trkpt>
      <trkpt lat="43.43425" lon="6.04972">
        <ele>183.39999389648</ele>
        <time>2013-10-19T12:54:44Z</time>
      </trkpt>
      <trkpt lat="43.43427" lon="6.0495">
        <ele>183.39999389648</ele>
        <time>2013-10-19T12:54:47Z</time>
      </trkpt>
      <trkpt lat="43.43428" lon="6.04935">
        <ele>183.39999389648</ele>
        <time>2013-10-19T12:54:49Z</time>
      </trkpt>
      <trkpt lat="43.43431" lon="6.04905">
        <ele>183.39999389648</ele>
        <time>2013-10-19T12:54:53Z</time>
      </trkpt>
      <trkpt lat="43.43434" lon="6.04866">
        <ele>183.39999389648</ele>
        <time>2013-10-19T12:54:58Z</time>
      </trkpt>
      <trkpt lat="43.43434" lon="6.0485">
        <ele>183.39999389648</ele>
        <time>2013-10-19T12:55:00Z</time>
      </trkpt>
      <trkpt lat="43.43435" lon="6.04834">
        <ele>183.39999389648</ele>
        <time>2013-10-19T12:55:02Z</time>
      </trkpt>
      <trkpt lat="43.43436" lon="6.04801">
        <ele>183.39999389648</ele>
        <time>2013-10-19T12:55:06Z</time>
      </trkpt>
      <trkpt lat="43.43438" lon="6.04778">
        <ele>183.39999389648</ele>
        <time>2013-10-19T12:55:09Z</time>
      </trkpt>
      <trkpt lat="43.43439" lon="6.04756">
        <ele>183.39999389648</ele>
        <time>2013-10-19T12:55:12Z</time>
      </trkpt>
      <trkpt lat="43.43441" lon="6.04734">
        <ele>183.39999389648</ele>
        <time>2013-10-19T12:55:15Z</time>
      </trkpt>
      <trkpt lat="43.43444" lon="6.04702">
        <ele>183.39999389648</ele>
        <time>2013-10-19T12:55:20Z</time>
      </trkpt>
      <trkpt lat="43.4345" lon="6.0468">
        <ele>183.39999389648</ele>
        <time>2013-10-19T12:55:24Z</time>
      </trkpt>
      <trkpt lat="43.43451" lon="6.04676">
        <ele>183.39999389648</ele>
        <time>2013-10-19T12:55:25Z</time>
      </trkpt>
      <trkpt lat="43.43451" lon="6.04662">
        <ele>185.60000610352</ele>
        <time>2013-10-19T12:55:29Z</time>
      </trkpt>
      <trkpt lat="43.43453" lon="6.04652">
        <ele>185.60000610352</ele>
        <time>2013-10-19T12:55:33Z</time>
      </trkpt>
      <trkpt lat="43.43456" lon="6.04638">
        <ele>185.60000610352</ele>
        <time>2013-10-19T12:55:38Z</time>
      </trkpt>
      <trkpt lat="43.43458" lon="6.04628">
        <ele>185.60000610352</ele>
        <time>2013-10-19T12:55:41Z</time>
      </trkpt>
      <trkpt lat="43.43461" lon="6.04605">
        <ele>185.60000610352</ele>
        <time>2013-10-19T12:55:48Z</time>
      </trkpt>
      <trkpt lat="43.43461" lon="6.04591">
        <ele>185.60000610352</ele>
        <time>2013-10-19T12:55:52Z</time>
      </trkpt>
      <trkpt lat="43.43462" lon="6.04585">
        <ele>185.60000610352</ele>
        <time>2013-10-19T12:55:54Z</time>
      </trkpt>
      <trkpt lat="43.43465" lon="6.04575">
        <ele>185.60000610352</ele>
        <time>2013-10-19T12:55:58Z</time>
      </trkpt>
      <trkpt lat="43.43467" lon="6.0457">
        <ele>185.60000610352</ele>
        <time>2013-10-19T12:56:00Z</time>
      </trkpt>
      <trkpt lat="43.43474" lon="6.04558">
        <ele>185.60000610352</ele>
        <time>2013-10-19T12:56:05Z</time>
      </trkpt>
      <trkpt lat="43.43478" lon="6.0455">
        <ele>185.60000610352</ele>
        <time>2013-10-19T12:56:08Z</time>
      </trkpt>
      <trkpt lat="43.43486" lon="6.04527">
        <ele>185.60000610352</ele>
        <time>2013-10-19T12:56:15Z</time>
      </trkpt>
      <trkpt lat="43.43491" lon="6.04503">
        <ele>185.60000610352</ele>
        <time>2013-10-19T12:56:21Z</time>
      </trkpt>
      <trkpt lat="43.43495" lon="6.04476">
        <ele>185.60000610352</ele>
        <time>2013-10-19T12:56:27Z</time>
      </trkpt>
      <trkpt lat="43.43495" lon="6.04472">
        <ele>185.60000610352</ele>
        <time>2013-10-19T12:56:28Z</time>
      </trkpt>
      <trkpt lat="43.43491" lon="6.04445">
        <ele>185.60000610352</ele>
        <time>2013-10-19T12:56:35Z</time>
      </trkpt>
      <trkpt lat="43.43488" lon="6.04421">
        <ele>185.60000610352</ele>
        <time>2013-10-19T12:56:41Z</time>
      </trkpt>
      <trkpt lat="43.43486" lon="6.04383">
        <ele>186.39999389648</ele>
        <time>2013-10-19T12:56:51Z</time>
      </trkpt>
      <trkpt lat="43.43486" lon="6.0438">
        <ele>186.80000305176</ele>
        <time>2013-10-19T12:56:52Z</time>
      </trkpt>
      <trkpt lat="43.43487" lon="6.04372">
        <ele>187.60000610352</ele>
        <time>2013-10-19T12:56:54Z</time>
      </trkpt>
      <trkpt lat="43.4349" lon="6.0435">
        <ele>187.60000610352</ele>
        <time>2013-10-19T12:57:00Z</time>
      </trkpt>
      <trkpt lat="43.43492" lon="6.04318">
        <ele>187.60000610352</ele>
        <time>2013-10-19T12:57:07Z</time>
      </trkpt>
      <trkpt lat="43.43499" lon="6.04276">
        <ele>187.60000610352</ele>
        <time>2013-10-19T12:57:15Z</time>
      </trkpt>
      <trkpt lat="43.43513" lon="6.04246">
        <ele>187.60000610352</ele>
        <time>2013-10-19T12:57:22Z</time>
      </trkpt>
      <trkpt lat="43.43526" lon="6.04235">
        <ele>187.60000610352</ele>
        <time>2013-10-19T12:57:26Z</time>
      </trkpt>
      <trkpt lat="43.4353" lon="6.04231">
        <ele>187.60000610352</ele>
        <time>2013-10-19T12:57:27Z</time>
      </trkpt>
      <trkpt lat="43.43537" lon="6.04219">
        <ele>187.60000610352</ele>
        <time>2013-10-19T12:57:30Z</time>
      </trkpt>
      <trkpt lat="43.4354" lon="6.0421">
        <ele>187.60000610352</ele>
        <time>2013-10-19T12:57:32Z</time>
      </trkpt>
      <trkpt lat="43.43538" lon="6.04188">
        <ele>187.60000610352</ele>
        <time>2013-10-19T12:57:37Z</time>
      </trkpt>
      <trkpt lat="43.43535" lon="6.04177">
        <ele>187.60000610352</ele>
        <time>2013-10-19T12:57:40Z</time>
      </trkpt>
      <trkpt lat="43.43534" lon="6.0417">
        <ele>187.60000610352</ele>
        <time>2013-10-19T12:57:42Z</time>
      </trkpt>
      <trkpt lat="43.43535" lon="6.04158">
        <ele>187.60000610352</ele>
        <time>2013-10-19T12:57:45Z</time>
      </trkpt>
      <trkpt lat="43.43537" lon="6.0415">
        <ele>187.60000610352</ele>
        <time>2013-10-19T12:57:47Z</time>
      </trkpt>
      <trkpt lat="43.43546" lon="6.0413">
        <ele>187.60000610352</ele>
        <time>2013-10-19T12:57:53Z</time>
      </trkpt>
      <trkpt lat="43.43554" lon="6.0411">
        <ele>187.60000610352</ele>
        <time>2013-10-19T12:57:58Z</time>
      </trkpt>
      <trkpt lat="43.43562" lon="6.04092">
        <ele>187.60000610352</ele>
        <time>2013-10-19T12:58:02Z</time>
      </trkpt>
      <trkpt lat="43.43563" lon="6.04087">
        <ele>187.60000610352</ele>
        <time>2013-10-19T12:58:03Z</time>
      </trkpt>
      <trkpt lat="43.43573" lon="6.04061">
        <ele>187.60000610352</ele>
        <time>2013-10-19T12:58:09Z</time>
      </trkpt>
      <trkpt lat="43.43581" lon="6.04048">
        <ele>188</ele>
        <time>2013-10-19T12:58:13Z</time>
      </trkpt>
      <trkpt lat="43.43589" lon="6.04036">
        <ele>189.60000610352</ele>
        <time>2013-10-19T12:58:17Z</time>
      </trkpt>
      <trkpt lat="43.43597" lon="6.04024">
        <ele>189.60000610352</ele>
        <time>2013-10-19T12:58:21Z</time>
      </trkpt>
      <trkpt lat="43.43599" lon="6.04017">
        <ele>190</ele>
        <time>2013-10-19T12:58:23Z</time>
      </trkpt>
      <trkpt lat="43.43601" lon="6.04014">
        <ele>190.39999389648</ele>
        <time>2013-10-19T12:58:24Z</time>
      </trkpt>
      <trkpt lat="43.43602" lon="6.04011">
        <ele>190.80000305176</ele>
        <time>2013-10-19T12:58:25Z</time>
      </trkpt>
      <trkpt lat="43.43602" lon="6.04008">
        <ele>191.19999694824</ele>
        <time>2013-10-19T12:58:26Z</time>
      </trkpt>
      <trkpt lat="43.43608" lon="6.03978">
        <ele>191.80000305176</ele>
        <time>2013-10-19T12:58:33Z</time>
      </trkpt>
      <trkpt lat="43.4361" lon="6.03965">
        <ele>191.80000305176</ele>
        <time>2013-10-19T12:58:35Z</time>
      </trkpt>
      <trkpt lat="43.4361" lon="6.03949">
        <ele>191.80000305176</ele>
        <time>2013-10-19T12:58:37Z</time>
      </trkpt>
      <trkpt lat="43.43605" lon="6.03939">
        <ele>190.80000305176</ele>
        <time>2013-10-19T12:58:39Z</time>
      </trkpt>
      <trkpt lat="43.43602" lon="6.03935">
        <ele>190.39999389648</ele>
        <time>2013-10-19T12:58:40Z</time>
      </trkpt>
      <trkpt lat="43.436" lon="6.03931">
        <ele>190</ele>
        <time>2013-10-19T12:58:41Z</time>
      </trkpt>
      <trkpt lat="43.43597" lon="6.03923">
        <ele>189.60000610352</ele>
        <time>2013-10-19T12:58:43Z</time>
      </trkpt>
      <trkpt lat="43.43596" lon="6.03919">
        <ele>189.60000610352</ele>
        <time>2013-10-19T12:58:44Z</time>
      </trkpt>
      <trkpt lat="43.43593" lon="6.03896">
        <ele>189.60000610352</ele>
        <time>2013-10-19T12:58:50Z</time>
      </trkpt>
      <trkpt lat="43.43591" lon="6.03873">
        <ele>189.60000610352</ele>
        <time>2013-10-19T12:58:56Z</time>
      </trkpt>
      <trkpt lat="43.43591" lon="6.0386">
        <ele>190.80000305176</ele>
        <time>2013-10-19T12:59:00Z</time>
      </trkpt>
      <trkpt lat="43.43591" lon="6.03856">
        <ele>191.19999694824</ele>
        <time>2013-10-19T12:59:01Z</time>
      </trkpt>
      <trkpt lat="43.43587" lon="6.03832">
        <ele>191.60000610352</ele>
        <time>2013-10-19T12:59:08Z</time>
      </trkpt>
      <trkpt lat="43.43581" lon="6.03814">
        <ele>192</ele>
        <time>2013-10-19T12:59:14Z</time>
      </trkpt>
      <trkpt lat="43.43578" lon="6.03808">
        <ele>193</ele>
        <time>2013-10-19T12:59:16Z</time>
      </trkpt>
      <trkpt lat="43.43575" lon="6.03803">
        <ele>193.80000305176</ele>
        <time>2013-10-19T12:59:18Z</time>
      </trkpt>
      <trkpt lat="43.43571" lon="6.03787">
        <ele>193.80000305176</ele>
        <time>2013-10-19T12:59:23Z</time>
      </trkpt>
      <trkpt lat="43.43571" lon="6.0378">
        <ele>193.80000305176</ele>
        <time>2013-10-19T12:59:25Z</time>
      </trkpt>
      <trkpt lat="43.43573" lon="6.03769">
        <ele>193.80000305176</ele>
        <time>2013-10-19T12:59:28Z</time>
      </trkpt>
      <trkpt lat="43.43573" lon="6.03744">
        <ele>193.80000305176</ele>
        <time>2013-10-19T12:59:34Z</time>
      </trkpt>
      <trkpt lat="43.43574" lon="6.03728">
        <ele>193.80000305176</ele>
        <time>2013-10-19T12:59:37Z</time>
      </trkpt>
      <trkpt lat="43.43572" lon="6.03713">
        <ele>193.80000305176</ele>
        <time>2013-10-19T12:59:40Z</time>
      </trkpt>
      <trkpt lat="43.43576" lon="6.03685">
        <ele>193.80000305176</ele>
        <time>2013-10-19T12:59:46Z</time>
      </trkpt>
      <trkpt lat="43.43576" lon="6.03674">
        <ele>193.80000305176</ele>
        <time>2013-10-19T12:59:49Z</time>
      </trkpt>
      <trkpt lat="43.43575" lon="6.03672">
        <ele>193.80000305176</ele>
        <time>2013-10-19T12:59:50Z</time>
      </trkpt>
      <trkpt lat="43.43574" lon="6.03666">
        <ele>193.80000305176</ele>
        <time>2013-10-19T12:59:53Z</time>
      </trkpt>
      <trkpt lat="43.43575" lon="6.03661">
        <ele>193.80000305176</ele>
        <time>2013-10-19T12:59:55Z</time>
      </trkpt>
      <trkpt lat="43.43576" lon="6.03659">
        <ele>193.80000305176</ele>
        <time>2013-10-19T12:59:56Z</time>
      </trkpt>
      <trkpt lat="43.43582" lon="6.03637">
        <ele>193.80000305176</ele>
        <time>2013-10-19T13:00:02Z</time>
      </trkpt>
      <trkpt lat="43.43583" lon="6.03612">
        <ele>193.80000305176</ele>
        <time>2013-10-19T13:00:08Z</time>
      </trkpt>
      <trkpt lat="43.43584" lon="6.03585">
        <ele>193.80000305176</ele>
        <time>2013-10-19T13:00:14Z</time>
      </trkpt>
      <trkpt lat="43.43586" lon="6.03573">
        <ele>193.80000305176</ele>
        <time>2013-10-19T13:00:18Z</time>
      </trkpt>
      <trkpt lat="43.43586" lon="6.03571">
        <ele>193.80000305176</ele>
        <time>2013-10-19T13:00:19Z</time>
      </trkpt>
      <trkpt lat="43.43586" lon="6.03568">
        <ele>193.80000305176</ele>
        <time>2013-10-19T13:00:24Z</time>
      </trkpt>
      <trkpt lat="43.43586" lon="6.03568">
        <ele>193.80000305176</ele>
        <time>2013-10-19T13:00:32Z</time>
      </trkpt>
      <trkpt lat="43.43587" lon="6.03568">
        <ele>193.80000305176</ele>
        <time>2013-10-19T13:00:35Z</time>
      </trkpt>
      <trkpt lat="43.43588" lon="6.03566">
        <ele>193.80000305176</ele>
        <time>2013-10-19T13:00:37Z</time>
      </trkpt>
      <trkpt lat="43.4359" lon="6.03564">
        <ele>193.80000305176</ele>
        <time>2013-10-19T13:00:39Z</time>
      </trkpt>
      <trkpt lat="43.43595" lon="6.03555">
        <ele>193.80000305176</ele>
        <time>2013-10-19T13:00:42Z</time>
      </trkpt>
      <trkpt lat="43.43604" lon="6.03536">
        <ele>193.80000305176</ele>
        <time>2013-10-19T13:00:47Z</time>
      </trkpt>
      <trkpt lat="43.43612" lon="6.03506">
        <ele>193.80000305176</ele>
        <time>2013-10-19T13:00:54Z</time>
      </trkpt>
      <trkpt lat="43.43615" lon="6.03485">
        <ele>193.80000305176</ele>
        <time>2013-10-19T13:00:59Z</time>
      </trkpt>
      <trkpt lat="43.4362" lon="6.0347">
        <ele>193.80000305176</ele>
        <time>2013-10-19T13:01:03Z</time>
      </trkpt>
      <trkpt lat="43.43624" lon="6.03449">
        <ele>193.80000305176</ele>
        <time>2013-10-19T13:01:08Z</time>
      </trkpt>
      <trkpt lat="43.43625" lon="6.03445">
        <ele>193.80000305176</ele>
        <time>2013-10-19T13:01:09Z</time>
      </trkpt>
      <trkpt lat="43.43626" lon="6.0342">
        <ele>193.80000305176</ele>
        <time>2013-10-19T13:01:15Z</time>
      </trkpt>
      <trkpt lat="43.43627" lon="6.03394">
        <ele>193.80000305176</ele>
        <time>2013-10-19T13:01:20Z</time>
      </trkpt>
      <trkpt lat="43.43633" lon="6.03382">
        <ele>193.80000305176</ele>
        <time>2013-10-19T13:01:23Z</time>
      </trkpt>
      <trkpt lat="43.43645" lon="6.0336">
        <ele>193.80000305176</ele>
        <time>2013-10-19T13:01:29Z</time>
      </trkpt>
      <trkpt lat="43.43658" lon="6.03336">
        <ele>193.80000305176</ele>
        <time>2013-10-19T13:01:35Z</time>
      </trkpt>
      <trkpt lat="43.43666" lon="6.03317">
        <ele>193.80000305176</ele>
        <time>2013-10-19T13:01:39Z</time>
      </trkpt>
      <trkpt lat="43.4367" lon="6.03304">
        <ele>193.80000305176</ele>
        <time>2013-10-19T13:01:43Z</time>
      </trkpt>
      <trkpt lat="43.43682" lon="6.03284">
        <ele>193.80000305176</ele>
        <time>2013-10-19T13:01:50Z</time>
      </trkpt>
      <trkpt lat="43.43689" lon="6.0326">
        <ele>193.80000305176</ele>
        <time>2013-10-19T13:01:57Z</time>
      </trkpt>
      <trkpt lat="43.43688" lon="6.03244">
        <ele>193.80000305176</ele>
        <time>2013-10-19T13:02:01Z</time>
      </trkpt>
      <trkpt lat="43.43687" lon="6.03222">
        <ele>193.80000305176</ele>
        <time>2013-10-19T13:02:07Z</time>
      </trkpt>
      <trkpt lat="43.43694" lon="6.03192">
        <ele>194.60000610352</ele>
        <time>2013-10-19T13:02:16Z</time>
      </trkpt>
      <trkpt lat="43.43695" lon="6.03188">
        <ele>195</ele>
        <time>2013-10-19T13:02:17Z</time>
      </trkpt>
      <trkpt lat="43.43694" lon="6.03185">
        <ele>195.39999389648</ele>
        <time>2013-10-19T13:02:18Z</time>
      </trkpt>
      <trkpt lat="43.43693" lon="6.03181">
        <ele>195.80000305176</ele>
        <time>2013-10-19T13:02:19Z</time>
      </trkpt>
      <trkpt lat="43.43693" lon="6.03161">
        <ele>195.80000305176</ele>
        <time>2013-10-19T13:02:25Z</time>
      </trkpt>
      <trkpt lat="43.43689" lon="6.03151">
        <ele>195.80000305176</ele>
        <time>2013-10-19T13:02:30Z</time>
      </trkpt>
      <trkpt lat="43.43687" lon="6.03149">
        <ele>195.80000305176</ele>
        <time>2013-10-19T13:02:32Z</time>
      </trkpt>
      <trkpt lat="43.43688" lon="6.03143">
        <ele>195.80000305176</ele>
        <time>2013-10-19T13:02:35Z</time>
      </trkpt>
      <trkpt lat="43.43691" lon="6.03136">
        <ele>195.80000305176</ele>
        <time>2013-10-19T13:02:40Z</time>
      </trkpt>
      <trkpt lat="43.43691" lon="6.03129">
        <ele>195.80000305176</ele>
        <time>2013-10-19T13:02:42Z</time>
      </trkpt>
      <trkpt lat="43.43692" lon="6.03115">
        <ele>195.80000305176</ele>
        <time>2013-10-19T13:02:45Z</time>
      </trkpt>
      <trkpt lat="43.43699" lon="6.03079">
        <ele>195.80000305176</ele>
        <time>2013-10-19T13:02:52Z</time>
      </trkpt>
      <trkpt lat="43.43712" lon="6.03061">
        <ele>195.80000305176</ele>
        <time>2013-10-19T13:02:57Z</time>
      </trkpt>
      <trkpt lat="43.43722" lon="6.03055">
        <ele>195.80000305176</ele>
        <time>2013-10-19T13:03:00Z</time>
      </trkpt>
      <trkpt lat="43.43734" lon="6.03047">
        <ele>195.80000305176</ele>
        <time>2013-10-19T13:03:03Z</time>
      </trkpt>
      <trkpt lat="43.43746" lon="6.03041">
        <ele>195.80000305176</ele>
        <time>2013-10-19T13:03:06Z</time>
      </trkpt>
      <trkpt lat="43.43758" lon="6.03036">
        <ele>195.39999389648</ele>
        <time>2013-10-19T13:03:09Z</time>
      </trkpt>
      <trkpt lat="43.43761" lon="6.03033">
        <ele>194.80000305176</ele>
        <time>2013-10-19T13:03:10Z</time>
      </trkpt>
      <trkpt lat="43.43769" lon="6.03016">
        <ele>193.19999694824</ele>
        <time>2013-10-19T13:03:14Z</time>
      </trkpt>
      <trkpt lat="43.43775" lon="6.03006">
        <ele>193.19999694824</ele>
        <time>2013-10-19T13:03:17Z</time>
      </trkpt>
      <trkpt lat="43.43779" lon="6.02998">
        <ele>193.19999694824</ele>
        <time>2013-10-19T13:03:19Z</time>
      </trkpt>
      <trkpt lat="43.43786" lon="6.02979">
        <ele>193.19999694824</ele>
        <time>2013-10-19T13:03:23Z</time>
      </trkpt>
      <trkpt lat="43.43788" lon="6.02956">
        <ele>193.19999694824</ele>
        <time>2013-10-19T13:03:28Z</time>
      </trkpt>
      <trkpt lat="43.43795" lon="6.02933">
        <ele>193.19999694824</ele>
        <time>2013-10-19T13:03:34Z</time>
      </trkpt>
      <trkpt lat="43.43795" lon="6.02913">
        <ele>193.19999694824</ele>
        <time>2013-10-19T13:03:39Z</time>
      </trkpt>
      <trkpt lat="43.43794" lon="6.02905">
        <ele>193.19999694824</ele>
        <time>2013-10-19T13:03:41Z</time>
      </trkpt>
      <trkpt lat="43.43795" lon="6.02887">
        <ele>193.19999694824</ele>
        <time>2013-10-19T13:03:45Z</time>
      </trkpt>
      <trkpt lat="43.43798" lon="6.02871">
        <ele>193.19999694824</ele>
        <time>2013-10-19T13:03:49Z</time>
      </trkpt>
      <trkpt lat="43.43806" lon="6.02845">
        <ele>193.19999694824</ele>
        <time>2013-10-19T13:03:55Z</time>
      </trkpt>
      <trkpt lat="43.4381" lon="6.02829">
        <ele>193.19999694824</ele>
        <time>2013-10-19T13:03:59Z</time>
      </trkpt>
      <trkpt lat="43.43806" lon="6.02813">
        <ele>194.19999694824</ele>
        <time>2013-10-19T13:04:05Z</time>
      </trkpt>
      <trkpt lat="43.43803" lon="6.02808">
        <ele>195.39999389648</ele>
        <time>2013-10-19T13:04:07Z</time>
      </trkpt>
      <trkpt lat="43.43798" lon="6.02802">
        <ele>195.39999389648</ele>
        <time>2013-10-19T13:04:10Z</time>
      </trkpt>
      <trkpt lat="43.4379" lon="6.02789">
        <ele>195.39999389648</ele>
        <time>2013-10-19T13:04:15Z</time>
      </trkpt>
      <trkpt lat="43.43786" lon="6.02779">
        <ele>195.39999389648</ele>
        <time>2013-10-19T13:04:18Z</time>
      </trkpt>
      <trkpt lat="43.43785" lon="6.02776">
        <ele>195.39999389648</ele>
        <time>2013-10-19T13:04:19Z</time>
      </trkpt>
      <trkpt lat="43.43785" lon="6.02763">
        <ele>195.39999389648</ele>
        <time>2013-10-19T13:04:23Z</time>
      </trkpt>
      <trkpt lat="43.43789" lon="6.0275">
        <ele>195.39999389648</ele>
        <time>2013-10-19T13:04:28Z</time>
      </trkpt>
      <trkpt lat="43.43787" lon="6.02735">
        <ele>196.60000610352</ele>
        <time>2013-10-19T13:04:32Z</time>
      </trkpt>
      <trkpt lat="43.43787" lon="6.02731">
        <ele>197</ele>
        <time>2013-10-19T13:04:33Z</time>
      </trkpt>
      <trkpt lat="43.43781" lon="6.02723">
        <ele>197.39999389648</ele>
        <time>2013-10-19T13:04:37Z</time>
      </trkpt>
      <trkpt lat="43.43774" lon="6.02721">
        <ele>197.39999389648</ele>
        <time>2013-10-19T13:04:40Z</time>
      </trkpt>
      <trkpt lat="43.43772" lon="6.02719">
        <ele>197.39999389648</ele>
        <time>2013-10-19T13:04:41Z</time>
      </trkpt>
      <trkpt lat="43.43768" lon="6.02716">
        <ele>197.39999389648</ele>
        <time>2013-10-19T13:04:43Z</time>
      </trkpt>
      <trkpt lat="43.43764" lon="6.0271">
        <ele>197.39999389648</ele>
        <time>2013-10-19T13:04:46Z</time>
      </trkpt>
      <trkpt lat="43.43767" lon="6.02705">
        <ele>197.39999389648</ele>
        <time>2013-10-19T13:04:49Z</time>
      </trkpt>
      <trkpt lat="43.43778" lon="6.02697">
        <ele>199.19999694824</ele>
        <time>2013-10-19T13:04:55Z</time>
      </trkpt>
      <trkpt lat="43.43784" lon="6.02686">
        <ele>199.60000610352</ele>
        <time>2013-10-19T13:05:01Z</time>
      </trkpt>
      <trkpt lat="43.43785" lon="6.02683">
        <ele>199.60000610352</ele>
        <time>2013-10-19T13:05:03Z</time>
      </trkpt>
      <trkpt lat="43.43785" lon="6.02679">
        <ele>199.60000610352</ele>
        <time>2013-10-19T13:05:05Z</time>
      </trkpt>
      <trkpt lat="43.43784" lon="6.02672">
        <ele>199.60000610352</ele>
        <time>2013-10-19T13:05:08Z</time>
      </trkpt>
      <trkpt lat="43.43784" lon="6.02668">
        <ele>199.60000610352</ele>
        <time>2013-10-19T13:05:10Z</time>
      </trkpt>
      <trkpt lat="43.43784" lon="6.02653">
        <ele>199.60000610352</ele>
        <time>2013-10-19T13:05:17Z</time>
      </trkpt>
      <trkpt lat="43.43785" lon="6.02629">
        <ele>199.60000610352</ele>
        <time>2013-10-19T13:05:24Z</time>
      </trkpt>
      <trkpt lat="43.43792" lon="6.02611">
        <ele>199.60000610352</ele>
        <time>2013-10-19T13:05:30Z</time>
      </trkpt>
      <trkpt lat="43.43792" lon="6.02608">
        <ele>199.60000610352</ele>
        <time>2013-10-19T13:05:31Z</time>
      </trkpt>
      <trkpt lat="43.43793" lon="6.02603">
        <ele>199.60000610352</ele>
        <time>2013-10-19T13:05:33Z</time>
      </trkpt>
      <trkpt lat="43.43793" lon="6.02598">
        <ele>199.60000610352</ele>
        <time>2013-10-19T13:05:36Z</time>
      </trkpt>
      <trkpt lat="43.43793" lon="6.02597">
        <ele>199.60000610352</ele>
        <time>2013-10-19T13:05:39Z</time>
      </trkpt>
      <trkpt lat="43.43793" lon="6.02597">
        <ele>199.60000610352</ele>
        <time>2013-10-19T13:05:42Z</time>
      </trkpt>
      <trkpt lat="43.43794" lon="6.02581">
        <ele>199.60000610352</ele>
        <time>2013-10-19T13:05:50Z</time>
      </trkpt>
      <trkpt lat="43.43793" lon="6.0257">
        <ele>199.60000610352</ele>
        <time>2013-10-19T13:05:54Z</time>
      </trkpt>
      <trkpt lat="43.43791" lon="6.02565">
        <ele>199.60000610352</ele>
        <time>2013-10-19T13:05:56Z</time>
      </trkpt>
      <trkpt lat="43.43791" lon="6.02546">
        <ele>199.60000610352</ele>
        <time>2013-10-19T13:06:02Z</time>
      </trkpt>
      <trkpt lat="43.4379" lon="6.02533">
        <ele>199.60000610352</ele>
        <time>2013-10-19T13:06:07Z</time>
      </trkpt>
      <trkpt lat="43.43793" lon="6.02522">
        <ele>199.60000610352</ele>
        <time>2013-10-19T13:06:12Z</time>
      </trkpt>
      <trkpt lat="43.43797" lon="6.02514">
        <ele>199.60000610352</ele>
        <time>2013-10-19T13:06:16Z</time>
      </trkpt>
      <trkpt lat="43.43795" lon="6.02501">
        <ele>199.60000610352</ele>
        <time>2013-10-19T13:06:21Z</time>
      </trkpt>
      <trkpt lat="43.43797" lon="6.02489">
        <ele>199.60000610352</ele>
        <time>2013-10-19T13:06:27Z</time>
      </trkpt>
      <trkpt lat="43.43795" lon="6.0248">
        <ele>199.60000610352</ele>
        <time>2013-10-19T13:06:31Z</time>
      </trkpt>
      <trkpt lat="43.43794" lon="6.02478">
        <ele>199.60000610352</ele>
        <time>2013-10-19T13:06:32Z</time>
      </trkpt>
      <trkpt lat="43.43793" lon="6.02477">
        <ele>199.60000610352</ele>
        <time>2013-10-19T13:06:33Z</time>
      </trkpt>
      <trkpt lat="43.43791" lon="6.02478">
        <ele>199.60000610352</ele>
        <time>2013-10-19T13:06:35Z</time>
      </trkpt>
      <trkpt lat="43.4379" lon="6.02479">
        <ele>199.60000610352</ele>
        <time>2013-10-19T13:06:36Z</time>
      </trkpt>
      <trkpt lat="43.43789" lon="6.02478">
        <ele>199.60000610352</ele>
        <time>2013-10-19T13:06:38Z</time>
      </trkpt>
      <trkpt lat="43.43789" lon="6.02477">
        <ele>200</ele>
        <time>2013-10-19T13:06:40Z</time>
      </trkpt>
      <trkpt lat="43.43789" lon="6.02477">
        <ele>200.80000305176</ele>
        <time>2013-10-19T13:06:42Z</time>
      </trkpt>
      <trkpt lat="43.43788" lon="6.02477">
        <ele>201.60000610352</ele>
        <time>2013-10-19T13:06:44Z</time>
      </trkpt>
      <trkpt lat="43.43788" lon="6.02477">
        <ele>201.60000610352</ele>
        <time>2013-10-19T13:06:47Z</time>
      </trkpt>
      <trkpt lat="43.43785" lon="6.02475">
        <ele>201.60000610352</ele>
        <time>2013-10-19T13:06:52Z</time>
      </trkpt>
      <trkpt lat="43.43782" lon="6.02473">
        <ele>201.60000610352</ele>
        <time>2013-10-19T13:06:56Z</time>
      </trkpt>
      <trkpt lat="43.43782" lon="6.02472">
        <ele>201.60000610352</ele>
        <time>2013-10-19T13:06:58Z</time>
      </trkpt>
      <trkpt lat="43.43782" lon="6.02472">
        <ele>201.60000610352</ele>
        <time>2013-10-19T13:07:04Z</time>
      </trkpt>
      <trkpt lat="43.43779" lon="6.0247">
        <ele>201.60000610352</ele>
        <time>2013-10-19T13:07:07Z</time>
      </trkpt>
      <trkpt lat="43.43779" lon="6.02467">
        <ele>201.60000610352</ele>
        <time>2013-10-19T13:07:09Z</time>
      </trkpt>
      <trkpt lat="43.43781" lon="6.02463">
        <ele>201.60000610352</ele>
        <time>2013-10-19T13:07:11Z</time>
      </trkpt>
      <trkpt lat="43.4378" lon="6.02461">
        <ele>201.60000610352</ele>
        <time>2013-10-19T13:07:12Z</time>
      </trkpt>
      <trkpt lat="43.43777" lon="6.02459">
        <ele>201.60000610352</ele>
        <time>2013-10-19T13:07:14Z</time>
      </trkpt>
      <trkpt lat="43.43775" lon="6.02454">
        <ele>201.60000610352</ele>
        <time>2013-10-19T13:07:18Z</time>
      </trkpt>
      <trkpt lat="43.43775" lon="6.02453">
        <ele>201.60000610352</ele>
        <time>2013-10-19T13:07:22Z</time>
      </trkpt>
      <trkpt lat="43.43774" lon="6.02451">
        <ele>201.60000610352</ele>
        <time>2013-10-19T13:07:25Z</time>
      </trkpt>
      <trkpt lat="43.43774" lon="6.02448">
        <ele>202</ele>
        <time>2013-10-19T13:07:29Z</time>
      </trkpt>
      <trkpt lat="43.43774" lon="6.02448">
        <ele>202.39999389648</ele>
        <time>2013-10-19T13:07:30Z</time>
      </trkpt>
      <trkpt lat="43.43774" lon="6.02448">
        <ele>203.60000610352</ele>
        <time>2013-10-19T13:07:43Z</time>
      </trkpt>
      <trkpt lat="43.43774" lon="6.02448">
        <ele>203.60000610352</ele>
        <time>2013-10-19T13:07:57Z</time>
      </trkpt>
      <trkpt lat="43.43775" lon="6.02442">
        <ele>203.60000610352</ele>
        <time>2013-10-19T13:08:01Z</time>
      </trkpt>
      <trkpt lat="43.43774" lon="6.02438">
        <ele>203.60000610352</ele>
        <time>2013-10-19T13:08:03Z</time>
      </trkpt>
      <trkpt lat="43.43772" lon="6.02431">
        <ele>203.60000610352</ele>
        <time>2013-10-19T13:08:07Z</time>
      </trkpt>
      <trkpt lat="43.43771" lon="6.02427">
        <ele>203.60000610352</ele>
        <time>2013-10-19T13:08:09Z</time>
      </trkpt>
      <trkpt lat="43.43766" lon="6.02422">
        <ele>203.60000610352</ele>
        <time>2013-10-19T13:08:14Z</time>
      </trkpt>
      <trkpt lat="43.43764" lon="6.02417">
        <ele>203.60000610352</ele>
        <time>2013-10-19T13:08:17Z</time>
      </trkpt>
      <trkpt lat="43.43762" lon="6.0241">
        <ele>203.60000610352</ele>
        <time>2013-10-19T13:08:19Z</time>
      </trkpt>
      <trkpt lat="43.43756" lon="6.02403">
        <ele>203.60000610352</ele>
        <time>2013-10-19T13:08:23Z</time>
      </trkpt>
      <trkpt lat="43.43751" lon="6.02399">
        <ele>204.39999389648</ele>
        <time>2013-10-19T13:08:26Z</time>
      </trkpt>
      <trkpt lat="43.43751" lon="6.02398">
        <ele>205</ele>
        <time>2013-10-19T13:08:27Z</time>
      </trkpt>
      <trkpt lat="43.43748" lon="6.02394">
        <ele>205.80000305176</ele>
        <time>2013-10-19T13:08:29Z</time>
      </trkpt>
      <trkpt lat="43.43745" lon="6.02389">
        <ele>205.80000305176</ele>
        <time>2013-10-19T13:08:32Z</time>
      </trkpt>
      <trkpt lat="43.43745" lon="6.02389">
        <ele>205.80000305176</ele>
        <time>2013-10-19T13:08:33Z</time>
      </trkpt>
      <trkpt lat="43.43744" lon="6.02388">
        <ele>205.80000305176</ele>
        <time>2013-10-19T13:08:39Z</time>
      </trkpt>
      <trkpt lat="43.43744" lon="6.02388">
        <ele>205.80000305176</ele>
        <time>2013-10-19T13:08:52Z</time>
      </trkpt>
      <trkpt lat="43.43744" lon="6.02388">
        <ele>205.80000305176</ele>
        <time>2013-10-19T13:09:11Z</time>
      </trkpt>
      <trkpt lat="43.43744" lon="6.02386">
        <ele>205.80000305176</ele>
        <time>2013-10-19T13:09:13Z</time>
      </trkpt>
      <trkpt lat="43.43743" lon="6.02383">
        <ele>205.80000305176</ele>
        <time>2013-10-19T13:09:15Z</time>
      </trkpt>
      <trkpt lat="43.43741" lon="6.0238">
        <ele>205.80000305176</ele>
        <time>2013-10-19T13:09:17Z</time>
      </trkpt>
      <trkpt lat="43.43739" lon="6.02373">
        <ele>205.80000305176</ele>
        <time>2013-10-19T13:09:20Z</time>
      </trkpt>
      <trkpt lat="43.43739" lon="6.02371">
        <ele>206.19999694824</ele>
        <time>2013-10-19T13:09:21Z</time>
      </trkpt>
      <trkpt lat="43.43736" lon="6.02367">
        <ele>207</ele>
        <time>2013-10-19T13:09:23Z</time>
      </trkpt>
      <trkpt lat="43.43735" lon="6.02365">
        <ele>207.39999389648</ele>
        <time>2013-10-19T13:09:24Z</time>
      </trkpt>
      <trkpt lat="43.43734" lon="6.02364">
        <ele>207.80000305176</ele>
        <time>2013-10-19T13:09:25Z</time>
      </trkpt>
      <trkpt lat="43.43724" lon="6.02363">
        <ele>207.80000305176</ele>
        <time>2013-10-19T13:09:30Z</time>
      </trkpt>
      <trkpt lat="43.43722" lon="6.02361">
        <ele>207.80000305176</ele>
        <time>2013-10-19T13:09:31Z</time>
      </trkpt>
      <trkpt lat="43.43716" lon="6.02351">
        <ele>207.80000305176</ele>
        <time>2013-10-19T13:09:35Z</time>
      </trkpt>
      <trkpt lat="43.43714" lon="6.0234">
        <ele>207.80000305176</ele>
        <time>2013-10-19T13:09:39Z</time>
      </trkpt>
      <trkpt lat="43.43715" lon="6.02335">
        <ele>207.80000305176</ele>
        <time>2013-10-19T13:09:40Z</time>
      </trkpt>
      <trkpt lat="43.43724" lon="6.02327">
        <ele>207.80000305176</ele>
        <time>2013-10-19T13:09:44Z</time>
      </trkpt>
      <trkpt lat="43.4373" lon="6.02317">
        <ele>207.39999389648</ele>
        <time>2013-10-19T13:09:47Z</time>
      </trkpt>
      <trkpt lat="43.43734" lon="6.02312">
        <ele>207</ele>
        <time>2013-10-19T13:09:48Z</time>
      </trkpt>
      <trkpt lat="43.4374" lon="6.02301">
        <ele>206.19999694824</ele>
        <time>2013-10-19T13:09:50Z</time>
      </trkpt>
      <trkpt lat="43.43744" lon="6.02296">
        <ele>205.80000305176</ele>
        <time>2013-10-19T13:09:51Z</time>
      </trkpt>
      <trkpt lat="43.43748" lon="6.02289">
        <ele>205</ele>
        <time>2013-10-19T13:09:53Z</time>
      </trkpt>
      <trkpt lat="43.43751" lon="6.02287">
        <ele>204.39999389648</ele>
        <time>2013-10-19T13:09:54Z</time>
      </trkpt>
      <trkpt lat="43.43753" lon="6.02282">
        <ele>204</ele>
        <time>2013-10-19T13:09:55Z</time>
      </trkpt>
      <trkpt lat="43.43756" lon="6.02279">
        <ele>203.60000610352</ele>
        <time>2013-10-19T13:09:56Z</time>
      </trkpt>
      <trkpt lat="43.43758" lon="6.02275">
        <ele>203.60000610352</ele>
        <time>2013-10-19T13:09:57Z</time>
      </trkpt>
      <trkpt lat="43.43764" lon="6.02266">
        <ele>203.19999694824</ele>
        <time>2013-10-19T13:09:59Z</time>
      </trkpt>
      <trkpt lat="43.43768" lon="6.0226">
        <ele>202.80000305176</ele>
        <time>2013-10-19T13:10:00Z</time>
      </trkpt>
      <trkpt lat="43.43771" lon="6.02257">
        <ele>202.39999389648</ele>
        <time>2013-10-19T13:10:01Z</time>
      </trkpt>
      <trkpt lat="43.43773" lon="6.02248">
        <ele>201.39999389648</ele>
        <time>2013-10-19T13:10:03Z</time>
      </trkpt>
      <trkpt lat="43.43775" lon="6.02231">
        <ele>201.39999389648</ele>
        <time>2013-10-19T13:10:07Z</time>
      </trkpt>
      <trkpt lat="43.43776" lon="6.02221">
        <ele>201.39999389648</ele>
        <time>2013-10-19T13:10:10Z</time>
      </trkpt>
      <trkpt lat="43.43776" lon="6.02218">
        <ele>201.39999389648</ele>
        <time>2013-10-19T13:10:11Z</time>
      </trkpt>
      <trkpt lat="43.43776" lon="6.02201">
        <ele>201.39999389648</ele>
        <time>2013-10-19T13:10:16Z</time>
      </trkpt>
      <trkpt lat="43.43782" lon="6.0218">
        <ele>201.39999389648</ele>
        <time>2013-10-19T13:10:22Z</time>
      </trkpt>
      <trkpt lat="43.43787" lon="6.02158">
        <ele>201.39999389648</ele>
        <time>2013-10-19T13:10:27Z</time>
      </trkpt>
      <trkpt lat="43.43799" lon="6.02143">
        <ele>201.39999389648</ele>
        <time>2013-10-19T13:10:32Z</time>
      </trkpt>
      <trkpt lat="43.43811" lon="6.02124">
        <ele>201.39999389648</ele>
        <time>2013-10-19T13:10:38Z</time>
      </trkpt>
      <trkpt lat="43.43815" lon="6.02106">
        <ele>201.39999389648</ele>
        <time>2013-10-19T13:10:43Z</time>
      </trkpt>
      <trkpt lat="43.43824" lon="6.02072">
        <ele>201.39999389648</ele>
        <time>2013-10-19T13:10:50Z</time>
      </trkpt>
      <trkpt lat="43.43833" lon="6.02057">
        <ele>201.39999389648</ele>
        <time>2013-10-19T13:10:54Z</time>
      </trkpt>
      <trkpt lat="43.43835" lon="6.02041">
        <ele>201.39999389648</ele>
        <time>2013-10-19T13:10:58Z</time>
      </trkpt>
      <trkpt lat="43.43839" lon="6.02014">
        <ele>201.39999389648</ele>
        <time>2013-10-19T13:11:04Z</time>
      </trkpt>
      <trkpt lat="43.4384" lon="6.01983">
        <ele>201.39999389648</ele>
        <time>2013-10-19T13:11:11Z</time>
      </trkpt>
      <trkpt lat="43.43846" lon="6.01967">
        <ele>201.39999389648</ele>
        <time>2013-10-19T13:11:15Z</time>
      </trkpt>
      <trkpt lat="43.43857" lon="6.01941">
        <ele>201.39999389648</ele>
        <time>2013-10-19T13:11:21Z</time>
      </trkpt>
      <trkpt lat="43.43862" lon="6.01932">
        <ele>201.39999389648</ele>
        <time>2013-10-19T13:11:24Z</time>
      </trkpt>
      <trkpt lat="43.43865" lon="6.01924">
        <ele>201.39999389648</ele>
        <time>2013-10-19T13:11:27Z</time>
      </trkpt>
      <trkpt lat="43.43868" lon="6.01907">
        <ele>201.39999389648</ele>
        <time>2013-10-19T13:11:34Z</time>
      </trkpt>
      <trkpt lat="43.43871" lon="6.01894">
        <ele>201.39999389648</ele>
        <time>2013-10-19T13:11:39Z</time>
      </trkpt>
      <trkpt lat="43.43874" lon="6.01879">
        <ele>201.39999389648</ele>
        <time>2013-10-19T13:11:44Z</time>
      </trkpt>
      <trkpt lat="43.43877" lon="6.01857">
        <ele>201.39999389648</ele>
        <time>2013-10-19T13:11:50Z</time>
      </trkpt>
      <trkpt lat="43.43878" lon="6.0185">
        <ele>202.19999694824</ele>
        <time>2013-10-19T13:11:52Z</time>
      </trkpt>
      <trkpt lat="43.43879" lon="6.01846">
        <ele>202.60000610352</ele>
        <time>2013-10-19T13:11:53Z</time>
      </trkpt>
      <trkpt lat="43.4388" lon="6.01839">
        <ele>203.39999389648</ele>
        <time>2013-10-19T13:11:55Z</time>
      </trkpt>
      <trkpt lat="43.43879" lon="6.01832">
        <ele>203.39999389648</ele>
        <time>2013-10-19T13:11:57Z</time>
      </trkpt>
      <trkpt lat="43.4388" lon="6.01805">
        <ele>203.39999389648</ele>
        <time>2013-10-19T13:12:05Z</time>
      </trkpt>
      <trkpt lat="43.43882" lon="6.01796">
        <ele>203.80000305176</ele>
        <time>2013-10-19T13:12:08Z</time>
      </trkpt>
      <trkpt lat="43.43885" lon="6.01788">
        <ele>205.19999694824</ele>
        <time>2013-10-19T13:12:11Z</time>
      </trkpt>
      <trkpt lat="43.43886" lon="6.01784">
        <ele>205.60000610352</ele>
        <time>2013-10-19T13:12:12Z</time>
      </trkpt>
      <trkpt lat="43.43889" lon="6.01776">
        <ele>205.60000610352</ele>
        <time>2013-10-19T13:12:15Z</time>
      </trkpt>
      <trkpt lat="43.43889" lon="6.01755">
        <ele>207</ele>
        <time>2013-10-19T13:12:22Z</time>
      </trkpt>
      <trkpt lat="43.43886" lon="6.01742">
        <ele>207.80000305176</ele>
        <time>2013-10-19T13:12:26Z</time>
      </trkpt>
      <trkpt lat="43.43879" lon="6.01725">
        <ele>207.80000305176</ele>
        <time>2013-10-19T13:12:31Z</time>
      </trkpt>
      <trkpt lat="43.43873" lon="6.01707">
        <ele>208.19999694824</ele>
        <time>2013-10-19T13:12:37Z</time>
      </trkpt>
      <trkpt lat="43.43872" lon="6.01704">
        <ele>208.60000610352</ele>
        <time>2013-10-19T13:12:38Z</time>
      </trkpt>
      <trkpt lat="43.43871" lon="6.01696">
        <ele>209.60000610352</ele>
        <time>2013-10-19T13:12:40Z</time>
      </trkpt>
      <trkpt lat="43.4387" lon="6.01684">
        <ele>210</ele>
        <time>2013-10-19T13:12:43Z</time>
      </trkpt>
      <trkpt lat="43.43867" lon="6.01665">
        <ele>210</ele>
        <time>2013-10-19T13:12:49Z</time>
      </trkpt>
      <trkpt lat="43.4386" lon="6.01664">
        <ele>210</ele>
        <time>2013-10-19T13:12:53Z</time>
      </trkpt>
      <trkpt lat="43.43851" lon="6.01674">
        <ele>210</ele>
        <time>2013-10-19T13:12:58Z</time>
      </trkpt>
      <trkpt lat="43.43836" lon="6.01686">
        <ele>212</ele>
        <time>2013-10-19T13:13:05Z</time>
      </trkpt>
      <trkpt lat="43.43824" lon="6.01691">
        <ele>212</ele>
        <time>2013-10-19T13:13:10Z</time>
      </trkpt>
      <trkpt lat="43.43805" lon="6.01699">
        <ele>212</ele>
        <time>2013-10-19T13:13:17Z</time>
      </trkpt>
      <trkpt lat="43.4379" lon="6.01701">
        <ele>212</ele>
        <time>2013-10-19T13:13:23Z</time>
      </trkpt>
      <trkpt lat="43.43788" lon="6.01701">
        <ele>212</ele>
        <time>2013-10-19T13:13:24Z</time>
      </trkpt>
      <trkpt lat="43.43774" lon="6.017">
        <ele>212.39999389648</ele>
        <time>2013-10-19T13:13:30Z</time>
      </trkpt>
      <trkpt lat="43.43768" lon="6.01697">
        <ele>213.80000305176</ele>
        <time>2013-10-19T13:13:33Z</time>
      </trkpt>
      <trkpt lat="43.43766" lon="6.01696">
        <ele>214.19999694824</ele>
        <time>2013-10-19T13:13:34Z</time>
      </trkpt>
      <trkpt lat="43.4376" lon="6.01693">
        <ele>214.19999694824</ele>
        <time>2013-10-19T13:13:38Z</time>
      </trkpt>
      <trkpt lat="43.43757" lon="6.01692">
        <ele>214.19999694824</ele>
        <time>2013-10-19T13:13:43Z</time>
      </trkpt>
      <trkpt lat="43.43757" lon="6.01692">
        <ele>214.19999694824</ele>
        <time>2013-10-19T13:13:51Z</time>
      </trkpt>
      <trkpt lat="43.43758" lon="6.01692">
        <ele>214.19999694824</ele>
        <time>2013-10-19T13:14:01Z</time>
      </trkpt>
      <trkpt lat="43.43758" lon="6.01692">
        <ele>214.19999694824</ele>
        <time>2013-10-19T13:14:14Z</time>
      </trkpt>
      <trkpt lat="43.43758" lon="6.01692">
        <ele>214.19999694824</ele>
        <time>2013-10-19T13:14:20Z</time>
      </trkpt>
      <trkpt lat="43.43758" lon="6.01692">
        <ele>214.19999694824</ele>
        <time>2013-10-19T13:14:24Z</time>
      </trkpt>
      <trkpt lat="43.43758" lon="6.01692">
        <ele>214.19999694824</ele>
        <time>2013-10-19T13:14:45Z</time>
      </trkpt>
      <trkpt lat="43.43758" lon="6.01692">
        <ele>214.19999694824</ele>
        <time>2013-10-19T13:15:31Z</time>
      </trkpt>
      <trkpt lat="43.43758" lon="6.01692">
        <ele>214.19999694824</ele>
        <time>2013-10-19T13:15:42Z</time>
      </trkpt>
      <trkpt lat="43.43754" lon="6.01691">
        <ele>214.60000610352</ele>
        <time>2013-10-19T13:15:47Z</time>
      </trkpt>
      <trkpt lat="43.43751" lon="6.01688">
        <ele>216.19999694824</ele>
        <time>2013-10-19T13:15:50Z</time>
      </trkpt>
      <trkpt lat="43.4375" lon="6.01688">
        <ele>216.19999694824</ele>
        <time>2013-10-19T13:15:51Z</time>
      </trkpt>
      <trkpt lat="43.43746" lon="6.01687">
        <ele>216.19999694824</ele>
        <time>2013-10-19T13:15:54Z</time>
      </trkpt>
      <trkpt lat="43.43744" lon="6.01686">
        <ele>216.19999694824</ele>
        <time>2013-10-19T13:15:59Z</time>
      </trkpt>
      <trkpt lat="43.43744" lon="6.01686">
        <ele>216.19999694824</ele>
        <time>2013-10-19T13:16:22Z</time>
      </trkpt>
      <trkpt lat="43.43744" lon="6.01686">
        <ele>216.19999694824</ele>
        <time>2013-10-19T13:16:53Z</time>
      </trkpt>
      <trkpt lat="43.43744" lon="6.01686">
        <ele>216.19999694824</ele>
        <time>2013-10-19T13:17:03Z</time>
      </trkpt>
      <trkpt lat="43.43742" lon="6.01686">
        <ele>216.19999694824</ele>
        <time>2013-10-19T13:17:14Z</time>
      </trkpt>
      <trkpt lat="43.43741" lon="6.01691">
        <ele>216.19999694824</ele>
        <time>2013-10-19T13:17:17Z</time>
      </trkpt>
      <trkpt lat="43.4374" lon="6.01695">
        <ele>216.19999694824</ele>
        <time>2013-10-19T13:17:18Z</time>
      </trkpt>
      <trkpt lat="43.43737" lon="6.01715">
        <ele>216.19999694824</ele>
        <time>2013-10-19T13:17:24Z</time>
      </trkpt>
      <trkpt lat="43.43729" lon="6.01739">
        <ele>216.19999694824</ele>
        <time>2013-10-19T13:17:30Z</time>
      </trkpt>
      <trkpt lat="43.43724" lon="6.01759">
        <ele>216.19999694824</ele>
        <time>2013-10-19T13:17:35Z</time>
      </trkpt>
      <trkpt lat="43.43721" lon="6.01771">
        <ele>216.60000610352</ele>
        <time>2013-10-19T13:17:38Z</time>
      </trkpt>
      <trkpt lat="43.43717" lon="6.01786">
        <ele>217.80000305176</ele>
        <time>2013-10-19T13:17:41Z</time>
      </trkpt>
      <trkpt lat="43.43715" lon="6.01791">
        <ele>218.19999694824</ele>
        <time>2013-10-19T13:17:42Z</time>
      </trkpt>
      <trkpt lat="43.43714" lon="6.01797">
        <ele>218.19999694824</ele>
        <time>2013-10-19T13:17:43Z</time>
      </trkpt>
      <trkpt lat="43.43708" lon="6.01821">
        <ele>217.80000305176</ele>
        <time>2013-10-19T13:17:47Z</time>
      </trkpt>
      <trkpt lat="43.43705" lon="6.01833">
        <ele>217</ele>
        <time>2013-10-19T13:17:49Z</time>
      </trkpt>
      <trkpt lat="43.43704" lon="6.01839">
        <ele>216.60000610352</ele>
        <time>2013-10-19T13:17:50Z</time>
      </trkpt>
      <trkpt lat="43.43703" lon="6.01845">
        <ele>216.19999694824</ele>
        <time>2013-10-19T13:17:51Z</time>
      </trkpt>
      <trkpt lat="43.43703" lon="6.01851">
        <ele>216.19999694824</ele>
        <time>2013-10-19T13:17:52Z</time>
      </trkpt>
      <trkpt lat="43.43702" lon="6.01871">
        <ele>216.19999694824</ele>
        <time>2013-10-19T13:17:55Z</time>
      </trkpt>
      <trkpt lat="43.43701" lon="6.01885">
        <ele>215.60000610352</ele>
        <time>2013-10-19T13:17:57Z</time>
      </trkpt>
      <trkpt lat="43.43699" lon="6.01898">
        <ele>214.80000305176</ele>
        <time>2013-10-19T13:17:59Z</time>
      </trkpt>
      <trkpt lat="43.43699" lon="6.01904">
        <ele>214.39999389648</ele>
        <time>2013-10-19T13:18:00Z</time>
      </trkpt>
      <trkpt lat="43.43698" lon="6.0191">
        <ele>214</ele>
        <time>2013-10-19T13:18:01Z</time>
      </trkpt>
      <trkpt lat="43.43691" lon="6.01936">
        <ele>214</ele>
        <time>2013-10-19T13:18:07Z</time>
      </trkpt>
      <trkpt lat="43.43686" lon="6.01945">
        <ele>214</ele>
        <time>2013-10-19T13:18:10Z</time>
      </trkpt>
      <trkpt lat="43.43682" lon="6.01949">
        <ele>214</ele>
        <time>2013-10-19T13:18:12Z</time>
      </trkpt>
      <trkpt lat="43.43677" lon="6.01953">
        <ele>214</ele>
        <time>2013-10-19T13:18:15Z</time>
      </trkpt>
      <trkpt lat="43.43671" lon="6.01956">
        <ele>214</ele>
        <time>2013-10-19T13:18:18Z</time>
      </trkpt>
      <trkpt lat="43.43666" lon="6.01959">
        <ele>214.39999389648</ele>
        <time>2013-10-19T13:18:22Z</time>
      </trkpt>
      <trkpt lat="43.43664" lon="6.01959">
        <ele>214.80000305176</ele>
        <time>2013-10-19T13:18:23Z</time>
      </trkpt>
      <trkpt lat="43.4366" lon="6.01961">
        <ele>216</ele>
        <time>2013-10-19T13:18:26Z</time>
      </trkpt>
      <trkpt lat="43.43651" lon="6.01965">
        <ele>216</ele>
        <time>2013-10-19T13:18:32Z</time>
      </trkpt>
      <trkpt lat="43.43647" lon="6.01968">
        <ele>216</ele>
        <time>2013-10-19T13:18:35Z</time>
      </trkpt>
      <trkpt lat="43.43636" lon="6.01975">
        <ele>218</ele>
        <time>2013-10-19T13:18:44Z</time>
      </trkpt>
      <trkpt lat="43.43628" lon="6.01977">
        <ele>218</ele>
        <time>2013-10-19T13:18:50Z</time>
      </trkpt>
      <trkpt lat="43.43618" lon="6.01983">
        <ele>220.19999694824</ele>
        <time>2013-10-19T13:18:58Z</time>
      </trkpt>
      <trkpt lat="43.43603" lon="6.01988">
        <ele>222.19999694824</ele>
        <time>2013-10-19T13:19:11Z</time>
      </trkpt>
      <trkpt lat="43.43596" lon="6.01992">
        <ele>224.19999694824</ele>
        <time>2013-10-19T13:19:18Z</time>
      </trkpt>
      <trkpt lat="43.43589" lon="6.01996">
        <ele>225.19999694824</ele>
        <time>2013-10-19T13:19:25Z</time>
      </trkpt>
      <trkpt lat="43.43583" lon="6.01999">
        <ele>226.80000305176</ele>
        <time>2013-10-19T13:19:32Z</time>
      </trkpt>
      <trkpt lat="43.43578" lon="6.02003">
        <ele>228.60000610352</ele>
        <time>2013-10-19T13:19:39Z</time>
      </trkpt>
      <trkpt lat="43.43575" lon="6.02005">
        <ele>229</ele>
        <time>2013-10-19T13:19:43Z</time>
      </trkpt>
      <trkpt lat="43.4357" lon="6.02007">
        <ele>230.80000305176</ele>
        <time>2013-10-19T13:19:50Z</time>
      </trkpt>
      <trkpt lat="43.43565" lon="6.02008">
        <ele>231.19999694824</ele>
        <time>2013-10-19T13:19:55Z</time>
      </trkpt>
      <trkpt lat="43.43564" lon="6.02008">
        <ele>231.60000610352</ele>
        <time>2013-10-19T13:19:56Z</time>
      </trkpt>
      <trkpt lat="43.43562" lon="6.0201">
        <ele>233</ele>
        <time>2013-10-19T13:19:58Z</time>
      </trkpt>
      <trkpt lat="43.43558" lon="6.02012">
        <ele>233</ele>
        <time>2013-10-19T13:20:03Z</time>
      </trkpt>
      <trkpt lat="43.43557" lon="6.02013">
        <ele>233.39999389648</ele>
        <time>2013-10-19T13:20:04Z</time>
      </trkpt>
      <trkpt lat="43.43556" lon="6.02012">
        <ele>234.19999694824</ele>
        <time>2013-10-19T13:20:06Z</time>
      </trkpt>
      <trkpt lat="43.43556" lon="6.02012">
        <ele>234.60000610352</ele>
        <time>2013-10-19T13:20:07Z</time>
      </trkpt>
      <trkpt lat="43.43556" lon="6.02012">
        <ele>235</ele>
        <time>2013-10-19T13:20:17Z</time>
      </trkpt>
      <trkpt lat="43.43556" lon="6.02012">
        <ele>235</ele>
        <time>2013-10-19T13:20:20Z</time>
      </trkpt>
      <trkpt lat="43.43556" lon="6.02012">
        <ele>235</ele>
        <time>2013-10-19T13:20:23Z</time>
      </trkpt>
      <trkpt lat="43.43556" lon="6.02013">
        <ele>235</ele>
        <time>2013-10-19T13:20:25Z</time>
      </trkpt>
      <trkpt lat="43.43553" lon="6.02014">
        <ele>235</ele>
        <time>2013-10-19T13:20:32Z</time>
      </trkpt>
      <trkpt lat="43.43552" lon="6.02014">
        <ele>235</ele>
        <time>2013-10-19T13:20:33Z</time>
      </trkpt>
      <trkpt lat="43.4355" lon="6.02014">
        <ele>235.39999389648</ele>
        <time>2013-10-19T13:20:40Z</time>
      </trkpt>
      <trkpt lat="43.4355" lon="6.02014">
        <ele>237.19999694824</ele>
        <time>2013-10-19T13:20:50Z</time>
      </trkpt>
      <trkpt lat="43.4355" lon="6.02014">
        <ele>237.19999694824</ele>
        <time>2013-10-19T13:20:54Z</time>
      </trkpt>
      <trkpt lat="43.4355" lon="6.02014">
        <ele>237.19999694824</ele>
        <time>2013-10-19T13:20:56Z</time>
      </trkpt>
      <trkpt lat="43.4355" lon="6.02014">
        <ele>237.19999694824</ele>
        <time>2013-10-19T13:21:01Z</time>
      </trkpt>
      <trkpt lat="43.43548" lon="6.02014">
        <ele>237.19999694824</ele>
        <time>2013-10-19T13:21:05Z</time>
      </trkpt>
      <trkpt lat="43.43546" lon="6.02015">
        <ele>237.19999694824</ele>
        <time>2013-10-19T13:21:10Z</time>
      </trkpt>
      <trkpt lat="43.43544" lon="6.02015">
        <ele>238</ele>
        <time>2013-10-19T13:21:13Z</time>
      </trkpt>
      <trkpt lat="43.43542" lon="6.02015">
        <ele>238.80000305176</ele>
        <time>2013-10-19T13:21:15Z</time>
      </trkpt>
      <trkpt lat="43.43542" lon="6.02015">
        <ele>239.19999694824</ele>
        <time>2013-10-19T13:21:16Z</time>
      </trkpt>
      <trkpt lat="43.43541" lon="6.02016">
        <ele>239.19999694824</ele>
        <time>2013-10-19T13:21:18Z</time>
      </trkpt>
      <trkpt lat="43.43537" lon="6.02018">
        <ele>239.60000610352</ele>
        <time>2013-10-19T13:21:26Z</time>
      </trkpt>
      <trkpt lat="43.43537" lon="6.02018">
        <ele>240.39999389648</ele>
        <time>2013-10-19T13:21:28Z</time>
      </trkpt>
      <trkpt lat="43.43537" lon="6.02018">
        <ele>241.39999389648</ele>
        <time>2013-10-19T13:21:36Z</time>
      </trkpt>
      <trkpt lat="43.43535" lon="6.02018">
        <ele>241.39999389648</ele>
        <time>2013-10-19T13:21:47Z</time>
      </trkpt>
      <trkpt lat="43.43535" lon="6.02018">
        <ele>241.80000305176</ele>
        <time>2013-10-19T13:21:52Z</time>
      </trkpt>
      <trkpt lat="43.43535" lon="6.02018">
        <ele>242.19999694824</ele>
        <time>2013-10-19T13:21:53Z</time>
      </trkpt>
      <trkpt lat="43.43535" lon="6.02018">
        <ele>242.60000610352</ele>
        <time>2013-10-19T13:21:54Z</time>
      </trkpt>
      <trkpt lat="43.43534" lon="6.02018">
        <ele>243</ele>
        <time>2013-10-19T13:21:55Z</time>
      </trkpt>
      <trkpt lat="43.43534" lon="6.02018">
        <ele>243.39999389648</ele>
        <time>2013-10-19T13:21:56Z</time>
      </trkpt>
      <trkpt lat="43.43534" lon="6.02019">
        <ele>243.39999389648</ele>
        <time>2013-10-19T13:21:57Z</time>
      </trkpt>
      <trkpt lat="43.4353" lon="6.02022">
        <ele>243.39999389648</ele>
        <time>2013-10-19T13:22:02Z</time>
      </trkpt>
      <trkpt lat="43.43526" lon="6.02025">
        <ele>243.80000305176</ele>
        <time>2013-10-19T13:22:08Z</time>
      </trkpt>
      <trkpt lat="43.43525" lon="6.02025">
        <ele>244.19999694824</ele>
        <time>2013-10-19T13:22:09Z</time>
      </trkpt>
      <trkpt lat="43.43525" lon="6.02025">
        <ele>244.60000610352</ele>
        <time>2013-10-19T13:22:10Z</time>
      </trkpt>
      <trkpt lat="43.43525" lon="6.02025">
        <ele>245</ele>
        <time>2013-10-19T13:22:11Z</time>
      </trkpt>
      <trkpt lat="43.43525" lon="6.02025">
        <ele>245.39999389648</ele>
        <time>2013-10-19T13:22:26Z</time>
      </trkpt>
      <trkpt lat="43.43525" lon="6.02025">
        <ele>245.39999389648</ele>
        <time>2013-10-19T13:22:40Z</time>
      </trkpt>
      <trkpt lat="43.43525" lon="6.02025">
        <ele>247.60000610352</ele>
        <time>2013-10-19T13:22:45Z</time>
      </trkpt>
      <trkpt lat="43.43525" lon="6.02025">
        <ele>247.60000610352</ele>
        <time>2013-10-19T13:22:48Z</time>
      </trkpt>
      <trkpt lat="43.43522" lon="6.02027">
        <ele>247.60000610352</ele>
        <time>2013-10-19T13:22:55Z</time>
      </trkpt>
      <trkpt lat="43.4352" lon="6.02029">
        <ele>248</ele>
        <time>2013-10-19T13:22:57Z</time>
      </trkpt>
      <trkpt lat="43.4352" lon="6.02029">
        <ele>249.60000610352</ele>
        <time>2013-10-19T13:23:01Z</time>
      </trkpt>
      <trkpt lat="43.4352" lon="6.02029">
        <ele>249.60000610352</ele>
        <time>2013-10-19T13:23:07Z</time>
      </trkpt>
      <trkpt lat="43.4352" lon="6.02029">
        <ele>250.39999389648</ele>
        <time>2013-10-19T13:23:16Z</time>
      </trkpt>
      <trkpt lat="43.4352" lon="6.02029">
        <ele>251.80000305176</ele>
        <time>2013-10-19T13:23:21Z</time>
      </trkpt>
      <trkpt lat="43.43519" lon="6.02029">
        <ele>251.80000305176</ele>
        <time>2013-10-19T13:23:37Z</time>
      </trkpt>
      <trkpt lat="43.43519" lon="6.02029">
        <ele>253.80000305176</ele>
        <time>2013-10-19T13:23:44Z</time>
      </trkpt>
      <trkpt lat="43.43519" lon="6.02029">
        <ele>253.80000305176</ele>
        <time>2013-10-19T13:23:48Z</time>
      </trkpt>
      <trkpt lat="43.43519" lon="6.02029">
        <ele>254.60000610352</ele>
        <time>2013-10-19T13:23:53Z</time>
      </trkpt>
      <trkpt lat="43.43519" lon="6.02029">
        <ele>256</ele>
        <time>2013-10-19T13:24:02Z</time>
      </trkpt>
      <trkpt lat="43.43519" lon="6.02029">
        <ele>256</ele>
        <time>2013-10-19T13:24:05Z</time>
      </trkpt>
      <trkpt lat="43.43517" lon="6.02031">
        <ele>256</ele>
        <time>2013-10-19T13:24:06Z</time>
      </trkpt>
      <trkpt lat="43.43515" lon="6.02032">
        <ele>256</ele>
        <time>2013-10-19T13:24:10Z</time>
      </trkpt>
      <trkpt lat="43.43515" lon="6.02032">
        <ele>256</ele>
        <time>2013-10-19T13:24:11Z</time>
      </trkpt>
      <trkpt lat="43.43515" lon="6.02032">
        <ele>256</ele>
        <time>2013-10-19T13:24:17Z</time>
      </trkpt>
      <trkpt lat="43.43515" lon="6.02033">
        <ele>256.39999389648</ele>
        <time>2013-10-19T13:24:22Z</time>
      </trkpt>
      <trkpt lat="43.43515" lon="6.02033">
        <ele>258</ele>
        <time>2013-10-19T13:24:26Z</time>
      </trkpt>
      <trkpt lat="43.43515" lon="6.02033">
        <ele>258</ele>
        <time>2013-10-19T13:24:37Z</time>
      </trkpt>
      <trkpt lat="43.43515" lon="6.02032">
        <ele>258.39999389648</ele>
        <time>2013-10-19T13:24:38Z</time>
      </trkpt>
      <trkpt lat="43.43515" lon="6.02032">
        <ele>260</ele>
        <time>2013-10-19T13:24:43Z</time>
      </trkpt>
      <trkpt lat="43.43513" lon="6.02033">
        <ele>260</ele>
        <time>2013-10-19T13:24:49Z</time>
      </trkpt>
      <trkpt lat="43.43505" lon="6.02035">
        <ele>260</ele>
        <time>2013-10-19T13:24:54Z</time>
      </trkpt>
      <trkpt lat="43.43505" lon="6.02035">
        <ele>260.39999389648</ele>
        <time>2013-10-19T13:24:57Z</time>
      </trkpt>
      <trkpt lat="43.43505" lon="6.02035">
        <ele>260.79998779297</ele>
        <time>2013-10-19T13:24:58Z</time>
      </trkpt>
      <trkpt lat="43.43505" lon="6.02035">
        <ele>261.20001220703</ele>
        <time>2013-10-19T13:24:59Z</time>
      </trkpt>
      <trkpt lat="43.43505" lon="6.02035">
        <ele>262</ele>
        <time>2013-10-19T13:25:01Z</time>
      </trkpt>
      <trkpt lat="43.43505" lon="6.02035">
        <ele>262</ele>
        <time>2013-10-19T13:25:06Z</time>
      </trkpt>
      <trkpt lat="43.43505" lon="6.02035">
        <ele>262</ele>
        <time>2013-10-19T13:25:12Z</time>
      </trkpt>
      <trkpt lat="43.43505" lon="6.02035">
        <ele>263.39999389648</ele>
        <time>2013-10-19T13:25:16Z</time>
      </trkpt>
      <trkpt lat="43.43505" lon="6.02035">
        <ele>264.20001220703</ele>
        <time>2013-10-19T13:25:18Z</time>
      </trkpt>
      <trkpt lat="43.43505" lon="6.02035">
        <ele>264.20001220703</ele>
        <time>2013-10-19T13:25:27Z</time>
      </trkpt>
      <trkpt lat="43.43504" lon="6.02035">
        <ele>264.20001220703</ele>
        <time>2013-10-19T13:25:34Z</time>
      </trkpt>
      <trkpt lat="43.43504" lon="6.02035">
        <ele>265</ele>
        <time>2013-10-19T13:25:41Z</time>
      </trkpt>
      <trkpt lat="43.43504" lon="6.02035">
        <ele>265.79998779297</ele>
        <time>2013-10-19T13:25:43Z</time>
      </trkpt>
      <trkpt lat="43.43505" lon="6.02035">
        <ele>266.20001220703</ele>
        <time>2013-10-19T13:25:44Z</time>
      </trkpt>
      <trkpt lat="43.435" lon="6.02036">
        <ele>266.20001220703</ele>
        <time>2013-10-19T13:25:48Z</time>
      </trkpt>
      <trkpt lat="43.43487" lon="6.02041">
        <ele>266.60000610352</ele>
        <time>2013-10-19T13:25:53Z</time>
      </trkpt>
      <trkpt lat="43.43483" lon="6.02044">
        <ele>267.39999389648</ele>
        <time>2013-10-19T13:25:55Z</time>
      </trkpt>
      <trkpt lat="43.4348" lon="6.02045">
        <ele>267.79998779297</ele>
        <time>2013-10-19T13:25:56Z</time>
      </trkpt>
      <trkpt lat="43.43479" lon="6.02046">
        <ele>268.20001220703</ele>
        <time>2013-10-19T13:25:57Z</time>
      </trkpt>
      <trkpt lat="43.43473" lon="6.0205">
        <ele>268.20001220703</ele>
        <time>2013-10-19T13:26:01Z</time>
      </trkpt>
      <trkpt lat="43.43466" lon="6.02056">
        <ele>268.20001220703</ele>
        <time>2013-10-19T13:26:07Z</time>
      </trkpt>
      <trkpt lat="43.43463" lon="6.02057">
        <ele>268.60000610352</ele>
        <time>2013-10-19T13:26:09Z</time>
      </trkpt>
      <trkpt lat="43.43462" lon="6.02058">
        <ele>269.20001220703</ele>
        <time>2013-10-19T13:26:10Z</time>
      </trkpt>
      <trkpt lat="43.43461" lon="6.02059">
        <ele>269.60000610352</ele>
        <time>2013-10-19T13:26:11Z</time>
      </trkpt>
      <trkpt lat="43.4346" lon="6.0206">
        <ele>270</ele>
        <time>2013-10-19T13:26:12Z</time>
      </trkpt>
      <trkpt lat="43.43459" lon="6.02061">
        <ele>270.39999389648</ele>
        <time>2013-10-19T13:26:13Z</time>
      </trkpt>
      <trkpt lat="43.43459" lon="6.02061">
        <ele>270.39999389648</ele>
        <time>2013-10-19T13:26:37Z</time>
      </trkpt>
      <trkpt lat="43.43459" lon="6.02061">
        <ele>270.39999389648</ele>
        <time>2013-10-19T13:26:54Z</time>
      </trkpt>
      <trkpt lat="43.43459" lon="6.02061">
        <ele>270.39999389648</ele>
        <time>2013-10-19T13:27:29Z</time>
      </trkpt>
      <trkpt lat="43.43458" lon="6.02062">
        <ele>270.39999389648</ele>
        <time>2013-10-19T13:27:50Z</time>
      </trkpt>
      <trkpt lat="43.43458" lon="6.02062">
        <ele>270.39999389648</ele>
        <time>2013-10-19T13:28:04Z</time>
      </trkpt>
      <trkpt lat="43.43457" lon="6.02062">
        <ele>270.39999389648</ele>
        <time>2013-10-19T13:28:24Z</time>
      </trkpt>
      <trkpt lat="43.43457" lon="6.02062">
        <ele>270.39999389648</ele>
        <time>2013-10-19T13:28:38Z</time>
      </trkpt>
      <trkpt lat="43.43457" lon="6.02063">
        <ele>270.39999389648</ele>
        <time>2013-10-19T13:28:50Z</time>
      </trkpt>
      <trkpt lat="43.43456" lon="6.02063">
        <ele>270.39999389648</ele>
        <time>2013-10-19T13:28:57Z</time>
      </trkpt>
      <trkpt lat="43.43456" lon="6.02064">
        <ele>270.39999389648</ele>
        <time>2013-10-19T13:29:02Z</time>
      </trkpt>
      <trkpt lat="43.43453" lon="6.02067">
        <ele>270.39999389648</ele>
        <time>2013-10-19T13:29:04Z</time>
      </trkpt>
      <trkpt lat="43.4345" lon="6.02071">
        <ele>270.39999389648</ele>
        <time>2013-10-19T13:29:07Z</time>
      </trkpt>
      <trkpt lat="43.43449" lon="6.02073">
        <ele>270.39999389648</ele>
        <time>2013-10-19T13:29:08Z</time>
      </trkpt>
      <trkpt lat="43.43447" lon="6.02078">
        <ele>270.39999389648</ele>
        <time>2013-10-19T13:29:10Z</time>
      </trkpt>
      <trkpt lat="43.43445" lon="6.02082">
        <ele>270.79998779297</ele>
        <time>2013-10-19T13:29:12Z</time>
      </trkpt>
      <trkpt lat="43.43444" lon="6.02086">
        <ele>271.60000610352</ele>
        <time>2013-10-19T13:29:14Z</time>
      </trkpt>
      <trkpt lat="43.43443" lon="6.02088">
        <ele>272</ele>
        <time>2013-10-19T13:29:15Z</time>
      </trkpt>
      <trkpt lat="43.43441" lon="6.02092">
        <ele>272.39999389648</ele>
        <time>2013-10-19T13:29:17Z</time>
      </trkpt>
      <trkpt lat="43.43436" lon="6.02104">
        <ele>272.39999389648</ele>
        <time>2013-10-19T13:29:23Z</time>
      </trkpt>
      <trkpt lat="43.43434" lon="6.02107">
        <ele>272.79998779297</ele>
        <time>2013-10-19T13:29:25Z</time>
      </trkpt>
      <trkpt lat="43.43432" lon="6.02111">
        <ele>274</ele>
        <time>2013-10-19T13:29:28Z</time>
      </trkpt>
      <trkpt lat="43.43431" lon="6.02113">
        <ele>274.39999389648</ele>
        <time>2013-10-19T13:29:29Z</time>
      </trkpt>
      <trkpt lat="43.43431" lon="6.02114">
        <ele>274.39999389648</ele>
        <time>2013-10-19T13:29:33Z</time>
      </trkpt>
      <trkpt lat="43.43431" lon="6.02114">
        <ele>275.79998779297</ele>
        <time>2013-10-19T13:29:53Z</time>
      </trkpt>
      <trkpt lat="43.43431" lon="6.02114">
        <ele>276.60000610352</ele>
        <time>2013-10-19T13:30:12Z</time>
      </trkpt>
      <trkpt lat="43.43431" lon="6.02114">
        <ele>276.60000610352</ele>
        <time>2013-10-19T13:30:22Z</time>
      </trkpt>
      <trkpt lat="43.43431" lon="6.02114">
        <ele>276.60000610352</ele>
        <time>2013-10-19T13:30:28Z</time>
      </trkpt>
      <trkpt lat="43.43425" lon="6.02123">
        <ele>276.60000610352</ele>
        <time>2013-10-19T13:30:33Z</time>
      </trkpt>
      <trkpt lat="43.43425" lon="6.02125">
        <ele>276.60000610352</ele>
        <time>2013-10-19T13:30:34Z</time>
      </trkpt>
      <trkpt lat="43.43423" lon="6.02125">
        <ele>276.60000610352</ele>
        <time>2013-10-19T13:30:37Z</time>
      </trkpt>
      <trkpt lat="43.43423" lon="6.02125">
        <ele>276.60000610352</ele>
        <time>2013-10-19T13:30:42Z</time>
      </trkpt>
      <trkpt lat="43.43423" lon="6.02125">
        <ele>277</ele>
        <time>2013-10-19T13:30:43Z</time>
      </trkpt>
      <trkpt lat="43.4342" lon="6.02129">
        <ele>278.79998779297</ele>
        <time>2013-10-19T13:30:47Z</time>
      </trkpt>
      <trkpt lat="43.4342" lon="6.0213">
        <ele>278.79998779297</ele>
        <time>2013-10-19T13:30:51Z</time>
      </trkpt>
      <trkpt lat="43.4342" lon="6.0213">
        <ele>278.79998779297</ele>
        <time>2013-10-19T13:31:09Z</time>
      </trkpt>
      <trkpt lat="43.4342" lon="6.0213">
        <ele>280.79998779297</ele>
        <time>2013-10-19T13:31:25Z</time>
      </trkpt>
      <trkpt lat="43.43419" lon="6.02131">
        <ele>280.79998779297</ele>
        <time>2013-10-19T13:31:30Z</time>
      </trkpt>
      <trkpt lat="43.43419" lon="6.02131">
        <ele>280.79998779297</ele>
        <time>2013-10-19T13:31:40Z</time>
      </trkpt>
      <trkpt lat="43.43419" lon="6.02131">
        <ele>280.79998779297</ele>
        <time>2013-10-19T13:31:47Z</time>
      </trkpt>
      <trkpt lat="43.43417" lon="6.02134">
        <ele>280.79998779297</ele>
        <time>2013-10-19T13:31:54Z</time>
      </trkpt>
      <trkpt lat="43.43416" lon="6.02136">
        <ele>280.79998779297</ele>
        <time>2013-10-19T13:31:55Z</time>
      </trkpt>
      <trkpt lat="43.43412" lon="6.02142">
        <ele>280.79998779297</ele>
        <time>2013-10-19T13:32:00Z</time>
      </trkpt>
      <trkpt lat="43.43411" lon="6.02143">
        <ele>280.79998779297</ele>
        <time>2013-10-19T13:32:02Z</time>
      </trkpt>
      <trkpt lat="43.4341" lon="6.02144">
        <ele>280.79998779297</ele>
        <time>2013-10-19T13:32:08Z</time>
      </trkpt>
      <trkpt lat="43.4341" lon="6.02144">
        <ele>280.79998779297</ele>
        <time>2013-10-19T13:32:29Z</time>
      </trkpt>
      <trkpt lat="43.4341" lon="6.02144">
        <ele>280.79998779297</ele>
        <time>2013-10-19T13:32:44Z</time>
      </trkpt>
      <trkpt lat="43.4341" lon="6.02144">
        <ele>280.79998779297</ele>
        <time>2013-10-19T13:32:57Z</time>
      </trkpt>
      <trkpt lat="43.4341" lon="6.02145">
        <ele>280.79998779297</ele>
        <time>2013-10-19T13:33:01Z</time>
      </trkpt>
      <trkpt lat="43.4341" lon="6.02144">
        <ele>280.79998779297</ele>
        <time>2013-10-19T13:33:02Z</time>
      </trkpt>
      <trkpt lat="43.43407" lon="6.02149">
        <ele>280.79998779297</ele>
        <time>2013-10-19T13:33:05Z</time>
      </trkpt>
      <trkpt lat="43.43402" lon="6.02155">
        <ele>280.79998779297</ele>
        <time>2013-10-19T13:33:09Z</time>
      </trkpt>
      <trkpt lat="43.43394" lon="6.02166">
        <ele>280.79998779297</ele>
        <time>2013-10-19T13:33:15Z</time>
      </trkpt>
      <trkpt lat="43.43384" lon="6.02178">
        <ele>280.79998779297</ele>
        <time>2013-10-19T13:33:22Z</time>
      </trkpt>
      <trkpt lat="43.43375" lon="6.02194">
        <ele>280.79998779297</ele>
        <time>2013-10-19T13:33:28Z</time>
      </trkpt>
      <trkpt lat="43.43366" lon="6.0222">
        <ele>280.79998779297</ele>
        <time>2013-10-19T13:33:35Z</time>
      </trkpt>
      <trkpt lat="43.43361" lon="6.02233">
        <ele>280</ele>
        <time>2013-10-19T13:33:38Z</time>
      </trkpt>
      <trkpt lat="43.43359" lon="6.02237">
        <ele>279.60000610352</ele>
        <time>2013-10-19T13:33:39Z</time>
      </trkpt>
      <trkpt lat="43.43358" lon="6.02241">
        <ele>279.20001220703</ele>
        <time>2013-10-19T13:33:40Z</time>
      </trkpt>
      <trkpt lat="43.43356" lon="6.02245">
        <ele>278.79998779297</ele>
        <time>2013-10-19T13:33:41Z</time>
      </trkpt>
      <trkpt lat="43.43354" lon="6.0225">
        <ele>278.79998779297</ele>
        <time>2013-10-19T13:33:42Z</time>
      </trkpt>
      <trkpt lat="43.43345" lon="6.02275">
        <ele>278.20001220703</ele>
        <time>2013-10-19T13:33:47Z</time>
      </trkpt>
      <trkpt lat="43.43343" lon="6.02281">
        <ele>277.39999389648</ele>
        <time>2013-10-19T13:33:49Z</time>
      </trkpt>
      <trkpt lat="43.43338" lon="6.02297">
        <ele>276.60000610352</ele>
        <time>2013-10-19T13:33:54Z</time>
      </trkpt>
      <trkpt lat="43.43333" lon="6.02309">
        <ele>276.60000610352</ele>
        <time>2013-10-19T13:33:58Z</time>
      </trkpt>
      <trkpt lat="43.4333" lon="6.02314">
        <ele>276.60000610352</ele>
        <time>2013-10-19T13:34:00Z</time>
      </trkpt>
      <trkpt lat="43.43323" lon="6.02332">
        <ele>276.60000610352</ele>
        <time>2013-10-19T13:34:06Z</time>
      </trkpt>
      <trkpt lat="43.43314" lon="6.02354">
        <ele>276.60000610352</ele>
        <time>2013-10-19T13:34:14Z</time>
      </trkpt>
      <trkpt lat="43.43313" lon="6.02357">
        <ele>277</ele>
        <time>2013-10-19T13:34:15Z</time>
      </trkpt>
      <trkpt lat="43.43302" lon="6.0239">
        <ele>278.60000610352</ele>
        <time>2013-10-19T13:34:26Z</time>
      </trkpt>
      <trkpt lat="43.43297" lon="6.02404">
        <ele>278.60000610352</ele>
        <time>2013-10-19T13:34:31Z</time>
      </trkpt>
      <trkpt lat="43.43294" lon="6.02413">
        <ele>278.60000610352</ele>
        <time>2013-10-19T13:34:34Z</time>
      </trkpt>
      <trkpt lat="43.43284" lon="6.0244">
        <ele>278.60000610352</ele>
        <time>2013-10-19T13:34:42Z</time>
      </trkpt>
      <trkpt lat="43.43275" lon="6.02464">
        <ele>278.60000610352</ele>
        <time>2013-10-19T13:34:49Z</time>
      </trkpt>
      <trkpt lat="43.43266" lon="6.02493">
        <ele>278.20001220703</ele>
        <time>2013-10-19T13:34:54Z</time>
      </trkpt>
      <trkpt lat="43.43264" lon="6.025">
        <ele>277.60000610352</ele>
        <time>2013-10-19T13:34:55Z</time>
      </trkpt>
      <trkpt lat="43.43258" lon="6.02516">
        <ele>276.39999389648</ele>
        <time>2013-10-19T13:34:57Z</time>
      </trkpt>
      <trkpt lat="43.43251" lon="6.02535">
        <ele>274</ele>
        <time>2013-10-19T13:35:00Z</time>
      </trkpt>
      <trkpt lat="43.43249" lon="6.0254">
        <ele>273.39999389648</ele>
        <time>2013-10-19T13:35:01Z</time>
      </trkpt>
      <trkpt lat="43.43243" lon="6.02556">
        <ele>273.39999389648</ele>
        <time>2013-10-19T13:35:04Z</time>
      </trkpt>
      <trkpt lat="43.43231" lon="6.02594">
        <ele>273.39999389648</ele>
        <time>2013-10-19T13:35:10Z</time>
      </trkpt>
      <trkpt lat="43.43227" lon="6.02607">
        <ele>272.39999389648</ele>
        <time>2013-10-19T13:35:12Z</time>
      </trkpt>
      <trkpt lat="43.43223" lon="6.02617">
        <ele>271.60000610352</ele>
        <time>2013-10-19T13:35:14Z</time>
      </trkpt>
      <trkpt lat="43.43221" lon="6.02622">
        <ele>271.20001220703</ele>
        <time>2013-10-19T13:35:15Z</time>
      </trkpt>
      <trkpt lat="43.43213" lon="6.02638">
        <ele>270.60000610352</ele>
        <time>2013-10-19T13:35:19Z</time>
      </trkpt>
      <trkpt lat="43.43205" lon="6.02646">
        <ele>269.60000610352</ele>
        <time>2013-10-19T13:35:21Z</time>
      </trkpt>
      <trkpt lat="43.43198" lon="6.02654">
        <ele>268</ele>
        <time>2013-10-19T13:35:23Z</time>
      </trkpt>
      <trkpt lat="43.43194" lon="6.02659">
        <ele>267.20001220703</ele>
        <time>2013-10-19T13:35:24Z</time>
      </trkpt>
      <trkpt lat="43.43189" lon="6.02669">
        <ele>265.39999389648</ele>
        <time>2013-10-19T13:35:26Z</time>
      </trkpt>
      <trkpt lat="43.43186" lon="6.02673">
        <ele>264.60000610352</ele>
        <time>2013-10-19T13:35:27Z</time>
      </trkpt>
      <trkpt lat="43.43183" lon="6.02677">
        <ele>263.79998779297</ele>
        <time>2013-10-19T13:35:28Z</time>
      </trkpt>
      <trkpt lat="43.43179" lon="6.02681">
        <ele>263.79998779297</ele>
        <time>2013-10-19T13:35:30Z</time>
      </trkpt>
      <trkpt lat="43.43173" lon="6.02687">
        <ele>263.79998779297</ele>
        <time>2013-10-19T13:35:35Z</time>
      </trkpt>
      <trkpt lat="43.43171" lon="6.0269">
        <ele>263.79998779297</ele>
        <time>2013-10-19T13:35:37Z</time>
      </trkpt>
      <trkpt lat="43.43169" lon="6.02692">
        <ele>264.20001220703</ele>
        <time>2013-10-19T13:35:39Z</time>
      </trkpt>
      <trkpt lat="43.43169" lon="6.02694">
        <ele>264.60000610352</ele>
        <time>2013-10-19T13:35:40Z</time>
      </trkpt>
      <trkpt lat="43.43168" lon="6.02696">
        <ele>265</ele>
        <time>2013-10-19T13:35:41Z</time>
      </trkpt>
      <trkpt lat="43.43167" lon="6.02698">
        <ele>265.39999389648</ele>
        <time>2013-10-19T13:35:42Z</time>
      </trkpt>
      <trkpt lat="43.43167" lon="6.027">
        <ele>265.79998779297</ele>
        <time>2013-10-19T13:35:43Z</time>
      </trkpt>
      <trkpt lat="43.43164" lon="6.02707">
        <ele>266.60000610352</ele>
        <time>2013-10-19T13:35:47Z</time>
      </trkpt>
      <trkpt lat="43.43163" lon="6.02712">
        <ele>267.39999389648</ele>
        <time>2013-10-19T13:35:49Z</time>
      </trkpt>
      <trkpt lat="43.43159" lon="6.02723">
        <ele>268.39999389648</ele>
        <time>2013-10-19T13:35:54Z</time>
      </trkpt>
      <trkpt lat="43.43157" lon="6.0273">
        <ele>270</ele>
        <time>2013-10-19T13:35:58Z</time>
      </trkpt>
      <trkpt lat="43.43156" lon="6.02734">
        <ele>270</ele>
        <time>2013-10-19T13:36:00Z</time>
      </trkpt>
      <trkpt lat="43.43155" lon="6.02739">
        <ele>270.39999389648</ele>
        <time>2013-10-19T13:36:03Z</time>
      </trkpt>
      <trkpt lat="43.43155" lon="6.02743">
        <ele>271.20001220703</ele>
        <time>2013-10-19T13:36:05Z</time>
      </trkpt>
      <trkpt lat="43.43155" lon="6.02746">
        <ele>272</ele>
        <time>2013-10-19T13:36:07Z</time>
      </trkpt>
      <trkpt lat="43.43153" lon="6.02756">
        <ele>272</ele>
        <time>2013-10-19T13:36:13Z</time>
      </trkpt>
      <trkpt lat="43.43149" lon="6.02768">
        <ele>272.39999389648</ele>
        <time>2013-10-19T13:36:19Z</time>
      </trkpt>
      <trkpt lat="43.43147" lon="6.02774">
        <ele>273.60000610352</ele>
        <time>2013-10-19T13:36:22Z</time>
      </trkpt>
      <trkpt lat="43.43147" lon="6.02776">
        <ele>274</ele>
        <time>2013-10-19T13:36:23Z</time>
      </trkpt>
      <trkpt lat="43.43144" lon="6.02785">
        <ele>274</ele>
        <time>2013-10-19T13:36:28Z</time>
      </trkpt>
      <trkpt lat="43.4314" lon="6.02798">
        <ele>274.39999389648</ele>
        <time>2013-10-19T13:36:36Z</time>
      </trkpt>
      <trkpt lat="43.43139" lon="6.02801">
        <ele>275.20001220703</ele>
        <time>2013-10-19T13:36:38Z</time>
      </trkpt>
      <trkpt lat="43.43138" lon="6.02802">
        <ele>275.60000610352</ele>
        <time>2013-10-19T13:36:39Z</time>
      </trkpt>
      <trkpt lat="43.43138" lon="6.02804">
        <ele>276</ele>
        <time>2013-10-19T13:36:40Z</time>
      </trkpt>
      <trkpt lat="43.43137" lon="6.02805">
        <ele>276</ele>
        <time>2013-10-19T13:36:42Z</time>
      </trkpt>
      <trkpt lat="43.43137" lon="6.02805">
        <ele>276</ele>
        <time>2013-10-19T13:37:01Z</time>
      </trkpt>
      <trkpt lat="43.43137" lon="6.02805">
        <ele>276</ele>
        <time>2013-10-19T13:37:24Z</time>
      </trkpt>
      <trkpt lat="43.43137" lon="6.02805">
        <ele>276</ele>
        <time>2013-10-19T13:37:38Z</time>
      </trkpt>
      <trkpt lat="43.43137" lon="6.02805">
        <ele>276</ele>
        <time>2013-10-19T13:37:54Z</time>
      </trkpt>
      <trkpt lat="43.43136" lon="6.02807">
        <ele>276</ele>
        <time>2013-10-19T13:37:58Z</time>
      </trkpt>
      <trkpt lat="43.43132" lon="6.02806">
        <ele>276</ele>
        <time>2013-10-19T13:38:01Z</time>
      </trkpt>
      <trkpt lat="43.43129" lon="6.02806">
        <ele>276</ele>
        <time>2013-10-19T13:38:03Z</time>
      </trkpt>
      <trkpt lat="43.43126" lon="6.02807">
        <ele>276</ele>
        <time>2013-10-19T13:38:04Z</time>
      </trkpt>
      <trkpt lat="43.43113" lon="6.02812">
        <ele>276</ele>
        <time>2013-10-19T13:38:08Z</time>
      </trkpt>
      <trkpt lat="43.431" lon="6.02821">
        <ele>275.60000610352</ele>
        <time>2013-10-19T13:38:12Z</time>
      </trkpt>
      <trkpt lat="43.43095" lon="6.02831">
        <ele>274.60000610352</ele>
        <time>2013-10-19T13:38:14Z</time>
      </trkpt>
      <trkpt lat="43.43093" lon="6.02836">
        <ele>274</ele>
        <time>2013-10-19T13:38:15Z</time>
      </trkpt>
      <trkpt lat="43.43091" lon="6.02841">
        <ele>273.60000610352</ele>
        <time>2013-10-19T13:38:16Z</time>
      </trkpt>
      <trkpt lat="43.4309" lon="6.02845">
        <ele>273.60000610352</ele>
        <time>2013-10-19T13:38:17Z</time>
      </trkpt>
      <trkpt lat="43.4309" lon="6.02848">
        <ele>273.60000610352</ele>
        <time>2013-10-19T13:38:18Z</time>
      </trkpt>
      <trkpt lat="43.43089" lon="6.02851">
        <ele>273.20001220703</ele>
        <time>2013-10-19T13:38:19Z</time>
      </trkpt>
      <trkpt lat="43.43087" lon="6.02854">
        <ele>272.79998779297</ele>
        <time>2013-10-19T13:38:20Z</time>
      </trkpt>
      <trkpt lat="43.43084" lon="6.02856">
        <ele>272.39999389648</ele>
        <time>2013-10-19T13:38:21Z</time>
      </trkpt>
      <trkpt lat="43.43081" lon="6.02857">
        <ele>272</ele>
        <time>2013-10-19T13:38:22Z</time>
      </trkpt>
      <trkpt lat="43.43076" lon="6.02857">
        <ele>271.60000610352</ele>
        <time>2013-10-19T13:38:23Z</time>
      </trkpt>
      <trkpt lat="43.43068" lon="6.02854">
        <ele>270.79998779297</ele>
        <time>2013-10-19T13:38:25Z</time>
      </trkpt>
      <trkpt lat="43.43055" lon="6.02848">
        <ele>269</ele>
        <time>2013-10-19T13:38:28Z</time>
      </trkpt>
      <trkpt lat="43.43051" lon="6.02847">
        <ele>268.39999389648</ele>
        <time>2013-10-19T13:38:29Z</time>
      </trkpt>
      <trkpt lat="43.43047" lon="6.02848">
        <ele>268</ele>
        <time>2013-10-19T13:38:30Z</time>
      </trkpt>
      <trkpt lat="43.43044" lon="6.02849">
        <ele>267.39999389648</ele>
        <time>2013-10-19T13:38:31Z</time>
      </trkpt>
      <trkpt lat="43.4304" lon="6.02856">
        <ele>267</ele>
        <time>2013-10-19T13:38:33Z</time>
      </trkpt>
      <trkpt lat="43.43039" lon="6.02859">
        <ele>266.60000610352</ele>
        <time>2013-10-19T13:38:34Z</time>
      </trkpt>
      <trkpt lat="43.4304" lon="6.02868">
        <ele>265.60000610352</ele>
        <time>2013-10-19T13:38:36Z</time>
      </trkpt>
      <trkpt lat="43.4304" lon="6.02872">
        <ele>265.20001220703</ele>
        <time>2013-10-19T13:38:37Z</time>
      </trkpt>
      <trkpt lat="43.43042" lon="6.02882">
        <ele>265.20001220703</ele>
        <time>2013-10-19T13:38:41Z</time>
      </trkpt>
      <trkpt lat="43.43041" lon="6.02886">
        <ele>265.20001220703</ele>
        <time>2013-10-19T13:38:43Z</time>
      </trkpt>
      <trkpt lat="43.4304" lon="6.02888">
        <ele>265.20001220703</ele>
        <time>2013-10-19T13:38:45Z</time>
      </trkpt>
      <trkpt lat="43.4304" lon="6.02888">
        <ele>265.20001220703</ele>
        <time>2013-10-19T13:39:09Z</time>
      </trkpt>
      <trkpt lat="43.4304" lon="6.02888">
        <ele>264.79998779297</ele>
        <time>2013-10-19T13:39:32Z</time>
      </trkpt>
      <trkpt lat="43.4304" lon="6.02888">
        <ele>263.20001220703</ele>
        <time>2013-10-19T13:39:36Z</time>
      </trkpt>
      <trkpt lat="43.43037" lon="6.02888">
        <ele>263.20001220703</ele>
        <time>2013-10-19T13:39:41Z</time>
      </trkpt>
      <trkpt lat="43.43036" lon="6.02887">
        <ele>263.20001220703</ele>
        <time>2013-10-19T13:39:42Z</time>
      </trkpt>
      <trkpt lat="43.43028" lon="6.02881">
        <ele>263.20001220703</ele>
        <time>2013-10-19T13:39:47Z</time>
      </trkpt>
      <trkpt lat="43.43019" lon="6.02875">
        <ele>263.20001220703</ele>
        <time>2013-10-19T13:39:52Z</time>
      </trkpt>
      <trkpt lat="43.43009" lon="6.02874">
        <ele>263.20001220703</ele>
        <time>2013-10-19T13:39:56Z</time>
      </trkpt>
      <trkpt lat="43.43005" lon="6.02874">
        <ele>263.20001220703</ele>
        <time>2013-10-19T13:39:58Z</time>
      </trkpt>
      <trkpt lat="43.43002" lon="6.02874">
        <ele>264.20001220703</ele>
        <time>2013-10-19T13:40:00Z</time>
      </trkpt>
      <trkpt lat="43.42998" lon="6.02871">
        <ele>265</ele>
        <time>2013-10-19T13:40:02Z</time>
      </trkpt>
      <trkpt lat="43.42989" lon="6.0284">
        <ele>265.79998779297</ele>
        <time>2013-10-19T13:40:16Z</time>
      </trkpt>
      <trkpt lat="43.42989" lon="6.02835">
        <ele>266.60000610352</ele>
        <time>2013-10-19T13:40:18Z</time>
      </trkpt>
      <trkpt lat="43.42989" lon="6.02831">
        <ele>267.39999389648</ele>
        <time>2013-10-19T13:40:20Z</time>
      </trkpt>
      <trkpt lat="43.42986" lon="6.02818">
        <ele>267.39999389648</ele>
        <time>2013-10-19T13:40:26Z</time>
      </trkpt>
      <trkpt lat="43.4298" lon="6.02802">
        <ele>268.20001220703</ele>
        <time>2013-10-19T13:40:32Z</time>
      </trkpt>
      <trkpt lat="43.42978" lon="6.02797">
        <ele>269</ele>
        <time>2013-10-19T13:40:34Z</time>
      </trkpt>
      <trkpt lat="43.42974" lon="6.02787">
        <ele>269.39999389648</ele>
        <time>2013-10-19T13:40:38Z</time>
      </trkpt>
      <trkpt lat="43.42965" lon="6.02777">
        <ele>269.39999389648</ele>
        <time>2013-10-19T13:40:44Z</time>
      </trkpt>
      <trkpt lat="43.42959" lon="6.02766">
        <ele>269.39999389648</ele>
        <time>2013-10-19T13:40:49Z</time>
      </trkpt>
      <trkpt lat="43.4295" lon="6.02753">
        <ele>271.60000610352</ele>
        <time>2013-10-19T13:40:56Z</time>
      </trkpt>
      <trkpt lat="43.4294" lon="6.02739">
        <ele>272</ele>
        <time>2013-10-19T13:41:03Z</time>
      </trkpt>
      <trkpt lat="43.42937" lon="6.02735">
        <ele>272.79998779297</ele>
        <time>2013-10-19T13:41:05Z</time>
      </trkpt>
      <trkpt lat="43.42934" lon="6.02733">
        <ele>273.60000610352</ele>
        <time>2013-10-19T13:41:07Z</time>
      </trkpt>
      <trkpt lat="43.42929" lon="6.02729">
        <ele>273.60000610352</ele>
        <time>2013-10-19T13:41:10Z</time>
      </trkpt>
      <trkpt lat="43.42928" lon="6.02727">
        <ele>273.60000610352</ele>
        <time>2013-10-19T13:41:11Z</time>
      </trkpt>
      <trkpt lat="43.42926" lon="6.02715">
        <ele>273.60000610352</ele>
        <time>2013-10-19T13:41:16Z</time>
      </trkpt>
      <trkpt lat="43.42924" lon="6.02693">
        <ele>274</ele>
        <time>2013-10-19T13:41:24Z</time>
      </trkpt>
      <trkpt lat="43.42924" lon="6.02689">
        <ele>275</ele>
        <time>2013-10-19T13:41:26Z</time>
      </trkpt>
      <trkpt lat="43.42922" lon="6.02685">
        <ele>275.79998779297</ele>
        <time>2013-10-19T13:41:28Z</time>
      </trkpt>
      <trkpt lat="43.42911" lon="6.02678">
        <ele>276.20001220703</ele>
        <time>2013-10-19T13:41:36Z</time>
      </trkpt>
      <trkpt lat="43.42908" lon="6.02677">
        <ele>277</ele>
        <time>2013-10-19T13:41:38Z</time>
      </trkpt>
      <trkpt lat="43.42906" lon="6.02676">
        <ele>277.79998779297</ele>
        <time>2013-10-19T13:41:40Z</time>
      </trkpt>
      <trkpt lat="43.429" lon="6.02669">
        <ele>277.79998779297</ele>
        <time>2013-10-19T13:41:45Z</time>
      </trkpt>
      <trkpt lat="43.42898" lon="6.02665">
        <ele>277.79998779297</ele>
        <time>2013-10-19T13:41:48Z</time>
      </trkpt>
      <trkpt lat="43.42898" lon="6.0266">
        <ele>277.79998779297</ele>
        <time>2013-10-19T13:41:50Z</time>
      </trkpt>
      <trkpt lat="43.42899" lon="6.02655">
        <ele>277.79998779297</ele>
        <time>2013-10-19T13:41:52Z</time>
      </trkpt>
      <trkpt lat="43.42899" lon="6.02648">
        <ele>277.79998779297</ele>
        <time>2013-10-19T13:41:55Z</time>
      </trkpt>
      <trkpt lat="43.42896" lon="6.02638">
        <ele>278.20001220703</ele>
        <time>2013-10-19T13:41:59Z</time>
      </trkpt>
      <trkpt lat="43.42892" lon="6.02628">
        <ele>279.79998779297</ele>
        <time>2013-10-19T13:42:03Z</time>
      </trkpt>
      <trkpt lat="43.42891" lon="6.0262">
        <ele>279.79998779297</ele>
        <time>2013-10-19T13:42:06Z</time>
      </trkpt>
      <trkpt lat="43.4289" lon="6.0261">
        <ele>279.79998779297</ele>
        <time>2013-10-19T13:42:10Z</time>
      </trkpt>
      <trkpt lat="43.42884" lon="6.02599">
        <ele>279.79998779297</ele>
        <time>2013-10-19T13:42:16Z</time>
      </trkpt>
      <trkpt lat="43.42881" lon="6.02594">
        <ele>280.79998779297</ele>
        <time>2013-10-19T13:42:18Z</time>
      </trkpt>
      <trkpt lat="43.42877" lon="6.02587">
        <ele>282</ele>
        <time>2013-10-19T13:42:22Z</time>
      </trkpt>
      <trkpt lat="43.4287" lon="6.02578">
        <ele>282</ele>
        <time>2013-10-19T13:42:28Z</time>
      </trkpt>
      <trkpt lat="43.42866" lon="6.02573">
        <ele>282.39999389648</ele>
        <time>2013-10-19T13:42:31Z</time>
      </trkpt>
      <trkpt lat="43.42864" lon="6.02569">
        <ele>283.20001220703</ele>
        <time>2013-10-19T13:42:33Z</time>
      </trkpt>
      <trkpt lat="43.42863" lon="6.02565">
        <ele>284</ele>
        <time>2013-10-19T13:42:35Z</time>
      </trkpt>
      <trkpt lat="43.42861" lon="6.02561">
        <ele>284</ele>
        <time>2013-10-19T13:42:37Z</time>
      </trkpt>
      <trkpt lat="43.42849" lon="6.02552">
        <ele>284.39999389648</ele>
        <time>2013-10-19T13:42:44Z</time>
      </trkpt>
      <trkpt lat="43.42847" lon="6.02552">
        <ele>285</ele>
        <time>2013-10-19T13:42:45Z</time>
      </trkpt>
      <trkpt lat="43.42845" lon="6.02548">
        <ele>285.79998779297</ele>
        <time>2013-10-19T13:42:47Z</time>
      </trkpt>
      <trkpt lat="43.42842" lon="6.02543">
        <ele>286.20001220703</ele>
        <time>2013-10-19T13:42:50Z</time>
      </trkpt>
      <trkpt lat="43.42834" lon="6.02532">
        <ele>286.20001220703</ele>
        <time>2013-10-19T13:42:56Z</time>
      </trkpt>
      <trkpt lat="43.42831" lon="6.02526">
        <ele>286.20001220703</ele>
        <time>2013-10-19T13:42:59Z</time>
      </trkpt>
      <trkpt lat="43.42822" lon="6.02526">
        <ele>286.20001220703</ele>
        <time>2013-10-19T13:43:05Z</time>
      </trkpt>
      <trkpt lat="43.42812" lon="6.02528">
        <ele>287</ele>
        <time>2013-10-19T13:43:10Z</time>
      </trkpt>
      <trkpt lat="43.4281" lon="6.02528">
        <ele>287.39999389648</ele>
        <time>2013-10-19T13:43:11Z</time>
      </trkpt>
      <trkpt lat="43.42808" lon="6.02527">
        <ele>287.79998779297</ele>
        <time>2013-10-19T13:43:12Z</time>
      </trkpt>
      <trkpt lat="43.42806" lon="6.02526">
        <ele>288.20001220703</ele>
        <time>2013-10-19T13:43:13Z</time>
      </trkpt>
      <trkpt lat="43.42796" lon="6.02517">
        <ele>288.20001220703</ele>
        <time>2013-10-19T13:43:19Z</time>
      </trkpt>
      <trkpt lat="43.42797" lon="6.02511">
        <ele>288.20001220703</ele>
        <time>2013-10-19T13:43:22Z</time>
      </trkpt>
      <trkpt lat="43.42798" lon="6.02509">
        <ele>288.20001220703</ele>
        <time>2013-10-19T13:43:23Z</time>
      </trkpt>
      <trkpt lat="43.428" lon="6.02499">
        <ele>288.60000610352</ele>
        <time>2013-10-19T13:43:27Z</time>
      </trkpt>
      <trkpt lat="43.42799" lon="6.02497">
        <ele>289</ele>
        <time>2013-10-19T13:43:28Z</time>
      </trkpt>
      <trkpt lat="43.428" lon="6.02494">
        <ele>289.39999389648</ele>
        <time>2013-10-19T13:43:29Z</time>
      </trkpt>
      <trkpt lat="43.42799" lon="6.02493">
        <ele>289.79998779297</ele>
        <time>2013-10-19T13:43:30Z</time>
      </trkpt>
      <trkpt lat="43.42799" lon="6.02493">
        <ele>290.20001220703</ele>
        <time>2013-10-19T13:43:31Z</time>
      </trkpt>
      <trkpt lat="43.42799" lon="6.02493">
        <ele>290.20001220703</ele>
        <time>2013-10-19T13:43:36Z</time>
      </trkpt>
      <trkpt lat="43.42799" lon="6.02493">
        <ele>290.20001220703</ele>
        <time>2013-10-19T13:43:40Z</time>
      </trkpt>
      <trkpt lat="43.42799" lon="6.02493">
        <ele>290.20001220703</ele>
        <time>2013-10-19T13:43:45Z</time>
      </trkpt>
      <trkpt lat="43.42799" lon="6.02492">
        <ele>290.20001220703</ele>
        <time>2013-10-19T13:43:51Z</time>
      </trkpt>
      <trkpt lat="43.42802" lon="6.02481">
        <ele>290.20001220703</ele>
        <time>2013-10-19T13:43:56Z</time>
      </trkpt>
      <trkpt lat="43.42804" lon="6.02472">
        <ele>290.60000610352</ele>
        <time>2013-10-19T13:44:00Z</time>
      </trkpt>
      <trkpt lat="43.42804" lon="6.02469">
        <ele>291</ele>
        <time>2013-10-19T13:44:01Z</time>
      </trkpt>
      <trkpt lat="43.42804" lon="6.02467">
        <ele>291.39999389648</ele>
        <time>2013-10-19T13:44:02Z</time>
      </trkpt>
      <trkpt lat="43.42801" lon="6.02455">
        <ele>292.39999389648</ele>
        <time>2013-10-19T13:44:07Z</time>
      </trkpt>
      <trkpt lat="43.42799" lon="6.02446">
        <ele>292.39999389648</ele>
        <time>2013-10-19T13:44:11Z</time>
      </trkpt>
      <trkpt lat="43.42801" lon="6.02434">
        <ele>294</ele>
        <time>2013-10-19T13:44:16Z</time>
      </trkpt>
      <trkpt lat="43.42803" lon="6.02416">
        <ele>294.39999389648</ele>
        <time>2013-10-19T13:44:24Z</time>
      </trkpt>
      <trkpt lat="43.42801" lon="6.02409">
        <ele>294.79998779297</ele>
        <time>2013-10-19T13:44:27Z</time>
      </trkpt>
      <trkpt lat="43.42798" lon="6.02403">
        <ele>296</ele>
        <time>2013-10-19T13:44:30Z</time>
      </trkpt>
      <trkpt lat="43.42793" lon="6.02383">
        <ele>296.39999389648</ele>
        <time>2013-10-19T13:44:40Z</time>
      </trkpt>
      <trkpt lat="43.42791" lon="6.02377">
        <ele>298.20001220703</ele>
        <time>2013-10-19T13:44:44Z</time>
      </trkpt>
      <trkpt lat="43.4279" lon="6.02375">
        <ele>298.60000610352</ele>
        <time>2013-10-19T13:44:45Z</time>
      </trkpt>
      <trkpt lat="43.42788" lon="6.02367">
        <ele>298.60000610352</ele>
        <time>2013-10-19T13:44:49Z</time>
      </trkpt>
      <trkpt lat="43.42788" lon="6.02365">
        <ele>298.60000610352</ele>
        <time>2013-10-19T13:44:50Z</time>
      </trkpt>
      <trkpt lat="43.42787" lon="6.02365">
        <ele>298.60000610352</ele>
        <time>2013-10-19T13:44:55Z</time>
      </trkpt>
      <trkpt lat="43.42787" lon="6.02365">
        <ele>299</ele>
        <time>2013-10-19T13:44:59Z</time>
      </trkpt>
      <trkpt lat="43.42787" lon="6.02364">
        <ele>299.39999389648</ele>
        <time>2013-10-19T13:45:00Z</time>
      </trkpt>
      <trkpt lat="43.42787" lon="6.02364">
        <ele>300.60000610352</ele>
        <time>2013-10-19T13:45:15Z</time>
      </trkpt>
      <trkpt lat="43.42787" lon="6.02364">
        <ele>300.60000610352</ele>
        <time>2013-10-19T13:45:26Z</time>
      </trkpt>
      <trkpt lat="43.42787" lon="6.02359">
        <ele>300.60000610352</ele>
        <time>2013-10-19T13:45:29Z</time>
      </trkpt>
      <trkpt lat="43.42788" lon="6.02356">
        <ele>300.60000610352</ele>
        <time>2013-10-19T13:45:30Z</time>
      </trkpt>
      <trkpt lat="43.42796" lon="6.02344">
        <ele>300.60000610352</ele>
        <time>2013-10-19T13:45:36Z</time>
      </trkpt>
      <trkpt lat="43.42801" lon="6.02331">
        <ele>300.60000610352</ele>
        <time>2013-10-19T13:45:42Z</time>
      </trkpt>
      <trkpt lat="43.42806" lon="6.02318">
        <ele>302</ele>
        <time>2013-10-19T13:45:49Z</time>
      </trkpt>
      <trkpt lat="43.42807" lon="6.0231">
        <ele>302.79998779297</ele>
        <time>2013-10-19T13:45:52Z</time>
      </trkpt>
      <trkpt lat="43.42807" lon="6.02304">
        <ele>302.79998779297</ele>
        <time>2013-10-19T13:45:55Z</time>
      </trkpt>
      <trkpt lat="43.42802" lon="6.023">
        <ele>302.79998779297</ele>
        <time>2013-10-19T13:45:58Z</time>
      </trkpt>
      <trkpt lat="43.42795" lon="6.02298">
        <ele>302.79998779297</ele>
        <time>2013-10-19T13:46:03Z</time>
      </trkpt>
      <trkpt lat="43.42795" lon="6.02298">
        <ele>303.20001220703</ele>
        <time>2013-10-19T13:46:04Z</time>
      </trkpt>
      <trkpt lat="43.42795" lon="6.02297">
        <ele>303.60000610352</ele>
        <time>2013-10-19T13:46:05Z</time>
      </trkpt>
      <trkpt lat="43.42795" lon="6.02297">
        <ele>304.79998779297</ele>
        <time>2013-10-19T13:46:19Z</time>
      </trkpt>
      <trkpt lat="43.42795" lon="6.02297">
        <ele>304.79998779297</ele>
        <time>2013-10-19T13:47:04Z</time>
      </trkpt>
      <trkpt lat="43.42795" lon="6.02297">
        <ele>304.79998779297</ele>
        <time>2013-10-19T13:47:25Z</time>
      </trkpt>
      <trkpt lat="43.42793" lon="6.02297">
        <ele>304.79998779297</ele>
        <time>2013-10-19T13:47:32Z</time>
      </trkpt>
      <trkpt lat="43.42791" lon="6.02298">
        <ele>304.79998779297</ele>
        <time>2013-10-19T13:47:33Z</time>
      </trkpt>
      <trkpt lat="43.42785" lon="6.02294">
        <ele>304.79998779297</ele>
        <time>2013-10-19T13:47:37Z</time>
      </trkpt>
      <trkpt lat="43.42784" lon="6.02292">
        <ele>304.79998779297</ele>
        <time>2013-10-19T13:47:38Z</time>
      </trkpt>
      <trkpt lat="43.42786" lon="6.02283">
        <ele>304.79998779297</ele>
        <time>2013-10-19T13:47:41Z</time>
      </trkpt>
      <trkpt lat="43.42793" lon="6.02271">
        <ele>304.79998779297</ele>
        <time>2013-10-19T13:47:46Z</time>
      </trkpt>
      <trkpt lat="43.42794" lon="6.02268">
        <ele>304.79998779297</ele>
        <time>2013-10-19T13:47:47Z</time>
      </trkpt>
      <trkpt lat="43.42793" lon="6.02263">
        <ele>305.20001220703</ele>
        <time>2013-10-19T13:47:49Z</time>
      </trkpt>
      <trkpt lat="43.42791" lon="6.02261">
        <ele>305.60000610352</ele>
        <time>2013-10-19T13:47:50Z</time>
      </trkpt>
      <trkpt lat="43.42786" lon="6.02255">
        <ele>307</ele>
        <time>2013-10-19T13:47:53Z</time>
      </trkpt>
      <trkpt lat="43.42781" lon="6.02248">
        <ele>307</ele>
        <time>2013-10-19T13:47:57Z</time>
      </trkpt>
      <trkpt lat="43.42779" lon="6.02245">
        <ele>307</ele>
        <time>2013-10-19T13:47:58Z</time>
      </trkpt>
      <trkpt lat="43.42776" lon="6.02238">
        <ele>307.79998779297</ele>
        <time>2013-10-19T13:48:01Z</time>
      </trkpt>
      <trkpt lat="43.42771" lon="6.02223">
        <ele>309</ele>
        <time>2013-10-19T13:48:07Z</time>
      </trkpt>
      <trkpt lat="43.42767" lon="6.02213">
        <ele>309</ele>
        <time>2013-10-19T13:48:11Z</time>
      </trkpt>
      <trkpt lat="43.42764" lon="6.02206">
        <ele>310.20001220703</ele>
        <time>2013-10-19T13:48:14Z</time>
      </trkpt>
      <trkpt lat="43.42761" lon="6.02203">
        <ele>311.20001220703</ele>
        <time>2013-10-19T13:48:16Z</time>
      </trkpt>
      <trkpt lat="43.42757" lon="6.02199">
        <ele>311.20001220703</ele>
        <time>2013-10-19T13:48:19Z</time>
      </trkpt>
      <trkpt lat="43.42749" lon="6.02193">
        <ele>311.20001220703</ele>
        <time>2013-10-19T13:48:24Z</time>
      </trkpt>
      <trkpt lat="43.42747" lon="6.02191">
        <ele>311.60000610352</ele>
        <time>2013-10-19T13:48:26Z</time>
      </trkpt>
      <trkpt lat="43.42744" lon="6.02188">
        <ele>312.79998779297</ele>
        <time>2013-10-19T13:48:29Z</time>
      </trkpt>
      <trkpt lat="43.42741" lon="6.02187">
        <ele>313.20001220703</ele>
        <time>2013-10-19T13:48:31Z</time>
      </trkpt>
      <trkpt lat="43.42731" lon="6.02183">
        <ele>313.20001220703</ele>
        <time>2013-10-19T13:48:38Z</time>
      </trkpt>
      <trkpt lat="43.4273" lon="6.02183">
        <ele>313.60000610352</ele>
        <time>2013-10-19T13:48:39Z</time>
      </trkpt>
      <trkpt lat="43.42724" lon="6.02177">
        <ele>315.20001220703</ele>
        <time>2013-10-19T13:48:43Z</time>
      </trkpt>
      <trkpt lat="43.42723" lon="6.02176">
        <ele>315.20001220703</ele>
        <time>2013-10-19T13:48:44Z</time>
      </trkpt>
      <trkpt lat="43.42722" lon="6.0217">
        <ele>315.60000610352</ele>
        <time>2013-10-19T13:48:48Z</time>
      </trkpt>
      <trkpt lat="43.42722" lon="6.02168">
        <ele>316</ele>
        <time>2013-10-19T13:48:49Z</time>
      </trkpt>
      <trkpt lat="43.4272" lon="6.02164">
        <ele>317.39999389648</ele>
        <time>2013-10-19T13:48:52Z</time>
      </trkpt>
      <trkpt lat="43.42719" lon="6.02159">
        <ele>317.39999389648</ele>
        <time>2013-10-19T13:48:55Z</time>
      </trkpt>
      <trkpt lat="43.42719" lon="6.02157">
        <ele>317.39999389648</ele>
        <time>2013-10-19T13:48:57Z</time>
      </trkpt>
      <trkpt lat="43.42718" lon="6.02157">
        <ele>317.39999389648</ele>
        <time>2013-10-19T13:49:01Z</time>
      </trkpt>
      <trkpt lat="43.42718" lon="6.02157">
        <ele>317.39999389648</ele>
        <time>2013-10-19T13:49:16Z</time>
      </trkpt>
      <trkpt lat="43.42718" lon="6.02157">
        <ele>317.39999389648</ele>
        <time>2013-10-19T13:49:37Z</time>
      </trkpt>
      <trkpt lat="43.42719" lon="6.02157">
        <ele>317.39999389648</ele>
        <time>2013-10-19T13:49:46Z</time>
      </trkpt>
      <trkpt lat="43.42718" lon="6.02157">
        <ele>317.39999389648</ele>
        <time>2013-10-19T13:49:49Z</time>
      </trkpt>
      <trkpt lat="43.42718" lon="6.02157">
        <ele>317.39999389648</ele>
        <time>2013-10-19T13:50:04Z</time>
      </trkpt>
      <trkpt lat="43.42718" lon="6.02157">
        <ele>317.39999389648</ele>
        <time>2013-10-19T13:50:29Z</time>
      </trkpt>
      <trkpt lat="43.42718" lon="6.02157">
        <ele>317.39999389648</ele>
        <time>2013-10-19T13:50:40Z</time>
      </trkpt>
      <trkpt lat="43.42719" lon="6.02155">
        <ele>317.39999389648</ele>
        <time>2013-10-19T13:50:44Z</time>
      </trkpt>
      <trkpt lat="43.42721" lon="6.02147">
        <ele>317.39999389648</ele>
        <time>2013-10-19T13:50:47Z</time>
      </trkpt>
      <trkpt lat="43.42725" lon="6.02137">
        <ele>317.39999389648</ele>
        <time>2013-10-19T13:50:51Z</time>
      </trkpt>
      <trkpt lat="43.42727" lon="6.02135">
        <ele>317.79998779297</ele>
        <time>2013-10-19T13:50:52Z</time>
      </trkpt>
      <trkpt lat="43.42728" lon="6.02131">
        <ele>318.20001220703</ele>
        <time>2013-10-19T13:50:53Z</time>
      </trkpt>
      <trkpt lat="43.42729" lon="6.02128">
        <ele>318.60000610352</ele>
        <time>2013-10-19T13:50:54Z</time>
      </trkpt>
      <trkpt lat="43.4273" lon="6.02125">
        <ele>319</ele>
        <time>2013-10-19T13:50:55Z</time>
      </trkpt>
      <trkpt lat="43.42732" lon="6.02117">
        <ele>319.39999389648</ele>
        <time>2013-10-19T13:50:58Z</time>
      </trkpt>
      <trkpt lat="43.42736" lon="6.02092">
        <ele>319.39999389648</ele>
        <time>2013-10-19T13:51:07Z</time>
      </trkpt>
      <trkpt lat="43.42738" lon="6.02077">
        <ele>319.39999389648</ele>
        <time>2013-10-19T13:51:12Z</time>
      </trkpt>
      <trkpt lat="43.4274" lon="6.02059">
        <ele>319.39999389648</ele>
        <time>2013-10-19T13:51:18Z</time>
      </trkpt>
      <trkpt lat="43.42739" lon="6.02053">
        <ele>319.39999389648</ele>
        <time>2013-10-19T13:51:20Z</time>
      </trkpt>
      <trkpt lat="43.42739" lon="6.02046">
        <ele>319.39999389648</ele>
        <time>2013-10-19T13:51:23Z</time>
      </trkpt>
      <trkpt lat="43.42738" lon="6.02042">
        <ele>319.39999389648</ele>
        <time>2013-10-19T13:51:25Z</time>
      </trkpt>
      <trkpt lat="43.42737" lon="6.02041">
        <ele>319.39999389648</ele>
        <time>2013-10-19T13:51:26Z</time>
      </trkpt>
      <trkpt lat="43.42732" lon="6.02041">
        <ele>319.39999389648</ele>
        <time>2013-10-19T13:51:29Z</time>
      </trkpt>
      <trkpt lat="43.42731" lon="6.02041">
        <ele>319.39999389648</ele>
        <time>2013-10-19T13:51:30Z</time>
      </trkpt>
      <trkpt lat="43.42717" lon="6.02038">
        <ele>321.39999389648</ele>
        <time>2013-10-19T13:51:38Z</time>
      </trkpt>
      <trkpt lat="43.42711" lon="6.02037">
        <ele>321.39999389648</ele>
        <time>2013-10-19T13:51:42Z</time>
      </trkpt>
      <trkpt lat="43.42705" lon="6.02036">
        <ele>321.79998779297</ele>
        <time>2013-10-19T13:51:45Z</time>
      </trkpt>
      <trkpt lat="43.42691" lon="6.02032">
        <ele>323.60000610352</ele>
        <time>2013-10-19T13:51:53Z</time>
      </trkpt>
      <trkpt lat="43.42688" lon="6.02032">
        <ele>323.60000610352</ele>
        <time>2013-10-19T13:51:55Z</time>
      </trkpt>
      <trkpt lat="43.42681" lon="6.02032">
        <ele>324.79998779297</ele>
        <time>2013-10-19T13:51:59Z</time>
      </trkpt>
      <trkpt lat="43.42674" lon="6.02031">
        <ele>325.60000610352</ele>
        <time>2013-10-19T13:52:03Z</time>
      </trkpt>
      <trkpt lat="43.42668" lon="6.02029">
        <ele>326.39999389648</ele>
        <time>2013-10-19T13:52:07Z</time>
      </trkpt>
      <trkpt lat="43.42662" lon="6.02029">
        <ele>327.79998779297</ele>
        <time>2013-10-19T13:52:10Z</time>
      </trkpt>
      <trkpt lat="43.42657" lon="6.02028">
        <ele>327.79998779297</ele>
        <time>2013-10-19T13:52:13Z</time>
      </trkpt>
      <trkpt lat="43.42654" lon="6.02028">
        <ele>329</ele>
        <time>2013-10-19T13:52:16Z</time>
      </trkpt>
      <trkpt lat="43.42653" lon="6.02027">
        <ele>329.39999389648</ele>
        <time>2013-10-19T13:52:17Z</time>
      </trkpt>
      <trkpt lat="43.42652" lon="6.02026">
        <ele>329.79998779297</ele>
        <time>2013-10-19T13:52:18Z</time>
      </trkpt>
      <trkpt lat="43.42648" lon="6.02026">
        <ele>330.20001220703</ele>
        <time>2013-10-19T13:52:22Z</time>
      </trkpt>
      <trkpt lat="43.42645" lon="6.02026">
        <ele>331.39999389648</ele>
        <time>2013-10-19T13:52:25Z</time>
      </trkpt>
      <trkpt lat="43.42644" lon="6.02026">
        <ele>331.79998779297</ele>
        <time>2013-10-19T13:52:26Z</time>
      </trkpt>
      <trkpt lat="43.42638" lon="6.02026">
        <ele>331.79998779297</ele>
        <time>2013-10-19T13:52:33Z</time>
      </trkpt>
      <trkpt lat="43.42638" lon="6.02026">
        <ele>334</ele>
        <time>2013-10-19T13:52:47Z</time>
      </trkpt>
      <trkpt lat="43.42638" lon="6.02026">
        <ele>334</ele>
        <time>2013-10-19T13:53:12Z</time>
      </trkpt>
      <trkpt lat="43.42638" lon="6.02026">
        <ele>334</ele>
        <time>2013-10-19T13:53:16Z</time>
      </trkpt>
      <trkpt lat="43.42638" lon="6.02026">
        <ele>334</ele>
        <time>2013-10-19T13:53:21Z</time>
      </trkpt>
      <trkpt lat="43.42638" lon="6.02027">
        <ele>334</ele>
        <time>2013-10-19T13:53:25Z</time>
      </trkpt>
      <trkpt lat="43.42638" lon="6.02027">
        <ele>334</ele>
        <time>2013-10-19T13:53:26Z</time>
      </trkpt>
      <trkpt lat="43.42638" lon="6.02027">
        <ele>334</ele>
        <time>2013-10-19T13:53:36Z</time>
      </trkpt>
      <trkpt lat="43.42637" lon="6.02027">
        <ele>334</ele>
        <time>2013-10-19T13:53:38Z</time>
      </trkpt>
      <trkpt lat="43.42632" lon="6.02025">
        <ele>334</ele>
        <time>2013-10-19T13:53:41Z</time>
      </trkpt>
      <trkpt lat="43.42628" lon="6.02024">
        <ele>334</ele>
        <time>2013-10-19T13:53:43Z</time>
      </trkpt>
      <trkpt lat="43.42624" lon="6.02023">
        <ele>334.39999389648</ele>
        <time>2013-10-19T13:53:45Z</time>
      </trkpt>
      <trkpt lat="43.42622" lon="6.02022">
        <ele>334.79998779297</ele>
        <time>2013-10-19T13:53:46Z</time>
      </trkpt>
      <trkpt lat="43.4262" lon="6.02023">
        <ele>335.20001220703</ele>
        <time>2013-10-19T13:53:47Z</time>
      </trkpt>
      <trkpt lat="43.42616" lon="6.02021">
        <ele>336</ele>
        <time>2013-10-19T13:53:49Z</time>
      </trkpt>
      <trkpt lat="43.42611" lon="6.02021">
        <ele>336.39999389648</ele>
        <time>2013-10-19T13:53:51Z</time>
      </trkpt>
      <trkpt lat="43.42609" lon="6.0202">
        <ele>337</ele>
        <time>2013-10-19T13:53:52Z</time>
      </trkpt>
      <trkpt lat="43.42605" lon="6.0202">
        <ele>338.20001220703</ele>
        <time>2013-10-19T13:53:55Z</time>
      </trkpt>
      <trkpt lat="43.42596" lon="6.02019">
        <ele>338.60000610352</ele>
        <time>2013-10-19T13:54:01Z</time>
      </trkpt>
      <trkpt lat="43.42584" lon="6.02017">
        <ele>340.20001220703</ele>
        <time>2013-10-19T13:54:11Z</time>
      </trkpt>
      <trkpt lat="43.42581" lon="6.02017">
        <ele>341</ele>
        <time>2013-10-19T13:54:13Z</time>
      </trkpt>
      <trkpt lat="43.42576" lon="6.02016">
        <ele>342.39999389648</ele>
        <time>2013-10-19T13:54:18Z</time>
      </trkpt>
      <trkpt lat="43.42567" lon="6.02013">
        <ele>344</ele>
        <time>2013-10-19T13:54:26Z</time>
      </trkpt>
      <trkpt lat="43.42561" lon="6.02012">
        <ele>344.39999389648</ele>
        <time>2013-10-19T13:54:32Z</time>
      </trkpt>
      <trkpt lat="43.42551" lon="6.02011">
        <ele>346</ele>
        <time>2013-10-19T13:54:41Z</time>
      </trkpt>
      <trkpt lat="43.42547" lon="6.02011">
        <ele>346.39999389648</ele>
        <time>2013-10-19T13:54:45Z</time>
      </trkpt>
      <trkpt lat="43.4254" lon="6.0201">
        <ele>346.39999389648</ele>
        <time>2013-10-19T13:54:52Z</time>
      </trkpt>
      <trkpt lat="43.42534" lon="6.02008">
        <ele>346.79998779297</ele>
        <time>2013-10-19T13:54:57Z</time>
      </trkpt>
      <trkpt lat="43.42524" lon="6.02007">
        <ele>348.39999389648</ele>
        <time>2013-10-19T13:55:06Z</time>
      </trkpt>
      <trkpt lat="43.42516" lon="6.02006">
        <ele>348.39999389648</ele>
        <time>2013-10-19T13:55:13Z</time>
      </trkpt>
      <trkpt lat="43.42511" lon="6.02006">
        <ele>348.39999389648</ele>
        <time>2013-10-19T13:55:18Z</time>
      </trkpt>
      <trkpt lat="43.42505" lon="6.02006">
        <ele>348.39999389648</ele>
        <time>2013-10-19T13:55:24Z</time>
      </trkpt>
      <trkpt lat="43.425" lon="6.02005">
        <ele>348.39999389648</ele>
        <time>2013-10-19T13:55:29Z</time>
      </trkpt>
      <trkpt lat="43.42494" lon="6.02005">
        <ele>348.39999389648</ele>
        <time>2013-10-19T13:55:35Z</time>
      </trkpt>
      <trkpt lat="43.42492" lon="6.02005">
        <ele>348.39999389648</ele>
        <time>2013-10-19T13:55:37Z</time>
      </trkpt>
      <trkpt lat="43.42492" lon="6.02005">
        <ele>348.39999389648</ele>
        <time>2013-10-19T13:55:40Z</time>
      </trkpt>
      <trkpt lat="43.42492" lon="6.02005">
        <ele>348.39999389648</ele>
        <time>2013-10-19T13:55:56Z</time>
      </trkpt>
      <trkpt lat="43.42492" lon="6.02004">
        <ele>351.39999389648</ele>
        <time>2013-10-19T13:56:34Z</time>
      </trkpt>
      <trkpt lat="43.42492" lon="6.02004">
        <ele>351.39999389648</ele>
        <time>2013-10-19T13:56:57Z</time>
      </trkpt>
      <trkpt lat="43.42492" lon="6.02004">
        <ele>351.39999389648</ele>
        <time>2013-10-19T13:56:59Z</time>
      </trkpt>
      <trkpt lat="43.42492" lon="6.02004">
        <ele>349.39999389648</ele>
        <time>2013-10-19T13:57:15Z</time>
      </trkpt>
      <trkpt lat="43.42492" lon="6.02004">
        <ele>349.39999389648</ele>
        <time>2013-10-19T13:57:42Z</time>
      </trkpt>
      <trkpt lat="43.4249" lon="6.02005">
        <ele>349.39999389648</ele>
        <time>2013-10-19T13:57:48Z</time>
      </trkpt>
      <trkpt lat="43.4249" lon="6.02005">
        <ele>349.39999389648</ele>
        <time>2013-10-19T13:57:59Z</time>
      </trkpt>
      <trkpt lat="43.42489" lon="6.02005">
        <ele>349.39999389648</ele>
        <time>2013-10-19T13:58:00Z</time>
      </trkpt>
      <trkpt lat="43.42475" lon="6.02">
        <ele>349.39999389648</ele>
        <time>2013-10-19T13:58:07Z</time>
      </trkpt>
      <trkpt lat="43.42468" lon="6.01999">
        <ele>349.39999389648</ele>
        <time>2013-10-19T13:58:09Z</time>
      </trkpt>
      <trkpt lat="43.4246" lon="6.01998">
        <ele>348.79998779297</ele>
        <time>2013-10-19T13:58:12Z</time>
      </trkpt>
      <trkpt lat="43.42458" lon="6.01998">
        <ele>348.39999389648</ele>
        <time>2013-10-19T13:58:13Z</time>
      </trkpt>
      <trkpt lat="43.42454" lon="6.01998">
        <ele>348</ele>
        <time>2013-10-19T13:58:14Z</time>
      </trkpt>
      <trkpt lat="43.42444" lon="6.01996">
        <ele>346.20001220703</ele>
        <time>2013-10-19T13:58:17Z</time>
      </trkpt>
      <trkpt lat="43.42428" lon="6.01993">
        <ele>344</ele>
        <time>2013-10-19T13:58:21Z</time>
      </trkpt>
      <trkpt lat="43.42422" lon="6.0199">
        <ele>342.60000610352</ele>
        <time>2013-10-19T13:58:23Z</time>
      </trkpt>
      <trkpt lat="43.42419" lon="6.01986">
        <ele>341.79998779297</ele>
        <time>2013-10-19T13:58:24Z</time>
      </trkpt>
      <trkpt lat="43.42417" lon="6.01982">
        <ele>341</ele>
        <time>2013-10-19T13:58:25Z</time>
      </trkpt>
      <trkpt lat="43.42413" lon="6.01971">
        <ele>339.39999389648</ele>
        <time>2013-10-19T13:58:27Z</time>
      </trkpt>
      <trkpt lat="43.42411" lon="6.01959">
        <ele>338</ele>
        <time>2013-10-19T13:58:29Z</time>
      </trkpt>
      <trkpt lat="43.42412" lon="6.01948">
        <ele>336.39999389648</ele>
        <time>2013-10-19T13:58:31Z</time>
      </trkpt>
      <trkpt lat="43.42413" lon="6.01943">
        <ele>335.79998779297</ele>
        <time>2013-10-19T13:58:32Z</time>
      </trkpt>
      <trkpt lat="43.42417" lon="6.01926">
        <ele>335</ele>
        <time>2013-10-19T13:58:36Z</time>
      </trkpt>
      <trkpt lat="43.42422" lon="6.01903">
        <ele>335</ele>
        <time>2013-10-19T13:58:42Z</time>
      </trkpt>
      <trkpt lat="43.42427" lon="6.01877">
        <ele>335</ele>
        <time>2013-10-19T13:58:47Z</time>
      </trkpt>
      <trkpt lat="43.42428" lon="6.01872">
        <ele>335</ele>
        <time>2013-10-19T13:58:48Z</time>
      </trkpt>
      <trkpt lat="43.42435" lon="6.01829">
        <ele>335</ele>
        <time>2013-10-19T13:58:55Z</time>
      </trkpt>
      <trkpt lat="43.42439" lon="6.01806">
        <ele>334.39999389648</ele>
        <time>2013-10-19T13:58:58Z</time>
      </trkpt>
      <trkpt lat="43.42444" lon="6.01782">
        <ele>333.20001220703</ele>
        <time>2013-10-19T13:59:01Z</time>
      </trkpt>
      <trkpt lat="43.42447" lon="6.01768">
        <ele>332.60000610352</ele>
        <time>2013-10-19T13:59:03Z</time>
      </trkpt>
      <trkpt lat="43.42449" lon="6.01754">
        <ele>332.20001220703</ele>
        <time>2013-10-19T13:59:05Z</time>
      </trkpt>
      <trkpt lat="43.4245" lon="6.01746">
        <ele>331.79998779297</ele>
        <time>2013-10-19T13:59:06Z</time>
      </trkpt>
      <trkpt lat="43.42453" lon="6.01731">
        <ele>331</ele>
        <time>2013-10-19T13:59:08Z</time>
      </trkpt>
      <trkpt lat="43.42455" lon="6.01724">
        <ele>330.60000610352</ele>
        <time>2013-10-19T13:59:09Z</time>
      </trkpt>
      <trkpt lat="43.42464" lon="6.017">
        <ele>330.60000610352</ele>
        <time>2013-10-19T13:59:13Z</time>
      </trkpt>
      <trkpt lat="43.42469" lon="6.01688">
        <ele>330.60000610352</ele>
        <time>2013-10-19T13:59:15Z</time>
      </trkpt>
      <trkpt lat="43.42477" lon="6.01663">
        <ele>330.60000610352</ele>
        <time>2013-10-19T13:59:19Z</time>
      </trkpt>
      <trkpt lat="43.42486" lon="6.01649">
        <ele>330.60000610352</ele>
        <time>2013-10-19T13:59:22Z</time>
      </trkpt>
      <trkpt lat="43.42495" lon="6.01637">
        <ele>330.60000610352</ele>
        <time>2013-10-19T13:59:25Z</time>
      </trkpt>
      <trkpt lat="43.425" lon="6.01629">
        <ele>330.60000610352</ele>
        <time>2013-10-19T13:59:27Z</time>
      </trkpt>
      <trkpt lat="43.42506" lon="6.01612">
        <ele>330.60000610352</ele>
        <time>2013-10-19T13:59:30Z</time>
      </trkpt>
      <trkpt lat="43.42504" lon="6.0159">
        <ele>330.60000610352</ele>
        <time>2013-10-19T13:59:33Z</time>
      </trkpt>
      <trkpt lat="43.42501" lon="6.01571">
        <ele>330.60000610352</ele>
        <time>2013-10-19T13:59:36Z</time>
      </trkpt>
      <trkpt lat="43.42499" lon="6.01566">
        <ele>330.60000610352</ele>
        <time>2013-10-19T13:59:37Z</time>
      </trkpt>
      <trkpt lat="43.42496" lon="6.01553">
        <ele>330.60000610352</ele>
        <time>2013-10-19T13:59:39Z</time>
      </trkpt>
      <trkpt lat="43.4249" lon="6.01532">
        <ele>330.60000610352</ele>
        <time>2013-10-19T13:59:42Z</time>
      </trkpt>
      <trkpt lat="43.42487" lon="6.01516">
        <ele>330.60000610352</ele>
        <time>2013-10-19T13:59:44Z</time>
      </trkpt>
      <trkpt lat="43.42485" lon="6.01497">
        <ele>330.20001220703</ele>
        <time>2013-10-19T13:59:46Z</time>
      </trkpt>
      <trkpt lat="43.42486" lon="6.01479">
        <ele>329.39999389648</ele>
        <time>2013-10-19T13:59:48Z</time>
      </trkpt>
      <trkpt lat="43.42486" lon="6.0147">
        <ele>329</ele>
        <time>2013-10-19T13:59:49Z</time>
      </trkpt>
      <trkpt lat="43.42487" lon="6.01461">
        <ele>328.60000610352</ele>
        <time>2013-10-19T13:59:50Z</time>
      </trkpt>
      <trkpt lat="43.4249" lon="6.01425">
        <ele>328.20001220703</ele>
        <time>2013-10-19T13:59:54Z</time>
      </trkpt>
      <trkpt lat="43.42492" lon="6.01408">
        <ele>327.20001220703</ele>
        <time>2013-10-19T13:59:56Z</time>
      </trkpt>
      <trkpt lat="43.42493" lon="6.01399">
        <ele>326.79998779297</ele>
        <time>2013-10-19T13:59:57Z</time>
      </trkpt>
      <trkpt lat="43.42493" lon="6.01391">
        <ele>326.39999389648</ele>
        <time>2013-10-19T13:59:58Z</time>
      </trkpt>
      <trkpt lat="43.42493" lon="6.01376">
        <ele>326</ele>
        <time>2013-10-19T14:00:00Z</time>
      </trkpt>
      <trkpt lat="43.42492" lon="6.01367">
        <ele>325.39999389648</ele>
        <time>2013-10-19T14:00:01Z</time>
      </trkpt>
      <trkpt lat="43.42492" lon="6.0135">
        <ele>324.60000610352</ele>
        <time>2013-10-19T14:00:03Z</time>
      </trkpt>
      <trkpt lat="43.42492" lon="6.01341">
        <ele>324</ele>
        <time>2013-10-19T14:00:04Z</time>
      </trkpt>
      <trkpt lat="43.4249" lon="6.01333">
        <ele>323.39999389648</ele>
        <time>2013-10-19T14:00:05Z</time>
      </trkpt>
      <trkpt lat="43.42487" lon="6.01319">
        <ele>321.60000610352</ele>
        <time>2013-10-19T14:00:07Z</time>
      </trkpt>
      <trkpt lat="43.42485" lon="6.01313">
        <ele>320.79998779297</ele>
        <time>2013-10-19T14:00:08Z</time>
      </trkpt>
      <trkpt lat="43.42483" lon="6.01301">
        <ele>319.39999389648</ele>
        <time>2013-10-19T14:00:10Z</time>
      </trkpt>
      <trkpt lat="43.42481" lon="6.01289">
        <ele>317.79998779297</ele>
        <time>2013-10-19T14:00:12Z</time>
      </trkpt>
      <trkpt lat="43.4248" lon="6.01284">
        <ele>317</ele>
        <time>2013-10-19T14:00:13Z</time>
      </trkpt>
      <trkpt lat="43.42478" lon="6.01274">
        <ele>315.60000610352</ele>
        <time>2013-10-19T14:00:15Z</time>
      </trkpt>
      <trkpt lat="43.42477" lon="6.01265">
        <ele>314.20001220703</ele>
        <time>2013-10-19T14:00:17Z</time>
      </trkpt>
      <trkpt lat="43.42477" lon="6.01261">
        <ele>312.79998779297</ele>
        <time>2013-10-19T14:00:18Z</time>
      </trkpt>
      <trkpt lat="43.42477" lon="6.01256">
        <ele>312.20001220703</ele>
        <time>2013-10-19T14:00:19Z</time>
      </trkpt>
      <trkpt lat="43.42487" lon="6.01245">
        <ele>310.60000610352</ele>
        <time>2013-10-19T14:00:22Z</time>
      </trkpt>
      <trkpt lat="43.4249" lon="6.01239">
        <ele>310</ele>
        <time>2013-10-19T14:00:23Z</time>
      </trkpt>
      <trkpt lat="43.42491" lon="6.01235">
        <ele>310</ele>
        <time>2013-10-19T14:00:24Z</time>
      </trkpt>
      <trkpt lat="43.42492" lon="6.01231">
        <ele>310</ele>
        <time>2013-10-19T14:00:25Z</time>
      </trkpt>
      <trkpt lat="43.42495" lon="6.01225">
        <ele>310</ele>
        <time>2013-10-19T14:00:27Z</time>
      </trkpt>
      <trkpt lat="43.42498" lon="6.01223">
        <ele>310</ele>
        <time>2013-10-19T14:00:29Z</time>
      </trkpt>
      <trkpt lat="43.42498" lon="6.01223">
        <ele>310</ele>
        <time>2013-10-19T14:00:31Z</time>
      </trkpt>
      <trkpt lat="43.42498" lon="6.01223">
        <ele>310</ele>
        <time>2013-10-19T14:00:34Z</time>
      </trkpt>
      <trkpt lat="43.42498" lon="6.01223">
        <ele>310</ele>
        <time>2013-10-19T14:00:37Z</time>
      </trkpt>
      <trkpt lat="43.42498" lon="6.01223">
        <ele>310</ele>
        <time>2013-10-19T14:00:43Z</time>
      </trkpt>
      <trkpt lat="43.42498" lon="6.01223">
        <ele>310</ele>
        <time>2013-10-19T14:00:48Z</time>
      </trkpt>
      <trkpt lat="43.42501" lon="6.01221">
        <ele>310.39999389648</ele>
        <time>2013-10-19T14:00:55Z</time>
      </trkpt>
      <trkpt lat="43.42502" lon="6.01221">
        <ele>310.79998779297</ele>
        <time>2013-10-19T14:00:56Z</time>
      </trkpt>
      <trkpt lat="43.42503" lon="6.0122">
        <ele>311.60000610352</ele>
        <time>2013-10-19T14:00:58Z</time>
      </trkpt>
      <trkpt lat="43.42505" lon="6.01219">
        <ele>312</ele>
        <time>2013-10-19T14:01:00Z</time>
      </trkpt>
      <trkpt lat="43.42505" lon="6.01219">
        <ele>312</ele>
        <time>2013-10-19T14:01:06Z</time>
      </trkpt>
      <trkpt lat="43.42507" lon="6.01217">
        <ele>312</ele>
        <time>2013-10-19T14:01:12Z</time>
      </trkpt>
      <trkpt lat="43.42507" lon="6.01217">
        <ele>312</ele>
        <time>2013-10-19T14:01:20Z</time>
      </trkpt>
      <trkpt lat="43.4251" lon="6.01215">
        <ele>312.39999389648</ele>
        <time>2013-10-19T14:01:26Z</time>
      </trkpt>
      <trkpt lat="43.42512" lon="6.01213">
        <ele>313.20001220703</ele>
        <time>2013-10-19T14:01:28Z</time>
      </trkpt>
      <trkpt lat="43.42512" lon="6.01213">
        <ele>313.60000610352</ele>
        <time>2013-10-19T14:01:29Z</time>
      </trkpt>
      <trkpt lat="43.42511" lon="6.01213">
        <ele>314</ele>
        <time>2013-10-19T14:01:31Z</time>
      </trkpt>
      <trkpt lat="43.4251" lon="6.01213">
        <ele>314</ele>
        <time>2013-10-19T14:01:35Z</time>
      </trkpt>
      <trkpt lat="43.42509" lon="6.01214">
        <ele>314</ele>
        <time>2013-10-19T14:01:41Z</time>
      </trkpt>
      <trkpt lat="43.42509" lon="6.01214">
        <ele>314</ele>
        <time>2013-10-19T14:01:46Z</time>
      </trkpt>
      <trkpt lat="43.42509" lon="6.01214">
        <ele>314</ele>
        <time>2013-10-19T14:01:56Z</time>
      </trkpt>
      <trkpt lat="43.42508" lon="6.01214">
        <ele>314</ele>
        <time>2013-10-19T14:02:03Z</time>
      </trkpt>
      <trkpt lat="43.42509" lon="6.01214">
        <ele>314</ele>
        <time>2013-10-19T14:02:10Z</time>
      </trkpt>
      <trkpt lat="43.42511" lon="6.01213">
        <ele>314</ele>
        <time>2013-10-19T14:02:11Z</time>
      </trkpt>
      <trkpt lat="43.42516" lon="6.01211">
        <ele>314</ele>
        <time>2013-10-19T14:02:15Z</time>
      </trkpt>
      <trkpt lat="43.42519" lon="6.01209">
        <ele>314.39999389648</ele>
        <time>2013-10-19T14:02:17Z</time>
      </trkpt>
      <trkpt lat="43.42521" lon="6.01208">
        <ele>314.79998779297</ele>
        <time>2013-10-19T14:02:18Z</time>
      </trkpt>
      <trkpt lat="43.42522" lon="6.01207">
        <ele>315.39999389648</ele>
        <time>2013-10-19T14:02:19Z</time>
      </trkpt>
      <trkpt lat="43.42523" lon="6.01206">
        <ele>315.79998779297</ele>
        <time>2013-10-19T14:02:20Z</time>
      </trkpt>
      <trkpt lat="43.42524" lon="6.01205">
        <ele>316.20001220703</ele>
        <time>2013-10-19T14:02:21Z</time>
      </trkpt>
      <trkpt lat="43.42525" lon="6.01204">
        <ele>316.20001220703</ele>
        <time>2013-10-19T14:02:23Z</time>
      </trkpt>
      <trkpt lat="43.42525" lon="6.01204">
        <ele>316.20001220703</ele>
        <time>2013-10-19T14:02:31Z</time>
      </trkpt>
      <trkpt lat="43.42525" lon="6.01204">
        <ele>316.20001220703</ele>
        <time>2013-10-19T14:02:39Z</time>
      </trkpt>
      <trkpt lat="43.42526" lon="6.01203">
        <ele>316.60000610352</ele>
        <time>2013-10-19T14:02:43Z</time>
      </trkpt>
      <trkpt lat="43.42529" lon="6.01201">
        <ele>318.20001220703</ele>
        <time>2013-10-19T14:02:46Z</time>
      </trkpt>
      <trkpt lat="43.42531" lon="6.01199">
        <ele>318.20001220703</ele>
        <time>2013-10-19T14:02:50Z</time>
      </trkpt>
      <trkpt lat="43.42532" lon="6.01198">
        <ele>318.20001220703</ele>
        <time>2013-10-19T14:02:55Z</time>
      </trkpt>
      <trkpt lat="43.42533" lon="6.01195">
        <ele>318.20001220703</ele>
        <time>2013-10-19T14:03:01Z</time>
      </trkpt>
      <trkpt lat="43.42533" lon="6.01194">
        <ele>318.20001220703</ele>
        <time>2013-10-19T14:03:06Z</time>
      </trkpt>
      <trkpt lat="43.42535" lon="6.0119">
        <ele>318.20001220703</ele>
        <time>2013-10-19T14:03:10Z</time>
      </trkpt>
      <trkpt lat="43.42535" lon="6.01187">
        <ele>318.20001220703</ele>
        <time>2013-10-19T14:03:11Z</time>
      </trkpt>
      <trkpt lat="43.42537" lon="6.01178">
        <ele>319</ele>
        <time>2013-10-19T14:03:15Z</time>
      </trkpt>
      <trkpt lat="43.42538" lon="6.01175">
        <ele>319.39999389648</ele>
        <time>2013-10-19T14:03:16Z</time>
      </trkpt>
      <trkpt lat="43.42538" lon="6.0117">
        <ele>320.39999389648</ele>
        <time>2013-10-19T14:03:18Z</time>
      </trkpt>
      <trkpt lat="43.42538" lon="6.01155">
        <ele>320.39999389648</ele>
        <time>2013-10-19T14:03:24Z</time>
      </trkpt>
      <trkpt lat="43.42538" lon="6.01147">
        <ele>320.79998779297</ele>
        <time>2013-10-19T14:03:27Z</time>
      </trkpt>
      <trkpt lat="43.42538" lon="6.01145">
        <ele>321.20001220703</ele>
        <time>2013-10-19T14:03:28Z</time>
      </trkpt>
      <trkpt lat="43.42538" lon="6.01142">
        <ele>321.60000610352</ele>
        <time>2013-10-19T14:03:29Z</time>
      </trkpt>
      <trkpt lat="43.4254" lon="6.01138">
        <ele>322.60000610352</ele>
        <time>2013-10-19T14:03:31Z</time>
      </trkpt>
      <trkpt lat="43.42549" lon="6.01135">
        <ele>323.79998779297</ele>
        <time>2013-10-19T14:03:38Z</time>
      </trkpt>
      <trkpt lat="43.4255" lon="6.01135">
        <ele>324.20001220703</ele>
        <time>2013-10-19T14:03:39Z</time>
      </trkpt>
      <trkpt lat="43.42562" lon="6.01136">
        <ele>325</ele>
        <time>2013-10-19T14:03:47Z</time>
      </trkpt>
      <trkpt lat="43.42573" lon="6.01136">
        <ele>326.79998779297</ele>
        <time>2013-10-19T14:03:56Z</time>
      </trkpt>
      <trkpt lat="43.4258" lon="6.01134">
        <ele>326.79998779297</ele>
        <time>2013-10-19T14:04:02Z</time>
      </trkpt>
      <trkpt lat="43.42582" lon="6.01134">
        <ele>327.20001220703</ele>
        <time>2013-10-19T14:04:04Z</time>
      </trkpt>
      <trkpt lat="43.42585" lon="6.01131">
        <ele>328.39999389648</ele>
        <time>2013-10-19T14:04:07Z</time>
      </trkpt>
      <trkpt lat="43.42585" lon="6.0113">
        <ele>328.79998779297</ele>
        <time>2013-10-19T14:04:08Z</time>
      </trkpt>
      <trkpt lat="43.42585" lon="6.01129">
        <ele>328.79998779297</ele>
        <time>2013-10-19T14:04:09Z</time>
      </trkpt>
      <trkpt lat="43.42585" lon="6.01124">
        <ele>328.79998779297</ele>
        <time>2013-10-19T14:04:15Z</time>
      </trkpt>
      <trkpt lat="43.42585" lon="6.01122">
        <ele>328.79998779297</ele>
        <time>2013-10-19T14:04:19Z</time>
      </trkpt>
      <trkpt lat="43.42584" lon="6.01122">
        <ele>328.79998779297</ele>
        <time>2013-10-19T14:04:21Z</time>
      </trkpt>
      <trkpt lat="43.42584" lon="6.01122">
        <ele>328.79998779297</ele>
        <time>2013-10-19T14:04:36Z</time>
      </trkpt>
      <trkpt lat="43.42585" lon="6.01122">
        <ele>328.79998779297</ele>
        <time>2013-10-19T14:05:58Z</time>
      </trkpt>
      <trkpt lat="43.42585" lon="6.01122">
        <ele>328.79998779297</ele>
        <time>2013-10-19T14:06:18Z</time>
      </trkpt>
      <trkpt lat="43.42585" lon="6.01119">
        <ele>328.79998779297</ele>
        <time>2013-10-19T14:06:21Z</time>
      </trkpt>
      <trkpt lat="43.42584" lon="6.01116">
        <ele>328.79998779297</ele>
        <time>2013-10-19T14:06:23Z</time>
      </trkpt>
      <trkpt lat="43.42582" lon="6.01101">
        <ele>328.79998779297</ele>
        <time>2013-10-19T14:06:29Z</time>
      </trkpt>
      <trkpt lat="43.42582" lon="6.01088">
        <ele>328.79998779297</ele>
        <time>2013-10-19T14:06:35Z</time>
      </trkpt>
      <trkpt lat="43.42583" lon="6.01086">
        <ele>328.79998779297</ele>
        <time>2013-10-19T14:06:40Z</time>
      </trkpt>
      <trkpt lat="43.42583" lon="6.01085">
        <ele>328.79998779297</ele>
        <time>2013-10-19T14:06:43Z</time>
      </trkpt>
      <trkpt lat="43.42583" lon="6.01084">
        <ele>329.20001220703</ele>
        <time>2013-10-19T14:06:45Z</time>
      </trkpt>
      <trkpt lat="43.42583" lon="6.01084">
        <ele>330.79998779297</ele>
        <time>2013-10-19T14:07:02Z</time>
      </trkpt>
      <trkpt lat="43.42583" lon="6.01084">
        <ele>330.79998779297</ele>
        <time>2013-10-19T14:07:30Z</time>
      </trkpt>
      <trkpt lat="43.42583" lon="6.01084">
        <ele>330.79998779297</ele>
        <time>2013-10-19T14:07:39Z</time>
      </trkpt>
      <trkpt lat="43.42585" lon="6.01084">
        <ele>330.79998779297</ele>
        <time>2013-10-19T14:07:51Z</time>
      </trkpt>
      <trkpt lat="43.42591" lon="6.01082">
        <ele>330.79998779297</ele>
        <time>2013-10-19T14:07:56Z</time>
      </trkpt>
      <trkpt lat="43.42593" lon="6.01081">
        <ele>330.79998779297</ele>
        <time>2013-10-19T14:07:59Z</time>
      </trkpt>
      <trkpt lat="43.42594" lon="6.0108">
        <ele>330.79998779297</ele>
        <time>2013-10-19T14:08:02Z</time>
      </trkpt>
      <trkpt lat="43.42598" lon="6.01078">
        <ele>330.79998779297</ele>
        <time>2013-10-19T14:08:05Z</time>
      </trkpt>
      <trkpt lat="43.426" lon="6.01074">
        <ele>330.79998779297</ele>
        <time>2013-10-19T14:08:07Z</time>
      </trkpt>
      <trkpt lat="43.426" lon="6.01062">
        <ele>330.79998779297</ele>
        <time>2013-10-19T14:08:13Z</time>
      </trkpt>
      <trkpt lat="43.42598" lon="6.01046">
        <ele>330.79998779297</ele>
        <time>2013-10-19T14:08:20Z</time>
      </trkpt>
      <trkpt lat="43.42598" lon="6.01036">
        <ele>330.79998779297</ele>
        <time>2013-10-19T14:08:24Z</time>
      </trkpt>
      <trkpt lat="43.42598" lon="6.01031">
        <ele>330.79998779297</ele>
        <time>2013-10-19T14:08:26Z</time>
      </trkpt>
      <trkpt lat="43.42599" lon="6.01024">
        <ele>331.20001220703</ele>
        <time>2013-10-19T14:08:29Z</time>
      </trkpt>
      <trkpt lat="43.42599" lon="6.01004">
        <ele>332.79998779297</ele>
        <time>2013-10-19T14:08:38Z</time>
      </trkpt>
      <trkpt lat="43.42601" lon="6.00986">
        <ele>332.79998779297</ele>
        <time>2013-10-19T14:08:46Z</time>
      </trkpt>
      <trkpt lat="43.42603" lon="6.00971">
        <ele>334.79998779297</ele>
        <time>2013-10-19T14:08:52Z</time>
      </trkpt>
      <trkpt lat="43.42611" lon="6.00934">
        <ele>334.79998779297</ele>
        <time>2013-10-19T14:09:06Z</time>
      </trkpt>
      <trkpt lat="43.42615" lon="6.00914">
        <ele>334.79998779297</ele>
        <time>2013-10-19T14:09:13Z</time>
      </trkpt>
      <trkpt lat="43.42616" lon="6.00896">
        <ele>334.79998779297</ele>
        <time>2013-10-19T14:09:19Z</time>
      </trkpt>
      <trkpt lat="43.4262" lon="6.00859">
        <ele>334.79998779297</ele>
        <time>2013-10-19T14:09:30Z</time>
      </trkpt>
      <trkpt lat="43.42624" lon="6.0085">
        <ele>334.79998779297</ele>
        <time>2013-10-19T14:09:33Z</time>
      </trkpt>
      <trkpt lat="43.42628" lon="6.00845">
        <ele>334.79998779297</ele>
        <time>2013-10-19T14:09:35Z</time>
      </trkpt>
      <trkpt lat="43.42635" lon="6.00836">
        <ele>334.79998779297</ele>
        <time>2013-10-19T14:09:39Z</time>
      </trkpt>
      <trkpt lat="43.42639" lon="6.00831">
        <ele>334.79998779297</ele>
        <time>2013-10-19T14:09:41Z</time>
      </trkpt>
      <trkpt lat="43.42642" lon="6.00816">
        <ele>334.79998779297</ele>
        <time>2013-10-19T14:09:46Z</time>
      </trkpt>
      <trkpt lat="43.42644" lon="6.0081">
        <ele>334.79998779297</ele>
        <time>2013-10-19T14:09:48Z</time>
      </trkpt>
      <trkpt lat="43.42647" lon="6.00807">
        <ele>334.79998779297</ele>
        <time>2013-10-19T14:09:50Z</time>
      </trkpt>
      <trkpt lat="43.42655" lon="6.00812">
        <ele>334.79998779297</ele>
        <time>2013-10-19T14:09:54Z</time>
      </trkpt>
      <trkpt lat="43.42664" lon="6.00816">
        <ele>334.79998779297</ele>
        <time>2013-10-19T14:09:58Z</time>
      </trkpt>
      <trkpt lat="43.42677" lon="6.00798">
        <ele>334.79998779297</ele>
        <time>2013-10-19T14:10:05Z</time>
      </trkpt>
      <trkpt lat="43.42688" lon="6.00788">
        <ele>334.79998779297</ele>
        <time>2013-10-19T14:10:10Z</time>
      </trkpt>
      <trkpt lat="43.42699" lon="6.00776">
        <ele>334.79998779297</ele>
        <time>2013-10-19T14:10:15Z</time>
      </trkpt>
      <trkpt lat="43.42711" lon="6.00756">
        <ele>334.79998779297</ele>
        <time>2013-10-19T14:10:21Z</time>
      </trkpt>
      <trkpt lat="43.42713" lon="6.00755">
        <ele>334.79998779297</ele>
        <time>2013-10-19T14:10:22Z</time>
      </trkpt>
      <trkpt lat="43.42722" lon="6.00755">
        <ele>334.79998779297</ele>
        <time>2013-10-19T14:10:26Z</time>
      </trkpt>
      <trkpt lat="43.42746" lon="6.00752">
        <ele>334.39999389648</ele>
        <time>2013-10-19T14:10:33Z</time>
      </trkpt>
      <trkpt lat="43.42749" lon="6.00753">
        <ele>334</ele>
        <time>2013-10-19T14:10:34Z</time>
      </trkpt>
      <trkpt lat="43.42756" lon="6.00759">
        <ele>332.79998779297</ele>
        <time>2013-10-19T14:10:36Z</time>
      </trkpt>
      <trkpt lat="43.42774" lon="6.00772">
        <ele>332</ele>
        <time>2013-10-19T14:10:41Z</time>
      </trkpt>
      <trkpt lat="43.42778" lon="6.00774">
        <ele>331.39999389648</ele>
        <time>2013-10-19T14:10:42Z</time>
      </trkpt>
      <trkpt lat="43.42783" lon="6.00776">
        <ele>330.79998779297</ele>
        <time>2013-10-19T14:10:43Z</time>
      </trkpt>
      <trkpt lat="43.42787" lon="6.00777">
        <ele>330</ele>
        <time>2013-10-19T14:10:44Z</time>
      </trkpt>
      <trkpt lat="43.42792" lon="6.00778">
        <ele>329.39999389648</ele>
        <time>2013-10-19T14:10:45Z</time>
      </trkpt>
      <trkpt lat="43.42797" lon="6.00779">
        <ele>328.79998779297</ele>
        <time>2013-10-19T14:10:46Z</time>
      </trkpt>
      <trkpt lat="43.42803" lon="6.0078">
        <ele>328</ele>
        <time>2013-10-19T14:10:47Z</time>
      </trkpt>
      <trkpt lat="43.42808" lon="6.00781">
        <ele>327.39999389648</ele>
        <time>2013-10-19T14:10:48Z</time>
      </trkpt>
      <trkpt lat="43.42813" lon="6.00782">
        <ele>326.60000610352</ele>
        <time>2013-10-19T14:10:49Z</time>
      </trkpt>
      <trkpt lat="43.42818" lon="6.00783">
        <ele>325.79998779297</ele>
        <time>2013-10-19T14:10:50Z</time>
      </trkpt>
      <trkpt lat="43.42823" lon="6.00782">
        <ele>325</ele>
        <time>2013-10-19T14:10:51Z</time>
      </trkpt>
      <trkpt lat="43.42833" lon="6.00777">
        <ele>323.39999389648</ele>
        <time>2013-10-19T14:10:53Z</time>
      </trkpt>
      <trkpt lat="43.42836" lon="6.00772">
        <ele>323.39999389648</ele>
        <time>2013-10-19T14:10:54Z</time>
      </trkpt>
      <trkpt lat="43.4284" lon="6.00764">
        <ele>323</ele>
        <time>2013-10-19T14:10:56Z</time>
      </trkpt>
      <trkpt lat="43.42841" lon="6.00761">
        <ele>322.39999389648</ele>
        <time>2013-10-19T14:10:57Z</time>
      </trkpt>
      <trkpt lat="43.42843" lon="6.00752">
        <ele>321.20001220703</ele>
        <time>2013-10-19T14:11:00Z</time>
      </trkpt>
      <trkpt lat="43.42844" lon="6.00746">
        <ele>321.20001220703</ele>
        <time>2013-10-19T14:11:02Z</time>
      </trkpt>
      <trkpt lat="43.42848" lon="6.00737">
        <ele>321.20001220703</ele>
        <time>2013-10-19T14:11:06Z</time>
      </trkpt>
      <trkpt lat="43.42849" lon="6.00732">
        <ele>321.20001220703</ele>
        <time>2013-10-19T14:11:08Z</time>
      </trkpt>
      <trkpt lat="43.42854" lon="6.00718">
        <ele>322</ele>
        <time>2013-10-19T14:11:14Z</time>
      </trkpt>
      <trkpt lat="43.42859" lon="6.00696">
        <ele>323.20001220703</ele>
        <time>2013-10-19T14:11:25Z</time>
      </trkpt>
      <trkpt lat="43.4286" lon="6.00691">
        <ele>323.60000610352</ele>
        <time>2013-10-19T14:11:28Z</time>
      </trkpt>
      <trkpt lat="43.42863" lon="6.00679">
        <ele>325.39999389648</ele>
        <time>2013-10-19T14:11:35Z</time>
      </trkpt>
      <trkpt lat="43.42865" lon="6.00674">
        <ele>325.39999389648</ele>
        <time>2013-10-19T14:11:39Z</time>
      </trkpt>
      <trkpt lat="43.42867" lon="6.00669">
        <ele>325.79998779297</ele>
        <time>2013-10-19T14:11:42Z</time>
      </trkpt>
      <trkpt lat="43.42868" lon="6.00665">
        <ele>327</ele>
        <time>2013-10-19T14:11:45Z</time>
      </trkpt>
      <trkpt lat="43.42867" lon="6.00664">
        <ele>327.39999389648</ele>
        <time>2013-10-19T14:11:46Z</time>
      </trkpt>
      <trkpt lat="43.42867" lon="6.00664">
        <ele>327.39999389648</ele>
        <time>2013-10-19T14:11:49Z</time>
      </trkpt>
      <trkpt lat="43.42867" lon="6.00663">
        <ele>327.39999389648</ele>
        <time>2013-10-19T14:11:56Z</time>
      </trkpt>
      <trkpt lat="43.42865" lon="6.00653">
        <ele>327.79998779297</ele>
        <time>2013-10-19T14:12:05Z</time>
      </trkpt>
      <trkpt lat="43.42865" lon="6.00651">
        <ele>328.20001220703</ele>
        <time>2013-10-19T14:12:06Z</time>
      </trkpt>
      <trkpt lat="43.42865" lon="6.00651">
        <ele>328.60000610352</ele>
        <time>2013-10-19T14:12:07Z</time>
      </trkpt>
      <trkpt lat="43.42865" lon="6.00651">
        <ele>329</ele>
        <time>2013-10-19T14:12:08Z</time>
      </trkpt>
      <trkpt lat="43.42865" lon="6.0065">
        <ele>329.39999389648</ele>
        <time>2013-10-19T14:12:09Z</time>
      </trkpt>
      <trkpt lat="43.42868" lon="6.00642">
        <ele>329.39999389648</ele>
        <time>2013-10-19T14:12:16Z</time>
      </trkpt>
      <trkpt lat="43.4287" lon="6.00636">
        <ele>331.20001220703</ele>
        <time>2013-10-19T14:12:25Z</time>
      </trkpt>
      <trkpt lat="43.4287" lon="6.0063">
        <ele>331.60000610352</ele>
        <time>2013-10-19T14:12:31Z</time>
      </trkpt>
      <trkpt lat="43.42869" lon="6.00627">
        <ele>331.60000610352</ele>
        <time>2013-10-19T14:12:34Z</time>
      </trkpt>
      <trkpt lat="43.42869" lon="6.00623">
        <ele>331.60000610352</ele>
        <time>2013-10-19T14:12:42Z</time>
      </trkpt>
      <trkpt lat="43.42869" lon="6.00623">
        <ele>332.79998779297</ele>
        <time>2013-10-19T14:12:51Z</time>
      </trkpt>
      <trkpt lat="43.42869" lon="6.00623">
        <ele>333.20001220703</ele>
        <time>2013-10-19T14:12:52Z</time>
      </trkpt>
      <trkpt lat="43.42869" lon="6.00622">
        <ele>333.79998779297</ele>
        <time>2013-10-19T14:12:53Z</time>
      </trkpt>
      <trkpt lat="43.42868" lon="6.00622">
        <ele>333.79998779297</ele>
        <time>2013-10-19T14:12:56Z</time>
      </trkpt>
      <trkpt lat="43.42869" lon="6.00622">
        <ele>333.79998779297</ele>
        <time>2013-10-19T14:13:00Z</time>
      </trkpt>
      <trkpt lat="43.42869" lon="6.00617">
        <ele>333.79998779297</ele>
        <time>2013-10-19T14:13:03Z</time>
      </trkpt>
      <trkpt lat="43.42869" lon="6.00614">
        <ele>333.79998779297</ele>
        <time>2013-10-19T14:13:06Z</time>
      </trkpt>
      <trkpt lat="43.42869" lon="6.00613">
        <ele>333.79998779297</ele>
        <time>2013-10-19T14:13:09Z</time>
      </trkpt>
      <trkpt lat="43.42871" lon="6.00605">
        <ele>335.79998779297</ele>
        <time>2013-10-19T14:13:16Z</time>
      </trkpt>
      <trkpt lat="43.42873" lon="6.006">
        <ele>335.79998779297</ele>
        <time>2013-10-19T14:13:23Z</time>
      </trkpt>
      <trkpt lat="43.42875" lon="6.00597">
        <ele>336.20001220703</ele>
        <time>2013-10-19T14:13:29Z</time>
      </trkpt>
      <trkpt lat="43.42875" lon="6.00596">
        <ele>336.60000610352</ele>
        <time>2013-10-19T14:13:30Z</time>
      </trkpt>
      <trkpt lat="43.42875" lon="6.00596">
        <ele>337</ele>
        <time>2013-10-19T14:13:31Z</time>
      </trkpt>
      <trkpt lat="43.42875" lon="6.00596">
        <ele>337.79998779297</ele>
        <time>2013-10-19T14:13:43Z</time>
      </trkpt>
      <trkpt lat="43.42875" lon="6.00596">
        <ele>337.79998779297</ele>
        <time>2013-10-19T14:13:47Z</time>
      </trkpt>
      <trkpt lat="43.42876" lon="6.00593">
        <ele>337.79998779297</ele>
        <time>2013-10-19T14:13:52Z</time>
      </trkpt>
      <trkpt lat="43.42876" lon="6.00585">
        <ele>337.79998779297</ele>
        <time>2013-10-19T14:13:56Z</time>
      </trkpt>
      <trkpt lat="43.42877" lon="6.00582">
        <ele>338.20001220703</ele>
        <time>2013-10-19T14:13:59Z</time>
      </trkpt>
      <trkpt lat="43.42877" lon="6.0058">
        <ele>338.60000610352</ele>
        <time>2013-10-19T14:14:00Z</time>
      </trkpt>
      <trkpt lat="43.42876" lon="6.00576">
        <ele>339.39999389648</ele>
        <time>2013-10-19T14:14:02Z</time>
      </trkpt>
      <trkpt lat="43.42877" lon="6.00574">
        <ele>339.79998779297</ele>
        <time>2013-10-19T14:14:03Z</time>
      </trkpt>
      <trkpt lat="43.42878" lon="6.00569">
        <ele>339.79998779297</ele>
        <time>2013-10-19T14:14:05Z</time>
      </trkpt>
      <trkpt lat="43.42878" lon="6.00565">
        <ele>339.79998779297</ele>
        <time>2013-10-19T14:14:07Z</time>
      </trkpt>
      <trkpt lat="43.42879" lon="6.00562">
        <ele>340.20001220703</ele>
        <time>2013-10-19T14:14:08Z</time>
      </trkpt>
      <trkpt lat="43.42879" lon="6.00559">
        <ele>340.79998779297</ele>
        <time>2013-10-19T14:14:09Z</time>
      </trkpt>
      <trkpt lat="43.42879" lon="6.00557">
        <ele>341.20001220703</ele>
        <time>2013-10-19T14:14:10Z</time>
      </trkpt>
      <trkpt lat="43.4288" lon="6.00552">
        <ele>342</ele>
        <time>2013-10-19T14:14:13Z</time>
      </trkpt>
      <trkpt lat="43.42879" lon="6.00548">
        <ele>342</ele>
        <time>2013-10-19T14:14:16Z</time>
      </trkpt>
      <trkpt lat="43.42879" lon="6.00547">
        <ele>342</ele>
        <time>2013-10-19T14:14:20Z</time>
      </trkpt>
      <trkpt lat="43.42879" lon="6.00547">
        <ele>342</ele>
        <time>2013-10-19T14:14:21Z</time>
      </trkpt>
      <trkpt lat="43.42879" lon="6.00547">
        <ele>342</ele>
        <time>2013-10-19T14:14:26Z</time>
      </trkpt>
      <trkpt lat="43.42879" lon="6.00548">
        <ele>342</ele>
        <time>2013-10-19T14:14:27Z</time>
      </trkpt>
      <trkpt lat="43.42879" lon="6.00548">
        <ele>342</ele>
        <time>2013-10-19T14:14:52Z</time>
      </trkpt>
      <trkpt lat="43.42879" lon="6.00547">
        <ele>342</ele>
        <time>2013-10-19T14:15:38Z</time>
      </trkpt>
      <trkpt lat="43.42879" lon="6.00547">
        <ele>342</ele>
        <time>2013-10-19T14:15:58Z</time>
      </trkpt>
      <trkpt lat="43.42879" lon="6.00547">
        <ele>342</ele>
        <time>2013-10-19T14:16:15Z</time>
      </trkpt>
      <trkpt lat="43.42879" lon="6.00547">
        <ele>342</ele>
        <time>2013-10-19T14:16:19Z</time>
      </trkpt>
      <trkpt lat="43.42878" lon="6.00544">
        <ele>342</ele>
        <time>2013-10-19T14:16:21Z</time>
      </trkpt>
      <trkpt lat="43.42878" lon="6.00539">
        <ele>342</ele>
        <time>2013-10-19T14:16:24Z</time>
      </trkpt>
      <trkpt lat="43.42878" lon="6.00535">
        <ele>342</ele>
        <time>2013-10-19T14:16:26Z</time>
      </trkpt>
      <trkpt lat="43.42878" lon="6.00524">
        <ele>342</ele>
        <time>2013-10-19T14:16:30Z</time>
      </trkpt>
      <trkpt lat="43.42878" lon="6.00518">
        <ele>343.39999389648</ele>
        <time>2013-10-19T14:16:33Z</time>
      </trkpt>
      <trkpt lat="43.42877" lon="6.00515">
        <ele>344.20001220703</ele>
        <time>2013-10-19T14:16:35Z</time>
      </trkpt>
      <trkpt lat="43.42878" lon="6.0051">
        <ele>345.20001220703</ele>
        <time>2013-10-19T14:16:38Z</time>
      </trkpt>
      <trkpt lat="43.42878" lon="6.00508">
        <ele>345.60000610352</ele>
        <time>2013-10-19T14:16:39Z</time>
      </trkpt>
      <trkpt lat="43.4288" lon="6.00504">
        <ele>346.60000610352</ele>
        <time>2013-10-19T14:16:41Z</time>
      </trkpt>
      <trkpt lat="43.42882" lon="6.00499">
        <ele>346.60000610352</ele>
        <time>2013-10-19T14:16:44Z</time>
      </trkpt>
      <trkpt lat="43.42886" lon="6.00494">
        <ele>347</ele>
        <time>2013-10-19T14:16:48Z</time>
      </trkpt>
      <trkpt lat="43.42889" lon="6.0049">
        <ele>348.39999389648</ele>
        <time>2013-10-19T14:16:51Z</time>
      </trkpt>
      <trkpt lat="43.42892" lon="6.00485">
        <ele>348.79998779297</ele>
        <time>2013-10-19T14:16:54Z</time>
      </trkpt>
      <trkpt lat="43.42898" lon="6.00474">
        <ele>348.79998779297</ele>
        <time>2013-10-19T14:16:59Z</time>
      </trkpt>
      <trkpt lat="43.42902" lon="6.0046">
        <ele>348.79998779297</ele>
        <time>2013-10-19T14:17:06Z</time>
      </trkpt>
      <trkpt lat="43.42907" lon="6.00447">
        <ele>348.79998779297</ele>
        <time>2013-10-19T14:17:14Z</time>
      </trkpt>
      <trkpt lat="43.42913" lon="6.00432">
        <ele>348.79998779297</ele>
        <time>2013-10-19T14:17:19Z</time>
      </trkpt>
      <trkpt lat="43.42912" lon="6.0043">
        <ele>348.79998779297</ele>
        <time>2013-10-19T14:17:21Z</time>
      </trkpt>
      <trkpt lat="43.42912" lon="6.0043">
        <ele>348.79998779297</ele>
        <time>2013-10-19T14:17:26Z</time>
      </trkpt>
      <trkpt lat="43.42912" lon="6.0043">
        <ele>348.79998779297</ele>
        <time>2013-10-19T14:17:42Z</time>
      </trkpt>
      <trkpt lat="43.42912" lon="6.0043">
        <ele>348.79998779297</ele>
        <time>2013-10-19T14:18:14Z</time>
      </trkpt>
      <trkpt lat="43.42912" lon="6.0043">
        <ele>348.79998779297</ele>
        <time>2013-10-19T14:18:24Z</time>
      </trkpt>
      <trkpt lat="43.42912" lon="6.0043">
        <ele>348.79998779297</ele>
        <time>2013-10-19T14:18:30Z</time>
      </trkpt>
      <trkpt lat="43.42912" lon="6.00423">
        <ele>348.79998779297</ele>
        <time>2013-10-19T14:18:33Z</time>
      </trkpt>
      <trkpt lat="43.42911" lon="6.00414">
        <ele>348.79998779297</ele>
        <time>2013-10-19T14:18:36Z</time>
      </trkpt>
      <trkpt lat="43.4291" lon="6.00401">
        <ele>348.79998779297</ele>
        <time>2013-10-19T14:18:41Z</time>
      </trkpt>
      <trkpt lat="43.42911" lon="6.00396">
        <ele>348.79998779297</ele>
        <time>2013-10-19T14:18:43Z</time>
      </trkpt>
      <trkpt lat="43.42912" lon="6.00394">
        <ele>348.79998779297</ele>
        <time>2013-10-19T14:18:44Z</time>
      </trkpt>
      <trkpt lat="43.4292" lon="6.00386">
        <ele>348.79998779297</ele>
        <time>2013-10-19T14:18:47Z</time>
      </trkpt>
      <trkpt lat="43.42926" lon="6.0038">
        <ele>348.79998779297</ele>
        <time>2013-10-19T14:18:49Z</time>
      </trkpt>
      <trkpt lat="43.42937" lon="6.00368">
        <ele>347.79998779297</ele>
        <time>2013-10-19T14:18:52Z</time>
      </trkpt>
      <trkpt lat="43.42942" lon="6.00365">
        <ele>347.20001220703</ele>
        <time>2013-10-19T14:18:53Z</time>
      </trkpt>
      <trkpt lat="43.42948" lon="6.00363">
        <ele>346.39999389648</ele>
        <time>2013-10-19T14:18:54Z</time>
      </trkpt>
      <trkpt lat="43.42953" lon="6.0036">
        <ele>345.79998779297</ele>
        <time>2013-10-19T14:18:55Z</time>
      </trkpt>
      <trkpt lat="43.42957" lon="6.00356">
        <ele>345</ele>
        <time>2013-10-19T14:18:56Z</time>
      </trkpt>
      <trkpt lat="43.4296" lon="6.00351">
        <ele>344.39999389648</ele>
        <time>2013-10-19T14:18:57Z</time>
      </trkpt>
      <trkpt lat="43.42963" lon="6.00347">
        <ele>343.79998779297</ele>
        <time>2013-10-19T14:18:58Z</time>
      </trkpt>
      <trkpt lat="43.42966" lon="6.00341">
        <ele>343.20001220703</ele>
        <time>2013-10-19T14:18:59Z</time>
      </trkpt>
      <trkpt lat="43.42968" lon="6.00337">
        <ele>342.79998779297</ele>
        <time>2013-10-19T14:19:00Z</time>
      </trkpt>
      <trkpt lat="43.4297" lon="6.00329">
        <ele>342.20001220703</ele>
        <time>2013-10-19T14:19:01Z</time>
      </trkpt>
      <trkpt lat="43.4297" lon="6.00321">
        <ele>341.60000610352</ele>
        <time>2013-10-19T14:19:02Z</time>
      </trkpt>
      <trkpt lat="43.42972" lon="6.00301">
        <ele>340.20001220703</ele>
        <time>2013-10-19T14:19:05Z</time>
      </trkpt>
      <trkpt lat="43.42972" lon="6.00287">
        <ele>339.20001220703</ele>
        <time>2013-10-19T14:19:07Z</time>
      </trkpt>
      <trkpt lat="43.42979" lon="6.00266">
        <ele>336.79998779297</ele>
        <time>2013-10-19T14:19:11Z</time>
      </trkpt>
      <trkpt lat="43.42982" lon="6.00256">
        <ele>335.60000610352</ele>
        <time>2013-10-19T14:19:13Z</time>
      </trkpt>
      <trkpt lat="43.42983" lon="6.00251">
        <ele>335.20001220703</ele>
        <time>2013-10-19T14:19:14Z</time>
      </trkpt>
      <trkpt lat="43.42987" lon="6.0024">
        <ele>333.60000610352</ele>
        <time>2013-10-19T14:19:16Z</time>
      </trkpt>
      <trkpt lat="43.42989" lon="6.00236">
        <ele>333</ele>
        <time>2013-10-19T14:19:17Z</time>
      </trkpt>
      <trkpt lat="43.42993" lon="6.00224">
        <ele>332</ele>
        <time>2013-10-19T14:19:19Z</time>
      </trkpt>
      <trkpt lat="43.43" lon="6.00214">
        <ele>331.20001220703</ele>
        <time>2013-10-19T14:19:21Z</time>
      </trkpt>
      <trkpt lat="43.43009" lon="6.00207">
        <ele>330.39999389648</ele>
        <time>2013-10-19T14:19:23Z</time>
      </trkpt>
      <trkpt lat="43.43013" lon="6.00203">
        <ele>329.79998779297</ele>
        <time>2013-10-19T14:19:24Z</time>
      </trkpt>
      <trkpt lat="43.43023" lon="6.00196">
        <ele>329.79998779297</ele>
        <time>2013-10-19T14:19:26Z</time>
      </trkpt>
      <trkpt lat="43.43028" lon="6.00193">
        <ele>329.39999389648</ele>
        <time>2013-10-19T14:19:27Z</time>
      </trkpt>
      <trkpt lat="43.43033" lon="6.00191">
        <ele>329</ele>
        <time>2013-10-19T14:19:28Z</time>
      </trkpt>
      <trkpt lat="43.43038" lon="6.00189">
        <ele>328.60000610352</ele>
        <time>2013-10-19T14:19:29Z</time>
      </trkpt>
      <trkpt lat="43.43043" lon="6.00186">
        <ele>328.20001220703</ele>
        <time>2013-10-19T14:19:30Z</time>
      </trkpt>
      <trkpt lat="43.43048" lon="6.00184">
        <ele>327.79998779297</ele>
        <time>2013-10-19T14:19:31Z</time>
      </trkpt>
      <trkpt lat="43.43055" lon="6.00174">
        <ele>327.79998779297</ele>
        <time>2013-10-19T14:19:33Z</time>
      </trkpt>
      <trkpt lat="43.43056" lon="6.00169">
        <ele>327.39999389648</ele>
        <time>2013-10-19T14:19:34Z</time>
      </trkpt>
      <trkpt lat="43.43057" lon="6.00165">
        <ele>326.79998779297</ele>
        <time>2013-10-19T14:19:35Z</time>
      </trkpt>
      <trkpt lat="43.43056" lon="6.00156">
        <ele>326</ele>
        <time>2013-10-19T14:19:37Z</time>
      </trkpt>
      <trkpt lat="43.43055" lon="6.00152">
        <ele>325.60000610352</ele>
        <time>2013-10-19T14:19:38Z</time>
      </trkpt>
      <trkpt lat="43.43053" lon="6.00143">
        <ele>325.60000610352</ele>
        <time>2013-10-19T14:19:40Z</time>
      </trkpt>
      <trkpt lat="43.43053" lon="6.00139">
        <ele>326</ele>
        <time>2013-10-19T14:19:41Z</time>
      </trkpt>
      <trkpt lat="43.43053" lon="6.00136">
        <ele>326.39999389648</ele>
        <time>2013-10-19T14:19:42Z</time>
      </trkpt>
      <trkpt lat="43.43053" lon="6.00133">
        <ele>326.79998779297</ele>
        <time>2013-10-19T14:19:43Z</time>
      </trkpt>
      <trkpt lat="43.43053" lon="6.00129">
        <ele>327.20001220703</ele>
        <time>2013-10-19T14:19:44Z</time>
      </trkpt>
      <trkpt lat="43.43053" lon="6.00125">
        <ele>327.60000610352</ele>
        <time>2013-10-19T14:19:45Z</time>
      </trkpt>
      <trkpt lat="43.43052" lon="6.00119">
        <ele>327.60000610352</ele>
        <time>2013-10-19T14:19:47Z</time>
      </trkpt>
      <trkpt lat="43.43052" lon="6.00108">
        <ele>327.60000610352</ele>
        <time>2013-10-19T14:19:50Z</time>
      </trkpt>
      <trkpt lat="43.43053" lon="6.00096">
        <ele>327.60000610352</ele>
        <time>2013-10-19T14:19:53Z</time>
      </trkpt>
      <trkpt lat="43.4305" lon="6.00071">
        <ele>327.60000610352</ele>
        <time>2013-10-19T14:19:59Z</time>
      </trkpt>
      <trkpt lat="43.43049" lon="6.00043">
        <ele>327.60000610352</ele>
        <time>2013-10-19T14:20:05Z</time>
      </trkpt>
      <trkpt lat="43.43049" lon="6.00042">
        <ele>327.60000610352</ele>
        <time>2013-10-19T14:20:09Z</time>
      </trkpt>
      <trkpt lat="43.43049" lon="6.00042">
        <ele>327.60000610352</ele>
        <time>2013-10-19T14:20:28Z</time>
      </trkpt>
      <trkpt lat="43.43048" lon="6.00042">
        <ele>327.60000610352</ele>
        <time>2013-10-19T14:21:32Z</time>
      </trkpt>
      <trkpt lat="43.43048" lon="6.00042">
        <ele>327.60000610352</ele>
        <time>2013-10-19T14:21:44Z</time>
      </trkpt>
      <trkpt lat="43.43048" lon="6.00042">
        <ele>327.60000610352</ele>
        <time>2013-10-19T14:22:07Z</time>
      </trkpt>
      <trkpt lat="43.43049" lon="6.00041">
        <ele>327.60000610352</ele>
        <time>2013-10-19T14:22:09Z</time>
      </trkpt>
      <trkpt lat="43.43051" lon="6.0004">
        <ele>327.60000610352</ele>
        <time>2013-10-19T14:22:10Z</time>
      </trkpt>
      <trkpt lat="43.43058" lon="6.00037">
        <ele>327.20001220703</ele>
        <time>2013-10-19T14:22:13Z</time>
      </trkpt>
      <trkpt lat="43.43065" lon="6.00029">
        <ele>326</ele>
        <time>2013-10-19T14:22:16Z</time>
      </trkpt>
      <trkpt lat="43.43068" lon="6.00027">
        <ele>325.60000610352</ele>
        <time>2013-10-19T14:22:17Z</time>
      </trkpt>
      <trkpt lat="43.43071" lon="6.00027">
        <ele>325.60000610352</ele>
        <time>2013-10-19T14:22:18Z</time>
      </trkpt>
      <trkpt lat="43.43085" lon="6.00022">
        <ele>325.20001220703</ele>
        <time>2013-10-19T14:22:23Z</time>
      </trkpt>
      <trkpt lat="43.4309" lon="6.00017">
        <ele>324.39999389648</ele>
        <time>2013-10-19T14:22:25Z</time>
      </trkpt>
      <trkpt lat="43.43092" lon="6.00015">
        <ele>323.79998779297</ele>
        <time>2013-10-19T14:22:26Z</time>
      </trkpt>
      <trkpt lat="43.43095" lon="6.00014">
        <ele>323.39999389648</ele>
        <time>2013-10-19T14:22:27Z</time>
      </trkpt>
      <trkpt lat="43.43106" lon="6.00016">
        <ele>322.60000610352</ele>
        <time>2013-10-19T14:22:30Z</time>
      </trkpt>
      <trkpt lat="43.43114" lon="6.00014">
        <ele>321.60000610352</ele>
        <time>2013-10-19T14:22:32Z</time>
      </trkpt>
      <trkpt lat="43.43118" lon="6.00008">
        <ele>321.20001220703</ele>
        <time>2013-10-19T14:22:34Z</time>
      </trkpt>
      <trkpt lat="43.43122" lon="6.00004">
        <ele>321.20001220703</ele>
        <time>2013-10-19T14:22:38Z</time>
      </trkpt>
      <trkpt lat="43.43124" lon="6.00005">
        <ele>320.79998779297</ele>
        <time>2013-10-19T14:22:39Z</time>
      </trkpt>
      <trkpt lat="43.4313" lon="6.00006">
        <ele>320</ele>
        <time>2013-10-19T14:22:41Z</time>
      </trkpt>
      <trkpt lat="43.43133" lon="6.00007">
        <ele>319.60000610352</ele>
        <time>2013-10-19T14:22:42Z</time>
      </trkpt>
      <trkpt lat="43.43136" lon="6.00007">
        <ele>319.20001220703</ele>
        <time>2013-10-19T14:22:43Z</time>
      </trkpt>
      <trkpt lat="43.43138" lon="6.00009">
        <ele>319.20001220703</ele>
        <time>2013-10-19T14:22:44Z</time>
      </trkpt>
      <trkpt lat="43.43143" lon="6.00008">
        <ele>318.79998779297</ele>
        <time>2013-10-19T14:22:47Z</time>
      </trkpt>
      <trkpt lat="43.43147" lon="6.00007">
        <ele>318</ele>
        <time>2013-10-19T14:22:49Z</time>
      </trkpt>
      <trkpt lat="43.43153" lon="6.00008">
        <ele>317.20001220703</ele>
        <time>2013-10-19T14:22:51Z</time>
      </trkpt>
      <trkpt lat="43.43163" lon="6.00008">
        <ele>316.79998779297</ele>
        <time>2013-10-19T14:22:54Z</time>
      </trkpt>
      <trkpt lat="43.43168" lon="6.00007">
        <ele>315.79998779297</ele>
        <time>2013-10-19T14:22:56Z</time>
      </trkpt>
      <trkpt lat="43.43171" lon="6.00008">
        <ele>315.39999389648</ele>
        <time>2013-10-19T14:22:57Z</time>
      </trkpt>
      <trkpt lat="43.43174" lon="6.0001">
        <ele>314.79998779297</ele>
        <time>2013-10-19T14:22:58Z</time>
      </trkpt>
      <trkpt lat="43.43177" lon="6.00011">
        <ele>313.79998779297</ele>
        <time>2013-10-19T14:22:59Z</time>
      </trkpt>
      <trkpt lat="43.43179" lon="6.00012">
        <ele>313.39999389648</ele>
        <time>2013-10-19T14:23:00Z</time>
      </trkpt>
      <trkpt lat="43.43182" lon="6.00013">
        <ele>313</ele>
        <time>2013-10-19T14:23:01Z</time>
      </trkpt>
      <trkpt lat="43.43185" lon="6.00014">
        <ele>312.39999389648</ele>
        <time>2013-10-19T14:23:02Z</time>
      </trkpt>
      <trkpt lat="43.4319" lon="6.00016">
        <ele>311.20001220703</ele>
        <time>2013-10-19T14:23:04Z</time>
      </trkpt>
      <trkpt lat="43.43192" lon="6.00015">
        <ele>310.60000610352</ele>
        <time>2013-10-19T14:23:05Z</time>
      </trkpt>
      <trkpt lat="43.43197" lon="6.00015">
        <ele>309.60000610352</ele>
        <time>2013-10-19T14:23:07Z</time>
      </trkpt>
      <trkpt lat="43.43199" lon="6.00014">
        <ele>309.20001220703</ele>
        <time>2013-10-19T14:23:08Z</time>
      </trkpt>
      <trkpt lat="43.432" lon="6.00014">
        <ele>308.79998779297</ele>
        <time>2013-10-19T14:23:09Z</time>
      </trkpt>
      <trkpt lat="43.432" lon="6.00014">
        <ele>308</ele>
        <time>2013-10-19T14:23:11Z</time>
      </trkpt>
      <trkpt lat="43.43202" lon="6.00014">
        <ele>308</ele>
        <time>2013-10-19T14:23:18Z</time>
      </trkpt>
      <trkpt lat="43.43203" lon="6.00014">
        <ele>308</ele>
        <time>2013-10-19T14:23:25Z</time>
      </trkpt>
      <trkpt lat="43.43203" lon="6.00014">
        <ele>308</ele>
        <time>2013-10-19T14:23:54Z</time>
      </trkpt>
      <trkpt lat="43.43203" lon="6.00014">
        <ele>305.79998779297</ele>
        <time>2013-10-19T14:24:22Z</time>
      </trkpt>
      <trkpt lat="43.43203" lon="6.00014">
        <ele>305.79998779297</ele>
        <time>2013-10-19T14:24:42Z</time>
      </trkpt>
      <trkpt lat="43.43203" lon="6.00015">
        <ele>305.79998779297</ele>
        <time>2013-10-19T14:24:51Z</time>
      </trkpt>
      <trkpt lat="43.43203" lon="6.00015">
        <ele>305.79998779297</ele>
        <time>2013-10-19T14:24:58Z</time>
      </trkpt>
      <trkpt lat="43.43213" lon="6.00017">
        <ele>305.39999389648</ele>
        <time>2013-10-19T14:25:04Z</time>
      </trkpt>
      <trkpt lat="43.43214" lon="6.00018">
        <ele>305</ele>
        <time>2013-10-19T14:25:05Z</time>
      </trkpt>
      <trkpt lat="43.43216" lon="6.00019">
        <ele>304.60000610352</ele>
        <time>2013-10-19T14:25:06Z</time>
      </trkpt>
      <trkpt lat="43.43217" lon="6.00019">
        <ele>304.20001220703</ele>
        <time>2013-10-19T14:25:07Z</time>
      </trkpt>
      <trkpt lat="43.43218" lon="6.00019">
        <ele>303.79998779297</ele>
        <time>2013-10-19T14:25:08Z</time>
      </trkpt>
      <trkpt lat="43.43221" lon="6.0002">
        <ele>303.39999389648</ele>
        <time>2013-10-19T14:25:12Z</time>
      </trkpt>
      <trkpt lat="43.43221" lon="6.0002">
        <ele>302.79998779297</ele>
        <time>2013-10-19T14:25:13Z</time>
      </trkpt>
      <trkpt lat="43.43222" lon="6.00021">
        <ele>302.39999389648</ele>
        <time>2013-10-19T14:25:14Z</time>
      </trkpt>
      <trkpt lat="43.43222" lon="6.00021">
        <ele>301.60000610352</ele>
        <time>2013-10-19T14:25:19Z</time>
      </trkpt>
      <trkpt lat="43.43222" lon="6.00021">
        <ele>301.60000610352</ele>
        <time>2013-10-19T14:25:23Z</time>
      </trkpt>
      <trkpt lat="43.43227" lon="6.00021">
        <ele>301.20001220703</ele>
        <time>2013-10-19T14:25:34Z</time>
      </trkpt>
      <trkpt lat="43.43227" lon="6.00021">
        <ele>300</ele>
        <time>2013-10-19T14:25:37Z</time>
      </trkpt>
      <trkpt lat="43.43228" lon="6.00021">
        <ele>299.60000610352</ele>
        <time>2013-10-19T14:25:38Z</time>
      </trkpt>
      <trkpt lat="43.43228" lon="6.00021">
        <ele>299.60000610352</ele>
        <time>2013-10-19T14:26:00Z</time>
      </trkpt>
      <trkpt lat="43.43228" lon="6.0002">
        <ele>299.60000610352</ele>
        <time>2013-10-19T14:26:44Z</time>
      </trkpt>
      <trkpt lat="43.43228" lon="6.0002">
        <ele>299.60000610352</ele>
        <time>2013-10-19T14:26:53Z</time>
      </trkpt>
      <trkpt lat="43.43229" lon="6.00021">
        <ele>299.60000610352</ele>
        <time>2013-10-19T14:27:02Z</time>
      </trkpt>
      <trkpt lat="43.43231" lon="6.0002">
        <ele>299.60000610352</ele>
        <time>2013-10-19T14:27:09Z</time>
      </trkpt>
      <trkpt lat="43.43231" lon="6.0002">
        <ele>298.60000610352</ele>
        <time>2013-10-19T14:27:15Z</time>
      </trkpt>
      <trkpt lat="43.43231" lon="6.0002">
        <ele>298.20001220703</ele>
        <time>2013-10-19T14:27:16Z</time>
      </trkpt>
      <trkpt lat="43.43233" lon="6.0002">
        <ele>297.79998779297</ele>
        <time>2013-10-19T14:27:17Z</time>
      </trkpt>
      <trkpt lat="43.43234" lon="6.0002">
        <ele>297.39999389648</ele>
        <time>2013-10-19T14:27:18Z</time>
      </trkpt>
      <trkpt lat="43.4324" lon="6.00023">
        <ele>297</ele>
        <time>2013-10-19T14:27:21Z</time>
      </trkpt>
      <trkpt lat="43.43242" lon="6.00023">
        <ele>296</ele>
        <time>2013-10-19T14:27:23Z</time>
      </trkpt>
      <trkpt lat="43.43242" lon="6.00023">
        <ele>295.20001220703</ele>
        <time>2013-10-19T14:27:35Z</time>
      </trkpt>
      <trkpt lat="43.43242" lon="6.00023">
        <ele>295.20001220703</ele>
        <time>2013-10-19T14:27:39Z</time>
      </trkpt>
      <trkpt lat="43.43245" lon="6.00024">
        <ele>295.20001220703</ele>
        <time>2013-10-19T14:27:44Z</time>
      </trkpt>
      <trkpt lat="43.43246" lon="6.00024">
        <ele>295.20001220703</ele>
        <time>2013-10-19T14:27:49Z</time>
      </trkpt>
      <trkpt lat="43.43247" lon="6.00025">
        <ele>295.20001220703</ele>
        <time>2013-10-19T14:27:55Z</time>
      </trkpt>
      <trkpt lat="43.43247" lon="6.00025">
        <ele>294.79998779297</ele>
        <time>2013-10-19T14:27:57Z</time>
      </trkpt>
      <trkpt lat="43.43251" lon="6.00027">
        <ele>294</ele>
        <time>2013-10-19T14:27:59Z</time>
      </trkpt>
      <trkpt lat="43.43254" lon="6.00026">
        <ele>293.20001220703</ele>
        <time>2013-10-19T14:28:01Z</time>
      </trkpt>
      <trkpt lat="43.43264" lon="6.00025">
        <ele>292</ele>
        <time>2013-10-19T14:28:05Z</time>
      </trkpt>
      <trkpt lat="43.43266" lon="6.00026">
        <ele>291.60000610352</ele>
        <time>2013-10-19T14:28:06Z</time>
      </trkpt>
      <trkpt lat="43.43267" lon="6.00026">
        <ele>291</ele>
        <time>2013-10-19T14:28:07Z</time>
      </trkpt>
      <trkpt lat="43.43269" lon="6.00027">
        <ele>290.39999389648</ele>
        <time>2013-10-19T14:28:08Z</time>
      </trkpt>
      <trkpt lat="43.43272" lon="6.00028">
        <ele>289.60000610352</ele>
        <time>2013-10-19T14:28:10Z</time>
      </trkpt>
      <trkpt lat="43.43272" lon="6.00029">
        <ele>289.20001220703</ele>
        <time>2013-10-19T14:28:11Z</time>
      </trkpt>
      <trkpt lat="43.43275" lon="6.00027">
        <ele>288.60000610352</ele>
        <time>2013-10-19T14:28:12Z</time>
      </trkpt>
      <trkpt lat="43.43278" lon="6.00028">
        <ele>288.20001220703</ele>
        <time>2013-10-19T14:28:13Z</time>
      </trkpt>
      <trkpt lat="43.43281" lon="6.0003">
        <ele>287.79998779297</ele>
        <time>2013-10-19T14:28:14Z</time>
      </trkpt>
      <trkpt lat="43.43282" lon="6.00031">
        <ele>287.39999389648</ele>
        <time>2013-10-19T14:28:15Z</time>
      </trkpt>
      <trkpt lat="43.43287" lon="6.00035">
        <ele>286.60000610352</ele>
        <time>2013-10-19T14:28:17Z</time>
      </trkpt>
      <trkpt lat="43.4329" lon="6.00035">
        <ele>286</ele>
        <time>2013-10-19T14:28:18Z</time>
      </trkpt>
      <trkpt lat="43.43292" lon="6.00034">
        <ele>285.20001220703</ele>
        <time>2013-10-19T14:28:19Z</time>
      </trkpt>
      <trkpt lat="43.43293" lon="6.00034">
        <ele>284.60000610352</ele>
        <time>2013-10-19T14:28:20Z</time>
      </trkpt>
      <trkpt lat="43.43293" lon="6.00034">
        <ele>283.60000610352</ele>
        <time>2013-10-19T14:28:22Z</time>
      </trkpt>
      <trkpt lat="43.43293" lon="6.00034">
        <ele>283.60000610352</ele>
        <time>2013-10-19T14:28:32Z</time>
      </trkpt>
      <trkpt lat="43.43294" lon="6.00033">
        <ele>283.60000610352</ele>
        <time>2013-10-19T14:28:40Z</time>
      </trkpt>
      <trkpt lat="43.43295" lon="6.00032">
        <ele>283.60000610352</ele>
        <time>2013-10-19T14:28:41Z</time>
      </trkpt>
      <trkpt lat="43.43302" lon="6.00036">
        <ele>282.39999389648</ele>
        <time>2013-10-19T14:28:45Z</time>
      </trkpt>
      <trkpt lat="43.43303" lon="6.00036">
        <ele>282</ele>
        <time>2013-10-19T14:28:46Z</time>
      </trkpt>
      <trkpt lat="43.43303" lon="6.00036">
        <ele>281.60000610352</ele>
        <time>2013-10-19T14:28:47Z</time>
      </trkpt>
      <trkpt lat="43.43303" lon="6.00036">
        <ele>281.60000610352</ele>
        <time>2013-10-19T14:28:49Z</time>
      </trkpt>
      <trkpt lat="43.43311" lon="6.00035">
        <ele>281.60000610352</ele>
        <time>2013-10-19T14:28:54Z</time>
      </trkpt>
      <trkpt lat="43.43312" lon="6.00035">
        <ele>281.60000610352</ele>
        <time>2013-10-19T14:28:55Z</time>
      </trkpt>
      <trkpt lat="43.43315" lon="6.0004">
        <ele>281.20001220703</ele>
        <time>2013-10-19T14:28:58Z</time>
      </trkpt>
      <trkpt lat="43.43316" lon="6.00042">
        <ele>280.79998779297</ele>
        <time>2013-10-19T14:28:59Z</time>
      </trkpt>
      <trkpt lat="43.43318" lon="6.00044">
        <ele>280.39999389648</ele>
        <time>2013-10-19T14:29:00Z</time>
      </trkpt>
      <trkpt lat="43.43319" lon="6.00046">
        <ele>280</ele>
        <time>2013-10-19T14:29:01Z</time>
      </trkpt>
      <trkpt lat="43.43325" lon="6.00056">
        <ele>279</ele>
        <time>2013-10-19T14:29:04Z</time>
      </trkpt>
      <trkpt lat="43.43327" lon="6.00059">
        <ele>278.60000610352</ele>
        <time>2013-10-19T14:29:05Z</time>
      </trkpt>
      <trkpt lat="43.43327" lon="6.00062">
        <ele>278.20001220703</ele>
        <time>2013-10-19T14:29:06Z</time>
      </trkpt>
      <trkpt lat="43.43328" lon="6.00063">
        <ele>277.60000610352</ele>
        <time>2013-10-19T14:29:07Z</time>
      </trkpt>
      <trkpt lat="43.43329" lon="6.00063">
        <ele>277.20001220703</ele>
        <time>2013-10-19T14:29:08Z</time>
      </trkpt>
      <trkpt lat="43.43331" lon="6.00063">
        <ele>277.20001220703</ele>
        <time>2013-10-19T14:29:09Z</time>
      </trkpt>
      <trkpt lat="43.43333" lon="6.00061">
        <ele>277.20001220703</ele>
        <time>2013-10-19T14:29:12Z</time>
      </trkpt>
      <trkpt lat="43.43333" lon="6.00061">
        <ele>277.20001220703</ele>
        <time>2013-10-19T14:29:21Z</time>
      </trkpt>
      <trkpt lat="43.43337" lon="6.00062">
        <ele>277.20001220703</ele>
        <time>2013-10-19T14:29:29Z</time>
      </trkpt>
      <trkpt lat="43.43338" lon="6.00064">
        <ele>277.20001220703</ele>
        <time>2013-10-19T14:29:31Z</time>
      </trkpt>
      <trkpt lat="43.43342" lon="6.00069">
        <ele>276.79998779297</ele>
        <time>2013-10-19T14:29:33Z</time>
      </trkpt>
      <trkpt lat="43.43343" lon="6.00071">
        <ele>276.20001220703</ele>
        <time>2013-10-19T14:29:34Z</time>
      </trkpt>
      <trkpt lat="43.43343" lon="6.00072">
        <ele>275.79998779297</ele>
        <time>2013-10-19T14:29:35Z</time>
      </trkpt>
      <trkpt lat="43.43341" lon="6.00072">
        <ele>275.20001220703</ele>
        <time>2013-10-19T14:29:36Z</time>
      </trkpt>
      <trkpt lat="43.43342" lon="6.00074">
        <ele>274.79998779297</ele>
        <time>2013-10-19T14:29:37Z</time>
      </trkpt>
      <trkpt lat="43.43342" lon="6.0008">
        <ele>274.79998779297</ele>
        <time>2013-10-19T14:29:40Z</time>
      </trkpt>
      <trkpt lat="43.43342" lon="6.00083">
        <ele>274.79998779297</ele>
        <time>2013-10-19T14:29:41Z</time>
      </trkpt>
      <trkpt lat="43.43343" lon="6.00086">
        <ele>274.39999389648</ele>
        <time>2013-10-19T14:29:42Z</time>
      </trkpt>
      <trkpt lat="43.43344" lon="6.0009">
        <ele>274</ele>
        <time>2013-10-19T14:29:43Z</time>
      </trkpt>
      <trkpt lat="43.43344" lon="6.00094">
        <ele>273.60000610352</ele>
        <time>2013-10-19T14:29:44Z</time>
      </trkpt>
      <trkpt lat="43.43346" lon="6.00098">
        <ele>273.20001220703</ele>
        <time>2013-10-19T14:29:45Z</time>
      </trkpt>
      <trkpt lat="43.43348" lon="6.00102">
        <ele>272.60000610352</ele>
        <time>2013-10-19T14:29:46Z</time>
      </trkpt>
      <trkpt lat="43.43351" lon="6.00113">
        <ele>272.20001220703</ele>
        <time>2013-10-19T14:29:49Z</time>
      </trkpt>
      <trkpt lat="43.43353" lon="6.00116">
        <ele>271.79998779297</ele>
        <time>2013-10-19T14:29:50Z</time>
      </trkpt>
      <trkpt lat="43.43354" lon="6.00118">
        <ele>271.39999389648</ele>
        <time>2013-10-19T14:29:51Z</time>
      </trkpt>
      <trkpt lat="43.43354" lon="6.00123">
        <ele>270.60000610352</ele>
        <time>2013-10-19T14:29:53Z</time>
      </trkpt>
      <trkpt lat="43.43356" lon="6.00128">
        <ele>270.60000610352</ele>
        <time>2013-10-19T14:29:56Z</time>
      </trkpt>
      <trkpt lat="43.43358" lon="6.00129">
        <ele>270.20001220703</ele>
        <time>2013-10-19T14:29:58Z</time>
      </trkpt>
      <trkpt lat="43.43358" lon="6.00129">
        <ele>269.79998779297</ele>
        <time>2013-10-19T14:29:59Z</time>
      </trkpt>
      <trkpt lat="43.43359" lon="6.0013">
        <ele>269.39999389648</ele>
        <time>2013-10-19T14:30:00Z</time>
      </trkpt>
      <trkpt lat="43.43359" lon="6.0013">
        <ele>269</ele>
        <time>2013-10-19T14:30:01Z</time>
      </trkpt>
      <trkpt lat="43.43359" lon="6.00131">
        <ele>268.60000610352</ele>
        <time>2013-10-19T14:30:02Z</time>
      </trkpt>
      <trkpt lat="43.43359" lon="6.00131">
        <ele>268.60000610352</ele>
        <time>2013-10-19T14:30:08Z</time>
      </trkpt>
      <trkpt lat="43.43359" lon="6.00131">
        <ele>268.60000610352</ele>
        <time>2013-10-19T14:30:12Z</time>
      </trkpt>
      <trkpt lat="43.43359" lon="6.00131">
        <ele>268.60000610352</ele>
        <time>2013-10-19T14:30:16Z</time>
      </trkpt>
      <trkpt lat="43.4336" lon="6.00134">
        <ele>268.60000610352</ele>
        <time>2013-10-19T14:30:25Z</time>
      </trkpt>
      <trkpt lat="43.43369" lon="6.00142">
        <ele>268.60000610352</ele>
        <time>2013-10-19T14:30:30Z</time>
      </trkpt>
      <trkpt lat="43.43372" lon="6.00144">
        <ele>268.60000610352</ele>
        <time>2013-10-19T14:30:32Z</time>
      </trkpt>
      <trkpt lat="43.43375" lon="6.00143">
        <ele>268.20001220703</ele>
        <time>2013-10-19T14:30:33Z</time>
      </trkpt>
      <trkpt lat="43.43377" lon="6.00143">
        <ele>267.60000610352</ele>
        <time>2013-10-19T14:30:34Z</time>
      </trkpt>
      <trkpt lat="43.43378" lon="6.00143">
        <ele>267.20001220703</ele>
        <time>2013-10-19T14:30:35Z</time>
      </trkpt>
      <trkpt lat="43.43381" lon="6.00144">
        <ele>266.79998779297</ele>
        <time>2013-10-19T14:30:36Z</time>
      </trkpt>
      <trkpt lat="43.43382" lon="6.00146">
        <ele>266.39999389648</ele>
        <time>2013-10-19T14:30:37Z</time>
      </trkpt>
      <trkpt lat="43.43385" lon="6.00151">
        <ele>266.39999389648</ele>
        <time>2013-10-19T14:30:39Z</time>
      </trkpt>
      <trkpt lat="43.4339" lon="6.00158">
        <ele>265</ele>
        <time>2013-10-19T14:30:42Z</time>
      </trkpt>
      <trkpt lat="43.43392" lon="6.00161">
        <ele>264.60000610352</ele>
        <time>2013-10-19T14:30:43Z</time>
      </trkpt>
      <trkpt lat="43.43394" lon="6.00162">
        <ele>264.20001220703</ele>
        <time>2013-10-19T14:30:44Z</time>
      </trkpt>
      <trkpt lat="43.43402" lon="6.00171">
        <ele>264.20001220703</ele>
        <time>2013-10-19T14:30:49Z</time>
      </trkpt>
      <trkpt lat="43.43405" lon="6.00172">
        <ele>264.20001220703</ele>
        <time>2013-10-19T14:30:50Z</time>
      </trkpt>
      <trkpt lat="43.43412" lon="6.00172">
        <ele>262.79998779297</ele>
        <time>2013-10-19T14:30:53Z</time>
      </trkpt>
      <trkpt lat="43.43415" lon="6.00173">
        <ele>262.39999389648</ele>
        <time>2013-10-19T14:30:54Z</time>
      </trkpt>
      <trkpt lat="43.43417" lon="6.00175">
        <ele>262</ele>
        <time>2013-10-19T14:30:55Z</time>
      </trkpt>
      <trkpt lat="43.43426" lon="6.0018">
        <ele>262</ele>
        <time>2013-10-19T14:30:58Z</time>
      </trkpt>
      <trkpt lat="43.43436" lon="6.00187">
        <ele>261.60000610352</ele>
        <time>2013-10-19T14:31:03Z</time>
      </trkpt>
      <trkpt lat="43.43437" lon="6.00186">
        <ele>261.20001220703</ele>
        <time>2013-10-19T14:31:04Z</time>
      </trkpt>
      <trkpt lat="43.43439" lon="6.00186">
        <ele>260.20001220703</ele>
        <time>2013-10-19T14:31:06Z</time>
      </trkpt>
      <trkpt lat="43.43439" lon="6.00186">
        <ele>259.79998779297</ele>
        <time>2013-10-19T14:31:07Z</time>
      </trkpt>
      <trkpt lat="43.43439" lon="6.00186">
        <ele>259.79998779297</ele>
        <time>2013-10-19T14:31:10Z</time>
      </trkpt>
      <trkpt lat="43.43445" lon="6.00185">
        <ele>259.79998779297</ele>
        <time>2013-10-19T14:31:13Z</time>
      </trkpt>
      <trkpt lat="43.43449" lon="6.00181">
        <ele>259.79998779297</ele>
        <time>2013-10-19T14:31:16Z</time>
      </trkpt>
      <trkpt lat="43.43455" lon="6.00178">
        <ele>259.39999389648</ele>
        <time>2013-10-19T14:31:19Z</time>
      </trkpt>
      <trkpt lat="43.43457" lon="6.00177">
        <ele>259</ele>
        <time>2013-10-19T14:31:20Z</time>
      </trkpt>
      <trkpt lat="43.43464" lon="6.00172">
        <ele>257.60000610352</ele>
        <time>2013-10-19T14:31:24Z</time>
      </trkpt>
      <trkpt lat="43.43473" lon="6.00171">
        <ele>257.20001220703</ele>
        <time>2013-10-19T14:31:29Z</time>
      </trkpt>
      <trkpt lat="43.43475" lon="6.00171">
        <ele>256.79998779297</ele>
        <time>2013-10-19T14:31:30Z</time>
      </trkpt>
      <trkpt lat="43.43478" lon="6.0017">
        <ele>256.39999389648</ele>
        <time>2013-10-19T14:31:31Z</time>
      </trkpt>
      <trkpt lat="43.4348" lon="6.0017">
        <ele>256</ele>
        <time>2013-10-19T14:31:32Z</time>
      </trkpt>
      <trkpt lat="43.43482" lon="6.0017">
        <ele>255.60000610352</ele>
        <time>2013-10-19T14:31:33Z</time>
      </trkpt>
      <trkpt lat="43.43488" lon="6.00169">
        <ele>255.60000610352</ele>
        <time>2013-10-19T14:31:35Z</time>
      </trkpt>
      <trkpt lat="43.43496" lon="6.00173">
        <ele>255.19999694824</ele>
        <time>2013-10-19T14:31:39Z</time>
      </trkpt>
      <trkpt lat="43.43497" lon="6.00173">
        <ele>254.80000305176</ele>
        <time>2013-10-19T14:31:40Z</time>
      </trkpt>
      <trkpt lat="43.43497" lon="6.00173">
        <ele>254.19999694824</ele>
        <time>2013-10-19T14:31:41Z</time>
      </trkpt>
      <trkpt lat="43.43497" lon="6.00173">
        <ele>253.39999389648</ele>
        <time>2013-10-19T14:31:43Z</time>
      </trkpt>
      <trkpt lat="43.43499" lon="6.00173">
        <ele>253.39999389648</ele>
        <time>2013-10-19T14:31:48Z</time>
      </trkpt>
      <trkpt lat="43.43504" lon="6.00174">
        <ele>253.39999389648</ele>
        <time>2013-10-19T14:31:50Z</time>
      </trkpt>
      <trkpt lat="43.43508" lon="6.00177">
        <ele>253.39999389648</ele>
        <time>2013-10-19T14:31:52Z</time>
      </trkpt>
      <trkpt lat="43.43516" lon="6.00182">
        <ele>253.39999389648</ele>
        <time>2013-10-19T14:31:55Z</time>
      </trkpt>
      <trkpt lat="43.43526" lon="6.00184">
        <ele>253</ele>
        <time>2013-10-19T14:31:59Z</time>
      </trkpt>
      <trkpt lat="43.4353" lon="6.00185">
        <ele>252.19999694824</ele>
        <time>2013-10-19T14:32:01Z</time>
      </trkpt>
      <trkpt lat="43.43533" lon="6.00186">
        <ele>251.19999694824</ele>
        <time>2013-10-19T14:32:02Z</time>
      </trkpt>
      <trkpt lat="43.43543" lon="6.00187">
        <ele>251.19999694824</ele>
        <time>2013-10-19T14:32:06Z</time>
      </trkpt>
      <trkpt lat="43.43557" lon="6.00188">
        <ele>251.19999694824</ele>
        <time>2013-10-19T14:32:12Z</time>
      </trkpt>
      <trkpt lat="43.43571" lon="6.00194">
        <ele>249.60000610352</ele>
        <time>2013-10-19T14:32:17Z</time>
      </trkpt>
      <trkpt lat="43.43579" lon="6.00196">
        <ele>249.19999694824</ele>
        <time>2013-10-19T14:32:21Z</time>
      </trkpt>
      <trkpt lat="43.43586" lon="6.00199">
        <ele>248.39999389648</ele>
        <time>2013-10-19T14:32:24Z</time>
      </trkpt>
      <trkpt lat="43.43591" lon="6.002">
        <ele>247</ele>
        <time>2013-10-19T14:32:26Z</time>
      </trkpt>
      <trkpt lat="43.436" lon="6.00201">
        <ele>246.60000610352</ele>
        <time>2013-10-19T14:32:29Z</time>
      </trkpt>
      <trkpt lat="43.43602" lon="6.00202">
        <ele>246.19999694824</ele>
        <time>2013-10-19T14:32:30Z</time>
      </trkpt>
      <trkpt lat="43.43605" lon="6.00204">
        <ele>245.80000305176</ele>
        <time>2013-10-19T14:32:31Z</time>
      </trkpt>
      <trkpt lat="43.4361" lon="6.00206">
        <ele>245</ele>
        <time>2013-10-19T14:32:33Z</time>
      </trkpt>
      <trkpt lat="43.43622" lon="6.00209">
        <ele>245</ele>
        <time>2013-10-19T14:32:38Z</time>
      </trkpt>
      <trkpt lat="43.43622" lon="6.00208">
        <ele>245</ele>
        <time>2013-10-19T14:32:42Z</time>
      </trkpt>
      <trkpt lat="43.43622" lon="6.00208">
        <ele>245</ele>
        <time>2013-10-19T14:33:16Z</time>
      </trkpt>
      <trkpt lat="43.43622" lon="6.00208">
        <ele>245</ele>
        <time>2013-10-19T14:33:21Z</time>
      </trkpt>
      <trkpt lat="43.43622" lon="6.00208">
        <ele>245</ele>
        <time>2013-10-19T14:33:46Z</time>
      </trkpt>
      <trkpt lat="43.43622" lon="6.00208">
        <ele>243</ele>
        <time>2013-10-19T14:34:19Z</time>
      </trkpt>
      <trkpt lat="43.43622" lon="6.00208">
        <ele>243</ele>
        <time>2013-10-19T14:34:39Z</time>
      </trkpt>
      <trkpt lat="43.43624" lon="6.00208">
        <ele>243</ele>
        <time>2013-10-19T14:34:52Z</time>
      </trkpt>
      <trkpt lat="43.43634" lon="6.00213">
        <ele>243</ele>
        <time>2013-10-19T14:34:57Z</time>
      </trkpt>
      <trkpt lat="43.43649" lon="6.00219">
        <ele>243</ele>
        <time>2013-10-19T14:35:03Z</time>
      </trkpt>
      <trkpt lat="43.43656" lon="6.0023">
        <ele>243</ele>
        <time>2013-10-19T14:35:08Z</time>
      </trkpt>
      <trkpt lat="43.43666" lon="6.00239">
        <ele>242.60000610352</ele>
        <time>2013-10-19T14:35:13Z</time>
      </trkpt>
      <trkpt lat="43.43671" lon="6.00243">
        <ele>241.60000610352</ele>
        <time>2013-10-19T14:35:15Z</time>
      </trkpt>
      <trkpt lat="43.43674" lon="6.00248">
        <ele>240.80000305176</ele>
        <time>2013-10-19T14:35:17Z</time>
      </trkpt>
      <trkpt lat="43.43677" lon="6.00252">
        <ele>240.80000305176</ele>
        <time>2013-10-19T14:35:20Z</time>
      </trkpt>
      <trkpt lat="43.43678" lon="6.00254">
        <ele>240.80000305176</ele>
        <time>2013-10-19T14:35:21Z</time>
      </trkpt>
      <trkpt lat="43.43673" lon="6.00258">
        <ele>240.80000305176</ele>
        <time>2013-10-19T14:35:26Z</time>
      </trkpt>
      <trkpt lat="43.43672" lon="6.0026">
        <ele>240.80000305176</ele>
        <time>2013-10-19T14:35:27Z</time>
      </trkpt>
      <trkpt lat="43.43668" lon="6.00264">
        <ele>240.80000305176</ele>
        <time>2013-10-19T14:35:30Z</time>
      </trkpt>
      <trkpt lat="43.43658" lon="6.00277">
        <ele>240.80000305176</ele>
        <time>2013-10-19T14:35:38Z</time>
      </trkpt>
      <trkpt lat="43.43653" lon="6.00286">
        <ele>240.80000305176</ele>
        <time>2013-10-19T14:35:42Z</time>
      </trkpt>
      <trkpt lat="43.4365" lon="6.00293">
        <ele>240.80000305176</ele>
        <time>2013-10-19T14:35:45Z</time>
      </trkpt>
      <trkpt lat="43.43631" lon="6.00316">
        <ele>241.19999694824</ele>
        <time>2013-10-19T14:35:58Z</time>
      </trkpt>
      <trkpt lat="43.43622" lon="6.00332">
        <ele>242.80000305176</ele>
        <time>2013-10-19T14:36:06Z</time>
      </trkpt>
      <trkpt lat="43.43616" lon="6.00342">
        <ele>242.80000305176</ele>
        <time>2013-10-19T14:36:11Z</time>
      </trkpt>
      <trkpt lat="43.4361" lon="6.00359">
        <ele>242.80000305176</ele>
        <time>2013-10-19T14:36:18Z</time>
      </trkpt>
      <trkpt lat="43.43608" lon="6.00371">
        <ele>243.60000610352</ele>
        <time>2013-10-19T14:36:22Z</time>
      </trkpt>
      <trkpt lat="43.43607" lon="6.0038">
        <ele>244.80000305176</ele>
        <time>2013-10-19T14:36:25Z</time>
      </trkpt>
      <trkpt lat="43.43608" lon="6.00392">
        <ele>244.80000305176</ele>
        <time>2013-10-19T14:36:29Z</time>
      </trkpt>
      <trkpt lat="43.4361" lon="6.00397">
        <ele>244.80000305176</ele>
        <time>2013-10-19T14:36:31Z</time>
      </trkpt>
      <trkpt lat="43.43612" lon="6.00404">
        <ele>245.19999694824</ele>
        <time>2013-10-19T14:36:34Z</time>
      </trkpt>
      <trkpt lat="43.43615" lon="6.00411">
        <ele>246.60000610352</ele>
        <time>2013-10-19T14:36:37Z</time>
      </trkpt>
      <trkpt lat="43.43621" lon="6.00428">
        <ele>247</ele>
        <time>2013-10-19T14:36:44Z</time>
      </trkpt>
      <trkpt lat="43.43621" lon="6.00458">
        <ele>248.19999694824</ele>
        <time>2013-10-19T14:36:55Z</time>
      </trkpt>
      <trkpt lat="43.43621" lon="6.00461">
        <ele>248.60000610352</ele>
        <time>2013-10-19T14:36:56Z</time>
      </trkpt>
      <trkpt lat="43.4362" lon="6.0048">
        <ele>249</ele>
        <time>2013-10-19T14:37:03Z</time>
      </trkpt>
      <trkpt lat="43.43617" lon="6.00495">
        <ele>249.39999389648</ele>
        <time>2013-10-19T14:37:09Z</time>
      </trkpt>
      <trkpt lat="43.43617" lon="6.00498">
        <ele>249.80000305176</ele>
        <time>2013-10-19T14:37:10Z</time>
      </trkpt>
      <trkpt lat="43.43615" lon="6.00504">
        <ele>250.60000610352</ele>
        <time>2013-10-19T14:37:12Z</time>
      </trkpt>
      <trkpt lat="43.43612" lon="6.00513">
        <ele>251</ele>
        <time>2013-10-19T14:37:16Z</time>
      </trkpt>
      <trkpt lat="43.43604" lon="6.00527">
        <ele>251</ele>
        <time>2013-10-19T14:37:23Z</time>
      </trkpt>
      <trkpt lat="43.43594" lon="6.00539">
        <ele>253.19999694824</ele>
        <time>2013-10-19T14:37:30Z</time>
      </trkpt>
      <trkpt lat="43.43584" lon="6.00551">
        <ele>253.19999694824</ele>
        <time>2013-10-19T14:37:37Z</time>
      </trkpt>
      <trkpt lat="43.43572" lon="6.00577">
        <ele>255.19999694824</ele>
        <time>2013-10-19T14:37:50Z</time>
      </trkpt>
      <trkpt lat="43.43565" lon="6.00589">
        <ele>255.19999694824</ele>
        <time>2013-10-19T14:37:56Z</time>
      </trkpt>
      <trkpt lat="43.4356" lon="6.00596">
        <ele>256</ele>
        <time>2013-10-19T14:38:01Z</time>
      </trkpt>
      <trkpt lat="43.43557" lon="6.006">
        <ele>257</ele>
        <time>2013-10-19T14:38:03Z</time>
      </trkpt>
      <trkpt lat="43.43555" lon="6.0063">
        <ele>257.39999389648</ele>
        <time>2013-10-19T14:38:17Z</time>
      </trkpt>
      <trkpt lat="43.43555" lon="6.00632">
        <ele>257.79998779297</ele>
        <time>2013-10-19T14:38:18Z</time>
      </trkpt>
      <trkpt lat="43.43556" lon="6.00634">
        <ele>258.20001220703</ele>
        <time>2013-10-19T14:38:19Z</time>
      </trkpt>
      <trkpt lat="43.43564" lon="6.00642">
        <ele>259.39999389648</ele>
        <time>2013-10-19T14:38:26Z</time>
      </trkpt>
      <trkpt lat="43.4357" lon="6.00649">
        <ele>259.39999389648</ele>
        <time>2013-10-19T14:38:32Z</time>
      </trkpt>
      <trkpt lat="43.43571" lon="6.00654">
        <ele>259.79998779297</ele>
        <time>2013-10-19T14:38:35Z</time>
      </trkpt>
      <trkpt lat="43.43577" lon="6.00672">
        <ele>261.79998779297</ele>
        <time>2013-10-19T14:38:45Z</time>
      </trkpt>
      <trkpt lat="43.43577" lon="6.00678">
        <ele>262.20001220703</ele>
        <time>2013-10-19T14:38:48Z</time>
      </trkpt>
      <trkpt lat="43.43577" lon="6.00681">
        <ele>263</ele>
        <time>2013-10-19T14:38:50Z</time>
      </trkpt>
      <trkpt lat="43.43567" lon="6.00708">
        <ele>265.39999389648</ele>
        <time>2013-10-19T14:39:06Z</time>
      </trkpt>
      <trkpt lat="43.4356" lon="6.00725">
        <ele>266.20001220703</ele>
        <time>2013-10-19T14:39:16Z</time>
      </trkpt>
      <trkpt lat="43.43559" lon="6.00729">
        <ele>267.60000610352</ele>
        <time>2013-10-19T14:39:19Z</time>
      </trkpt>
      <trkpt lat="43.43558" lon="6.00732">
        <ele>268</ele>
        <time>2013-10-19T14:39:21Z</time>
      </trkpt>
      <trkpt lat="43.43556" lon="6.00735">
        <ele>268</ele>
        <time>2013-10-19T14:39:23Z</time>
      </trkpt>
      <trkpt lat="43.43554" lon="6.00742">
        <ele>268</ele>
        <time>2013-10-19T14:39:28Z</time>
      </trkpt>
      <trkpt lat="43.43554" lon="6.00742">
        <ele>268</ele>
        <time>2013-10-19T14:39:32Z</time>
      </trkpt>
      <trkpt lat="43.43554" lon="6.00742">
        <ele>270</ele>
        <time>2013-10-19T14:39:49Z</time>
      </trkpt>
      <trkpt lat="43.43554" lon="6.00742">
        <ele>270</ele>
        <time>2013-10-19T14:40:12Z</time>
      </trkpt>
      <trkpt lat="43.43554" lon="6.00742">
        <ele>270</ele>
        <time>2013-10-19T14:40:21Z</time>
      </trkpt>
      <trkpt lat="43.43554" lon="6.00742">
        <ele>270</ele>
        <time>2013-10-19T14:40:23Z</time>
      </trkpt>
      <trkpt lat="43.43554" lon="6.00743">
        <ele>270</ele>
        <time>2013-10-19T14:40:25Z</time>
      </trkpt>
      <trkpt lat="43.43552" lon="6.00746">
        <ele>270</ele>
        <time>2013-10-19T14:40:27Z</time>
      </trkpt>
      <trkpt lat="43.43549" lon="6.00753">
        <ele>270</ele>
        <time>2013-10-19T14:40:30Z</time>
      </trkpt>
      <trkpt lat="43.43547" lon="6.00761">
        <ele>270</ele>
        <time>2013-10-19T14:40:34Z</time>
      </trkpt>
      <trkpt lat="43.43547" lon="6.00763">
        <ele>270</ele>
        <time>2013-10-19T14:40:35Z</time>
      </trkpt>
      <trkpt lat="43.43539" lon="6.00793">
        <ele>270</ele>
        <time>2013-10-19T14:40:49Z</time>
      </trkpt>
      <trkpt lat="43.43535" lon="6.00806">
        <ele>270</ele>
        <time>2013-10-19T14:40:56Z</time>
      </trkpt>
      <trkpt lat="43.43534" lon="6.00808">
        <ele>270</ele>
        <time>2013-10-19T14:40:57Z</time>
      </trkpt>
      <trkpt lat="43.43528" lon="6.00825">
        <ele>270</ele>
        <time>2013-10-19T14:41:06Z</time>
      </trkpt>
      <trkpt lat="43.43525" lon="6.00844">
        <ele>270</ele>
        <time>2013-10-19T14:41:11Z</time>
      </trkpt>
      <trkpt lat="43.43518" lon="6.00871">
        <ele>270</ele>
        <time>2013-10-19T14:41:17Z</time>
      </trkpt>
      <trkpt lat="43.43512" lon="6.00896">
        <ele>269.39999389648</ele>
        <time>2013-10-19T14:41:21Z</time>
      </trkpt>
      <trkpt lat="43.4351" lon="6.00903">
        <ele>269</ele>
        <time>2013-10-19T14:41:22Z</time>
      </trkpt>
      <trkpt lat="43.43509" lon="6.00911">
        <ele>268.39999389648</ele>
        <time>2013-10-19T14:41:23Z</time>
      </trkpt>
      <trkpt lat="43.43507" lon="6.0092">
        <ele>268</ele>
        <time>2013-10-19T14:41:24Z</time>
      </trkpt>
      <trkpt lat="43.43501" lon="6.00953">
        <ele>266.20001220703</ele>
        <time>2013-10-19T14:41:28Z</time>
      </trkpt>
      <trkpt lat="43.43499" lon="6.00967">
        <ele>264.79998779297</ele>
        <time>2013-10-19T14:41:30Z</time>
      </trkpt>
      <trkpt lat="43.43491" lon="6.01003">
        <ele>261.60000610352</ele>
        <time>2013-10-19T14:41:35Z</time>
      </trkpt>
      <trkpt lat="43.43491" lon="6.01011">
        <ele>260.79998779297</ele>
        <time>2013-10-19T14:41:36Z</time>
      </trkpt>
      <trkpt lat="43.43492" lon="6.01036">
        <ele>258.79998779297</ele>
        <time>2013-10-19T14:41:39Z</time>
      </trkpt>
      <trkpt lat="43.43493" lon="6.01045">
        <ele>258.39999389648</ele>
        <time>2013-10-19T14:41:40Z</time>
      </trkpt>
      <trkpt lat="43.43496" lon="6.01053">
        <ele>257.79998779297</ele>
        <time>2013-10-19T14:41:41Z</time>
      </trkpt>
      <trkpt lat="43.43498" lon="6.01062">
        <ele>257.20001220703</ele>
        <time>2013-10-19T14:41:42Z</time>
      </trkpt>
      <trkpt lat="43.43499" lon="6.01071">
        <ele>256.60000610352</ele>
        <time>2013-10-19T14:41:43Z</time>
      </trkpt>
      <trkpt lat="43.435" lon="6.0108">
        <ele>256.20001220703</ele>
        <time>2013-10-19T14:41:44Z</time>
      </trkpt>
      <trkpt lat="43.435" lon="6.01089">
        <ele>255.80000305176</ele>
        <time>2013-10-19T14:41:45Z</time>
      </trkpt>
      <trkpt lat="43.43498" lon="6.01098">
        <ele>255.39999389648</ele>
        <time>2013-10-19T14:41:46Z</time>
      </trkpt>
      <trkpt lat="43.43493" lon="6.01112">
        <ele>254.60000610352</ele>
        <time>2013-10-19T14:41:48Z</time>
      </trkpt>
      <trkpt lat="43.4348" lon="6.01137">
        <ele>253</ele>
        <time>2013-10-19T14:41:53Z</time>
      </trkpt>
      <trkpt lat="43.43475" lon="6.01149">
        <ele>252</ele>
        <time>2013-10-19T14:41:55Z</time>
      </trkpt>
      <trkpt lat="43.43474" lon="6.01156">
        <ele>252</ele>
        <time>2013-10-19T14:41:56Z</time>
      </trkpt>
      <trkpt lat="43.43475" lon="6.01171">
        <ele>251.60000610352</ele>
        <time>2013-10-19T14:41:58Z</time>
      </trkpt>
      <trkpt lat="43.43475" lon="6.012">
        <ele>249.80000305176</ele>
        <time>2013-10-19T14:42:02Z</time>
      </trkpt>
      <trkpt lat="43.43475" lon="6.01207">
        <ele>249.80000305176</ele>
        <time>2013-10-19T14:42:03Z</time>
      </trkpt>
      <trkpt lat="43.43475" lon="6.01215">
        <ele>249.80000305176</ele>
        <time>2013-10-19T14:42:04Z</time>
      </trkpt>
      <trkpt lat="43.43475" lon="6.01222">
        <ele>249.39999389648</ele>
        <time>2013-10-19T14:42:05Z</time>
      </trkpt>
      <trkpt lat="43.43474" lon="6.0123">
        <ele>249</ele>
        <time>2013-10-19T14:42:06Z</time>
      </trkpt>
      <trkpt lat="43.43471" lon="6.01238">
        <ele>248.60000610352</ele>
        <time>2013-10-19T14:42:07Z</time>
      </trkpt>
      <trkpt lat="43.43464" lon="6.01249">
        <ele>247.60000610352</ele>
        <time>2013-10-19T14:42:09Z</time>
      </trkpt>
      <trkpt lat="43.43454" lon="6.01266">
        <ele>247.60000610352</ele>
        <time>2013-10-19T14:42:12Z</time>
      </trkpt>
      <trkpt lat="43.43453" lon="6.01272">
        <ele>247.19999694824</ele>
        <time>2013-10-19T14:42:13Z</time>
      </trkpt>
      <trkpt lat="43.43452" lon="6.01277">
        <ele>246.80000305176</ele>
        <time>2013-10-19T14:42:14Z</time>
      </trkpt>
      <trkpt lat="43.43451" lon="6.01288">
        <ele>246</ele>
        <time>2013-10-19T14:42:16Z</time>
      </trkpt>
      <trkpt lat="43.43451" lon="6.01292">
        <ele>245.39999389648</ele>
        <time>2013-10-19T14:42:17Z</time>
      </trkpt>
      <trkpt lat="43.43449" lon="6.01296">
        <ele>244.80000305176</ele>
        <time>2013-10-19T14:42:18Z</time>
      </trkpt>
      <trkpt lat="43.43443" lon="6.01306">
        <ele>243.19999694824</ele>
        <time>2013-10-19T14:42:20Z</time>
      </trkpt>
      <trkpt lat="43.43441" lon="6.01311">
        <ele>242.80000305176</ele>
        <time>2013-10-19T14:42:21Z</time>
      </trkpt>
      <trkpt lat="43.43441" lon="6.01313">
        <ele>242.19999694824</ele>
        <time>2013-10-19T14:42:22Z</time>
      </trkpt>
      <trkpt lat="43.4344" lon="6.01316">
        <ele>241.60000610352</ele>
        <time>2013-10-19T14:42:23Z</time>
      </trkpt>
      <trkpt lat="43.4344" lon="6.01317">
        <ele>241</ele>
        <time>2013-10-19T14:42:24Z</time>
      </trkpt>
      <trkpt lat="43.4344" lon="6.01319">
        <ele>241</ele>
        <time>2013-10-19T14:42:27Z</time>
      </trkpt>
      <trkpt lat="43.43439" lon="6.0132">
        <ele>240.60000610352</ele>
        <time>2013-10-19T14:42:31Z</time>
      </trkpt>
      <trkpt lat="43.43439" lon="6.0132">
        <ele>239</ele>
        <time>2013-10-19T14:42:47Z</time>
      </trkpt>
      <trkpt lat="43.43439" lon="6.01321">
        <ele>239</ele>
        <time>2013-10-19T14:43:00Z</time>
      </trkpt>
      <trkpt lat="43.43439" lon="6.01321">
        <ele>239</ele>
        <time>2013-10-19T14:43:21Z</time>
      </trkpt>
      <trkpt lat="43.43438" lon="6.01321">
        <ele>239</ele>
        <time>2013-10-19T14:43:41Z</time>
      </trkpt>
      <trkpt lat="43.43438" lon="6.01321">
        <ele>239</ele>
        <time>2013-10-19T14:43:56Z</time>
      </trkpt>
      <trkpt lat="43.43437" lon="6.01323">
        <ele>239</ele>
        <time>2013-10-19T14:44:06Z</time>
      </trkpt>
      <trkpt lat="43.4343" lon="6.0133">
        <ele>239</ele>
        <time>2013-10-19T14:44:09Z</time>
      </trkpt>
      <trkpt lat="43.43425" lon="6.01337">
        <ele>238.19999694824</ele>
        <time>2013-10-19T14:44:12Z</time>
      </trkpt>
      <trkpt lat="43.43423" lon="6.01338">
        <ele>237.80000305176</ele>
        <time>2013-10-19T14:44:13Z</time>
      </trkpt>
      <trkpt lat="43.43422" lon="6.01342">
        <ele>237.39999389648</ele>
        <time>2013-10-19T14:44:14Z</time>
      </trkpt>
      <trkpt lat="43.43422" lon="6.01344">
        <ele>237</ele>
        <time>2013-10-19T14:44:15Z</time>
      </trkpt>
      <trkpt lat="43.43426" lon="6.0136">
        <ele>237</ele>
        <time>2013-10-19T14:44:20Z</time>
      </trkpt>
      <trkpt lat="43.43428" lon="6.01377">
        <ele>235.39999389648</ele>
        <time>2013-10-19T14:44:24Z</time>
      </trkpt>
      <trkpt lat="43.43431" lon="6.01395">
        <ele>235</ele>
        <time>2013-10-19T14:44:28Z</time>
      </trkpt>
      <trkpt lat="43.43431" lon="6.01407">
        <ele>235</ele>
        <time>2013-10-19T14:44:30Z</time>
      </trkpt>
      <trkpt lat="43.43431" lon="6.01417">
        <ele>234.60000610352</ele>
        <time>2013-10-19T14:44:32Z</time>
      </trkpt>
      <trkpt lat="43.43431" lon="6.01437">
        <ele>232.80000305176</ele>
        <time>2013-10-19T14:44:36Z</time>
      </trkpt>
      <trkpt lat="43.43431" lon="6.0145">
        <ele>232.39999389648</ele>
        <time>2013-10-19T14:44:39Z</time>
      </trkpt>
      <trkpt lat="43.43431" lon="6.0146">
        <ele>231</ele>
        <time>2013-10-19T14:44:42Z</time>
      </trkpt>
      <trkpt lat="43.43434" lon="6.01469">
        <ele>230.60000610352</ele>
        <time>2013-10-19T14:44:44Z</time>
      </trkpt>
      <trkpt lat="43.43443" lon="6.01503">
        <ele>230.60000610352</ele>
        <time>2013-10-19T14:44:51Z</time>
      </trkpt>
      <trkpt lat="43.43446" lon="6.01511">
        <ele>229.80000305176</ele>
        <time>2013-10-19T14:44:53Z</time>
      </trkpt>
      <trkpt lat="43.43449" lon="6.01519">
        <ele>229</ele>
        <time>2013-10-19T14:44:55Z</time>
      </trkpt>
      <trkpt lat="43.43452" lon="6.01523">
        <ele>228.60000610352</ele>
        <time>2013-10-19T14:44:57Z</time>
      </trkpt>
      <trkpt lat="43.4346" lon="6.01524">
        <ele>228.60000610352</ele>
        <time>2013-10-19T14:45:00Z</time>
      </trkpt>
      <trkpt lat="43.43467" lon="6.01526">
        <ele>228.19999694824</ele>
        <time>2013-10-19T14:45:03Z</time>
      </trkpt>
      <trkpt lat="43.4347" lon="6.01527">
        <ele>227.80000305176</ele>
        <time>2013-10-19T14:45:04Z</time>
      </trkpt>
      <trkpt lat="43.43473" lon="6.01527">
        <ele>227.39999389648</ele>
        <time>2013-10-19T14:45:05Z</time>
      </trkpt>
      <trkpt lat="43.43476" lon="6.01527">
        <ele>227</ele>
        <time>2013-10-19T14:45:06Z</time>
      </trkpt>
      <trkpt lat="43.43479" lon="6.01528">
        <ele>226.60000610352</ele>
        <time>2013-10-19T14:45:07Z</time>
      </trkpt>
      <trkpt lat="43.43493" lon="6.01533">
        <ele>226.60000610352</ele>
        <time>2013-10-19T14:45:12Z</time>
      </trkpt>
      <trkpt lat="43.43501" lon="6.01529">
        <ele>226</ele>
        <time>2013-10-19T14:45:14Z</time>
      </trkpt>
      <trkpt lat="43.43511" lon="6.0153">
        <ele>225</ele>
        <time>2013-10-19T14:45:16Z</time>
      </trkpt>
      <trkpt lat="43.4352" lon="6.01533">
        <ele>224.19999694824</ele>
        <time>2013-10-19T14:45:18Z</time>
      </trkpt>
      <trkpt lat="43.43535" lon="6.01541">
        <ele>224.19999694824</ele>
        <time>2013-10-19T14:45:22Z</time>
      </trkpt>
      <trkpt lat="43.43557" lon="6.01545">
        <ele>223.60000610352</ele>
        <time>2013-10-19T14:45:27Z</time>
      </trkpt>
      <trkpt lat="43.43561" lon="6.01546">
        <ele>223.19999694824</ele>
        <time>2013-10-19T14:45:28Z</time>
      </trkpt>
      <trkpt lat="43.43574" lon="6.01548">
        <ele>222</ele>
        <time>2013-10-19T14:45:31Z</time>
      </trkpt>
      <trkpt lat="43.43579" lon="6.01549">
        <ele>222</ele>
        <time>2013-10-19T14:45:32Z</time>
      </trkpt>
      <trkpt lat="43.43592" lon="6.01555">
        <ele>222</ele>
        <time>2013-10-19T14:45:35Z</time>
      </trkpt>
      <trkpt lat="43.43602" lon="6.01559">
        <ele>220.60000610352</ele>
        <time>2013-10-19T14:45:37Z</time>
      </trkpt>
      <trkpt lat="43.43613" lon="6.01567">
        <ele>219.80000305176</ele>
        <time>2013-10-19T14:45:39Z</time>
      </trkpt>
      <trkpt lat="43.43623" lon="6.01581">
        <ele>219.39999389648</ele>
        <time>2013-10-19T14:45:42Z</time>
      </trkpt>
      <trkpt lat="43.43627" lon="6.01585">
        <ele>219</ele>
        <time>2013-10-19T14:45:43Z</time>
      </trkpt>
      <trkpt lat="43.43655" lon="6.01635">
        <ele>217.80000305176</ele>
        <time>2013-10-19T14:45:52Z</time>
      </trkpt>
      <trkpt lat="43.43675" lon="6.01644">
        <ele>217.80000305176</ele>
        <time>2013-10-19T14:45:56Z</time>
      </trkpt>
      <trkpt lat="43.43685" lon="6.01646">
        <ele>217</ele>
        <time>2013-10-19T14:45:58Z</time>
      </trkpt>
      <trkpt lat="43.4369" lon="6.01647">
        <ele>216.60000610352</ele>
        <time>2013-10-19T14:45:59Z</time>
      </trkpt>
      <trkpt lat="43.43696" lon="6.01649">
        <ele>216.19999694824</ele>
        <time>2013-10-19T14:46:00Z</time>
      </trkpt>
      <trkpt lat="43.437" lon="6.01654">
        <ele>215.80000305176</ele>
        <time>2013-10-19T14:46:01Z</time>
      </trkpt>
      <trkpt lat="43.43704" lon="6.01658">
        <ele>215.80000305176</ele>
        <time>2013-10-19T14:46:02Z</time>
      </trkpt>
      <trkpt lat="43.43708" lon="6.01663">
        <ele>215.39999389648</ele>
        <time>2013-10-19T14:46:03Z</time>
      </trkpt>
      <trkpt lat="43.43712" lon="6.01668">
        <ele>215</ele>
        <time>2013-10-19T14:46:04Z</time>
      </trkpt>
      <trkpt lat="43.43716" lon="6.01672">
        <ele>214.39999389648</ele>
        <time>2013-10-19T14:46:05Z</time>
      </trkpt>
      <trkpt lat="43.4372" lon="6.01676">
        <ele>214</ele>
        <time>2013-10-19T14:46:06Z</time>
      </trkpt>
      <trkpt lat="43.43724" lon="6.01678">
        <ele>213.60000610352</ele>
        <time>2013-10-19T14:46:07Z</time>
      </trkpt>
      <trkpt lat="43.43732" lon="6.01682">
        <ele>213.60000610352</ele>
        <time>2013-10-19T14:46:10Z</time>
      </trkpt>
      <trkpt lat="43.43736" lon="6.01684">
        <ele>213.19999694824</ele>
        <time>2013-10-19T14:46:12Z</time>
      </trkpt>
      <trkpt lat="43.43739" lon="6.01685">
        <ele>212.80000305176</ele>
        <time>2013-10-19T14:46:13Z</time>
      </trkpt>
      <trkpt lat="43.43739" lon="6.01686">
        <ele>212.39999389648</ele>
        <time>2013-10-19T14:46:14Z</time>
      </trkpt>
      <trkpt lat="43.4374" lon="6.01686">
        <ele>212</ele>
        <time>2013-10-19T14:46:15Z</time>
      </trkpt>
      <trkpt lat="43.4374" lon="6.01686">
        <ele>211.60000610352</ele>
        <time>2013-10-19T14:46:16Z</time>
      </trkpt>
      <trkpt lat="43.4374" lon="6.01685">
        <ele>211.60000610352</ele>
        <time>2013-10-19T14:46:17Z</time>
      </trkpt>
      <trkpt lat="43.4374" lon="6.01685">
        <ele>211.60000610352</ele>
        <time>2013-10-19T14:46:39Z</time>
      </trkpt>
      <trkpt lat="43.4374" lon="6.01685">
        <ele>211.60000610352</ele>
        <time>2013-10-19T14:47:29Z</time>
      </trkpt>
      <trkpt lat="43.43741" lon="6.01686">
        <ele>211.60000610352</ele>
        <time>2013-10-19T14:47:34Z</time>
      </trkpt>
      <trkpt lat="43.43742" lon="6.01686">
        <ele>211.60000610352</ele>
        <time>2013-10-19T14:47:35Z</time>
      </trkpt>
      <trkpt lat="43.43756" lon="6.0169">
        <ele>211.60000610352</ele>
        <time>2013-10-19T14:47:40Z</time>
      </trkpt>
      <trkpt lat="43.43769" lon="6.01697">
        <ele>211.19999694824</ele>
        <time>2013-10-19T14:47:44Z</time>
      </trkpt>
      <trkpt lat="43.43773" lon="6.01699">
        <ele>210.60000610352</ele>
        <time>2013-10-19T14:47:45Z</time>
      </trkpt>
      <trkpt lat="43.43777" lon="6.017">
        <ele>210.19999694824</ele>
        <time>2013-10-19T14:47:46Z</time>
      </trkpt>
      <trkpt lat="43.43782" lon="6.01701">
        <ele>209.80000305176</ele>
        <time>2013-10-19T14:47:47Z</time>
      </trkpt>
      <trkpt lat="43.43787" lon="6.01702">
        <ele>209.39999389648</ele>
        <time>2013-10-19T14:47:48Z</time>
      </trkpt>
      <trkpt lat="43.43792" lon="6.01701">
        <ele>209.39999389648</ele>
        <time>2013-10-19T14:47:49Z</time>
      </trkpt>
      <trkpt lat="43.43797" lon="6.01701">
        <ele>209.39999389648</ele>
        <time>2013-10-19T14:47:50Z</time>
      </trkpt>
      <trkpt lat="43.43821" lon="6.01693">
        <ele>209</ele>
        <time>2013-10-19T14:47:55Z</time>
      </trkpt>
      <trkpt lat="43.43826" lon="6.0169">
        <ele>208.60000610352</ele>
        <time>2013-10-19T14:47:56Z</time>
      </trkpt>
      <trkpt lat="43.4383" lon="6.01688">
        <ele>208.19999694824</ele>
        <time>2013-10-19T14:47:57Z</time>
      </trkpt>
      <trkpt lat="43.43835" lon="6.01686">
        <ele>207.60000610352</ele>
        <time>2013-10-19T14:47:58Z</time>
      </trkpt>
      <trkpt lat="43.43839" lon="6.01683">
        <ele>207.19999694824</ele>
        <time>2013-10-19T14:47:59Z</time>
      </trkpt>
      <trkpt lat="43.43847" lon="6.01677">
        <ele>207.19999694824</ele>
        <time>2013-10-19T14:48:01Z</time>
      </trkpt>
      <trkpt lat="43.43865" lon="6.01663">
        <ele>207.19999694824</ele>
        <time>2013-10-19T14:48:06Z</time>
      </trkpt>
      <trkpt lat="43.43867" lon="6.01664">
        <ele>207.19999694824</ele>
        <time>2013-10-19T14:48:07Z</time>
      </trkpt>
      <trkpt lat="43.43869" lon="6.01679">
        <ele>207.19999694824</ele>
        <time>2013-10-19T14:48:11Z</time>
      </trkpt>
      <trkpt lat="43.43869" lon="6.01685">
        <ele>207.19999694824</ele>
        <time>2013-10-19T14:48:12Z</time>
      </trkpt>
      <trkpt lat="43.4387" lon="6.01695">
        <ele>206.80000305176</ele>
        <time>2013-10-19T14:48:14Z</time>
      </trkpt>
      <trkpt lat="43.43871" lon="6.017">
        <ele>206.39999389648</ele>
        <time>2013-10-19T14:48:15Z</time>
      </trkpt>
      <trkpt lat="43.43872" lon="6.01706">
        <ele>206</ele>
        <time>2013-10-19T14:48:16Z</time>
      </trkpt>
      <trkpt lat="43.43875" lon="6.01718">
        <ele>205</ele>
        <time>2013-10-19T14:48:18Z</time>
      </trkpt>
      <trkpt lat="43.43884" lon="6.01745">
        <ele>205</ele>
        <time>2013-10-19T14:48:22Z</time>
      </trkpt>
      <trkpt lat="43.43887" lon="6.01767">
        <ele>204.60000610352</ele>
        <time>2013-10-19T14:48:25Z</time>
      </trkpt>
      <trkpt lat="43.43887" lon="6.01774">
        <ele>204.19999694824</ele>
        <time>2013-10-19T14:48:26Z</time>
      </trkpt>
      <trkpt lat="43.43882" lon="6.01791">
        <ele>202.80000305176</ele>
        <time>2013-10-19T14:48:28Z</time>
      </trkpt>
      <trkpt lat="43.4388" lon="6.01799">
        <ele>202.80000305176</ele>
        <time>2013-10-19T14:48:29Z</time>
      </trkpt>
      <trkpt lat="43.43879" lon="6.01808">
        <ele>202.39999389648</ele>
        <time>2013-10-19T14:48:30Z</time>
      </trkpt>
      <trkpt lat="43.43877" lon="6.01828">
        <ele>201.60000610352</ele>
        <time>2013-10-19T14:48:32Z</time>
      </trkpt>
      <trkpt lat="43.43877" lon="6.01838">
        <ele>201</ele>
        <time>2013-10-19T14:48:33Z</time>
      </trkpt>
      <trkpt lat="43.43875" lon="6.01847">
        <ele>200.60000610352</ele>
        <time>2013-10-19T14:48:34Z</time>
      </trkpt>
      <trkpt lat="43.43874" lon="6.01857">
        <ele>200.19999694824</ele>
        <time>2013-10-19T14:48:35Z</time>
      </trkpt>
      <trkpt lat="43.43872" lon="6.01866">
        <ele>199.80000305176</ele>
        <time>2013-10-19T14:48:36Z</time>
      </trkpt>
      <trkpt lat="43.43871" lon="6.01874">
        <ele>199.39999389648</ele>
        <time>2013-10-19T14:48:37Z</time>
      </trkpt>
      <trkpt lat="43.43869" lon="6.01882">
        <ele>199</ele>
        <time>2013-10-19T14:48:38Z</time>
      </trkpt>
      <trkpt lat="43.43867" lon="6.01891">
        <ele>198.60000610352</ele>
        <time>2013-10-19T14:48:39Z</time>
      </trkpt>
      <trkpt lat="43.43866" lon="6.01899">
        <ele>198.60000610352</ele>
        <time>2013-10-19T14:48:40Z</time>
      </trkpt>
      <trkpt lat="43.43864" lon="6.01906">
        <ele>198.60000610352</ele>
        <time>2013-10-19T14:48:41Z</time>
      </trkpt>
      <trkpt lat="43.4386" lon="6.01922">
        <ele>198.60000610352</ele>
        <time>2013-10-19T14:48:43Z</time>
      </trkpt>
      <trkpt lat="43.43852" lon="6.0194">
        <ele>198.60000610352</ele>
        <time>2013-10-19T14:48:46Z</time>
      </trkpt>
      <trkpt lat="43.43845" lon="6.01957">
        <ele>197.80000305176</ele>
        <time>2013-10-19T14:48:49Z</time>
      </trkpt>
      <trkpt lat="43.43841" lon="6.01967">
        <ele>197</ele>
        <time>2013-10-19T14:48:51Z</time>
      </trkpt>
      <trkpt lat="43.43839" lon="6.01972">
        <ele>196.60000610352</ele>
        <time>2013-10-19T14:48:52Z</time>
      </trkpt>
      <trkpt lat="43.43839" lon="6.01991">
        <ele>196.60000610352</ele>
        <time>2013-10-19T14:48:55Z</time>
      </trkpt>
      <trkpt lat="43.43837" lon="6.02012">
        <ele>196.60000610352</ele>
        <time>2013-10-19T14:48:58Z</time>
      </trkpt>
      <trkpt lat="43.43833" lon="6.02041">
        <ele>196.60000610352</ele>
        <time>2013-10-19T14:49:02Z</time>
      </trkpt>
      <trkpt lat="43.43829" lon="6.02052">
        <ele>196.60000610352</ele>
        <time>2013-10-19T14:49:04Z</time>
      </trkpt>
      <trkpt lat="43.43817" lon="6.02079">
        <ele>196.60000610352</ele>
        <time>2013-10-19T14:49:09Z</time>
      </trkpt>
      <trkpt lat="43.43812" lon="6.02106">
        <ele>196.60000610352</ele>
        <time>2013-10-19T14:49:13Z</time>
      </trkpt>
      <trkpt lat="43.43796" lon="6.02128">
        <ele>196.60000610352</ele>
        <time>2013-10-19T14:49:17Z</time>
      </trkpt>
      <trkpt lat="43.43783" lon="6.02143">
        <ele>196.60000610352</ele>
        <time>2013-10-19T14:49:20Z</time>
      </trkpt>
      <trkpt lat="43.4378" lon="6.02149">
        <ele>196.60000610352</ele>
        <time>2013-10-19T14:49:21Z</time>
      </trkpt>
      <trkpt lat="43.43776" lon="6.02161">
        <ele>196.60000610352</ele>
        <time>2013-10-19T14:49:23Z</time>
      </trkpt>
      <trkpt lat="43.4377" lon="6.0217">
        <ele>196.60000610352</ele>
        <time>2013-10-19T14:49:25Z</time>
      </trkpt>
      <trkpt lat="43.43766" lon="6.02201">
        <ele>196.60000610352</ele>
        <time>2013-10-19T14:49:30Z</time>
      </trkpt>
      <trkpt lat="43.43763" lon="6.0222">
        <ele>195.19999694824</ele>
        <time>2013-10-19T14:49:33Z</time>
      </trkpt>
      <trkpt lat="43.4376" lon="6.0223">
        <ele>194.39999389648</ele>
        <time>2013-10-19T14:49:35Z</time>
      </trkpt>
      <trkpt lat="43.43756" lon="6.02244">
        <ele>194.39999389648</ele>
        <time>2013-10-19T14:49:38Z</time>
      </trkpt>
      <trkpt lat="43.43748" lon="6.02258">
        <ele>194.39999389648</ele>
        <time>2013-10-19T14:49:42Z</time>
      </trkpt>
      <trkpt lat="43.43742" lon="6.0227">
        <ele>194.80000305176</ele>
        <time>2013-10-19T14:49:47Z</time>
      </trkpt>
      <trkpt lat="43.4374" lon="6.0228">
        <ele>196</ele>
        <time>2013-10-19T14:49:50Z</time>
      </trkpt>
      <trkpt lat="43.4373" lon="6.02301">
        <ele>197</ele>
        <time>2013-10-19T14:49:57Z</time>
      </trkpt>
      <trkpt lat="43.43728" lon="6.02307">
        <ele>197.80000305176</ele>
        <time>2013-10-19T14:49:59Z</time>
      </trkpt>
      <trkpt lat="43.43727" lon="6.02309">
        <ele>198.19999694824</ele>
        <time>2013-10-19T14:50:00Z</time>
      </trkpt>
      <trkpt lat="43.43726" lon="6.02312">
        <ele>198.60000610352</ele>
        <time>2013-10-19T14:50:01Z</time>
      </trkpt>
      <trkpt lat="43.43717" lon="6.02322">
        <ele>200</ele>
        <time>2013-10-19T14:50:08Z</time>
      </trkpt>
      <trkpt lat="43.43716" lon="6.02324">
        <ele>200.39999389648</ele>
        <time>2013-10-19T14:50:09Z</time>
      </trkpt>
      <trkpt lat="43.43713" lon="6.02336">
        <ele>200.80000305176</ele>
        <time>2013-10-19T14:50:16Z</time>
      </trkpt>
      <trkpt lat="43.43714" lon="6.02338">
        <ele>200.80000305176</ele>
        <time>2013-10-19T14:50:17Z</time>
      </trkpt>
      <trkpt lat="43.43715" lon="6.02342">
        <ele>200.80000305176</ele>
        <time>2013-10-19T14:50:20Z</time>
      </trkpt>
      <trkpt lat="43.43716" lon="6.02344">
        <ele>201.19999694824</ele>
        <time>2013-10-19T14:50:22Z</time>
      </trkpt>
      <trkpt lat="43.43716" lon="6.02344">
        <ele>202.80000305176</ele>
        <time>2013-10-19T14:50:36Z</time>
      </trkpt>
      <trkpt lat="43.43716" lon="6.02344">
        <ele>202.80000305176</ele>
        <time>2013-10-19T14:50:43Z</time>
      </trkpt>
      <trkpt lat="43.43716" lon="6.02344">
        <ele>202.80000305176</ele>
        <time>2013-10-19T14:50:47Z</time>
      </trkpt>
      <trkpt lat="43.43716" lon="6.02344">
        <ele>202.80000305176</ele>
        <time>2013-10-19T14:51:03Z</time>
      </trkpt>
      <trkpt lat="43.43716" lon="6.02344">
        <ele>202.80000305176</ele>
        <time>2013-10-19T14:51:25Z</time>
      </trkpt>
      <trkpt lat="43.43716" lon="6.02344">
        <ele>202.80000305176</ele>
        <time>2013-10-19T14:51:34Z</time>
      </trkpt>
      <trkpt lat="43.43716" lon="6.02345">
        <ele>202.80000305176</ele>
        <time>2013-10-19T14:51:53Z</time>
      </trkpt>
      <trkpt lat="43.43716" lon="6.02345">
        <ele>202.80000305176</ele>
        <time>2013-10-19T14:52:00Z</time>
      </trkpt>
      <trkpt lat="43.43716" lon="6.02345">
        <ele>202.80000305176</ele>
        <time>2013-10-19T14:52:07Z</time>
      </trkpt>
      <trkpt lat="43.43717" lon="6.02349">
        <ele>202.80000305176</ele>
        <time>2013-10-19T14:52:09Z</time>
      </trkpt>
      <trkpt lat="43.43719" lon="6.02354">
        <ele>202.80000305176</ele>
        <time>2013-10-19T14:52:11Z</time>
      </trkpt>
      <trkpt lat="43.43722" lon="6.02357">
        <ele>202.80000305176</ele>
        <time>2013-10-19T14:52:13Z</time>
      </trkpt>
      <trkpt lat="43.4373" lon="6.02358">
        <ele>202.80000305176</ele>
        <time>2013-10-19T14:52:16Z</time>
      </trkpt>
      <trkpt lat="43.43736" lon="6.02368">
        <ele>202.80000305176</ele>
        <time>2013-10-19T14:52:19Z</time>
      </trkpt>
      <trkpt lat="43.43739" lon="6.02377">
        <ele>202.39999389648</ele>
        <time>2013-10-19T14:52:21Z</time>
      </trkpt>
      <trkpt lat="43.43739" lon="6.02382">
        <ele>202</ele>
        <time>2013-10-19T14:52:22Z</time>
      </trkpt>
      <trkpt lat="43.4374" lon="6.02386">
        <ele>201.60000610352</ele>
        <time>2013-10-19T14:52:23Z</time>
      </trkpt>
      <trkpt lat="43.43741" lon="6.02389">
        <ele>201.19999694824</ele>
        <time>2013-10-19T14:52:24Z</time>
      </trkpt>
      <trkpt lat="43.43743" lon="6.02393">
        <ele>200.80000305176</ele>
        <time>2013-10-19T14:52:25Z</time>
      </trkpt>
      <trkpt lat="43.43751" lon="6.02401">
        <ele>200.80000305176</ele>
        <time>2013-10-19T14:52:28Z</time>
      </trkpt>
      <trkpt lat="43.43757" lon="6.02413">
        <ele>199.39999389648</ele>
        <time>2013-10-19T14:52:31Z</time>
      </trkpt>
      <trkpt lat="43.43761" lon="6.02418">
        <ele>198.60000610352</ele>
        <time>2013-10-19T14:52:33Z</time>
      </trkpt>
      <trkpt lat="43.43768" lon="6.02428">
        <ele>198.60000610352</ele>
        <time>2013-10-19T14:52:37Z</time>
      </trkpt>
      <trkpt lat="43.43769" lon="6.02442">
        <ele>198.60000610352</ele>
        <time>2013-10-19T14:52:41Z</time>
      </trkpt>
      <trkpt lat="43.43773" lon="6.02452">
        <ele>197.80000305176</ele>
        <time>2013-10-19T14:52:44Z</time>
      </trkpt>
      <trkpt lat="43.43775" lon="6.02462">
        <ele>196</ele>
        <time>2013-10-19T14:52:48Z</time>
      </trkpt>
      <trkpt lat="43.43776" lon="6.02465">
        <ele>195.39999389648</ele>
        <time>2013-10-19T14:52:49Z</time>
      </trkpt>
      <trkpt lat="43.43785" lon="6.02471">
        <ele>194.39999389648</ele>
        <time>2013-10-19T14:52:53Z</time>
      </trkpt>
      <trkpt lat="43.43789" lon="6.02473">
        <ele>194.39999389648</ele>
        <time>2013-10-19T14:52:55Z</time>
      </trkpt>
      <trkpt lat="43.43791" lon="6.02473">
        <ele>194.39999389648</ele>
        <time>2013-10-19T14:52:56Z</time>
      </trkpt>
      <trkpt lat="43.43795" lon="6.02474">
        <ele>194.39999389648</ele>
        <time>2013-10-19T14:52:59Z</time>
      </trkpt>
      <trkpt lat="43.43797" lon="6.02485">
        <ele>194</ele>
        <time>2013-10-19T14:53:04Z</time>
      </trkpt>
      <trkpt lat="43.43798" lon="6.02486">
        <ele>193.60000610352</ele>
        <time>2013-10-19T14:53:05Z</time>
      </trkpt>
      <trkpt lat="43.43798" lon="6.02486">
        <ele>192.39999389648</ele>
        <time>2013-10-19T14:53:13Z</time>
      </trkpt>
      <trkpt lat="43.43797" lon="6.02488">
        <ele>192.39999389648</ele>
        <time>2013-10-19T14:53:24Z</time>
      </trkpt>
      <trkpt lat="43.43798" lon="6.02506">
        <ele>192.39999389648</ele>
        <time>2013-10-19T14:53:30Z</time>
      </trkpt>
      <trkpt lat="43.43797" lon="6.02516">
        <ele>192.39999389648</ele>
        <time>2013-10-19T14:53:32Z</time>
      </trkpt>
      <trkpt lat="43.43792" lon="6.02527">
        <ele>192.39999389648</ele>
        <time>2013-10-19T14:53:35Z</time>
      </trkpt>
      <trkpt lat="43.4379" lon="6.02534">
        <ele>192.39999389648</ele>
        <time>2013-10-19T14:53:37Z</time>
      </trkpt>
      <trkpt lat="43.43789" lon="6.02538">
        <ele>192.80000305176</ele>
        <time>2013-10-19T14:53:38Z</time>
      </trkpt>
      <trkpt lat="43.4379" lon="6.02547">
        <ele>193.60000610352</ele>
        <time>2013-10-19T14:53:40Z</time>
      </trkpt>
      <trkpt lat="43.4379" lon="6.02556">
        <ele>194.39999389648</ele>
        <time>2013-10-19T14:53:42Z</time>
      </trkpt>
      <trkpt lat="43.4379" lon="6.02561">
        <ele>194.39999389648</ele>
        <time>2013-10-19T14:53:43Z</time>
      </trkpt>
      <trkpt lat="43.43793" lon="6.02578">
        <ele>194.39999389648</ele>
        <time>2013-10-19T14:53:46Z</time>
      </trkpt>
      <trkpt lat="43.43792" lon="6.02605">
        <ele>194.39999389648</ele>
        <time>2013-10-19T14:53:51Z</time>
      </trkpt>
      <trkpt lat="43.4379" lon="6.02611">
        <ele>194.39999389648</ele>
        <time>2013-10-19T14:53:52Z</time>
      </trkpt>
      <trkpt lat="43.43784" lon="6.02637">
        <ele>194.39999389648</ele>
        <time>2013-10-19T14:53:57Z</time>
      </trkpt>
      <trkpt lat="43.43785" lon="6.02658">
        <ele>194.39999389648</ele>
        <time>2013-10-19T14:54:01Z</time>
      </trkpt>
      <trkpt lat="43.43784" lon="6.02673">
        <ele>194.39999389648</ele>
        <time>2013-10-19T14:54:04Z</time>
      </trkpt>
      <trkpt lat="43.43785" lon="6.02676">
        <ele>194.39999389648</ele>
        <time>2013-10-19T14:54:05Z</time>
      </trkpt>
      <trkpt lat="43.43783" lon="6.02685">
        <ele>194.39999389648</ele>
        <time>2013-10-19T14:54:08Z</time>
      </trkpt>
      <trkpt lat="43.43779" lon="6.0269">
        <ele>194.39999389648</ele>
        <time>2013-10-19T14:54:10Z</time>
      </trkpt>
      <trkpt lat="43.43776" lon="6.02696">
        <ele>194.39999389648</ele>
        <time>2013-10-19T14:54:12Z</time>
      </trkpt>
      <trkpt lat="43.43773" lon="6.02697">
        <ele>194.39999389648</ele>
        <time>2013-10-19T14:54:13Z</time>
      </trkpt>
      <trkpt lat="43.43764" lon="6.02702">
        <ele>194.39999389648</ele>
        <time>2013-10-19T14:54:17Z</time>
      </trkpt>
      <trkpt lat="43.43769" lon="6.02709">
        <ele>194.39999389648</ele>
        <time>2013-10-19T14:54:21Z</time>
      </trkpt>
      <trkpt lat="43.43775" lon="6.02714">
        <ele>194</ele>
        <time>2013-10-19T14:54:23Z</time>
      </trkpt>
      <trkpt lat="43.43779" lon="6.02715">
        <ele>193.60000610352</ele>
        <time>2013-10-19T14:54:24Z</time>
      </trkpt>
      <trkpt lat="43.43783" lon="6.02718">
        <ele>192.80000305176</ele>
        <time>2013-10-19T14:54:26Z</time>
      </trkpt>
      <trkpt lat="43.43784" lon="6.02723">
        <ele>192.39999389648</ele>
        <time>2013-10-19T14:54:28Z</time>
      </trkpt>
      <trkpt lat="43.43787" lon="6.02737">
        <ele>192.39999389648</ele>
        <time>2013-10-19T14:54:32Z</time>
      </trkpt>
      <trkpt lat="43.43787" lon="6.0274">
        <ele>192.39999389648</ele>
        <time>2013-10-19T14:54:33Z</time>
      </trkpt>
      <trkpt lat="43.43786" lon="6.02753">
        <ele>192.39999389648</ele>
        <time>2013-10-19T14:54:36Z</time>
      </trkpt>
      <trkpt lat="43.43784" lon="6.02769">
        <ele>192.39999389648</ele>
        <time>2013-10-19T14:54:40Z</time>
      </trkpt>
      <trkpt lat="43.43787" lon="6.02778">
        <ele>192.39999389648</ele>
        <time>2013-10-19T14:54:42Z</time>
      </trkpt>
      <trkpt lat="43.43795" lon="6.02796">
        <ele>192.39999389648</ele>
        <time>2013-10-19T14:54:47Z</time>
      </trkpt>
      <trkpt lat="43.43797" lon="6.02798">
        <ele>192.39999389648</ele>
        <time>2013-10-19T14:54:48Z</time>
      </trkpt>
      <trkpt lat="43.43802" lon="6.02804">
        <ele>192.39999389648</ele>
        <time>2013-10-19T14:54:50Z</time>
      </trkpt>
      <trkpt lat="43.43806" lon="6.02815">
        <ele>191.19999694824</ele>
        <time>2013-10-19T14:54:53Z</time>
      </trkpt>
      <trkpt lat="43.43806" lon="6.02824">
        <ele>190.19999694824</ele>
        <time>2013-10-19T14:54:55Z</time>
      </trkpt>
      <trkpt lat="43.43803" lon="6.02838">
        <ele>190.19999694824</ele>
        <time>2013-10-19T14:54:58Z</time>
      </trkpt>
      <trkpt lat="43.43796" lon="6.02863">
        <ele>190.19999694824</ele>
        <time>2013-10-19T14:55:04Z</time>
      </trkpt>
      <trkpt lat="43.43793" lon="6.02879">
        <ele>190.19999694824</ele>
        <time>2013-10-19T14:55:09Z</time>
      </trkpt>
      <trkpt lat="43.43793" lon="6.02881">
        <ele>190.19999694824</ele>
        <time>2013-10-19T14:55:13Z</time>
      </trkpt>
      <trkpt lat="43.43793" lon="6.02891">
        <ele>190.19999694824</ele>
        <time>2013-10-19T14:55:17Z</time>
      </trkpt>
      <trkpt lat="43.43792" lon="6.02906">
        <ele>190.19999694824</ele>
        <time>2013-10-19T14:55:21Z</time>
      </trkpt>
      <trkpt lat="43.43795" lon="6.02921">
        <ele>189.80000305176</ele>
        <time>2013-10-19T14:55:24Z</time>
      </trkpt>
      <trkpt lat="43.43794" lon="6.02926">
        <ele>189.39999389648</ele>
        <time>2013-10-19T14:55:25Z</time>
      </trkpt>
      <trkpt lat="43.43793" lon="6.02932">
        <ele>189</ele>
        <time>2013-10-19T14:55:26Z</time>
      </trkpt>
      <trkpt lat="43.43792" lon="6.02937">
        <ele>188.60000610352</ele>
        <time>2013-10-19T14:55:27Z</time>
      </trkpt>
      <trkpt lat="43.4379" lon="6.02942">
        <ele>188.19999694824</ele>
        <time>2013-10-19T14:55:28Z</time>
      </trkpt>
      <trkpt lat="43.43785" lon="6.02956">
        <ele>188.19999694824</ele>
        <time>2013-10-19T14:55:31Z</time>
      </trkpt>
      <trkpt lat="43.43784" lon="6.0296">
        <ele>188.19999694824</ele>
        <time>2013-10-19T14:55:32Z</time>
      </trkpt>
      <trkpt lat="43.43783" lon="6.0298">
        <ele>188.19999694824</ele>
        <time>2013-10-19T14:55:36Z</time>
      </trkpt>
      <trkpt lat="43.43775" lon="6.02998">
        <ele>188.19999694824</ele>
        <time>2013-10-19T14:55:40Z</time>
      </trkpt>
      <trkpt lat="43.43766" lon="6.03016">
        <ele>188.19999694824</ele>
        <time>2013-10-19T14:55:45Z</time>
      </trkpt>
      <trkpt lat="43.43761" lon="6.03027">
        <ele>188.19999694824</ele>
        <time>2013-10-19T14:55:49Z</time>
      </trkpt>
      <trkpt lat="43.4375" lon="6.03037">
        <ele>188.19999694824</ele>
        <time>2013-10-19T14:55:54Z</time>
      </trkpt>
      <trkpt lat="43.43737" lon="6.03043">
        <ele>188.19999694824</ele>
        <time>2013-10-19T14:55:59Z</time>
      </trkpt>
      <trkpt lat="43.4373" lon="6.03047">
        <ele>188.19999694824</ele>
        <time>2013-10-19T14:56:02Z</time>
      </trkpt>
      <trkpt lat="43.43711" lon="6.03059">
        <ele>188.19999694824</ele>
        <time>2013-10-19T14:56:10Z</time>
      </trkpt>
      <trkpt lat="43.43701" lon="6.03071">
        <ele>188.19999694824</ele>
        <time>2013-10-19T14:56:15Z</time>
      </trkpt>
      <trkpt lat="43.43695" lon="6.03089">
        <ele>188.19999694824</ele>
        <time>2013-10-19T14:56:20Z</time>
      </trkpt>
      <trkpt lat="43.43694" lon="6.03096">
        <ele>188.19999694824</ele>
        <time>2013-10-19T14:56:24Z</time>
      </trkpt>
      <trkpt lat="43.43694" lon="6.03096">
        <ele>188.19999694824</ele>
        <time>2013-10-19T14:56:36Z</time>
      </trkpt>
      <trkpt lat="43.43693" lon="6.03102">
        <ele>188.19999694824</ele>
        <time>2013-10-19T14:56:45Z</time>
      </trkpt>
      <trkpt lat="43.43689" lon="6.03119">
        <ele>188.19999694824</ele>
        <time>2013-10-19T14:56:51Z</time>
      </trkpt>
      <trkpt lat="43.43691" lon="6.03131">
        <ele>188.19999694824</ele>
        <time>2013-10-19T14:56:55Z</time>
      </trkpt>
      <trkpt lat="43.43692" lon="6.03135">
        <ele>188.19999694824</ele>
        <time>2013-10-19T14:56:59Z</time>
      </trkpt>
      <trkpt lat="43.43691" lon="6.03137">
        <ele>188.19999694824</ele>
        <time>2013-10-19T14:57:01Z</time>
      </trkpt>
      <trkpt lat="43.4369" lon="6.03141">
        <ele>188.19999694824</ele>
        <time>2013-10-19T14:57:03Z</time>
      </trkpt>
      <trkpt lat="43.43688" lon="6.03141">
        <ele>188.19999694824</ele>
        <time>2013-10-19T14:57:05Z</time>
      </trkpt>
      <trkpt lat="43.43688" lon="6.03144">
        <ele>189.39999389648</ele>
        <time>2013-10-19T14:57:07Z</time>
      </trkpt>
      <trkpt lat="43.43688" lon="6.03146">
        <ele>189.80000305176</ele>
        <time>2013-10-19T14:57:08Z</time>
      </trkpt>
      <trkpt lat="43.4369" lon="6.0315">
        <ele>190.19999694824</ele>
        <time>2013-10-19T14:57:10Z</time>
      </trkpt>
      <trkpt lat="43.43694" lon="6.0316">
        <ele>190.19999694824</ele>
        <time>2013-10-19T14:57:15Z</time>
      </trkpt>
      <trkpt lat="43.43693" lon="6.03166">
        <ele>190.19999694824</ele>
        <time>2013-10-19T14:57:17Z</time>
      </trkpt>
      <trkpt lat="43.43694" lon="6.03191">
        <ele>190.19999694824</ele>
        <time>2013-10-19T14:57:24Z</time>
      </trkpt>
      <trkpt lat="43.43693" lon="6.03194">
        <ele>190.19999694824</ele>
        <time>2013-10-19T14:57:25Z</time>
      </trkpt>
      <trkpt lat="43.43687" lon="6.03214">
        <ele>190.19999694824</ele>
        <time>2013-10-19T14:57:30Z</time>
      </trkpt>
      <trkpt lat="43.43686" lon="6.03234">
        <ele>190.19999694824</ele>
        <time>2013-10-19T14:57:35Z</time>
      </trkpt>
      <trkpt lat="43.43689" lon="6.03247">
        <ele>190.19999694824</ele>
        <time>2013-10-19T14:57:39Z</time>
      </trkpt>
      <trkpt lat="43.43687" lon="6.03268">
        <ele>190.19999694824</ele>
        <time>2013-10-19T14:57:44Z</time>
      </trkpt>
      <trkpt lat="43.43675" lon="6.03293">
        <ele>190.19999694824</ele>
        <time>2013-10-19T14:57:51Z</time>
      </trkpt>
      <trkpt lat="43.4367" lon="6.03297">
        <ele>189.80000305176</ele>
        <time>2013-10-19T14:57:53Z</time>
      </trkpt>
      <trkpt lat="43.43667" lon="6.033">
        <ele>189.39999389648</ele>
        <time>2013-10-19T14:57:54Z</time>
      </trkpt>
      <trkpt lat="43.43665" lon="6.03303">
        <ele>189</ele>
        <time>2013-10-19T14:57:55Z</time>
      </trkpt>
      <trkpt lat="43.43662" lon="6.03311">
        <ele>188.19999694824</ele>
        <time>2013-10-19T14:57:58Z</time>
      </trkpt>
      <trkpt lat="43.43663" lon="6.03316">
        <ele>188.19999694824</ele>
        <time>2013-10-19T14:58:01Z</time>
      </trkpt>
      <trkpt lat="43.43662" lon="6.03321">
        <ele>188.19999694824</ele>
        <time>2013-10-19T14:58:04Z</time>
      </trkpt>
      <trkpt lat="43.43661" lon="6.03323">
        <ele>188.19999694824</ele>
        <time>2013-10-19T14:58:05Z</time>
      </trkpt>
      <trkpt lat="43.43659" lon="6.03324">
        <ele>188.19999694824</ele>
        <time>2013-10-19T14:58:06Z</time>
      </trkpt>
      <trkpt lat="43.43655" lon="6.03331">
        <ele>188.19999694824</ele>
        <time>2013-10-19T14:58:10Z</time>
      </trkpt>
      <trkpt lat="43.43648" lon="6.03342">
        <ele>188.19999694824</ele>
        <time>2013-10-19T14:58:15Z</time>
      </trkpt>
      <trkpt lat="43.43646" lon="6.03345">
        <ele>188.19999694824</ele>
        <time>2013-10-19T14:58:16Z</time>
      </trkpt>
      <trkpt lat="43.43642" lon="6.03356">
        <ele>188.19999694824</ele>
        <time>2013-10-19T14:58:19Z</time>
      </trkpt>
      <trkpt lat="43.43637" lon="6.03367">
        <ele>188.19999694824</ele>
        <time>2013-10-19T14:58:22Z</time>
      </trkpt>
      <trkpt lat="43.43625" lon="6.0339">
        <ele>188.19999694824</ele>
        <time>2013-10-19T14:58:28Z</time>
      </trkpt>
      <trkpt lat="43.43624" lon="6.03397">
        <ele>188.19999694824</ele>
        <time>2013-10-19T14:58:30Z</time>
      </trkpt>
      <trkpt lat="43.43626" lon="6.03427">
        <ele>188.19999694824</ele>
        <time>2013-10-19T14:58:37Z</time>
      </trkpt>
      <trkpt lat="43.43626" lon="6.03439">
        <ele>188.19999694824</ele>
        <time>2013-10-19T14:58:39Z</time>
      </trkpt>
      <trkpt lat="43.43624" lon="6.03451">
        <ele>188.19999694824</ele>
        <time>2013-10-19T14:58:41Z</time>
      </trkpt>
      <trkpt lat="43.43621" lon="6.03461">
        <ele>188.19999694824</ele>
        <time>2013-10-19T14:58:43Z</time>
      </trkpt>
      <trkpt lat="43.43612" lon="6.03489">
        <ele>188.19999694824</ele>
        <time>2013-10-19T14:58:48Z</time>
      </trkpt>
      <trkpt lat="43.43612" lon="6.03494">
        <ele>188.19999694824</ele>
        <time>2013-10-19T14:58:49Z</time>
      </trkpt>
      <trkpt lat="43.43604" lon="6.0353">
        <ele>187.80000305176</ele>
        <time>2013-10-19T14:58:56Z</time>
      </trkpt>
      <trkpt lat="43.43602" lon="6.03536">
        <ele>187.39999389648</ele>
        <time>2013-10-19T14:58:57Z</time>
      </trkpt>
      <trkpt lat="43.43598" lon="6.03545">
        <ele>186.60000610352</ele>
        <time>2013-10-19T14:58:59Z</time>
      </trkpt>
      <trkpt lat="43.43596" lon="6.03549">
        <ele>186.19999694824</ele>
        <time>2013-10-19T14:59:00Z</time>
      </trkpt>
      <trkpt lat="43.43585" lon="6.03575">
        <ele>186.19999694824</ele>
        <time>2013-10-19T14:59:06Z</time>
      </trkpt>
      <trkpt lat="43.43583" lon="6.03592">
        <ele>186.19999694824</ele>
        <time>2013-10-19T14:59:10Z</time>
      </trkpt>
      <trkpt lat="43.43583" lon="6.03595">
        <ele>186.19999694824</ele>
        <time>2013-10-19T14:59:11Z</time>
      </trkpt>
      <trkpt lat="43.43582" lon="6.036">
        <ele>186.19999694824</ele>
        <time>2013-10-19T14:59:14Z</time>
      </trkpt>
      <trkpt lat="43.43583" lon="6.036">
        <ele>186.19999694824</ele>
        <time>2013-10-19T14:59:20Z</time>
      </trkpt>
      <trkpt lat="43.43583" lon="6.036">
        <ele>186.19999694824</ele>
        <time>2013-10-19T14:59:24Z</time>
      </trkpt>
      <trkpt lat="43.43583" lon="6.036">
        <ele>186.19999694824</ele>
        <time>2013-10-19T14:59:30Z</time>
      </trkpt>
      <trkpt lat="43.43583" lon="6.03603">
        <ele>186.19999694824</ele>
        <time>2013-10-19T14:59:37Z</time>
      </trkpt>
      <trkpt lat="43.43584" lon="6.03612">
        <ele>186.19999694824</ele>
        <time>2013-10-19T14:59:41Z</time>
      </trkpt>
      <trkpt lat="43.43584" lon="6.0362">
        <ele>186.19999694824</ele>
        <time>2013-10-19T14:59:43Z</time>
      </trkpt>
      <trkpt lat="43.43581" lon="6.03647">
        <ele>186.19999694824</ele>
        <time>2013-10-19T14:59:50Z</time>
      </trkpt>
      <trkpt lat="43.43573" lon="6.03664">
        <ele>186.19999694824</ele>
        <time>2013-10-19T14:59:57Z</time>
      </trkpt>
      <trkpt lat="43.43573" lon="6.03667">
        <ele>186.19999694824</ele>
        <time>2013-10-19T14:59:59Z</time>
      </trkpt>
      <trkpt lat="43.43575" lon="6.03672">
        <ele>186.19999694824</ele>
        <time>2013-10-19T15:00:01Z</time>
      </trkpt>
      <trkpt lat="43.43575" lon="6.03677">
        <ele>186.19999694824</ele>
        <time>2013-10-19T15:00:03Z</time>
      </trkpt>
      <trkpt lat="43.43571" lon="6.037">
        <ele>186.19999694824</ele>
        <time>2013-10-19T15:00:09Z</time>
      </trkpt>
      <trkpt lat="43.43571" lon="6.03723">
        <ele>186.19999694824</ele>
        <time>2013-10-19T15:00:15Z</time>
      </trkpt>
      <trkpt lat="43.43573" lon="6.03745">
        <ele>186.19999694824</ele>
        <time>2013-10-19T15:00:21Z</time>
      </trkpt>
      <trkpt lat="43.43569" lon="6.03766">
        <ele>186.19999694824</ele>
        <time>2013-10-19T15:00:27Z</time>
      </trkpt>
      <trkpt lat="43.4357" lon="6.03782">
        <ele>186.60000610352</ele>
        <time>2013-10-19T15:00:32Z</time>
      </trkpt>
      <trkpt lat="43.43571" lon="6.03786">
        <ele>187.19999694824</ele>
        <time>2013-10-19T15:00:33Z</time>
      </trkpt>
      <trkpt lat="43.43573" lon="6.03789">
        <ele>187.60000610352</ele>
        <time>2013-10-19T15:00:34Z</time>
      </trkpt>
      <trkpt lat="43.43579" lon="6.03801">
        <ele>188.39999389648</ele>
        <time>2013-10-19T15:00:37Z</time>
      </trkpt>
      <trkpt lat="43.43587" lon="6.03823">
        <ele>188.39999389648</ele>
        <time>2013-10-19T15:00:41Z</time>
      </trkpt>
      <trkpt lat="43.43588" lon="6.03829">
        <ele>188.39999389648</ele>
        <time>2013-10-19T15:00:42Z</time>
      </trkpt>
      <trkpt lat="43.43589" lon="6.03836">
        <ele>188.39999389648</ele>
        <time>2013-10-19T15:00:43Z</time>
      </trkpt>
      <trkpt lat="43.4359" lon="6.03853">
        <ele>188.39999389648</ele>
        <time>2013-10-19T15:00:45Z</time>
      </trkpt>
      <trkpt lat="43.43591" lon="6.03867">
        <ele>188.39999389648</ele>
        <time>2013-10-19T15:00:47Z</time>
      </trkpt>
      <trkpt lat="43.43593" lon="6.0388">
        <ele>187.60000610352</ele>
        <time>2013-10-19T15:00:49Z</time>
      </trkpt>
      <trkpt lat="43.43593" lon="6.03887">
        <ele>186.80000305176</ele>
        <time>2013-10-19T15:00:50Z</time>
      </trkpt>
      <trkpt lat="43.43593" lon="6.03894">
        <ele>186.19999694824</ele>
        <time>2013-10-19T15:00:51Z</time>
      </trkpt>
      <trkpt lat="43.43594" lon="6.03901">
        <ele>186.19999694824</ele>
        <time>2013-10-19T15:00:52Z</time>
      </trkpt>
      <trkpt lat="43.43594" lon="6.03907">
        <ele>186.19999694824</ele>
        <time>2013-10-19T15:00:53Z</time>
      </trkpt>
      <trkpt lat="43.43599" lon="6.03926">
        <ele>185</ele>
        <time>2013-10-19T15:00:56Z</time>
      </trkpt>
      <trkpt lat="43.43601" lon="6.03931">
        <ele>184.60000610352</ele>
        <time>2013-10-19T15:00:57Z</time>
      </trkpt>
      <trkpt lat="43.43605" lon="6.03942">
        <ele>184.19999694824</ele>
        <time>2013-10-19T15:00:59Z</time>
      </trkpt>
      <trkpt lat="43.43609" lon="6.03959">
        <ele>184.19999694824</ele>
        <time>2013-10-19T15:01:02Z</time>
      </trkpt>
      <trkpt lat="43.4361" lon="6.03983">
        <ele>184.19999694824</ele>
        <time>2013-10-19T15:01:07Z</time>
      </trkpt>
      <trkpt lat="43.4361" lon="6.03987">
        <ele>184.19999694824</ele>
        <time>2013-10-19T15:01:08Z</time>
      </trkpt>
      <trkpt lat="43.43608" lon="6.03991">
        <ele>184.60000610352</ele>
        <time>2013-10-19T15:01:10Z</time>
      </trkpt>
      <trkpt lat="43.43607" lon="6.03993">
        <ele>185</ele>
        <time>2013-10-19T15:01:11Z</time>
      </trkpt>
      <trkpt lat="43.43607" lon="6.03995">
        <ele>185.39999389648</ele>
        <time>2013-10-19T15:01:12Z</time>
      </trkpt>
      <trkpt lat="43.43605" lon="6.04">
        <ele>186.19999694824</ele>
        <time>2013-10-19T15:01:14Z</time>
      </trkpt>
      <trkpt lat="43.43598" lon="6.04018">
        <ele>186.19999694824</ele>
        <time>2013-10-19T15:01:18Z</time>
      </trkpt>
      <trkpt lat="43.43595" lon="6.04023">
        <ele>186.19999694824</ele>
        <time>2013-10-19T15:01:19Z</time>
      </trkpt>
      <trkpt lat="43.43585" lon="6.04039">
        <ele>186.19999694824</ele>
        <time>2013-10-19T15:01:23Z</time>
      </trkpt>
      <trkpt lat="43.43578" lon="6.04051">
        <ele>186.19999694824</ele>
        <time>2013-10-19T15:01:26Z</time>
      </trkpt>
      <trkpt lat="43.43571" lon="6.04062">
        <ele>185.80000305176</ele>
        <time>2013-10-19T15:01:28Z</time>
      </trkpt>
      <trkpt lat="43.43568" lon="6.04067">
        <ele>185.19999694824</ele>
        <time>2013-10-19T15:01:29Z</time>
      </trkpt>
      <trkpt lat="43.43566" lon="6.04072">
        <ele>184.80000305176</ele>
        <time>2013-10-19T15:01:30Z</time>
      </trkpt>
      <trkpt lat="43.43564" lon="6.04078">
        <ele>184.39999389648</ele>
        <time>2013-10-19T15:01:31Z</time>
      </trkpt>
      <trkpt lat="43.43561" lon="6.0409">
        <ele>183.80000305176</ele>
        <time>2013-10-19T15:01:33Z</time>
      </trkpt>
      <trkpt lat="43.43558" lon="6.04103">
        <ele>183.80000305176</ele>
        <time>2013-10-19T15:01:35Z</time>
      </trkpt>
      <trkpt lat="43.43554" lon="6.04114">
        <ele>183.80000305176</ele>
        <time>2013-10-19T15:01:37Z</time>
      </trkpt>
      <trkpt lat="43.43539" lon="6.04148">
        <ele>183.80000305176</ele>
        <time>2013-10-19T15:01:44Z</time>
      </trkpt>
      <trkpt lat="43.43536" lon="6.0416">
        <ele>183.80000305176</ele>
        <time>2013-10-19T15:01:46Z</time>
      </trkpt>
      <trkpt lat="43.43535" lon="6.0417">
        <ele>183.80000305176</ele>
        <time>2013-10-19T15:01:48Z</time>
      </trkpt>
      <trkpt lat="43.43539" lon="6.0419">
        <ele>183</ele>
        <time>2013-10-19T15:01:52Z</time>
      </trkpt>
      <trkpt lat="43.43541" lon="6.04195">
        <ele>182.60000610352</ele>
        <time>2013-10-19T15:01:53Z</time>
      </trkpt>
      <trkpt lat="43.4354" lon="6.04211">
        <ele>181.80000305176</ele>
        <time>2013-10-19T15:01:56Z</time>
      </trkpt>
      <trkpt lat="43.43531" lon="6.0423">
        <ele>181.80000305176</ele>
        <time>2013-10-19T15:02:00Z</time>
      </trkpt>
      <trkpt lat="43.43527" lon="6.04237">
        <ele>181.39999389648</ele>
        <time>2013-10-19T15:02:02Z</time>
      </trkpt>
      <trkpt lat="43.43518" lon="6.04244">
        <ele>179.80000305176</ele>
        <time>2013-10-19T15:02:05Z</time>
      </trkpt>
      <trkpt lat="43.43507" lon="6.04256">
        <ele>179.80000305176</ele>
        <time>2013-10-19T15:02:09Z</time>
      </trkpt>
      <trkpt lat="43.43505" lon="6.0426">
        <ele>179.80000305176</ele>
        <time>2013-10-19T15:02:10Z</time>
      </trkpt>
      <trkpt lat="43.43495" lon="6.04294">
        <ele>179.80000305176</ele>
        <time>2013-10-19T15:02:17Z</time>
      </trkpt>
      <trkpt lat="43.43493" lon="6.04325">
        <ele>179.80000305176</ele>
        <time>2013-10-19T15:02:23Z</time>
      </trkpt>
      <trkpt lat="43.43491" lon="6.04345">
        <ele>180.19999694824</ele>
        <time>2013-10-19T15:02:27Z</time>
      </trkpt>
      <trkpt lat="43.43488" lon="6.04375">
        <ele>181.80000305176</ele>
        <time>2013-10-19T15:02:33Z</time>
      </trkpt>
      <trkpt lat="43.43487" lon="6.044">
        <ele>181.80000305176</ele>
        <time>2013-10-19T15:02:38Z</time>
      </trkpt>
      <trkpt lat="43.43487" lon="6.04425">
        <ele>181.80000305176</ele>
        <time>2013-10-19T15:02:43Z</time>
      </trkpt>
      <trkpt lat="43.43481" lon="6.04443">
        <ele>181.80000305176</ele>
        <time>2013-10-19T15:02:47Z</time>
      </trkpt>
      <trkpt lat="43.43477" lon="6.04465">
        <ele>181.80000305176</ele>
        <time>2013-10-19T15:02:51Z</time>
      </trkpt>
      <trkpt lat="43.43476" lon="6.0447">
        <ele>181.80000305176</ele>
        <time>2013-10-19T15:02:52Z</time>
      </trkpt>
      <trkpt lat="43.43475" lon="6.04495">
        <ele>181.80000305176</ele>
        <time>2013-10-19T15:02:56Z</time>
      </trkpt>
      <trkpt lat="43.43475" lon="6.045">
        <ele>181.80000305176</ele>
        <time>2013-10-19T15:02:57Z</time>
      </trkpt>
      <trkpt lat="43.43475" lon="6.04517">
        <ele>181.80000305176</ele>
        <time>2013-10-19T15:03:01Z</time>
      </trkpt>
      <trkpt lat="43.43471" lon="6.04534">
        <ele>181.80000305176</ele>
        <time>2013-10-19T15:03:05Z</time>
      </trkpt>
      <trkpt lat="43.43469" lon="6.04538">
        <ele>181.80000305176</ele>
        <time>2013-10-19T15:03:06Z</time>
      </trkpt>
      <trkpt lat="43.43464" lon="6.04559">
        <ele>181.80000305176</ele>
        <time>2013-10-19T15:03:11Z</time>
      </trkpt>
      <trkpt lat="43.43463" lon="6.04563">
        <ele>181.80000305176</ele>
        <time>2013-10-19T15:03:12Z</time>
      </trkpt>
      <trkpt lat="43.43462" lon="6.04586">
        <ele>181.80000305176</ele>
        <time>2013-10-19T15:03:17Z</time>
      </trkpt>
      <trkpt lat="43.4346" lon="6.04598">
        <ele>181.80000305176</ele>
        <time>2013-10-19T15:03:19Z</time>
      </trkpt>
      <trkpt lat="43.43456" lon="6.04621">
        <ele>181.80000305176</ele>
        <time>2013-10-19T15:03:23Z</time>
      </trkpt>
      <trkpt lat="43.43451" lon="6.04649">
        <ele>181.39999389648</ele>
        <time>2013-10-19T15:03:28Z</time>
      </trkpt>
      <trkpt lat="43.43448" lon="6.04673">
        <ele>179.80000305176</ele>
        <time>2013-10-19T15:03:32Z</time>
      </trkpt>
      <trkpt lat="43.43447" lon="6.04682">
        <ele>179.80000305176</ele>
        <time>2013-10-19T15:03:34Z</time>
      </trkpt>
      <trkpt lat="43.43442" lon="6.04699">
        <ele>179.80000305176</ele>
        <time>2013-10-19T15:03:38Z</time>
      </trkpt>
      <trkpt lat="43.43441" lon="6.04711">
        <ele>179.80000305176</ele>
        <time>2013-10-19T15:03:40Z</time>
      </trkpt>
      <trkpt lat="43.43439" lon="6.04722">
        <ele>179.80000305176</ele>
        <time>2013-10-19T15:03:42Z</time>
      </trkpt>
      <trkpt lat="43.43438" lon="6.04761">
        <ele>179.80000305176</ele>
        <time>2013-10-19T15:03:48Z</time>
      </trkpt>
      <trkpt lat="43.43437" lon="6.04775">
        <ele>179.80000305176</ele>
        <time>2013-10-19T15:03:50Z</time>
      </trkpt>
      <trkpt lat="43.43434" lon="6.04813">
        <ele>179.80000305176</ele>
        <time>2013-10-19T15:03:55Z</time>
      </trkpt>
      <trkpt lat="43.43433" lon="6.04852">
        <ele>179.39999389648</ele>
        <time>2013-10-19T15:04:00Z</time>
      </trkpt>
      <trkpt lat="43.43432" lon="6.04868">
        <ele>178.60000610352</ele>
        <time>2013-10-19T15:04:02Z</time>
      </trkpt>
      <trkpt lat="43.43431" lon="6.04885">
        <ele>177.80000305176</ele>
        <time>2013-10-19T15:04:04Z</time>
      </trkpt>
      <trkpt lat="43.43428" lon="6.04928">
        <ele>177.80000305176</ele>
        <time>2013-10-19T15:04:09Z</time>
      </trkpt>
      <trkpt lat="43.43427" lon="6.04945">
        <ele>177.80000305176</ele>
        <time>2013-10-19T15:04:11Z</time>
      </trkpt>
      <trkpt lat="43.43426" lon="6.04961">
        <ele>177.80000305176</ele>
        <time>2013-10-19T15:04:13Z</time>
      </trkpt>
      <trkpt lat="43.43425" lon="6.04969">
        <ele>177.80000305176</ele>
        <time>2013-10-19T15:04:14Z</time>
      </trkpt>
      <trkpt lat="43.43417" lon="6.05011">
        <ele>177.80000305176</ele>
        <time>2013-10-19T15:04:20Z</time>
      </trkpt>
      <trkpt lat="43.43412" lon="6.05039">
        <ele>177.80000305176</ele>
        <time>2013-10-19T15:04:25Z</time>
      </trkpt>
      <trkpt lat="43.43409" lon="6.05057">
        <ele>177.80000305176</ele>
        <time>2013-10-19T15:04:30Z</time>
      </trkpt>
      <trkpt lat="43.43405" lon="6.05076">
        <ele>178.19999694824</ele>
        <time>2013-10-19T15:04:36Z</time>
      </trkpt>
      <trkpt lat="43.43404" lon="6.05079">
        <ele>178.60000610352</ele>
        <time>2013-10-19T15:04:37Z</time>
      </trkpt>
      <trkpt lat="43.43404" lon="6.05082">
        <ele>179</ele>
        <time>2013-10-19T15:04:38Z</time>
      </trkpt>
      <trkpt lat="43.43404" lon="6.05085">
        <ele>179.39999389648</ele>
        <time>2013-10-19T15:04:39Z</time>
      </trkpt>
      <trkpt lat="43.43402" lon="6.05088">
        <ele>179.80000305176</ele>
        <time>2013-10-19T15:04:40Z</time>
      </trkpt>
      <trkpt lat="43.434" lon="6.05094">
        <ele>179.80000305176</ele>
        <time>2013-10-19T15:04:42Z</time>
      </trkpt>
      <trkpt lat="43.43393" lon="6.05118">
        <ele>179.80000305176</ele>
        <time>2013-10-19T15:04:49Z</time>
      </trkpt>
      <trkpt lat="43.4339" lon="6.05126">
        <ele>179.80000305176</ele>
        <time>2013-10-19T15:04:51Z</time>
      </trkpt>
      <trkpt lat="43.43387" lon="6.05139">
        <ele>179.80000305176</ele>
        <time>2013-10-19T15:04:54Z</time>
      </trkpt>
      <trkpt lat="43.43383" lon="6.05151">
        <ele>179.80000305176</ele>
        <time>2013-10-19T15:04:58Z</time>
      </trkpt>
      <trkpt lat="43.4338" lon="6.05159">
        <ele>179.80000305176</ele>
        <time>2013-10-19T15:05:02Z</time>
      </trkpt>
      <trkpt lat="43.4338" lon="6.05161">
        <ele>179.80000305176</ele>
        <time>2013-10-19T15:05:03Z</time>
      </trkpt>
      <trkpt lat="43.43372" lon="6.05179">
        <ele>179.80000305176</ele>
        <time>2013-10-19T15:05:09Z</time>
      </trkpt>
      <trkpt lat="43.43364" lon="6.05203">
        <ele>179.80000305176</ele>
        <time>2013-10-19T15:05:14Z</time>
      </trkpt>
      <trkpt lat="43.4336" lon="6.05213">
        <ele>179.80000305176</ele>
        <time>2013-10-19T15:05:16Z</time>
      </trkpt>
      <trkpt lat="43.43354" lon="6.05229">
        <ele>179.39999389648</ele>
        <time>2013-10-19T15:05:19Z</time>
      </trkpt>
      <trkpt lat="43.43351" lon="6.05239">
        <ele>178.60000610352</ele>
        <time>2013-10-19T15:05:21Z</time>
      </trkpt>
      <trkpt lat="43.43349" lon="6.05245">
        <ele>177.80000305176</ele>
        <time>2013-10-19T15:05:22Z</time>
      </trkpt>
      <trkpt lat="43.43347" lon="6.05249">
        <ele>177.80000305176</ele>
        <time>2013-10-19T15:05:23Z</time>
      </trkpt>
      <trkpt lat="43.4333" lon="6.05288">
        <ele>177.80000305176</ele>
        <time>2013-10-19T15:05:32Z</time>
      </trkpt>
      <trkpt lat="43.43319" lon="6.05319">
        <ele>177.80000305176</ele>
        <time>2013-10-19T15:05:39Z</time>
      </trkpt>
      <trkpt lat="43.4331" lon="6.05342">
        <ele>177.80000305176</ele>
        <time>2013-10-19T15:05:44Z</time>
      </trkpt>
      <trkpt lat="43.43297" lon="6.05367">
        <ele>177.80000305176</ele>
        <time>2013-10-19T15:05:50Z</time>
      </trkpt>
      <trkpt lat="43.4329" lon="6.05385">
        <ele>177.80000305176</ele>
        <time>2013-10-19T15:05:53Z</time>
      </trkpt>
      <trkpt lat="43.43287" lon="6.05396">
        <ele>177.80000305176</ele>
        <time>2013-10-19T15:05:55Z</time>
      </trkpt>
      <trkpt lat="43.43277" lon="6.05414">
        <ele>177.80000305176</ele>
        <time>2013-10-19T15:05:59Z</time>
      </trkpt>
      <trkpt lat="43.43273" lon="6.05424">
        <ele>177.80000305176</ele>
        <time>2013-10-19T15:06:01Z</time>
      </trkpt>
      <trkpt lat="43.43266" lon="6.05444">
        <ele>177.80000305176</ele>
        <time>2013-10-19T15:06:05Z</time>
      </trkpt>
      <trkpt lat="43.43258" lon="6.05465">
        <ele>177.80000305176</ele>
        <time>2013-10-19T15:06:10Z</time>
      </trkpt>
      <trkpt lat="43.43248" lon="6.05502">
        <ele>180.80000305176</ele>
        <time>2013-10-19T15:06:20Z</time>
      </trkpt>
      <trkpt lat="43.43246" lon="6.05511">
        <ele>182.19999694824</ele>
        <time>2013-10-19T15:06:23Z</time>
      </trkpt>
      <trkpt lat="43.43241" lon="6.05526">
        <ele>182.19999694824</ele>
        <time>2013-10-19T15:06:29Z</time>
      </trkpt>
      <trkpt lat="43.43238" lon="6.05534">
        <ele>182.60000610352</ele>
        <time>2013-10-19T15:06:32Z</time>
      </trkpt>
      <trkpt lat="43.43237" lon="6.0554">
        <ele>183.39999389648</ele>
        <time>2013-10-19T15:06:34Z</time>
      </trkpt>
      <trkpt lat="43.43237" lon="6.05545">
        <ele>184.19999694824</ele>
        <time>2013-10-19T15:06:36Z</time>
      </trkpt>
      <trkpt lat="43.4323" lon="6.05565">
        <ele>184.19999694824</ele>
        <time>2013-10-19T15:06:43Z</time>
      </trkpt>
      <trkpt lat="43.43228" lon="6.05584">
        <ele>184.19999694824</ele>
        <time>2013-10-19T15:06:49Z</time>
      </trkpt>
      <trkpt lat="43.43226" lon="6.05609">
        <ele>184.19999694824</ele>
        <time>2013-10-19T15:06:56Z</time>
      </trkpt>
      <trkpt lat="43.43223" lon="6.05637">
        <ele>184.19999694824</ele>
        <time>2013-10-19T15:07:04Z</time>
      </trkpt>
      <trkpt lat="43.43222" lon="6.05663">
        <ele>184.19999694824</ele>
        <time>2013-10-19T15:07:11Z</time>
      </trkpt>
      <trkpt lat="43.4322" lon="6.05682">
        <ele>184.19999694824</ele>
        <time>2013-10-19T15:07:16Z</time>
      </trkpt>
      <trkpt lat="43.43216" lon="6.05708">
        <ele>185.80000305176</ele>
        <time>2013-10-19T15:07:23Z</time>
      </trkpt>
      <trkpt lat="43.43216" lon="6.05716">
        <ele>186.19999694824</ele>
        <time>2013-10-19T15:07:25Z</time>
      </trkpt>
      <trkpt lat="43.43213" lon="6.05739">
        <ele>186.19999694824</ele>
        <time>2013-10-19T15:07:31Z</time>
      </trkpt>
      <trkpt lat="43.43213" lon="6.05748">
        <ele>186.19999694824</ele>
        <time>2013-10-19T15:07:33Z</time>
      </trkpt>
      <trkpt lat="43.4321" lon="6.05776">
        <ele>186.19999694824</ele>
        <time>2013-10-19T15:07:39Z</time>
      </trkpt>
      <trkpt lat="43.43208" lon="6.05788">
        <ele>186.19999694824</ele>
        <time>2013-10-19T15:07:42Z</time>
      </trkpt>
      <trkpt lat="43.43206" lon="6.05806">
        <ele>186.19999694824</ele>
        <time>2013-10-19T15:07:46Z</time>
      </trkpt>
      <trkpt lat="43.43198" lon="6.05865">
        <ele>186.19999694824</ele>
        <time>2013-10-19T15:07:59Z</time>
      </trkpt>
      <trkpt lat="43.43179" lon="6.0593">
        <ele>186.19999694824</ele>
        <time>2013-10-19T15:08:14Z</time>
      </trkpt>
      <trkpt lat="43.43166" lon="6.05982">
        <ele>186.19999694824</ele>
        <time>2013-10-19T15:08:26Z</time>
      </trkpt>
      <trkpt lat="43.43158" lon="6.06011">
        <ele>186.19999694824</ele>
        <time>2013-10-19T15:08:32Z</time>
      </trkpt>
      <trkpt lat="43.43154" lon="6.06043">
        <ele>186.19999694824</ele>
        <time>2013-10-19T15:08:39Z</time>
      </trkpt>
      <trkpt lat="43.43148" lon="6.0607">
        <ele>186.19999694824</ele>
        <time>2013-10-19T15:08:45Z</time>
      </trkpt>
      <trkpt lat="43.43135" lon="6.06128">
        <ele>186.19999694824</ele>
        <time>2013-10-19T15:08:57Z</time>
      </trkpt>
      <trkpt lat="43.43131" lon="6.0615">
        <ele>186.19999694824</ele>
        <time>2013-10-19T15:09:01Z</time>
      </trkpt>
      <trkpt lat="43.43128" lon="6.06166">
        <ele>186.19999694824</ele>
        <time>2013-10-19T15:09:04Z</time>
      </trkpt>
      <trkpt lat="43.43126" lon="6.0619">
        <ele>186.19999694824</ele>
        <time>2013-10-19T15:09:09Z</time>
      </trkpt>
      <trkpt lat="43.43126" lon="6.06227">
        <ele>185.80000305176</ele>
        <time>2013-10-19T15:09:17Z</time>
      </trkpt>
      <trkpt lat="43.43127" lon="6.06256">
        <ele>184.19999694824</ele>
        <time>2013-10-19T15:09:22Z</time>
      </trkpt>
      <trkpt lat="43.43127" lon="6.06266">
        <ele>183.80000305176</ele>
        <time>2013-10-19T15:09:24Z</time>
      </trkpt>
      <trkpt lat="43.4313" lon="6.06285">
        <ele>182.19999694824</ele>
        <time>2013-10-19T15:09:28Z</time>
      </trkpt>
      <trkpt lat="43.43131" lon="6.06302">
        <ele>182.19999694824</ele>
        <time>2013-10-19T15:09:32Z</time>
      </trkpt>
      <trkpt lat="43.43133" lon="6.06326">
        <ele>182.19999694824</ele>
        <time>2013-10-19T15:09:37Z</time>
      </trkpt>
      <trkpt lat="43.43136" lon="6.0635">
        <ele>182.19999694824</ele>
        <time>2013-10-19T15:09:41Z</time>
      </trkpt>
      <trkpt lat="43.43138" lon="6.0637">
        <ele>181</ele>
        <time>2013-10-19T15:09:44Z</time>
      </trkpt>
      <trkpt lat="43.43139" lon="6.06383">
        <ele>180</ele>
        <time>2013-10-19T15:09:46Z</time>
      </trkpt>
      <trkpt lat="43.4314" lon="6.06396">
        <ele>180</ele>
        <time>2013-10-19T15:09:48Z</time>
      </trkpt>
      <trkpt lat="43.43144" lon="6.0643">
        <ele>179.60000610352</ele>
        <time>2013-10-19T15:09:53Z</time>
      </trkpt>
      <trkpt lat="43.43145" lon="6.06437">
        <ele>178.80000305176</ele>
        <time>2013-10-19T15:09:54Z</time>
      </trkpt>
      <trkpt lat="43.43145" lon="6.06443">
        <ele>178.19999694824</ele>
        <time>2013-10-19T15:09:55Z</time>
      </trkpt>
      <trkpt lat="43.43148" lon="6.06466">
        <ele>177.80000305176</ele>
        <time>2013-10-19T15:09:59Z</time>
      </trkpt>
      <trkpt lat="43.4315" lon="6.06482">
        <ele>177.80000305176</ele>
        <time>2013-10-19T15:10:03Z</time>
      </trkpt>
      <trkpt lat="43.43149" lon="6.06484">
        <ele>177.80000305176</ele>
        <time>2013-10-19T15:10:04Z</time>
      </trkpt>
      <trkpt lat="43.43145" lon="6.06488">
        <ele>177.80000305176</ele>
        <time>2013-10-19T15:10:07Z</time>
      </trkpt>
      <trkpt lat="43.43141" lon="6.06486">
        <ele>177.80000305176</ele>
        <time>2013-10-19T15:10:09Z</time>
      </trkpt>
      <trkpt lat="43.43137" lon="6.06486">
        <ele>177.80000305176</ele>
        <time>2013-10-19T15:10:11Z</time>
      </trkpt>
      <trkpt lat="43.43135" lon="6.06485">
        <ele>177.80000305176</ele>
        <time>2013-10-19T15:10:12Z</time>
      </trkpt>
      <trkpt lat="43.43132" lon="6.06485">
        <ele>177.80000305176</ele>
        <time>2013-10-19T15:10:14Z</time>
      </trkpt>
      <trkpt lat="43.43127" lon="6.06486">
        <ele>177.80000305176</ele>
        <time>2013-10-19T15:10:17Z</time>
      </trkpt>
      <trkpt lat="43.43124" lon="6.06486">
        <ele>178.19999694824</ele>
        <time>2013-10-19T15:10:19Z</time>
      </trkpt>
      <trkpt lat="43.43124" lon="6.06486">
        <ele>178.80000305176</ele>
        <time>2013-10-19T15:10:20Z</time>
      </trkpt>
      <trkpt lat="43.43123" lon="6.06486">
        <ele>179.19999694824</ele>
        <time>2013-10-19T15:10:21Z</time>
      </trkpt>
      <trkpt lat="43.43123" lon="6.06485">
        <ele>179.60000610352</ele>
        <time>2013-10-19T15:10:22Z</time>
      </trkpt>
      <trkpt lat="43.43122" lon="6.06484">
        <ele>180.19999694824</ele>
        <time>2013-10-19T15:10:23Z</time>
      </trkpt>
      <trkpt lat="43.43121" lon="6.06485">
        <ele>180.19999694824</ele>
        <time>2013-10-19T15:10:25Z</time>
      </trkpt>
      <trkpt lat="43.43121" lon="6.06485">
        <ele>180.19999694824</ele>
        <time>2013-10-19T15:10:30Z</time>
      </trkpt>
      <trkpt lat="43.43116" lon="6.06482">
        <ele>181</ele>
        <time>2013-10-19T15:10:35Z</time>
      </trkpt>
      <trkpt lat="43.43115" lon="6.06482">
        <ele>181.39999389648</ele>
        <time>2013-10-19T15:10:36Z</time>
      </trkpt>
      <trkpt lat="43.43115" lon="6.06481">
        <ele>181.80000305176</ele>
        <time>2013-10-19T15:10:37Z</time>
      </trkpt>
      <trkpt lat="43.43115" lon="6.06481">
        <ele>182.19999694824</ele>
        <time>2013-10-19T15:10:48Z</time>
      </trkpt>
      <trkpt lat="43.43114" lon="6.06482">
        <ele>182.19999694824</ele>
        <time>2013-10-19T15:10:57Z</time>
      </trkpt>
      <trkpt lat="43.43114" lon="6.06482">
        <ele>182.19999694824</ele>
        <time>2013-10-19T15:11:08Z</time>
      </trkpt>
      <trkpt lat="43.43113" lon="6.0648">
        <ele>182.19999694824</ele>
        <time>2013-10-19T15:11:15Z</time>
      </trkpt>
      <trkpt lat="43.43111" lon="6.06475">
        <ele>182.19999694824</ele>
        <time>2013-10-19T15:11:18Z</time>
      </trkpt>
      <trkpt lat="43.4311" lon="6.06472">
        <ele>182.19999694824</ele>
        <time>2013-10-19T15:11:20Z</time>
      </trkpt>
      <trkpt lat="43.43109" lon="6.06469">
        <ele>182.19999694824</ele>
        <time>2013-10-19T15:11:22Z</time>
      </trkpt>
      <trkpt lat="43.43109" lon="6.06467">
        <ele>182.19999694824</ele>
        <time>2013-10-19T15:11:23Z</time>
      </trkpt>
      <trkpt lat="43.43107" lon="6.06461">
        <ele>182.60000610352</ele>
        <time>2013-10-19T15:11:26Z</time>
      </trkpt>
      <trkpt lat="43.43105" lon="6.06454">
        <ele>184.39999389648</ele>
        <time>2013-10-19T15:11:30Z</time>
      </trkpt>
      <trkpt lat="43.43101" lon="6.06447">
        <ele>184.39999389648</ele>
        <time>2013-10-19T15:11:34Z</time>
      </trkpt>
      <trkpt lat="43.43098" lon="6.06435">
        <ele>184.39999389648</ele>
        <time>2013-10-19T15:11:41Z</time>
      </trkpt>
      <trkpt lat="43.43094" lon="6.06426">
        <ele>184.80000305176</ele>
        <time>2013-10-19T15:11:46Z</time>
      </trkpt>
      <trkpt lat="43.43092" lon="6.06418">
        <ele>186.39999389648</ele>
        <time>2013-10-19T15:11:50Z</time>
      </trkpt>
      <trkpt lat="43.4309" lon="6.06406">
        <ele>186.39999389648</ele>
        <time>2013-10-19T15:11:56Z</time>
      </trkpt>
      <trkpt lat="43.43089" lon="6.06399">
        <ele>186.39999389648</ele>
        <time>2013-10-19T15:12:00Z</time>
      </trkpt>
      <trkpt lat="43.43084" lon="6.0638">
        <ele>186.80000305176</ele>
        <time>2013-10-19T15:12:07Z</time>
      </trkpt>
      <trkpt lat="43.43082" lon="6.06372">
        <ele>188</ele>
        <time>2013-10-19T15:12:10Z</time>
      </trkpt>
      <trkpt lat="43.43079" lon="6.06364">
        <ele>188.39999389648</ele>
        <time>2013-10-19T15:12:13Z</time>
      </trkpt>
      <trkpt lat="43.43067" lon="6.06354">
        <ele>188.39999389648</ele>
        <time>2013-10-19T15:12:19Z</time>
      </trkpt>
      <trkpt lat="43.4305" lon="6.06349">
        <ele>188.39999389648</ele>
        <time>2013-10-19T15:12:27Z</time>
      </trkpt>
      <trkpt lat="43.43044" lon="6.06347">
        <ele>188.39999389648</ele>
        <time>2013-10-19T15:12:30Z</time>
      </trkpt>
      <trkpt lat="43.43034" lon="6.06331">
        <ele>188.39999389648</ele>
        <time>2013-10-19T15:12:37Z</time>
      </trkpt>
      <trkpt lat="43.43027" lon="6.06312">
        <ele>188.39999389648</ele>
        <time>2013-10-19T15:12:45Z</time>
      </trkpt>
      <trkpt lat="43.43023" lon="6.0631">
        <ele>188.80000305176</ele>
        <time>2013-10-19T15:12:48Z</time>
      </trkpt>
      <trkpt lat="43.43013" lon="6.06311">
        <ele>190.39999389648</ele>
        <time>2013-10-19T15:12:53Z</time>
      </trkpt>
      <trkpt lat="43.43002" lon="6.06313">
        <ele>190.39999389648</ele>
        <time>2013-10-19T15:12:59Z</time>
      </trkpt>
      <trkpt lat="43.42994" lon="6.06312">
        <ele>190.39999389648</ele>
        <time>2013-10-19T15:13:05Z</time>
      </trkpt>
      <trkpt lat="43.42989" lon="6.06309">
        <ele>190.39999389648</ele>
        <time>2013-10-19T15:13:08Z</time>
      </trkpt>
      <trkpt lat="43.42979" lon="6.06304">
        <ele>191.80000305176</ele>
        <time>2013-10-19T15:13:14Z</time>
      </trkpt>
      <trkpt lat="43.42974" lon="6.06306">
        <ele>192.60000610352</ele>
        <time>2013-10-19T15:13:17Z</time>
      </trkpt>
      <trkpt lat="43.42964" lon="6.06307">
        <ele>192.60000610352</ele>
        <time>2013-10-19T15:13:22Z</time>
      </trkpt>
      <trkpt lat="43.42956" lon="6.06304">
        <ele>192.60000610352</ele>
        <time>2013-10-19T15:13:27Z</time>
      </trkpt>
      <trkpt lat="43.42945" lon="6.06287">
        <ele>194.19999694824</ele>
        <time>2013-10-19T15:13:36Z</time>
      </trkpt>
      <trkpt lat="43.42944" lon="6.06286">
        <ele>194.60000610352</ele>
        <time>2013-10-19T15:13:37Z</time>
      </trkpt>
      <trkpt lat="43.42937" lon="6.06284">
        <ele>194.60000610352</ele>
        <time>2013-10-19T15:13:41Z</time>
      </trkpt>
      <trkpt lat="43.42936" lon="6.06284">
        <ele>194.60000610352</ele>
        <time>2013-10-19T15:13:42Z</time>
      </trkpt>
      <trkpt lat="43.42932" lon="6.06285">
        <ele>195</ele>
        <time>2013-10-19T15:13:45Z</time>
      </trkpt>
      <trkpt lat="43.42931" lon="6.06285">
        <ele>195.80000305176</ele>
        <time>2013-10-19T15:13:47Z</time>
      </trkpt>
      <trkpt lat="43.42929" lon="6.06287">
        <ele>196.19999694824</ele>
        <time>2013-10-19T15:13:48Z</time>
      </trkpt>
      <trkpt lat="43.42927" lon="6.06287">
        <ele>196.60000610352</ele>
        <time>2013-10-19T15:13:49Z</time>
      </trkpt>
      <trkpt lat="43.42926" lon="6.06287">
        <ele>196.60000610352</ele>
        <time>2013-10-19T15:13:50Z</time>
      </trkpt>
      <trkpt lat="43.42922" lon="6.0629">
        <ele>196.60000610352</ele>
        <time>2013-10-19T15:13:53Z</time>
      </trkpt>
      <trkpt lat="43.42921" lon="6.06292">
        <ele>196.60000610352</ele>
        <time>2013-10-19T15:13:55Z</time>
      </trkpt>
      <trkpt lat="43.42919" lon="6.06296">
        <ele>197</ele>
        <time>2013-10-19T15:13:58Z</time>
      </trkpt>
      <trkpt lat="43.42919" lon="6.06296">
        <ele>197.60000610352</ele>
        <time>2013-10-19T15:13:59Z</time>
      </trkpt>
      <trkpt lat="43.42919" lon="6.06296">
        <ele>198</ele>
        <time>2013-10-19T15:14:00Z</time>
      </trkpt>
      <trkpt lat="43.42919" lon="6.06296">
        <ele>198.80000305176</ele>
        <time>2013-10-19T15:14:10Z</time>
      </trkpt>
      <trkpt lat="43.42918" lon="6.06297">
        <ele>198.80000305176</ele>
        <time>2013-10-19T15:14:17Z</time>
      </trkpt>
      <trkpt lat="43.42917" lon="6.063">
        <ele>198.80000305176</ele>
        <time>2013-10-19T15:14:23Z</time>
      </trkpt>
      <trkpt lat="43.42917" lon="6.06301">
        <ele>198.80000305176</ele>
        <time>2013-10-19T15:14:24Z</time>
      </trkpt>
      <trkpt lat="43.42917" lon="6.06301">
        <ele>198.80000305176</ele>
        <time>2013-10-19T15:14:34Z</time>
      </trkpt>
      <trkpt lat="43.42917" lon="6.06301">
        <ele>198.80000305176</ele>
        <time>2013-10-19T15:14:37Z</time>
      </trkpt>
      <trkpt lat="43.42917" lon="6.06302">
        <ele>199.60000610352</ele>
        <time>2013-10-19T15:14:42Z</time>
      </trkpt>
      <trkpt lat="43.42916" lon="6.06303">
        <ele>200.39999389648</ele>
        <time>2013-10-19T15:14:44Z</time>
      </trkpt>
      <trkpt lat="43.42916" lon="6.06303">
        <ele>200.80000305176</ele>
        <time>2013-10-19T15:14:45Z</time>
      </trkpt>
      <trkpt lat="43.42914" lon="6.06306">
        <ele>200.80000305176</ele>
        <time>2013-10-19T15:14:48Z</time>
      </trkpt>
      <trkpt lat="43.42913" lon="6.06308">
        <ele>201.19999694824</ele>
        <time>2013-10-19T15:14:55Z</time>
      </trkpt>
      <trkpt lat="43.42913" lon="6.06308">
        <ele>201.60000610352</ele>
        <time>2013-10-19T15:14:56Z</time>
      </trkpt>
      <trkpt lat="43.42913" lon="6.06308">
        <ele>203</ele>
        <time>2013-10-19T15:15:03Z</time>
      </trkpt>
      <trkpt lat="43.42913" lon="6.06308">
        <ele>203</ele>
        <time>2013-10-19T15:15:07Z</time>
      </trkpt>
      <trkpt lat="43.42913" lon="6.06309">
        <ele>203</ele>
        <time>2013-10-19T15:15:11Z</time>
      </trkpt>
      <trkpt lat="43.42911" lon="6.06311">
        <ele>203</ele>
        <time>2013-10-19T15:15:13Z</time>
      </trkpt>
      <trkpt lat="43.4291" lon="6.06312">
        <ele>203</ele>
        <time>2013-10-19T15:15:18Z</time>
      </trkpt>
      <trkpt lat="43.4291" lon="6.06312">
        <ele>203</ele>
        <time>2013-10-19T15:15:28Z</time>
      </trkpt>
      <trkpt lat="43.42908" lon="6.06314">
        <ele>203</ele>
        <time>2013-10-19T15:15:34Z</time>
      </trkpt>
      <trkpt lat="43.42908" lon="6.06314">
        <ele>203</ele>
        <time>2013-10-19T15:15:55Z</time>
      </trkpt>
      <trkpt lat="43.42908" lon="6.06314">
        <ele>203</ele>
        <time>2013-10-19T15:16:09Z</time>
      </trkpt>
      <trkpt lat="43.42908" lon="6.06314">
        <ele>203</ele>
        <time>2013-10-19T15:16:21Z</time>
      </trkpt>
      <trkpt lat="43.42908" lon="6.06314">
        <ele>203</ele>
        <time>2013-10-19T15:16:38Z</time>
      </trkpt>
      <trkpt lat="43.42907" lon="6.06314">
        <ele>203</ele>
        <time>2013-10-19T15:16:39Z</time>
      </trkpt>
      <trkpt lat="43.42904" lon="6.06316">
        <ele>203</ele>
        <time>2013-10-19T15:16:41Z</time>
      </trkpt>
      <trkpt lat="43.42896" lon="6.06318">
        <ele>203.80000305176</ele>
        <time>2013-10-19T15:16:45Z</time>
      </trkpt>
      <trkpt lat="43.42894" lon="6.06318">
        <ele>204.19999694824</ele>
        <time>2013-10-19T15:16:46Z</time>
      </trkpt>
      <trkpt lat="43.42891" lon="6.06318">
        <ele>205</ele>
        <time>2013-10-19T15:16:48Z</time>
      </trkpt>
      <trkpt lat="43.42887" lon="6.06319">
        <ele>205</ele>
        <time>2013-10-19T15:16:50Z</time>
      </trkpt>
      <trkpt lat="43.42883" lon="6.0632">
        <ele>205</ele>
        <time>2013-10-19T15:16:53Z</time>
      </trkpt>
      <trkpt lat="43.42865" lon="6.06312">
        <ele>205.80000305176</ele>
        <time>2013-10-19T15:17:03Z</time>
      </trkpt>
      <trkpt lat="43.42861" lon="6.0631">
        <ele>206.60000610352</ele>
        <time>2013-10-19T15:17:05Z</time>
      </trkpt>
      <trkpt lat="43.4286" lon="6.0631">
        <ele>207</ele>
        <time>2013-10-19T15:17:06Z</time>
      </trkpt>
      <trkpt lat="43.42849" lon="6.06315">
        <ele>207</ele>
        <time>2013-10-19T15:17:13Z</time>
      </trkpt>
      <trkpt lat="43.42847" lon="6.06317">
        <ele>207</ele>
        <time>2013-10-19T15:17:15Z</time>
      </trkpt>
      <trkpt lat="43.42837" lon="6.06327">
        <ele>207</ele>
        <time>2013-10-19T15:17:22Z</time>
      </trkpt>
      <trkpt lat="43.4282" lon="6.06341">
        <ele>207</ele>
        <time>2013-10-19T15:17:27Z</time>
      </trkpt>
      <trkpt lat="43.4281" lon="6.06348">
        <ele>207</ele>
        <time>2013-10-19T15:17:29Z</time>
      </trkpt>
      <trkpt lat="43.42799" lon="6.06348">
        <ele>206.19999694824</ele>
        <time>2013-10-19T15:17:31Z</time>
      </trkpt>
      <trkpt lat="43.42788" lon="6.06346">
        <ele>205.19999694824</ele>
        <time>2013-10-19T15:17:33Z</time>
      </trkpt>
      <trkpt lat="43.42776" lon="6.06342">
        <ele>204.39999389648</ele>
        <time>2013-10-19T15:17:35Z</time>
      </trkpt>
      <trkpt lat="43.42772" lon="6.0634">
        <ele>203.80000305176</ele>
        <time>2013-10-19T15:17:36Z</time>
      </trkpt>
      <trkpt lat="43.42765" lon="6.06338">
        <ele>203.39999389648</ele>
        <time>2013-10-19T15:17:37Z</time>
      </trkpt>
      <trkpt lat="43.4276" lon="6.06337">
        <ele>203</ele>
        <time>2013-10-19T15:17:38Z</time>
      </trkpt>
      <trkpt lat="43.42754" lon="6.06338">
        <ele>202.39999389648</ele>
        <time>2013-10-19T15:17:39Z</time>
      </trkpt>
      <trkpt lat="43.42747" lon="6.0634">
        <ele>201.80000305176</ele>
        <time>2013-10-19T15:17:40Z</time>
      </trkpt>
      <trkpt lat="43.42735" lon="6.06345">
        <ele>200.60000610352</ele>
        <time>2013-10-19T15:17:42Z</time>
      </trkpt>
      <trkpt lat="43.42729" lon="6.06347">
        <ele>200</ele>
        <time>2013-10-19T15:17:43Z</time>
      </trkpt>
      <trkpt lat="43.42718" lon="6.06349">
        <ele>199.60000610352</ele>
        <time>2013-10-19T15:17:45Z</time>
      </trkpt>
      <trkpt lat="43.42707" lon="6.06351">
        <ele>198.60000610352</ele>
        <time>2013-10-19T15:17:47Z</time>
      </trkpt>
      <trkpt lat="43.42702" lon="6.0635">
        <ele>198.19999694824</ele>
        <time>2013-10-19T15:17:48Z</time>
      </trkpt>
      <trkpt lat="43.42698" lon="6.06348">
        <ele>197.60000610352</ele>
        <time>2013-10-19T15:17:49Z</time>
      </trkpt>
      <trkpt lat="43.42693" lon="6.06346">
        <ele>197.60000610352</ele>
        <time>2013-10-19T15:17:51Z</time>
      </trkpt>
      <trkpt lat="43.42689" lon="6.06347">
        <ele>197.60000610352</ele>
        <time>2013-10-19T15:17:56Z</time>
      </trkpt>
      <trkpt lat="43.42686" lon="6.06342">
        <ele>197.60000610352</ele>
        <time>2013-10-19T15:17:59Z</time>
      </trkpt>
      <trkpt lat="43.42684" lon="6.06334">
        <ele>197.60000610352</ele>
        <time>2013-10-19T15:18:04Z</time>
      </trkpt>
      <trkpt lat="43.42682" lon="6.06332">
        <ele>197.60000610352</ele>
        <time>2013-10-19T15:18:07Z</time>
      </trkpt>
      <trkpt lat="43.42679" lon="6.0633">
        <ele>197.60000610352</ele>
        <time>2013-10-19T15:18:09Z</time>
      </trkpt>
      <trkpt lat="43.42673" lon="6.06325">
        <ele>197.60000610352</ele>
        <time>2013-10-19T15:18:15Z</time>
      </trkpt>
      <trkpt lat="43.42671" lon="6.06323">
        <ele>197.60000610352</ele>
        <time>2013-10-19T15:18:16Z</time>
      </trkpt>
      <trkpt lat="43.42653" lon="6.06322">
        <ele>196.80000305176</ele>
        <time>2013-10-19T15:18:22Z</time>
      </trkpt>
      <trkpt lat="43.42651" lon="6.06322">
        <ele>196.39999389648</ele>
        <time>2013-10-19T15:18:23Z</time>
      </trkpt>
      <trkpt lat="43.42648" lon="6.06321">
        <ele>196</ele>
        <time>2013-10-19T15:18:24Z</time>
      </trkpt>
      <trkpt lat="43.42645" lon="6.06321">
        <ele>195.60000610352</ele>
        <time>2013-10-19T15:18:25Z</time>
      </trkpt>
      <trkpt lat="43.4264" lon="6.06322">
        <ele>195.60000610352</ele>
        <time>2013-10-19T15:18:26Z</time>
      </trkpt>
      <trkpt lat="43.42631" lon="6.0632">
        <ele>195.60000610352</ele>
        <time>2013-10-19T15:18:28Z</time>
      </trkpt>
      <trkpt lat="43.42621" lon="6.06315">
        <ele>195.60000610352</ele>
        <time>2013-10-19T15:18:30Z</time>
      </trkpt>
      <trkpt lat="43.42611" lon="6.06311">
        <ele>194.80000305176</ele>
        <time>2013-10-19T15:18:32Z</time>
      </trkpt>
      <trkpt lat="43.42605" lon="6.06309">
        <ele>194.39999389648</ele>
        <time>2013-10-19T15:18:33Z</time>
      </trkpt>
      <trkpt lat="43.426" lon="6.06311">
        <ele>194</ele>
        <time>2013-10-19T15:18:34Z</time>
      </trkpt>
      <trkpt lat="43.42595" lon="6.06313">
        <ele>193.60000610352</ele>
        <time>2013-10-19T15:18:35Z</time>
      </trkpt>
      <trkpt lat="43.42583" lon="6.06321">
        <ele>193.60000610352</ele>
        <time>2013-10-19T15:18:38Z</time>
      </trkpt>
      <trkpt lat="43.42575" lon="6.06329">
        <ele>193</ele>
        <time>2013-10-19T15:18:40Z</time>
      </trkpt>
      <trkpt lat="43.42567" lon="6.06338">
        <ele>192.19999694824</ele>
        <time>2013-10-19T15:18:42Z</time>
      </trkpt>
      <trkpt lat="43.42559" lon="6.06343">
        <ele>191.39999389648</ele>
        <time>2013-10-19T15:18:44Z</time>
      </trkpt>
      <trkpt lat="43.42545" lon="6.06353">
        <ele>191</ele>
        <time>2013-10-19T15:18:47Z</time>
      </trkpt>
      <trkpt lat="43.42537" lon="6.06356">
        <ele>190.19999694824</ele>
        <time>2013-10-19T15:18:49Z</time>
      </trkpt>
      <trkpt lat="43.42533" lon="6.06359">
        <ele>189.80000305176</ele>
        <time>2013-10-19T15:18:50Z</time>
      </trkpt>
      <trkpt lat="43.4253" lon="6.0636">
        <ele>189.39999389648</ele>
        <time>2013-10-19T15:18:51Z</time>
      </trkpt>
      <trkpt lat="43.42508" lon="6.06367">
        <ele>189.39999389648</ele>
        <time>2013-10-19T15:18:56Z</time>
      </trkpt>
      <trkpt lat="43.42497" lon="6.06371">
        <ele>188</ele>
        <time>2013-10-19T15:18:58Z</time>
      </trkpt>
      <trkpt lat="43.42487" lon="6.06377">
        <ele>187.19999694824</ele>
        <time>2013-10-19T15:19:00Z</time>
      </trkpt>
      <trkpt lat="43.42476" lon="6.06378">
        <ele>187.19999694824</ele>
        <time>2013-10-19T15:19:02Z</time>
      </trkpt>
      <trkpt lat="43.4247" lon="6.06379">
        <ele>187.19999694824</ele>
        <time>2013-10-19T15:19:03Z</time>
      </trkpt>
      <trkpt lat="43.42464" lon="6.0638">
        <ele>187.19999694824</ele>
        <time>2013-10-19T15:19:04Z</time>
      </trkpt>
      <trkpt lat="43.42453" lon="6.06382">
        <ele>186.80000305176</ele>
        <time>2013-10-19T15:19:06Z</time>
      </trkpt>
      <trkpt lat="43.42448" lon="6.06384">
        <ele>186.39999389648</ele>
        <time>2013-10-19T15:19:07Z</time>
      </trkpt>
      <trkpt lat="43.42434" lon="6.06394">
        <ele>185.19999694824</ele>
        <time>2013-10-19T15:19:10Z</time>
      </trkpt>
      <trkpt lat="43.42412" lon="6.06408">
        <ele>185.19999694824</ele>
        <time>2013-10-19T15:19:15Z</time>
      </trkpt>
      <trkpt lat="43.42395" lon="6.06403">
        <ele>185.19999694824</ele>
        <time>2013-10-19T15:19:19Z</time>
      </trkpt>
      <trkpt lat="43.4239" lon="6.064">
        <ele>185.19999694824</ele>
        <time>2013-10-19T15:19:20Z</time>
      </trkpt>
      <trkpt lat="43.42375" lon="6.06399">
        <ele>184.60000610352</ele>
        <time>2013-10-19T15:19:23Z</time>
      </trkpt>
      <trkpt lat="43.4237" lon="6.06401">
        <ele>184.19999694824</ele>
        <time>2013-10-19T15:19:24Z</time>
      </trkpt>
      <trkpt lat="43.42355" lon="6.06416">
        <ele>183</ele>
        <time>2013-10-19T15:19:28Z</time>
      </trkpt>
      <trkpt lat="43.42344" lon="6.06427">
        <ele>183</ele>
        <time>2013-10-19T15:19:31Z</time>
      </trkpt>
      <trkpt lat="43.42336" lon="6.06433">
        <ele>183</ele>
        <time>2013-10-19T15:19:33Z</time>
      </trkpt>
      <trkpt lat="43.42323" lon="6.06441">
        <ele>183</ele>
        <time>2013-10-19T15:19:36Z</time>
      </trkpt>
      <trkpt lat="43.42309" lon="6.06454">
        <ele>183</ele>
        <time>2013-10-19T15:19:39Z</time>
      </trkpt>
      <trkpt lat="43.42294" lon="6.06471">
        <ele>182.39999389648</ele>
        <time>2013-10-19T15:19:42Z</time>
      </trkpt>
      <trkpt lat="43.42289" lon="6.06477">
        <ele>182</ele>
        <time>2013-10-19T15:19:43Z</time>
      </trkpt>
      <trkpt lat="43.42281" lon="6.06491">
        <ele>181</ele>
        <time>2013-10-19T15:19:45Z</time>
      </trkpt>
      <trkpt lat="43.42275" lon="6.06498">
        <ele>180.60000610352</ele>
        <time>2013-10-19T15:19:46Z</time>
      </trkpt>
      <trkpt lat="43.4227" lon="6.06503">
        <ele>179.80000305176</ele>
        <time>2013-10-19T15:19:47Z</time>
      </trkpt>
      <trkpt lat="43.42263" lon="6.06508">
        <ele>179.39999389648</ele>
        <time>2013-10-19T15:19:48Z</time>
      </trkpt>
      <trkpt lat="43.42256" lon="6.06512">
        <ele>179</ele>
        <time>2013-10-19T15:19:49Z</time>
      </trkpt>
      <trkpt lat="43.4225" lon="6.06514">
        <ele>178.39999389648</ele>
        <time>2013-10-19T15:19:50Z</time>
      </trkpt>
      <trkpt lat="43.42244" lon="6.06514">
        <ele>177.80000305176</ele>
        <time>2013-10-19T15:19:51Z</time>
      </trkpt>
      <trkpt lat="43.42238" lon="6.06513">
        <ele>177.39999389648</ele>
        <time>2013-10-19T15:19:52Z</time>
      </trkpt>
      <trkpt lat="43.42231" lon="6.06513">
        <ele>176.80000305176</ele>
        <time>2013-10-19T15:19:53Z</time>
      </trkpt>
      <trkpt lat="43.4221" lon="6.06509">
        <ele>176</ele>
        <time>2013-10-19T15:19:56Z</time>
      </trkpt>
      <trkpt lat="43.42204" lon="6.06509">
        <ele>175.60000610352</ele>
        <time>2013-10-19T15:19:57Z</time>
      </trkpt>
      <trkpt lat="43.42197" lon="6.0651">
        <ele>175</ele>
        <time>2013-10-19T15:19:58Z</time>
      </trkpt>
      <trkpt lat="43.42192" lon="6.06509">
        <ele>174.60000610352</ele>
        <time>2013-10-19T15:19:59Z</time>
      </trkpt>
      <trkpt lat="43.4219" lon="6.06505">
        <ele>174</ele>
        <time>2013-10-19T15:20:00Z</time>
      </trkpt>
      <trkpt lat="43.42189" lon="6.06496">
        <ele>172.80000305176</ele>
        <time>2013-10-19T15:20:02Z</time>
      </trkpt>
      <trkpt lat="43.42189" lon="6.06492">
        <ele>172.19999694824</ele>
        <time>2013-10-19T15:20:03Z</time>
      </trkpt>
      <trkpt lat="43.42183" lon="6.06461">
        <ele>172.19999694824</ele>
        <time>2013-10-19T15:20:10Z</time>
      </trkpt>
      <trkpt lat="43.42181" lon="6.06458">
        <ele>172.19999694824</ele>
        <time>2013-10-19T15:20:12Z</time>
      </trkpt>
      <trkpt lat="43.42181" lon="6.06458">
        <ele>172.19999694824</ele>
        <time>2013-10-19T15:20:14Z</time>
      </trkpt>
      <trkpt lat="43.42181" lon="6.06458">
        <ele>172.19999694824</ele>
        <time>2013-10-19T15:20:41Z</time>
      </trkpt>
      <trkpt lat="43.42181" lon="6.06458">
        <ele>172.19999694824</ele>
        <time>2013-10-19T15:21:12Z</time>
      </trkpt>
      <trkpt lat="43.42181" lon="6.06455">
        <ele>172.19999694824</ele>
        <time>2013-10-19T15:21:24Z</time>
      </trkpt>
      <trkpt lat="43.4218" lon="6.06455">
        <ele>172.19999694824</ele>
        <time>2013-10-19T15:21:25Z</time>
      </trkpt>
      <trkpt lat="43.4218" lon="6.06454">
        <ele>172.19999694824</ele>
        <time>2013-10-19T15:21:30Z</time>
      </trkpt>
      <trkpt lat="43.4218" lon="6.06455">
        <ele>172.19999694824</ele>
        <time>2013-10-19T15:21:35Z</time>
      </trkpt>
      <trkpt lat="43.4218" lon="6.06455">
        <ele>172.19999694824</ele>
        <time>2013-10-19T15:21:50Z</time>
      </trkpt>
      <trkpt lat="43.4218" lon="6.06454">
        <ele>172.19999694824</ele>
        <time>2013-10-19T15:22:53Z</time>
      </trkpt>
      <trkpt lat="43.4218" lon="6.06454">
        <ele>172.19999694824</ele>
        <time>2013-10-19T15:23:19Z</time>
      </trkpt>
      <trkpt lat="43.4218" lon="6.06454">
        <ele>172.19999694824</ele>
        <time>2013-10-19T15:23:44Z</time>
      </trkpt>
      <trkpt lat="43.4218" lon="6.06454">
        <ele>172.19999694824</ele>
        <time>2013-10-19T15:24:05Z</time>
      </trkpt>
      <trkpt lat="43.42181" lon="6.06454">
        <ele>172.19999694824</ele>
        <time>2013-10-19T15:24:13Z</time>
      </trkpt>
      <trkpt lat="43.42181" lon="6.06454">
        <ele>172.19999694824</ele>
        <time>2013-10-19T15:24:36Z</time>
      </trkpt>
      <trkpt lat="43.42181" lon="6.06454">
        <ele>172.19999694824</ele>
        <time>2013-10-19T15:24:55Z</time>
      </trkpt>
      <trkpt lat="43.42181" lon="6.06454">
        <ele>172.19999694824</ele>
        <time>2013-10-19T15:25:00Z</time>
      </trkpt>
      <trkpt lat="43.4218" lon="6.06454">
        <ele>172.19999694824</ele>
        <time>2013-10-19T15:25:04Z</time>
      </trkpt>
      <trkpt lat="43.4218" lon="6.06446">
        <ele>172.19999694824</ele>
        <time>2013-10-19T15:25:07Z</time>
      </trkpt>
      <trkpt lat="43.42179" lon="6.0644">
        <ele>172.19999694824</ele>
        <time>2013-10-19T15:25:09Z</time>
      </trkpt>
      <trkpt lat="43.42176" lon="6.06424">
        <ele>172.19999694824</ele>
        <time>2013-10-19T15:25:13Z</time>
      </trkpt>
      <trkpt lat="43.4217" lon="6.06396">
        <ele>172.19999694824</ele>
        <time>2013-10-19T15:25:19Z</time>
      </trkpt>
      <trkpt lat="43.42169" lon="6.06391">
        <ele>172.19999694824</ele>
        <time>2013-10-19T15:25:20Z</time>
      </trkpt>
      <trkpt lat="43.42165" lon="6.06365">
        <ele>172.19999694824</ele>
        <time>2013-10-19T15:25:25Z</time>
      </trkpt>
      <trkpt lat="43.42164" lon="6.06355">
        <ele>172.19999694824</ele>
        <time>2013-10-19T15:25:27Z</time>
      </trkpt>
      <trkpt lat="43.4216" lon="6.06328">
        <ele>172.19999694824</ele>
        <time>2013-10-19T15:25:33Z</time>
      </trkpt>
      <trkpt lat="43.42159" lon="6.06314">
        <ele>172.19999694824</ele>
        <time>2013-10-19T15:25:36Z</time>
      </trkpt>
      <trkpt lat="43.42159" lon="6.06304">
        <ele>172.19999694824</ele>
        <time>2013-10-19T15:25:38Z</time>
      </trkpt>
      <trkpt lat="43.42159" lon="6.06293">
        <ele>172.19999694824</ele>
        <time>2013-10-19T15:25:40Z</time>
      </trkpt>
      <trkpt lat="43.42159" lon="6.06281">
        <ele>172.60000610352</ele>
        <time>2013-10-19T15:25:42Z</time>
      </trkpt>
      <trkpt lat="43.42159" lon="6.06275">
        <ele>173</ele>
        <time>2013-10-19T15:25:43Z</time>
      </trkpt>
      <trkpt lat="43.42159" lon="6.0627">
        <ele>173.39999389648</ele>
        <time>2013-10-19T15:25:44Z</time>
      </trkpt>
      <trkpt lat="43.42159" lon="6.06259">
        <ele>174.19999694824</ele>
        <time>2013-10-19T15:25:46Z</time>
      </trkpt>
      <trkpt lat="43.42158" lon="6.0625">
        <ele>174.19999694824</ele>
        <time>2013-10-19T15:25:48Z</time>
      </trkpt>
      <trkpt lat="43.42157" lon="6.06243">
        <ele>175.19999694824</ele>
        <time>2013-10-19T15:25:50Z</time>
      </trkpt>
      <trkpt lat="43.42157" lon="6.0624">
        <ele>175.60000610352</ele>
        <time>2013-10-19T15:25:51Z</time>
      </trkpt>
      <trkpt lat="43.42157" lon="6.06237">
        <ele>176</ele>
        <time>2013-10-19T15:25:52Z</time>
      </trkpt>
      <trkpt lat="43.42156" lon="6.06232">
        <ele>176.60000610352</ele>
        <time>2013-10-19T15:25:54Z</time>
      </trkpt>
      <trkpt lat="43.42151" lon="6.06221">
        <ele>176.60000610352</ele>
        <time>2013-10-19T15:25:59Z</time>
      </trkpt>
      <trkpt lat="43.42147" lon="6.06218">
        <ele>176.60000610352</ele>
        <time>2013-10-19T15:26:02Z</time>
      </trkpt>
      <trkpt lat="43.42141" lon="6.0622">
        <ele>176.60000610352</ele>
        <time>2013-10-19T15:26:05Z</time>
      </trkpt>
      <trkpt lat="43.42124" lon="6.06226">
        <ele>176.60000610352</ele>
        <time>2013-10-19T15:26:10Z</time>
      </trkpt>
      <trkpt lat="43.42093" lon="6.06236">
        <ele>176.60000610352</ele>
        <time>2013-10-19T15:26:16Z</time>
      </trkpt>
      <trkpt lat="43.42065" lon="6.06245">
        <ele>176</ele>
        <time>2013-10-19T15:26:20Z</time>
      </trkpt>
      <trkpt lat="43.42059" lon="6.06248">
        <ele>175.60000610352</ele>
        <time>2013-10-19T15:26:21Z</time>
      </trkpt>
      <trkpt lat="43.42039" lon="6.06254">
        <ele>173</ele>
        <time>2013-10-19T15:26:24Z</time>
      </trkpt>
      <trkpt lat="43.42032" lon="6.06256">
        <ele>172.19999694824</ele>
        <time>2013-10-19T15:26:25Z</time>
      </trkpt>
      <trkpt lat="43.42024" lon="6.06258">
        <ele>171.39999389648</ele>
        <time>2013-10-19T15:26:26Z</time>
      </trkpt>
      <trkpt lat="43.42016" lon="6.06261">
        <ele>170.39999389648</ele>
        <time>2013-10-19T15:26:27Z</time>
      </trkpt>
      <trkpt lat="43.42008" lon="6.06263">
        <ele>169.80000305176</ele>
        <time>2013-10-19T15:26:28Z</time>
      </trkpt>
      <trkpt lat="43.41998" lon="6.06266">
        <ele>169</ele>
        <time>2013-10-19T15:26:29Z</time>
      </trkpt>
      <trkpt lat="43.41989" lon="6.0627">
        <ele>168.19999694824</ele>
        <time>2013-10-19T15:26:30Z</time>
      </trkpt>
      <trkpt lat="43.41979" lon="6.06274">
        <ele>167.39999389648</ele>
        <time>2013-10-19T15:26:31Z</time>
      </trkpt>
      <trkpt lat="43.4194" lon="6.06287">
        <ele>163.39999389648</ele>
        <time>2013-10-19T15:26:35Z</time>
      </trkpt>
      <trkpt lat="43.41924" lon="6.06292">
        <ele>161.60000610352</ele>
        <time>2013-10-19T15:26:37Z</time>
      </trkpt>
      <trkpt lat="43.41915" lon="6.06294">
        <ele>160.60000610352</ele>
        <time>2013-10-19T15:26:38Z</time>
      </trkpt>
      <trkpt lat="43.41907" lon="6.06295">
        <ele>159.80000305176</ele>
        <time>2013-10-19T15:26:39Z</time>
      </trkpt>
      <trkpt lat="43.41898" lon="6.06294">
        <ele>158.80000305176</ele>
        <time>2013-10-19T15:26:40Z</time>
      </trkpt>
      <trkpt lat="43.4187" lon="6.06292">
        <ele>158</ele>
        <time>2013-10-19T15:26:43Z</time>
      </trkpt>
      <trkpt lat="43.4186" lon="6.06292">
        <ele>157.60000610352</ele>
        <time>2013-10-19T15:26:44Z</time>
      </trkpt>
      <trkpt lat="43.4184" lon="6.06291">
        <ele>156.60000610352</ele>
        <time>2013-10-19T15:26:46Z</time>
      </trkpt>
      <trkpt lat="43.4183" lon="6.06291">
        <ele>155.39999389648</ele>
        <time>2013-10-19T15:26:47Z</time>
      </trkpt>
      <trkpt lat="43.41822" lon="6.06291">
        <ele>155</ele>
        <time>2013-10-19T15:26:48Z</time>
      </trkpt>
      <trkpt lat="43.41813" lon="6.0629">
        <ele>154.39999389648</ele>
        <time>2013-10-19T15:26:49Z</time>
      </trkpt>
      <trkpt lat="43.41805" lon="6.06287">
        <ele>153.80000305176</ele>
        <time>2013-10-19T15:26:50Z</time>
      </trkpt>
      <trkpt lat="43.4179" lon="6.06275">
        <ele>152.60000610352</ele>
        <time>2013-10-19T15:26:52Z</time>
      </trkpt>
      <trkpt lat="43.41783" lon="6.06269">
        <ele>152.19999694824</ele>
        <time>2013-10-19T15:26:53Z</time>
      </trkpt>
      <trkpt lat="43.41776" lon="6.06264">
        <ele>152.19999694824</ele>
        <time>2013-10-19T15:26:54Z</time>
      </trkpt>
      <trkpt lat="43.41767" lon="6.0626">
        <ele>151.60000610352</ele>
        <time>2013-10-19T15:26:55Z</time>
      </trkpt>
      <trkpt lat="43.4176" lon="6.06256">
        <ele>151.19999694824</ele>
        <time>2013-10-19T15:26:56Z</time>
      </trkpt>
      <trkpt lat="43.41754" lon="6.06253">
        <ele>150.80000305176</ele>
        <time>2013-10-19T15:26:57Z</time>
      </trkpt>
      <trkpt lat="43.41749" lon="6.06252">
        <ele>150.39999389648</ele>
        <time>2013-10-19T15:26:58Z</time>
      </trkpt>
      <trkpt lat="43.41743" lon="6.06252">
        <ele>149.80000305176</ele>
        <time>2013-10-19T15:26:59Z</time>
      </trkpt>
      <trkpt lat="43.41731" lon="6.06249">
        <ele>149</ele>
        <time>2013-10-19T15:27:01Z</time>
      </trkpt>
      <trkpt lat="43.41724" lon="6.06249">
        <ele>148.60000610352</ele>
        <time>2013-10-19T15:27:02Z</time>
      </trkpt>
      <trkpt lat="43.41718" lon="6.06249">
        <ele>148.19999694824</ele>
        <time>2013-10-19T15:27:03Z</time>
      </trkpt>
      <trkpt lat="43.41711" lon="6.06249">
        <ele>147.80000305176</ele>
        <time>2013-10-19T15:27:04Z</time>
      </trkpt>
      <trkpt lat="43.41692" lon="6.0625">
        <ele>147.80000305176</ele>
        <time>2013-10-19T15:27:07Z</time>
      </trkpt>
      <trkpt lat="43.41667" lon="6.06246">
        <ele>147.39999389648</ele>
        <time>2013-10-19T15:27:11Z</time>
      </trkpt>
      <trkpt lat="43.41661" lon="6.06245">
        <ele>146.60000610352</ele>
        <time>2013-10-19T15:27:12Z</time>
      </trkpt>
      <trkpt lat="43.41655" lon="6.06243">
        <ele>146.19999694824</ele>
        <time>2013-10-19T15:27:13Z</time>
      </trkpt>
      <trkpt lat="43.4165" lon="6.06241">
        <ele>145.80000305176</ele>
        <time>2013-10-19T15:27:14Z</time>
      </trkpt>
      <trkpt lat="43.41644" lon="6.06239">
        <ele>145.80000305176</ele>
        <time>2013-10-19T15:27:15Z</time>
      </trkpt>
      <trkpt lat="43.41628" lon="6.06226">
        <ele>145.80000305176</ele>
        <time>2013-10-19T15:27:18Z</time>
      </trkpt>
      <trkpt lat="43.41618" lon="6.06213">
        <ele>145.80000305176</ele>
        <time>2013-10-19T15:27:21Z</time>
      </trkpt>
      <trkpt lat="43.41614" lon="6.06209">
        <ele>145.39999389648</ele>
        <time>2013-10-19T15:27:22Z</time>
      </trkpt>
      <trkpt lat="43.41606" lon="6.06204">
        <ele>144.60000610352</ele>
        <time>2013-10-19T15:27:24Z</time>
      </trkpt>
      <trkpt lat="43.41603" lon="6.06203">
        <ele>144.19999694824</ele>
        <time>2013-10-19T15:27:25Z</time>
      </trkpt>
      <trkpt lat="43.41602" lon="6.06203">
        <ele>143.80000305176</ele>
        <time>2013-10-19T15:27:26Z</time>
      </trkpt>
      <trkpt lat="43.41597" lon="6.06199">
        <ele>143.80000305176</ele>
        <time>2013-10-19T15:27:29Z</time>
      </trkpt>
      <trkpt lat="43.41591" lon="6.06183">
        <ele>143.80000305176</ele>
        <time>2013-10-19T15:27:34Z</time>
      </trkpt>
      <trkpt lat="43.41587" lon="6.06175">
        <ele>143.80000305176</ele>
        <time>2013-10-19T15:27:37Z</time>
      </trkpt>
      <trkpt lat="43.41586" lon="6.06175">
        <ele>143.80000305176</ele>
        <time>2013-10-19T15:27:38Z</time>
      </trkpt>
      <trkpt lat="43.41583" lon="6.06176">
        <ele>143.80000305176</ele>
        <time>2013-10-19T15:27:42Z</time>
      </trkpt>
      <trkpt lat="43.41584" lon="6.06176">
        <ele>143.80000305176</ele>
        <time>2013-10-19T15:27:44Z</time>
      </trkpt>
      <trkpt lat="43.41583" lon="6.06176">
        <ele>143.80000305176</ele>
        <time>2013-10-19T15:27:47Z</time>
      </trkpt>
      <trkpt lat="43.4158" lon="6.06177">
        <ele>143.80000305176</ele>
        <time>2013-10-19T15:27:49Z</time>
      </trkpt>
      <trkpt lat="43.41575" lon="6.06178">
        <ele>143.80000305176</ele>
        <time>2013-10-19T15:27:52Z</time>
      </trkpt>
      <trkpt lat="43.41565" lon="6.06174">
        <ele>143.80000305176</ele>
        <time>2013-10-19T15:27:55Z</time>
      </trkpt>
      <trkpt lat="43.41553" lon="6.06176">
        <ele>143.80000305176</ele>
        <time>2013-10-19T15:27:59Z</time>
      </trkpt>
      <trkpt lat="43.4155" lon="6.06178">
        <ele>143.80000305176</ele>
        <time>2013-10-19T15:28:00Z</time>
      </trkpt>
      <trkpt lat="43.41541" lon="6.06182">
        <ele>143.39999389648</ele>
        <time>2013-10-19T15:28:03Z</time>
      </trkpt>
      <trkpt lat="43.41537" lon="6.06182">
        <ele>142.80000305176</ele>
        <time>2013-10-19T15:28:04Z</time>
      </trkpt>
      <trkpt lat="43.41533" lon="6.06183">
        <ele>142.39999389648</ele>
        <time>2013-10-19T15:28:05Z</time>
      </trkpt>
      <trkpt lat="43.41529" lon="6.06184">
        <ele>142</ele>
        <time>2013-10-19T15:28:06Z</time>
      </trkpt>
      <trkpt lat="43.41523" lon="6.06185">
        <ele>141.60000610352</ele>
        <time>2013-10-19T15:28:07Z</time>
      </trkpt>
      <trkpt lat="43.41512" lon="6.06187">
        <ele>141.60000610352</ele>
        <time>2013-10-19T15:28:09Z</time>
      </trkpt>
      <trkpt lat="43.41496" lon="6.06187">
        <ele>141.60000610352</ele>
        <time>2013-10-19T15:28:12Z</time>
      </trkpt>
      <trkpt lat="43.41485" lon="6.06186">
        <ele>141.60000610352</ele>
        <time>2013-10-19T15:28:14Z</time>
      </trkpt>
      <trkpt lat="43.4148" lon="6.06185">
        <ele>141.60000610352</ele>
        <time>2013-10-19T15:28:15Z</time>
      </trkpt>
      <trkpt lat="43.41456" lon="6.06179">
        <ele>140.39999389648</ele>
        <time>2013-10-19T15:28:21Z</time>
      </trkpt>
      <trkpt lat="43.41452" lon="6.06178">
        <ele>140</ele>
        <time>2013-10-19T15:28:22Z</time>
      </trkpt>
      <trkpt lat="43.41449" lon="6.06177">
        <ele>139.60000610352</ele>
        <time>2013-10-19T15:28:23Z</time>
      </trkpt>
      <trkpt lat="43.41426" lon="6.06172">
        <ele>139.60000610352</ele>
        <time>2013-10-19T15:28:29Z</time>
      </trkpt>
      <trkpt lat="43.41414" lon="6.06166">
        <ele>139.60000610352</ele>
        <time>2013-10-19T15:28:32Z</time>
      </trkpt>
      <trkpt lat="43.41396" lon="6.06153">
        <ele>139.60000610352</ele>
        <time>2013-10-19T15:28:36Z</time>
      </trkpt>
      <trkpt lat="43.41388" lon="6.06144">
        <ele>139.19999694824</ele>
        <time>2013-10-19T15:28:38Z</time>
      </trkpt>
      <trkpt lat="43.41378" lon="6.06134">
        <ele>138.19999694824</ele>
        <time>2013-10-19T15:28:40Z</time>
      </trkpt>
      <trkpt lat="43.41374" lon="6.06129">
        <ele>137.80000305176</ele>
        <time>2013-10-19T15:28:41Z</time>
      </trkpt>
      <trkpt lat="43.41369" lon="6.06123">
        <ele>137.39999389648</ele>
        <time>2013-10-19T15:28:42Z</time>
      </trkpt>
      <trkpt lat="43.41359" lon="6.06113">
        <ele>137</ele>
        <time>2013-10-19T15:28:44Z</time>
      </trkpt>
      <trkpt lat="43.41354" lon="6.06108">
        <ele>136.60000610352</ele>
        <time>2013-10-19T15:28:45Z</time>
      </trkpt>
      <trkpt lat="43.41348" lon="6.06102">
        <ele>136.19999694824</ele>
        <time>2013-10-19T15:28:46Z</time>
      </trkpt>
      <trkpt lat="43.41343" lon="6.06097">
        <ele>135.60000610352</ele>
        <time>2013-10-19T15:28:47Z</time>
      </trkpt>
      <trkpt lat="43.41338" lon="6.06091">
        <ele>135.19999694824</ele>
        <time>2013-10-19T15:28:48Z</time>
      </trkpt>
      <trkpt lat="43.41317" lon="6.06069">
        <ele>134.80000305176</ele>
        <time>2013-10-19T15:28:52Z</time>
      </trkpt>
      <trkpt lat="43.41312" lon="6.06065">
        <ele>134.39999389648</ele>
        <time>2013-10-19T15:28:53Z</time>
      </trkpt>
      <trkpt lat="43.41308" lon="6.06062">
        <ele>134</ele>
        <time>2013-10-19T15:28:54Z</time>
      </trkpt>
      <trkpt lat="43.41303" lon="6.0606">
        <ele>133.60000610352</ele>
        <time>2013-10-19T15:28:55Z</time>
      </trkpt>
      <trkpt lat="43.41298" lon="6.06061">
        <ele>133.19999694824</ele>
        <time>2013-10-19T15:28:56Z</time>
      </trkpt>
      <trkpt lat="43.4129" lon="6.06064">
        <ele>133.19999694824</ele>
        <time>2013-10-19T15:28:58Z</time>
      </trkpt>
      <trkpt lat="43.41282" lon="6.06069">
        <ele>133.19999694824</ele>
        <time>2013-10-19T15:29:00Z</time>
      </trkpt>
      <trkpt lat="43.4127" lon="6.06076">
        <ele>133.19999694824</ele>
        <time>2013-10-19T15:29:03Z</time>
      </trkpt>
      <trkpt lat="43.41261" lon="6.0608">
        <ele>132.60000610352</ele>
        <time>2013-10-19T15:29:05Z</time>
      </trkpt>
      <trkpt lat="43.41244" lon="6.0609">
        <ele>131</ele>
        <time>2013-10-19T15:29:09Z</time>
      </trkpt>
      <trkpt lat="43.41228" lon="6.061">
        <ele>131</ele>
        <time>2013-10-19T15:29:13Z</time>
      </trkpt>
      <trkpt lat="43.41207" lon="6.0611">
        <ele>130.60000610352</ele>
        <time>2013-10-19T15:29:18Z</time>
      </trkpt>
      <trkpt lat="43.41204" lon="6.06112">
        <ele>130.19999694824</ele>
        <time>2013-10-19T15:29:19Z</time>
      </trkpt>
      <trkpt lat="43.41201" lon="6.06114">
        <ele>129.80000305176</ele>
        <time>2013-10-19T15:29:20Z</time>
      </trkpt>
      <trkpt lat="43.41199" lon="6.06115">
        <ele>129.39999389648</ele>
        <time>2013-10-19T15:29:21Z</time>
      </trkpt>
      <trkpt lat="43.41198" lon="6.06116">
        <ele>129</ele>
        <time>2013-10-19T15:29:22Z</time>
      </trkpt>
      <trkpt lat="43.41197" lon="6.06117">
        <ele>129</ele>
        <time>2013-10-19T15:29:23Z</time>
      </trkpt>
      <trkpt lat="43.41194" lon="6.0612">
        <ele>129</ele>
        <time>2013-10-19T15:29:25Z</time>
      </trkpt>
      <trkpt lat="43.41192" lon="6.06126">
        <ele>129</ele>
        <time>2013-10-19T15:29:27Z</time>
      </trkpt>
      <trkpt lat="43.41193" lon="6.06134">
        <ele>129</ele>
        <time>2013-10-19T15:29:29Z</time>
      </trkpt>
      <trkpt lat="43.41191" lon="6.06145">
        <ele>129</ele>
        <time>2013-10-19T15:29:32Z</time>
      </trkpt>
      <trkpt lat="43.41192" lon="6.06154">
        <ele>129</ele>
        <time>2013-10-19T15:29:34Z</time>
      </trkpt>
      <trkpt lat="43.41194" lon="6.06165">
        <ele>129</ele>
        <time>2013-10-19T15:29:36Z</time>
      </trkpt>
      <trkpt lat="43.41196" lon="6.06199">
        <ele>129</ele>
        <time>2013-10-19T15:29:43Z</time>
      </trkpt>
      <trkpt lat="43.41186" lon="6.06205">
        <ele>129</ele>
        <time>2013-10-19T15:29:46Z</time>
      </trkpt>
      <trkpt lat="43.41178" lon="6.06205">
        <ele>129</ele>
        <time>2013-10-19T15:29:48Z</time>
      </trkpt>
      <trkpt lat="43.41166" lon="6.06208">
        <ele>129</ele>
        <time>2013-10-19T15:29:51Z</time>
      </trkpt>
      <trkpt lat="43.41148" lon="6.06214">
        <ele>129</ele>
        <time>2013-10-19T15:29:56Z</time>
      </trkpt>
      <trkpt lat="43.41129" lon="6.06224">
        <ele>129</ele>
        <time>2013-10-19T15:30:01Z</time>
      </trkpt>
      <trkpt lat="43.41113" lon="6.06227">
        <ele>128.19999694824</ele>
        <time>2013-10-19T15:30:06Z</time>
      </trkpt>
      <trkpt lat="43.41105" lon="6.06231">
        <ele>127.40000152588</ele>
        <time>2013-10-19T15:30:08Z</time>
      </trkpt>
      <trkpt lat="43.41101" lon="6.06233">
        <ele>127</ele>
        <time>2013-10-19T15:30:09Z</time>
      </trkpt>
      <trkpt lat="43.41052" lon="6.06251">
        <ele>127</ele>
        <time>2013-10-19T15:30:21Z</time>
      </trkpt>
      <trkpt lat="43.41022" lon="6.06256">
        <ele>127</ele>
        <time>2013-10-19T15:30:28Z</time>
      </trkpt>
      <trkpt lat="43.40991" lon="6.06259">
        <ele>127</ele>
        <time>2013-10-19T15:30:35Z</time>
      </trkpt>
      <trkpt lat="43.40969" lon="6.06258">
        <ele>127</ele>
        <time>2013-10-19T15:30:41Z</time>
      </trkpt>
      <trkpt lat="43.40964" lon="6.06255">
        <ele>127</ele>
        <time>2013-10-19T15:30:44Z</time>
      </trkpt>
      <trkpt lat="43.40962" lon="6.06256">
        <ele>127</ele>
        <time>2013-10-19T15:30:45Z</time>
      </trkpt>
      <trkpt lat="43.40954" lon="6.06263">
        <ele>127</ele>
        <time>2013-10-19T15:30:50Z</time>
      </trkpt>
      <trkpt lat="43.40952" lon="6.0627">
        <ele>127</ele>
        <time>2013-10-19T15:30:52Z</time>
      </trkpt>
      <trkpt lat="43.4095" lon="6.0628">
        <ele>127</ele>
        <time>2013-10-19T15:30:54Z</time>
      </trkpt>
      <trkpt lat="43.40943" lon="6.06294">
        <ele>127</ele>
        <time>2013-10-19T15:30:58Z</time>
      </trkpt>
      <trkpt lat="43.40923" lon="6.06319">
        <ele>127</ele>
        <time>2013-10-19T15:31:05Z</time>
      </trkpt>
      <trkpt lat="43.40898" lon="6.06352">
        <ele>127</ele>
        <time>2013-10-19T15:31:13Z</time>
      </trkpt>
      <trkpt lat="43.40877" lon="6.06379">
        <ele>127</ele>
        <time>2013-10-19T15:31:18Z</time>
      </trkpt>
      <trkpt lat="43.40872" lon="6.06385">
        <ele>126.59999847412</ele>
        <time>2013-10-19T15:31:19Z</time>
      </trkpt>
      <trkpt lat="43.40863" lon="6.06396">
        <ele>125.80000305176</ele>
        <time>2013-10-19T15:31:21Z</time>
      </trkpt>
      <trkpt lat="43.40857" lon="6.06401">
        <ele>125.40000152588</ele>
        <time>2013-10-19T15:31:22Z</time>
      </trkpt>
      <trkpt lat="43.40852" lon="6.06405">
        <ele>125</ele>
        <time>2013-10-19T15:31:23Z</time>
      </trkpt>
      <trkpt lat="43.40845" lon="6.06409">
        <ele>125</ele>
        <time>2013-10-19T15:31:24Z</time>
      </trkpt>
      <trkpt lat="43.40821" lon="6.06419">
        <ele>125</ele>
        <time>2013-10-19T15:31:28Z</time>
      </trkpt>
      <trkpt lat="43.40815" lon="6.06418">
        <ele>125</ele>
        <time>2013-10-19T15:31:29Z</time>
      </trkpt>
      <trkpt lat="43.40792" lon="6.06409">
        <ele>125</ele>
        <time>2013-10-19T15:31:33Z</time>
      </trkpt>
      <trkpt lat="43.40781" lon="6.0641">
        <ele>125</ele>
        <time>2013-10-19T15:31:36Z</time>
      </trkpt>
      <trkpt lat="43.40778" lon="6.06411">
        <ele>125</ele>
        <time>2013-10-19T15:31:37Z</time>
      </trkpt>
      <trkpt lat="43.40776" lon="6.06413">
        <ele>125</ele>
        <time>2013-10-19T15:31:40Z</time>
      </trkpt>
      <trkpt lat="43.40772" lon="6.06415">
        <ele>125</ele>
        <time>2013-10-19T15:31:46Z</time>
      </trkpt>
      <trkpt lat="43.40759" lon="6.0642">
        <ele>125</ele>
        <time>2013-10-19T15:31:52Z</time>
      </trkpt>
      <trkpt lat="43.40738" lon="6.06424">
        <ele>125</ele>
        <time>2013-10-19T15:31:58Z</time>
      </trkpt>
      <trkpt lat="43.40716" lon="6.06426">
        <ele>125</ele>
        <time>2013-10-19T15:32:04Z</time>
      </trkpt>
      <trkpt lat="43.40712" lon="6.06427">
        <ele>125</ele>
        <time>2013-10-19T15:32:05Z</time>
      </trkpt>
      <trkpt lat="43.40692" lon="6.06435">
        <ele>125</ele>
        <time>2013-10-19T15:32:11Z</time>
      </trkpt>
      <trkpt lat="43.40688" lon="6.06435">
        <ele>125.40000152588</ele>
        <time>2013-10-19T15:32:12Z</time>
      </trkpt>
      <trkpt lat="43.40662" lon="6.06458">
        <ele>127</ele>
        <time>2013-10-19T15:32:21Z</time>
      </trkpt>
      <trkpt lat="43.40654" lon="6.06467">
        <ele>127.40000152588</ele>
        <time>2013-10-19T15:32:24Z</time>
      </trkpt>
      <trkpt lat="43.40649" lon="6.06473">
        <ele>128.39999389648</ele>
        <time>2013-10-19T15:32:26Z</time>
      </trkpt>
      <trkpt lat="43.40631" lon="6.0649">
        <ele>130</ele>
        <time>2013-10-19T15:32:33Z</time>
      </trkpt>
      <trkpt lat="43.40627" lon="6.06494">
        <ele>130.80000305176</ele>
        <time>2013-10-19T15:32:35Z</time>
      </trkpt>
      <trkpt lat="43.40612" lon="6.06505">
        <ele>131.19999694824</ele>
        <time>2013-10-19T15:32:41Z</time>
      </trkpt>
      <trkpt lat="43.4061" lon="6.06505">
        <ele>131.60000610352</ele>
        <time>2013-10-19T15:32:42Z</time>
      </trkpt>
      <trkpt lat="43.40602" lon="6.06505">
        <ele>132.80000305176</ele>
        <time>2013-10-19T15:32:45Z</time>
      </trkpt>
      <trkpt lat="43.406" lon="6.06505">
        <ele>133.19999694824</ele>
        <time>2013-10-19T15:32:46Z</time>
      </trkpt>
      <trkpt lat="43.40587" lon="6.06501">
        <ele>133.19999694824</ele>
        <time>2013-10-19T15:32:52Z</time>
      </trkpt>
      <trkpt lat="43.40573" lon="6.06497">
        <ele>135</ele>
        <time>2013-10-19T15:32:59Z</time>
      </trkpt>
      <trkpt lat="43.4056" lon="6.06495">
        <ele>135.39999389648</ele>
        <time>2013-10-19T15:33:06Z</time>
      </trkpt>
      <trkpt lat="43.40546" lon="6.06492">
        <ele>135.39999389648</ele>
        <time>2013-10-19T15:33:13Z</time>
      </trkpt>
      <trkpt lat="43.4053" lon="6.06485">
        <ele>137.39999389648</ele>
        <time>2013-10-19T15:33:20Z</time>
      </trkpt>
      <trkpt lat="43.4052" lon="6.06479">
        <ele>137.39999389648</ele>
        <time>2013-10-19T15:33:25Z</time>
      </trkpt>
      <trkpt lat="43.40505" lon="6.06471">
        <ele>137.39999389648</ele>
        <time>2013-10-19T15:33:31Z</time>
      </trkpt>
      <trkpt lat="43.40494" lon="6.0647">
        <ele>138.60000610352</ele>
        <time>2013-10-19T15:33:36Z</time>
      </trkpt>
      <trkpt lat="43.40489" lon="6.06468">
        <ele>139.39999389648</ele>
        <time>2013-10-19T15:33:38Z</time>
      </trkpt>
      <trkpt lat="43.40482" lon="6.06466">
        <ele>139.39999389648</ele>
        <time>2013-10-19T15:33:41Z</time>
      </trkpt>
      <trkpt lat="43.40451" lon="6.06456">
        <ele>139.39999389648</ele>
        <time>2013-10-19T15:33:54Z</time>
      </trkpt>
      <trkpt lat="43.40444" lon="6.06456">
        <ele>139.80000305176</ele>
        <time>2013-10-19T15:33:57Z</time>
      </trkpt>
      <trkpt lat="43.40436" lon="6.06455">
        <ele>141</ele>
        <time>2013-10-19T15:34:00Z</time>
      </trkpt>
      <trkpt lat="43.40434" lon="6.06454">
        <ele>141.39999389648</ele>
        <time>2013-10-19T15:34:01Z</time>
      </trkpt>
      <trkpt lat="43.40432" lon="6.06455">
        <ele>141.39999389648</ele>
        <time>2013-10-19T15:34:02Z</time>
      </trkpt>
      <trkpt lat="43.4042" lon="6.06459">
        <ele>141.39999389648</ele>
        <time>2013-10-19T15:34:07Z</time>
      </trkpt>
      <trkpt lat="43.40413" lon="6.06475">
        <ele>141.39999389648</ele>
        <time>2013-10-19T15:34:11Z</time>
      </trkpt>
      <trkpt lat="43.40409" lon="6.06492">
        <ele>141.39999389648</ele>
        <time>2013-10-19T15:34:15Z</time>
      </trkpt>
      <trkpt lat="43.40404" lon="6.06513">
        <ele>141.39999389648</ele>
        <time>2013-10-19T15:34:20Z</time>
      </trkpt>
      <trkpt lat="43.40404" lon="6.06517">
        <ele>141.39999389648</ele>
        <time>2013-10-19T15:34:21Z</time>
      </trkpt>
      <trkpt lat="43.40403" lon="6.06527">
        <ele>141.39999389648</ele>
        <time>2013-10-19T15:34:24Z</time>
      </trkpt>
      <trkpt lat="43.40402" lon="6.06532">
        <ele>141.39999389648</ele>
        <time>2013-10-19T15:34:27Z</time>
      </trkpt>
      <trkpt lat="43.40404" lon="6.06534">
        <ele>141.39999389648</ele>
        <time>2013-10-19T15:34:28Z</time>
      </trkpt>
      <trkpt lat="43.40407" lon="6.06539">
        <ele>141.39999389648</ele>
        <time>2013-10-19T15:34:31Z</time>
      </trkpt>
      <trkpt lat="43.40407" lon="6.0654">
        <ele>141.39999389648</ele>
        <time>2013-10-19T15:34:32Z</time>
      </trkpt>
      <trkpt lat="43.40407" lon="6.06541">
        <ele>141.39999389648</ele>
        <time>2013-10-19T15:34:38Z</time>
      </trkpt>
      <trkpt lat="43.40407" lon="6.06541">
        <ele>141.39999389648</ele>
        <time>2013-10-19T15:34:56Z</time>
      </trkpt>
      <trkpt lat="43.40407" lon="6.06541">
        <ele>141.39999389648</ele>
        <time>2013-10-19T15:35:10Z</time>
      </trkpt>
      <trkpt lat="43.40407" lon="6.06541">
        <ele>141.39999389648</ele>
        <time>2013-10-19T15:35:14Z</time>
      </trkpt>
      <trkpt lat="43.40407" lon="6.06541">
        <ele>141.39999389648</ele>
        <time>2013-10-19T15:35:45Z</time>
      </trkpt>
    </trkseg>
  </trk>
</gpx>